<?xml version="1.0" encoding="UTF-8"?>
<gpx version="1.0" creator="Trackator" xmlns:xsi="http://www.w3.org/2001/XMLSchema-instance" xmlns="http://www.topografix.com/GPX/1/0" xmlns:topografix="http://www.topografix.com/GPX/Private/TopoGrafix/0/1" xsi:schemaLocation="http://www.topografix.com/GPX/1/0 http://www.topografix.com/GPX/1/0/gpx.xsd http://www.topografix.com/GPX/Private/TopoGrafix/0/1 http://www.topografix.com/GPX/Private/TopoGrafix/0/1/topografix.xsd">
<metadata>
<link href="http://www.trackalia.com">
<text>Trackator</text>
</link>
</metadata>
<time>2013-06-02T:56:17Z</time>
<trk>
<name>Track: </name>
<desc>Paragliding</desc>
<trkseg>
<trkpt lat="38.23193" lon="-1.120407">
<ele>439</ele>
<time>2013-06-02T:56:17Z</time>
</trkpt>
<trkpt lat="38.23193" lon="-1.120407">
<ele>439</ele>
<time>2013-06-02T18:56:18Z</time>
</trkpt>
<trkpt lat="38.231934" lon="-1.1204338">
<ele>437</ele>
<time>2013-06-02T18:56:19Z</time>
</trkpt>
<trkpt lat="38.23193" lon="-1.1204284">
<ele>438</ele>
<time>2013-06-02T18:56:20Z</time>
</trkpt>
<trkpt lat="38.23193" lon="-1.1204284">
<ele>438</ele>
<time>2013-06-02T18:56:21Z</time>
</trkpt>
<trkpt lat="38.23193" lon="-1.1204231">
<ele>438</ele>
<time>2013-06-02T18:56:22Z</time>
</trkpt>
<trkpt lat="38.23191" lon="-1.1204177">
<ele>439</ele>
<time>2013-06-02T18:56:23Z</time>
</trkpt>
<trkpt lat="38.231907" lon="-1.1204123">
<ele>438</ele>
<time>2013-06-02T18:56:24Z</time>
</trkpt>
<trkpt lat="38.23191" lon="-1.1204016">
<ele>439</ele>
<time>2013-06-02T18:56:27Z</time>
</trkpt>
<trkpt lat="38.23192" lon="-1.1203963">
<ele>439</ele>
<time>2013-06-02T18:56:28Z</time>
</trkpt>
<trkpt lat="38.231922" lon="-1.1203963">
<ele>439</ele>
<time>2013-06-02T18:56:29Z</time>
</trkpt>
<trkpt lat="38.231922" lon="-1.1203963">
<ele>439</ele>
<time>2013-06-02T18:56:30Z</time>
</trkpt>
<trkpt lat="38.231922" lon="-1.1203963">
<ele>440</ele>
<time>2013-06-02T18:56:31Z</time>
</trkpt>
<trkpt lat="38.231922" lon="-1.1203963">
<ele>440</ele>
<time>2013-06-02T18:56:32Z</time>
</trkpt>
<trkpt lat="38.231922" lon="-1.1203963">
<ele>440</ele>
<time>2013-06-02T18:56:33Z</time>
</trkpt>
<trkpt lat="38.231922" lon="-1.1203963">
<ele>440</ele>
<time>2013-06-02T18:56:34Z</time>
</trkpt>
<trkpt lat="38.231922" lon="-1.1203963">
<ele>440</ele>
<time>2013-06-02T18:56:35Z</time>
</trkpt>
<trkpt lat="38.23191" lon="-1.1203963">
<ele>441</ele>
<time>2013-06-02T18:56:36Z</time>
</trkpt>
<trkpt lat="38.231907" lon="-1.1204016">
<ele>442</ele>
<time>2013-06-02T18:56:37Z</time>
</trkpt>
<trkpt lat="38.231903" lon="-1.1203963">
<ele>441</ele>
<time>2013-06-02T18:56:40Z</time>
</trkpt>
<trkpt lat="38.231903" lon="-1.1204016">
<ele>441</ele>
<time>2013-06-02T18:56:41Z</time>
</trkpt>
<trkpt lat="38.231903" lon="-1.1203963">
<ele>441</ele>
<time>2013-06-02T18:56:42Z</time>
</trkpt>
<trkpt lat="38.231903" lon="-1.1204016">
<ele>441</ele>
<time>2013-06-02T18:56:43Z</time>
</trkpt>
<trkpt lat="38.231903" lon="-1.1203963">
<ele>440</ele>
<time>2013-06-02T18:56:44Z</time>
</trkpt>
<trkpt lat="38.231903" lon="-1.1203963">
<ele>440</ele>
<time>2013-06-02T18:56:45Z</time>
</trkpt>
<trkpt lat="38.231907" lon="-1.1204016">
<ele>439</ele>
<time>2013-06-02T18:56:46Z</time>
</trkpt>
<trkpt lat="38.231907" lon="-1.1204016">
<ele>439</ele>
<time>2013-06-02T18:56:47Z</time>
</trkpt>
<trkpt lat="38.231907" lon="-1.1204016">
<ele>439</ele>
<time>2013-06-02T18:56:48Z</time>
</trkpt>
<trkpt lat="38.231907" lon="-1.1204016">
<ele>439</ele>
<time>2013-06-02T18:56:49Z</time>
</trkpt>
<trkpt lat="38.231907" lon="-1.1204016">
<ele>439</ele>
<time>2013-06-02T18:56:50Z</time>
</trkpt>
<trkpt lat="38.231907" lon="-1.1204016">
<ele>439</ele>
<time>2013-06-02T18:56:53Z</time>
</trkpt>
<trkpt lat="38.231907" lon="-1.1204016">
<ele>439</ele>
<time>2013-06-02T18:56:54Z</time>
</trkpt>
<trkpt lat="38.231907" lon="-1.1204016">
<ele>439</ele>
<time>2013-06-02T18:56:55Z</time>
</trkpt>
<trkpt lat="38.231907" lon="-1.1204016">
<ele>439</ele>
<time>2013-06-02T18:56:56Z</time>
</trkpt>
<trkpt lat="38.231907" lon="-1.1204016">
<ele>439</ele>
<time>2013-06-02T18:56:57Z</time>
</trkpt>
<trkpt lat="38.231907" lon="-1.1204016">
<ele>439</ele>
<time>2013-06-02T18:56:58Z</time>
</trkpt>
<trkpt lat="38.231907" lon="-1.1204016">
<ele>439</ele>
<time>2013-06-02T18:56:59Z</time>
</trkpt>
<trkpt lat="38.231907" lon="-1.1204016">
<ele>439</ele>
<time>2013-06-02T18:57:00Z</time>
</trkpt>
<trkpt lat="38.231907" lon="-1.1204016">
<ele>439</ele>
<time>2013-06-02T18:57:01Z</time>
</trkpt>
<trkpt lat="38.231907" lon="-1.1204016">
<ele>439</ele>
<time>2013-06-02T18:57:02Z</time>
</trkpt>
<trkpt lat="38.231907" lon="-1.1204016">
<ele>439</ele>
<time>2013-06-02T18:57:03Z</time>
</trkpt>
<trkpt lat="38.231907" lon="-1.1204016">
<ele>439</ele>
<time>2013-06-02T18:57:06Z</time>
</trkpt>
<trkpt lat="38.231907" lon="-1.1204016">
<ele>439</ele>
<time>2013-06-02T18:57:07Z</time>
</trkpt>
<trkpt lat="38.231907" lon="-1.1204016">
<ele>439</ele>
<time>2013-06-02T18:57:08Z</time>
</trkpt>
<trkpt lat="38.231907" lon="-1.1204016">
<ele>439</ele>
<time>2013-06-02T18:57:09Z</time>
</trkpt>
<trkpt lat="38.231907" lon="-1.1204016">
<ele>439</ele>
<time>2013-06-02T18:57:10Z</time>
</trkpt>
<trkpt lat="38.231907" lon="-1.1204016">
<ele>439</ele>
<time>2013-06-02T18:57:11Z</time>
</trkpt>
<trkpt lat="38.231907" lon="-1.1204016">
<ele>439</ele>
<time>2013-06-02T18:57:12Z</time>
</trkpt>
<trkpt lat="38.231907" lon="-1.1204016">
<ele>439</ele>
<time>2013-06-02T18:57:13Z</time>
</trkpt>
<trkpt lat="38.231907" lon="-1.1204016">
<ele>439</ele>
<time>2013-06-02T18:57:14Z</time>
</trkpt>
<trkpt lat="38.231907" lon="-1.1204016">
<ele>439</ele>
<time>2013-06-02T18:57:15Z</time>
</trkpt>
<trkpt lat="38.231907" lon="-1.1204016">
<ele>439</ele>
<time>2013-06-02T18:57:16Z</time>
</trkpt>
<trkpt lat="38.231907" lon="-1.1204016">
<ele>439</ele>
<time>2013-06-02T18:57:19Z</time>
</trkpt>
<trkpt lat="38.231907" lon="-1.1204016">
<ele>439</ele>
<time>2013-06-02T18:57:20Z</time>
</trkpt>
<trkpt lat="38.231907" lon="-1.1204016">
<ele>439</ele>
<time>2013-06-02T18:57:21Z</time>
</trkpt>
<trkpt lat="38.231907" lon="-1.1204016">
<ele>439</ele>
<time>2013-06-02T18:57:22Z</time>
</trkpt>
<trkpt lat="38.231907" lon="-1.1204016">
<ele>439</ele>
<time>2013-06-02T18:57:23Z</time>
</trkpt>
<trkpt lat="38.231907" lon="-1.1204016">
<ele>439</ele>
<time>2013-06-02T18:57:24Z</time>
</trkpt>
<trkpt lat="38.23189" lon="-1.1203748">
<ele>441</ele>
<time>2013-06-02T18:57:25Z</time>
</trkpt>
<trkpt lat="38.231895" lon="-1.1203855">
<ele>440</ele>
<time>2013-06-02T18:57:26Z</time>
</trkpt>
<trkpt lat="38.231895" lon="-1.1203909">
<ele>440</ele>
<time>2013-06-02T18:57:27Z</time>
</trkpt>
<trkpt lat="38.231895" lon="-1.1203909">
<ele>440</ele>
<time>2013-06-02T18:57:28Z</time>
</trkpt>
<trkpt lat="38.231903" lon="-1.1203909">
<ele>440</ele>
<time>2013-06-02T18:57:29Z</time>
</trkpt>
<trkpt lat="38.231903" lon="-1.1203855">
<ele>440</ele>
<time>2013-06-02T18:57:32Z</time>
</trkpt>
<trkpt lat="38.231903" lon="-1.1203855">
<ele>440</ele>
<time>2013-06-02T18:57:33Z</time>
</trkpt>
<trkpt lat="38.231903" lon="-1.1203855">
<ele>440</ele>
<time>2013-06-02T18:57:34Z</time>
</trkpt>
<trkpt lat="38.231903" lon="-1.1203855">
<ele>440</ele>
<time>2013-06-02T18:57:35Z</time>
</trkpt>
<trkpt lat="38.231903" lon="-1.1203909">
<ele>439</ele>
<time>2013-06-02T18:57:36Z</time>
</trkpt>
<trkpt lat="38.231907" lon="-1.1203963">
<ele>438</ele>
<time>2013-06-02T18:57:37Z</time>
</trkpt>
<trkpt lat="38.231907" lon="-1.1203963">
<ele>438</ele>
<time>2013-06-02T18:57:38Z</time>
</trkpt>
<trkpt lat="38.23191" lon="-1.1204016">
<ele>438</ele>
<time>2013-06-02T18:57:39Z</time>
</trkpt>
<trkpt lat="38.23191" lon="-1.1204016">
<ele>438</ele>
<time>2013-06-02T18:57:40Z</time>
</trkpt>
<trkpt lat="38.23191" lon="-1.1204016">
<ele>438</ele>
<time>2013-06-02T18:57:41Z</time>
</trkpt>
<trkpt lat="38.23191" lon="-1.1204016">
<ele>438</ele>
<time>2013-06-02T18:57:42Z</time>
</trkpt>
<trkpt lat="38.23191" lon="-1.1204016">
<ele>438</ele>
<time>2013-06-02T18:57:45Z</time>
</trkpt>
<trkpt lat="38.23192" lon="-1.1203963">
<ele>439</ele>
<time>2013-06-02T18:57:46Z</time>
</trkpt>
<trkpt lat="38.23191" lon="-1.1204016">
<ele>439</ele>
<time>2013-06-02T18:57:47Z</time>
</trkpt>
<trkpt lat="38.23192" lon="-1.1204016">
<ele>439</ele>
<time>2013-06-02T18:57:48Z</time>
</trkpt>
<trkpt lat="38.23192" lon="-1.1204016">
<ele>439</ele>
<time>2013-06-02T18:57:49Z</time>
</trkpt>
<trkpt lat="38.231922" lon="-1.1204016">
<ele>439</ele>
<time>2013-06-02T18:57:50Z</time>
</trkpt>
<trkpt lat="38.23192" lon="-1.1204016">
<ele>439</ele>
<time>2013-06-02T18:57:51Z</time>
</trkpt>
<trkpt lat="38.231922" lon="-1.1204016">
<ele>439</ele>
<time>2013-06-02T18:57:52Z</time>
</trkpt>
<trkpt lat="38.231922" lon="-1.120407">
<ele>439</ele>
<time>2013-06-02T18:57:53Z</time>
</trkpt>
<trkpt lat="38.23193" lon="-1.120407">
<ele>439</ele>
<time>2013-06-02T18:57:54Z</time>
</trkpt>
<trkpt lat="38.231934" lon="-1.1204016">
<ele>438</ele>
<time>2013-06-02T18:57:55Z</time>
</trkpt>
<trkpt lat="38.231937" lon="-1.1204016">
<ele>437</ele>
<time>2013-06-02T18:57:58Z</time>
</trkpt>
<trkpt lat="38.231937" lon="-1.1203963">
<ele>437</ele>
<time>2013-06-02T18:57:59Z</time>
</trkpt>
<trkpt lat="38.231945" lon="-1.1203909">
<ele>436</ele>
<time>2013-06-02T18:58:00Z</time>
</trkpt>
<trkpt lat="38.231945" lon="-1.1203963">
<ele>436</ele>
<time>2013-06-02T18:58:01Z</time>
</trkpt>
<trkpt lat="38.231945" lon="-1.1203963">
<ele>436</ele>
<time>2013-06-02T18:58:02Z</time>
</trkpt>
<trkpt lat="38.231945" lon="-1.1203909">
<ele>436</ele>
<time>2013-06-02T18:58:03Z</time>
</trkpt>
<trkpt lat="38.231945" lon="-1.1203963">
<ele>436</ele>
<time>2013-06-02T18:58:04Z</time>
</trkpt>
<trkpt lat="38.231945" lon="-1.1203963">
<ele>436</ele>
<time>2013-06-02T18:58:05Z</time>
</trkpt>
<trkpt lat="38.231945" lon="-1.1204016">
<ele>436</ele>
<time>2013-06-02T18:58:06Z</time>
</trkpt>
<trkpt lat="38.231945" lon="-1.1204016">
<ele>436</ele>
<time>2013-06-02T18:58:07Z</time>
</trkpt>
<trkpt lat="38.231945" lon="-1.1204016">
<ele>436</ele>
<time>2013-06-02T18:58:08Z</time>
</trkpt>
<trkpt lat="38.231945" lon="-1.1204016">
<ele>435</ele>
<time>2013-06-02T18:58:11Z</time>
</trkpt>
<trkpt lat="38.231945" lon="-1.1204016">
<ele>435</ele>
<time>2013-06-02T18:58:12Z</time>
</trkpt>
<trkpt lat="38.231945" lon="-1.1204016">
<ele>436</ele>
<time>2013-06-02T18:58:13Z</time>
</trkpt>
<trkpt lat="38.231945" lon="-1.1204016">
<ele>436</ele>
<time>2013-06-02T18:58:14Z</time>
</trkpt>
<trkpt lat="38.231945" lon="-1.1204016">
<ele>435</ele>
<time>2013-06-02T18:58:15Z</time>
</trkpt>
<trkpt lat="38.231945" lon="-1.1204016">
<ele>435</ele>
<time>2013-06-02T18:58:16Z</time>
</trkpt>
<trkpt lat="38.231945" lon="-1.1204016">
<ele>435</ele>
<time>2013-06-02T18:58:17Z</time>
</trkpt>
<trkpt lat="38.231945" lon="-1.1203963">
<ele>435</ele>
<time>2013-06-02T18:58:18Z</time>
</trkpt>
<trkpt lat="38.231937" lon="-1.1203963">
<ele>435</ele>
<time>2013-06-02T18:58:19Z</time>
</trkpt>
<trkpt lat="38.231937" lon="-1.1203963">
<ele>435</ele>
<time>2013-06-02T18:58:20Z</time>
</trkpt>
<trkpt lat="38.231937" lon="-1.1203963">
<ele>435</ele>
<time>2013-06-02T18:58:21Z</time>
</trkpt>
<trkpt lat="38.231937" lon="-1.1203963">
<ele>436</ele>
<time>2013-06-02T18:58:24Z</time>
</trkpt>
<trkpt lat="38.231937" lon="-1.1203963">
<ele>435</ele>
<time>2013-06-02T18:58:25Z</time>
</trkpt>
<trkpt lat="38.231937" lon="-1.1204016">
<ele>435</ele>
<time>2013-06-02T18:58:26Z</time>
</trkpt>
<trkpt lat="38.231945" lon="-1.1204016">
<ele>435</ele>
<time>2013-06-02T18:58:27Z</time>
</trkpt>
<trkpt lat="38.231945" lon="-1.1204016">
<ele>435</ele>
<time>2013-06-02T18:58:28Z</time>
</trkpt>
<trkpt lat="38.231945" lon="-1.1204016">
<ele>435</ele>
<time>2013-06-02T18:58:29Z</time>
</trkpt>
<trkpt lat="38.231945" lon="-1.120407">
<ele>435</ele>
<time>2013-06-02T18:58:30Z</time>
</trkpt>
<trkpt lat="38.231945" lon="-1.1204016">
<ele>435</ele>
<time>2013-06-02T18:58:31Z</time>
</trkpt>
<trkpt lat="38.231945" lon="-1.1204016">
<ele>435</ele>
<time>2013-06-02T18:58:32Z</time>
</trkpt>
<trkpt lat="38.231945" lon="-1.120407">
<ele>435</ele>
<time>2013-06-02T18:58:33Z</time>
</trkpt>
<trkpt lat="38.231945" lon="-1.120407">
<ele>435</ele>
<time>2013-06-02T18:58:34Z</time>
</trkpt>
<trkpt lat="38.23195" lon="-1.1204123">
<ele>434</ele>
<time>2013-06-02T18:58:37Z</time>
</trkpt>
<trkpt lat="38.231945" lon="-1.1204123">
<ele>434</ele>
<time>2013-06-02T18:58:38Z</time>
</trkpt>
<trkpt lat="38.231945" lon="-1.1204123">
<ele>434</ele>
<time>2013-06-02T18:58:39Z</time>
</trkpt>
<trkpt lat="38.23195" lon="-1.1204123">
<ele>434</ele>
<time>2013-06-02T18:58:40Z</time>
</trkpt>
<trkpt lat="38.23195" lon="-1.1204123">
<ele>434</ele>
<time>2013-06-02T18:58:41Z</time>
</trkpt>
<trkpt lat="38.23195" lon="-1.1204123">
<ele>434</ele>
<time>2013-06-02T18:58:42Z</time>
</trkpt>
<trkpt lat="38.23195" lon="-1.1204123">
<ele>434</ele>
<time>2013-06-02T18:58:43Z</time>
</trkpt>
<trkpt lat="38.23195" lon="-1.1204177">
<ele>434</ele>
<time>2013-06-02T18:58:44Z</time>
</trkpt>
<trkpt lat="38.23195" lon="-1.1204177">
<ele>434</ele>
<time>2013-06-02T18:58:45Z</time>
</trkpt>
<trkpt lat="38.23195" lon="-1.1204177">
<ele>434</ele>
<time>2013-06-02T18:58:46Z</time>
</trkpt>
<trkpt lat="38.23195" lon="-1.1204177">
<ele>434</ele>
<time>2013-06-02T18:58:47Z</time>
</trkpt>
<trkpt lat="38.23195" lon="-1.1204231">
<ele>435</ele>
<time>2013-06-02T18:58:50Z</time>
</trkpt>
<trkpt lat="38.23195" lon="-1.1204231">
<ele>435</ele>
<time>2013-06-02T18:58:51Z</time>
</trkpt>
<trkpt lat="38.23195" lon="-1.1204231">
<ele>435</ele>
<time>2013-06-02T18:58:52Z</time>
</trkpt>
<trkpt lat="38.23195" lon="-1.1204231">
<ele>435</ele>
<time>2013-06-02T18:58:53Z</time>
</trkpt>
<trkpt lat="38.23195" lon="-1.1204231">
<ele>435</ele>
<time>2013-06-02T18:58:54Z</time>
</trkpt>
<trkpt lat="38.23195" lon="-1.1204231">
<ele>435</ele>
<time>2013-06-02T18:58:55Z</time>
</trkpt>
<trkpt lat="38.23195" lon="-1.1204231">
<ele>435</ele>
<time>2013-06-02T18:58:56Z</time>
</trkpt>
<trkpt lat="38.23195" lon="-1.1204231">
<ele>435</ele>
<time>2013-06-02T18:58:57Z</time>
</trkpt>
<trkpt lat="38.23195" lon="-1.1204231">
<ele>435</ele>
<time>2013-06-02T18:58:58Z</time>
</trkpt>
<trkpt lat="38.23195" lon="-1.1204231">
<ele>435</ele>
<time>2013-06-02T18:58:59Z</time>
</trkpt>
<trkpt lat="38.23195" lon="-1.1204231">
<ele>435</ele>
<time>2013-06-02T18:59:00Z</time>
</trkpt>
<trkpt lat="38.23195" lon="-1.1204231">
<ele>435</ele>
<time>2013-06-02T18:59:03Z</time>
</trkpt>
<trkpt lat="38.23195" lon="-1.1204231">
<ele>436</ele>
<time>2013-06-02T18:59:04Z</time>
</trkpt>
<trkpt lat="38.23195" lon="-1.1204231">
<ele>436</ele>
<time>2013-06-02T18:59:05Z</time>
</trkpt>
<trkpt lat="38.23195" lon="-1.1204231">
<ele>436</ele>
<time>2013-06-02T18:59:06Z</time>
</trkpt>
<trkpt lat="38.23195" lon="-1.1204231">
<ele>436</ele>
<time>2013-06-02T18:59:07Z</time>
</trkpt>
<trkpt lat="38.23195" lon="-1.1204231">
<ele>436</ele>
<time>2013-06-02T18:59:08Z</time>
</trkpt>
<trkpt lat="38.23195" lon="-1.1204231">
<ele>436</ele>
<time>2013-06-02T18:59:09Z</time>
</trkpt>
<trkpt lat="38.23195" lon="-1.1204231">
<ele>436</ele>
<time>2013-06-02T18:59:10Z</time>
</trkpt>
<trkpt lat="38.23195" lon="-1.1204231">
<ele>436</ele>
<time>2013-06-02T18:59:11Z</time>
</trkpt>
<trkpt lat="38.23195" lon="-1.1204231">
<ele>436</ele>
<time>2013-06-02T18:59:12Z</time>
</trkpt>
<trkpt lat="38.23195" lon="-1.1204231">
<ele>436</ele>
<time>2013-06-02T18:59:13Z</time>
</trkpt>
<trkpt lat="38.23195" lon="-1.1204231">
<ele>436</ele>
<time>2013-06-02T18:59:16Z</time>
</trkpt>
<trkpt lat="38.23195" lon="-1.1204231">
<ele>436</ele>
<time>2013-06-02T18:59:17Z</time>
</trkpt>
<trkpt lat="38.23195" lon="-1.1204231">
<ele>436</ele>
<time>2013-06-02T18:59:18Z</time>
</trkpt>
<trkpt lat="38.23195" lon="-1.1204231">
<ele>436</ele>
<time>2013-06-02T18:59:19Z</time>
</trkpt>
<trkpt lat="38.23195" lon="-1.1204231">
<ele>436</ele>
<time>2013-06-02T18:59:20Z</time>
</trkpt>
<trkpt lat="38.23195" lon="-1.1204231">
<ele>436</ele>
<time>2013-06-02T18:59:21Z</time>
</trkpt>
<trkpt lat="38.23195" lon="-1.1204231">
<ele>436</ele>
<time>2013-06-02T18:59:22Z</time>
</trkpt>
<trkpt lat="38.23195" lon="-1.1204231">
<ele>436</ele>
<time>2013-06-02T18:59:23Z</time>
</trkpt>
<trkpt lat="38.23195" lon="-1.1204231">
<ele>436</ele>
<time>2013-06-02T18:59:24Z</time>
</trkpt>
<trkpt lat="38.23195" lon="-1.1204231">
<ele>436</ele>
<time>2013-06-02T18:59:25Z</time>
</trkpt>
<trkpt lat="38.231937" lon="-1.1204123">
<ele>435</ele>
<time>2013-06-02T18:59:26Z</time>
</trkpt>
<trkpt lat="38.23193" lon="-1.120466">
<ele>435</ele>
<time>2013-06-02T18:59:29Z</time>
</trkpt>
<trkpt lat="38.23191" lon="-1.1204606">
<ele>436</ele>
<time>2013-06-02T18:59:30Z</time>
</trkpt>
<trkpt lat="38.23191" lon="-1.1204606">
<ele>436</ele>
<time>2013-06-02T18:59:31Z</time>
</trkpt>
<trkpt lat="38.23191" lon="-1.1204606">
<ele>436</ele>
<time>2013-06-02T18:59:32Z</time>
</trkpt>
<trkpt lat="38.23191" lon="-1.1204553">
<ele>436</ele>
<time>2013-06-02T18:59:33Z</time>
</trkpt>
<trkpt lat="38.23191" lon="-1.1204499">
<ele>437</ele>
<time>2013-06-02T18:59:34Z</time>
</trkpt>
<trkpt lat="38.23191" lon="-1.1204392">
<ele>435</ele>
<time>2013-06-02T18:59:35Z</time>
</trkpt>
<trkpt lat="38.23191" lon="-1.1204392">
<ele>435</ele>
<time>2013-06-02T18:59:36Z</time>
</trkpt>
<trkpt lat="38.23191" lon="-1.1204284">
<ele>435</ele>
<time>2013-06-02T18:59:37Z</time>
</trkpt>
<trkpt lat="38.23191" lon="-1.1204338">
<ele>435</ele>
<time>2013-06-02T18:59:38Z</time>
</trkpt>
<trkpt lat="38.23191" lon="-1.1204338">
<ele>434</ele>
<time>2013-06-02T18:59:39Z</time>
</trkpt>
<trkpt lat="38.23192" lon="-1.1204231">
<ele>435</ele>
<time>2013-06-02T18:59:42Z</time>
</trkpt>
<trkpt lat="38.23192" lon="-1.1204177">
<ele>435</ele>
<time>2013-06-02T18:59:43Z</time>
</trkpt>
<trkpt lat="38.23192" lon="-1.1204177">
<ele>435</ele>
<time>2013-06-02T18:59:44Z</time>
</trkpt>
<trkpt lat="38.231922" lon="-1.1204177">
<ele>434</ele>
<time>2013-06-02T18:59:45Z</time>
</trkpt>
<trkpt lat="38.231922" lon="-1.1204231">
<ele>434</ele>
<time>2013-06-02T18:59:46Z</time>
</trkpt>
<trkpt lat="38.231922" lon="-1.1204231">
<ele>434</ele>
<time>2013-06-02T18:59:47Z</time>
</trkpt>
<trkpt lat="38.231934" lon="-1.1204123">
<ele>434</ele>
<time>2013-06-02T18:59:48Z</time>
</trkpt>
<trkpt lat="38.231934" lon="-1.1204123">
<ele>433</ele>
<time>2013-06-02T18:59:49Z</time>
</trkpt>
<trkpt lat="38.23193" lon="-1.1204177">
<ele>433</ele>
<time>2013-06-02T18:59:50Z</time>
</trkpt>
<trkpt lat="38.23193" lon="-1.1204177">
<ele>433</ele>
<time>2013-06-02T18:59:51Z</time>
</trkpt>
<trkpt lat="38.23193" lon="-1.1204177">
<ele>433</ele>
<time>2013-06-02T18:59:52Z</time>
</trkpt>
<trkpt lat="38.231937" lon="-1.1204177">
<ele>435</ele>
<time>2013-06-02T18:59:55Z</time>
</trkpt>
<trkpt lat="38.231934" lon="-1.1204231">
<ele>435</ele>
<time>2013-06-02T18:59:56Z</time>
</trkpt>
<trkpt lat="38.231934" lon="-1.1204177">
<ele>436</ele>
<time>2013-06-02T18:59:57Z</time>
</trkpt>
<trkpt lat="38.231934" lon="-1.1204177">
<ele>436</ele>
<time>2013-06-02T18:59:58Z</time>
</trkpt>
<trkpt lat="38.231934" lon="-1.1204177">
<ele>436</ele>
<time>2013-06-02T18:59:59Z</time>
</trkpt>
<trkpt lat="38.231934" lon="-1.1204177">
<ele>436</ele>
<time>2013-06-02T19:00:00Z</time>
</trkpt>
<trkpt lat="38.23193" lon="-1.1204177">
<ele>437</ele>
<time>2013-06-02T19:00:01Z</time>
</trkpt>
<trkpt lat="38.23193" lon="-1.1204177">
<ele>436</ele>
<time>2013-06-02T19:00:02Z</time>
</trkpt>
<trkpt lat="38.231934" lon="-1.1204177">
<ele>436</ele>
<time>2013-06-02T19:00:03Z</time>
</trkpt>
<trkpt lat="38.231934" lon="-1.1204123">
<ele>436</ele>
<time>2013-06-02T19:00:04Z</time>
</trkpt>
<trkpt lat="38.23193" lon="-1.1204123">
<ele>437</ele>
<time>2013-06-02T19:00:05Z</time>
</trkpt>
<trkpt lat="38.231934" lon="-1.1204231">
<ele>436</ele>
<time>2013-06-02T19:00:08Z</time>
</trkpt>
<trkpt lat="38.23193" lon="-1.1204284">
<ele>436</ele>
<time>2013-06-02T19:00:09Z</time>
</trkpt>
<trkpt lat="38.231922" lon="-1.1204392">
<ele>437</ele>
<time>2013-06-02T19:00:10Z</time>
</trkpt>
<trkpt lat="38.231907" lon="-1.1204445">
<ele>438</ele>
<time>2013-06-02T19:00:11Z</time>
</trkpt>
<trkpt lat="38.23189" lon="-1.1204553">
<ele>438</ele>
<time>2013-06-02T19:00:12Z</time>
</trkpt>
<trkpt lat="38.231865" lon="-1.120466">
<ele>439</ele>
<time>2013-06-02T19:00:13Z</time>
</trkpt>
<trkpt lat="38.23184" lon="-1.1204767">
<ele>439</ele>
<time>2013-06-02T19:00:14Z</time>
</trkpt>
<trkpt lat="38.23182" lon="-1.1204875">
<ele>440</ele>
<time>2013-06-02T19:00:15Z</time>
</trkpt>
<trkpt lat="38.231792" lon="-1.1204875">
<ele>440</ele>
<time>2013-06-02T19:00:16Z</time>
</trkpt>
<trkpt lat="38.231766" lon="-1.1204606">
<ele>442</ele>
<time>2013-06-02T19:00:17Z</time>
</trkpt>
<trkpt lat="38.231762" lon="-1.1204392">
<ele>442</ele>
<time>2013-06-02T19:00:18Z</time>
</trkpt>
<trkpt lat="38.23174" lon="-1.1204177">
<ele>444</ele>
<time>2013-06-02T19:00:21Z</time>
</trkpt>
<trkpt lat="38.231735" lon="-1.120407">
<ele>444</ele>
<time>2013-06-02T19:00:22Z</time>
</trkpt>
<trkpt lat="38.23173" lon="-1.1203909">
<ele>444</ele>
<time>2013-06-02T19:00:23Z</time>
</trkpt>
<trkpt lat="38.231735" lon="-1.1203855">
<ele>445</ele>
<time>2013-06-02T19:00:24Z</time>
</trkpt>
<trkpt lat="38.231735" lon="-1.1203748">
<ele>446</ele>
<time>2013-06-02T19:00:25Z</time>
</trkpt>
<trkpt lat="38.23174" lon="-1.1203641">
<ele>446</ele>
<time>2013-06-02T19:00:26Z</time>
</trkpt>
<trkpt lat="38.23175" lon="-1.1203587">
<ele>447</ele>
<time>2013-06-02T19:00:27Z</time>
</trkpt>
<trkpt lat="38.231724" lon="-1.1203158">
<ele>448</ele>
<time>2013-06-02T19:00:28Z</time>
</trkpt>
<trkpt lat="38.23171" lon="-1.120289">
<ele>448</ele>
<time>2013-06-02T19:00:29Z</time>
</trkpt>
<trkpt lat="38.231697" lon="-1.1202729">
<ele>449</ele>
<time>2013-06-02T19:00:30Z</time>
</trkpt>
<trkpt lat="38.231667" lon="-1.1202675">
<ele>449</ele>
<time>2013-06-02T19:00:31Z</time>
</trkpt>
<trkpt lat="38.231567" lon="-1.1203748">
<ele>449</ele>
<time>2013-06-02T19:00:34Z</time>
</trkpt>
<trkpt lat="38.231537" lon="-1.1204123">
<ele>450</ele>
<time>2013-06-02T19:00:35Z</time>
</trkpt>
<trkpt lat="38.231506" lon="-1.1204499">
<ele>450</ele>
<time>2013-06-02T19:00:36Z</time>
</trkpt>
<trkpt lat="38.231472" lon="-1.1204982">
<ele>452</ele>
<time>2013-06-02T19:00:37Z</time>
</trkpt>
<trkpt lat="38.231434" lon="-1.1205465">
<ele>453</ele>
<time>2013-06-02T19:00:38Z</time>
</trkpt>
<trkpt lat="38.231403" lon="-1.1205947">
<ele>454</ele>
<time>2013-06-02T19:00:39Z</time>
</trkpt>
<trkpt lat="38.23137" lon="-1.1206323">
<ele>455</ele>
<time>2013-06-02T19:00:40Z</time>
</trkpt>
<trkpt lat="38.231335" lon="-1.1206537">
<ele>456</ele>
<time>2013-06-02T19:00:41Z</time>
</trkpt>
<trkpt lat="38.2313" lon="-1.1206752">
<ele>456</ele>
<time>2013-06-02T19:00:42Z</time>
</trkpt>
<trkpt lat="38.23126" lon="-1.1206967">
<ele>457</ele>
<time>2013-06-02T19:00:43Z</time>
</trkpt>
<trkpt lat="38.23122" lon="-1.1207235">
<ele>458</ele>
<time>2013-06-02T19:00:44Z</time>
</trkpt>
<trkpt lat="38.231113" lon="-1.1207771">
<ele>459</ele>
<time>2013-06-02T19:00:47Z</time>
</trkpt>
<trkpt lat="38.231075" lon="-1.1207825">
<ele>459</ele>
<time>2013-06-02T19:00:48Z</time>
</trkpt>
<trkpt lat="38.231037" lon="-1.1207825">
<ele>459</ele>
<time>2013-06-02T19:00:49Z</time>
</trkpt>
<trkpt lat="38.231007" lon="-1.1207664">
<ele>459</ele>
<time>2013-06-02T19:00:50Z</time>
</trkpt>
<trkpt lat="38.23098" lon="-1.1207503">
<ele>460</ele>
<time>2013-06-02T19:00:51Z</time>
</trkpt>
<trkpt lat="38.230965" lon="-1.1207235">
<ele>460</ele>
<time>2013-06-02T19:00:52Z</time>
</trkpt>
<trkpt lat="38.230957" lon="-1.1206967">
<ele>460</ele>
<time>2013-06-02T19:00:53Z</time>
</trkpt>
<trkpt lat="38.230972" lon="-1.1206645">
<ele>461</ele>
<time>2013-06-02T19:00:54Z</time>
</trkpt>
<trkpt lat="38.231" lon="-1.120643">
<ele>461</ele>
<time>2013-06-02T19:00:55Z</time>
</trkpt>
<trkpt lat="38.231037" lon="-1.1206377">
<ele>461</ele>
<time>2013-06-02T19:00:56Z</time>
</trkpt>
<trkpt lat="38.23109" lon="-1.1206108">
<ele>461</ele>
<time>2013-06-02T19:00:57Z</time>
</trkpt>
<trkpt lat="38.231335" lon="-1.1205465">
<ele>462</ele>
<time>2013-06-02T19:01:00Z</time>
</trkpt>
<trkpt lat="38.23142" lon="-1.120525">
<ele>462</ele>
<time>2013-06-02T19:01:01Z</time>
</trkpt>
<trkpt lat="38.231483" lon="-1.1205089">
<ele>461</ele>
<time>2013-06-02T19:01:02Z</time>
</trkpt>
<trkpt lat="38.23155" lon="-1.1204982">
<ele>461</ele>
<time>2013-06-02T19:01:03Z</time>
</trkpt>
<trkpt lat="38.231617" lon="-1.1204821">
<ele>463</ele>
<time>2013-06-02T19:01:04Z</time>
</trkpt>
<trkpt lat="38.231678" lon="-1.1204553">
<ele>464</ele>
<time>2013-06-02T19:01:05Z</time>
</trkpt>
<trkpt lat="38.231735" lon="-1.1204284">
<ele>463</ele>
<time>2013-06-02T19:01:06Z</time>
</trkpt>
<trkpt lat="38.231777" lon="-1.1203855">
<ele>463</ele>
<time>2013-06-02T19:01:07Z</time>
</trkpt>
<trkpt lat="38.23181" lon="-1.1203587">
<ele>463</ele>
<time>2013-06-02T19:01:08Z</time>
</trkpt>
<trkpt lat="38.23183" lon="-1.1203158">
<ele>463</ele>
<time>2013-06-02T19:01:09Z</time>
</trkpt>
<trkpt lat="38.231857" lon="-1.1202782">
<ele>462</ele>
<time>2013-06-02T19:01:10Z</time>
</trkpt>
<trkpt lat="38.231934" lon="-1.1202031">
<ele>461</ele>
<time>2013-06-02T19:01:13Z</time>
</trkpt>
<trkpt lat="38.23195" lon="-1.120187">
<ele>460</ele>
<time>2013-06-02T19:01:14Z</time>
</trkpt>
<trkpt lat="38.23196" lon="-1.1201495">
<ele>459</ele>
<time>2013-06-02T19:01:15Z</time>
</trkpt>
<trkpt lat="38.231976" lon="-1.1201173">
<ele>459</ele>
<time>2013-06-02T19:01:16Z</time>
</trkpt>
<trkpt lat="38.232002" lon="-1.1200744">
<ele>459</ele>
<time>2013-06-02T19:01:17Z</time>
</trkpt>
<trkpt lat="38.232025" lon="-1.1200529">
<ele>458</ele>
<time>2013-06-02T19:01:18Z</time>
</trkpt>
<trkpt lat="38.232048" lon="-1.1200315">
<ele>458</ele>
<time>2013-06-02T19:01:19Z</time>
</trkpt>
<trkpt lat="38.232056" lon="-1.1200047">
<ele>458</ele>
<time>2013-06-02T19:01:20Z</time>
</trkpt>
<trkpt lat="38.232056" lon="-1.1199778">
<ele>457</ele>
<time>2013-06-02T19:01:21Z</time>
</trkpt>
<trkpt lat="38.232075" lon="-1.119951">
<ele>457</ele>
<time>2013-06-02T19:01:22Z</time>
</trkpt>
<trkpt lat="38.23205" lon="-1.1199242">
<ele>459</ele>
<time>2013-06-02T19:01:23Z</time>
</trkpt>
<trkpt lat="38.23196" lon="-1.1198974">
<ele>464</ele>
<time>2013-06-02T19:01:26Z</time>
</trkpt>
<trkpt lat="38.231937" lon="-1.119892">
<ele>465</ele>
<time>2013-06-02T19:01:27Z</time>
</trkpt>
<trkpt lat="38.23191" lon="-1.1198759">
<ele>467</ele>
<time>2013-06-02T19:01:28Z</time>
</trkpt>
<trkpt lat="38.23189" lon="-1.1198705">
<ele>468</ele>
<time>2013-06-02T19:01:29Z</time>
</trkpt>
<trkpt lat="38.23187" lon="-1.1198598">
<ele>469</ele>
<time>2013-06-02T19:01:30Z</time>
</trkpt>
<trkpt lat="38.231842" lon="-1.1198652">
<ele>469</ele>
<time>2013-06-02T19:01:31Z</time>
</trkpt>
<trkpt lat="38.231804" lon="-1.1198705">
<ele>469</ele>
<time>2013-06-02T19:01:32Z</time>
</trkpt>
<trkpt lat="38.231773" lon="-1.1199135">
<ele>469</ele>
<time>2013-06-02T19:01:33Z</time>
</trkpt>
<trkpt lat="38.23174" lon="-1.119951">
<ele>467</ele>
<time>2013-06-02T19:01:34Z</time>
</trkpt>
<trkpt lat="38.231705" lon="-1.1199832">
<ele>467</ele>
<time>2013-06-02T19:01:35Z</time>
</trkpt>
<trkpt lat="38.23166" lon="-1.1199993">
<ele>468</ele>
<time>2013-06-02T19:01:36Z</time>
</trkpt>
<trkpt lat="38.23154" lon="-1.1200958">
<ele>467</ele>
<time>2013-06-02T19:01:39Z</time>
</trkpt>
<trkpt lat="38.2315" lon="-1.1201334">
<ele>467</ele>
<time>2013-06-02T19:01:40Z</time>
</trkpt>
<trkpt lat="38.23146" lon="-1.1202353">
<ele>467</ele>
<time>2013-06-02T19:01:41Z</time>
</trkpt>
<trkpt lat="38.23142" lon="-1.1203051">
<ele>467</ele>
<time>2013-06-02T19:01:42Z</time>
</trkpt>
<trkpt lat="38.23137" lon="-1.1203533">
<ele>467</ele>
<time>2013-06-02T19:01:43Z</time>
</trkpt>
<trkpt lat="38.23131" lon="-1.1204123">
<ele>467</ele>
<time>2013-06-02T19:01:44Z</time>
</trkpt>
<trkpt lat="38.23126" lon="-1.1204767">
<ele>467</ele>
<time>2013-06-02T19:01:45Z</time>
</trkpt>
<trkpt lat="38.231216" lon="-1.1205357">
<ele>467</ele>
<time>2013-06-02T19:01:46Z</time>
</trkpt>
<trkpt lat="38.231182" lon="-1.1205894">
<ele>467</ele>
<time>2013-06-02T19:01:47Z</time>
</trkpt>
<trkpt lat="38.23115" lon="-1.120643">
<ele>467</ele>
<time>2013-06-02T19:01:48Z</time>
</trkpt>
<trkpt lat="38.231113" lon="-1.1206806">
<ele>468</ele>
<time>2013-06-02T19:01:49Z</time>
</trkpt>
<trkpt lat="38.23102" lon="-1.1207503">
<ele>466</ele>
<time>2013-06-02T19:01:52Z</time>
</trkpt>
<trkpt lat="38.230995" lon="-1.1207771">
<ele>465</ele>
<time>2013-06-02T19:01:53Z</time>
</trkpt>
<trkpt lat="38.23098" lon="-1.1207825">
<ele>465</ele>
<time>2013-06-02T19:01:54Z</time>
</trkpt>
<trkpt lat="38.23097" lon="-1.1207503">
<ele>464</ele>
<time>2013-06-02T19:01:55Z</time>
</trkpt>
<trkpt lat="38.230957" lon="-1.1207342">
<ele>464</ele>
<time>2013-06-02T19:01:56Z</time>
</trkpt>
<trkpt lat="38.23097" lon="-1.1207181">
<ele>464</ele>
<time>2013-06-02T19:01:57Z</time>
</trkpt>
<trkpt lat="38.230995" lon="-1.1206913">
<ele>465</ele>
<time>2013-06-02T19:01:58Z</time>
</trkpt>
<trkpt lat="38.231052" lon="-1.1206645">
<ele>466</ele>
<time>2013-06-02T19:01:59Z</time>
</trkpt>
<trkpt lat="38.23113" lon="-1.1206216">
<ele>466</ele>
<time>2013-06-02T19:02:00Z</time>
</trkpt>
<trkpt lat="38.231216" lon="-1.1205626">
<ele>466</ele>
<time>2013-06-02T19:02:01Z</time>
</trkpt>
<trkpt lat="38.231285" lon="-1.1205035">
<ele>467</ele>
<time>2013-06-02T19:02:02Z</time>
</trkpt>
<trkpt lat="38.23145" lon="-1.1203587">
<ele>466</ele>
<time>2013-06-02T19:02:05Z</time>
</trkpt>
<trkpt lat="38.231472" lon="-1.1202997">
<ele>466</ele>
<time>2013-06-02T19:02:06Z</time>
</trkpt>
<trkpt lat="38.231506" lon="-1.120246">
<ele>466</ele>
<time>2013-06-02T19:02:07Z</time>
</trkpt>
<trkpt lat="38.231525" lon="-1.1201924">
<ele>466</ele>
<time>2013-06-02T19:02:08Z</time>
</trkpt>
<trkpt lat="38.231564" lon="-1.1201388">
<ele>465</ele>
<time>2013-06-02T19:02:09Z</time>
</trkpt>
<trkpt lat="38.231613" lon="-1.1201066">
<ele>466</ele>
<time>2013-06-02T19:02:10Z</time>
</trkpt>
<trkpt lat="38.23165" lon="-1.1200422">
<ele>465</ele>
<time>2013-06-02T19:02:11Z</time>
</trkpt>
<trkpt lat="38.231678" lon="-1.1199993">
<ele>465</ele>
<time>2013-06-02T19:02:12Z</time>
</trkpt>
<trkpt lat="38.231697" lon="-1.119951">
<ele>465</ele>
<time>2013-06-02T19:02:13Z</time>
</trkpt>
<trkpt lat="38.23168" lon="-1.1199027">
<ele>466</ele>
<time>2013-06-02T19:02:14Z</time>
</trkpt>
<trkpt lat="38.231693" lon="-1.1198652">
<ele>466</ele>
<time>2013-06-02T19:02:15Z</time>
</trkpt>
<trkpt lat="38.23176" lon="-1.1197525">
<ele>465</ele>
<time>2013-06-02T19:02:18Z</time>
</trkpt>
<trkpt lat="38.231785" lon="-1.1197203">
<ele>465</ele>
<time>2013-06-02T19:02:19Z</time>
</trkpt>
<trkpt lat="38.23181" lon="-1.1196721">
<ele>465</ele>
<time>2013-06-02T19:02:20Z</time>
</trkpt>
<trkpt lat="38.23184" lon="-1.1196291">
<ele>464</ele>
<time>2013-06-02T19:02:21Z</time>
</trkpt>
<trkpt lat="38.23185" lon="-1.1195755">
<ele>465</ele>
<time>2013-06-02T19:02:22Z</time>
</trkpt>
<trkpt lat="38.231876" lon="-1.1195433">
<ele>463</ele>
<time>2013-06-02T19:02:23Z</time>
</trkpt>
<trkpt lat="38.231895" lon="-1.1195219">
<ele>463</ele>
<time>2013-06-02T19:02:24Z</time>
</trkpt>
<trkpt lat="38.231907" lon="-1.1194897">
<ele>464</ele>
<time>2013-06-02T19:02:25Z</time>
</trkpt>
<trkpt lat="38.231934" lon="-1.1194575">
<ele>463</ele>
<time>2013-06-02T19:02:26Z</time>
</trkpt>
<trkpt lat="38.231934" lon="-1.1194092">
<ele>462</ele>
<time>2013-06-02T19:02:27Z</time>
</trkpt>
<trkpt lat="38.231945" lon="-1.1193663">
<ele>460</ele>
<time>2013-06-02T19:02:28Z</time>
</trkpt>
<trkpt lat="38.231983" lon="-1.1192644">
<ele>461</ele>
<time>2013-06-02T19:02:31Z</time>
</trkpt>
<trkpt lat="38.231995" lon="-1.1192375">
<ele>462</ele>
<time>2013-06-02T19:02:32Z</time>
</trkpt>
<trkpt lat="38.232014" lon="-1.1192">
<ele>462</ele>
<time>2013-06-02T19:02:33Z</time>
</trkpt>
<trkpt lat="38.232025" lon="-1.1191624">
<ele>462</ele>
<time>2013-06-02T19:02:34Z</time>
</trkpt>
<trkpt lat="38.232048" lon="-1.1191249">
<ele>462</ele>
<time>2013-06-02T19:02:35Z</time>
</trkpt>
<trkpt lat="38.232067" lon="-1.1190981">
<ele>463</ele>
<time>2013-06-02T19:02:36Z</time>
</trkpt>
<trkpt lat="38.23209" lon="-1.1190659">
<ele>464</ele>
<time>2013-06-02T19:02:37Z</time>
</trkpt>
<trkpt lat="38.23211" lon="-1.119039">
<ele>463</ele>
<time>2013-06-02T19:02:38Z</time>
</trkpt>
<trkpt lat="38.23213" lon="-1.1190069">
<ele>464</ele>
<time>2013-06-02T19:02:39Z</time>
</trkpt>
<trkpt lat="38.232143" lon="-1.11898">
<ele>463</ele>
<time>2013-06-02T19:02:40Z</time>
</trkpt>
<trkpt lat="38.232155" lon="-1.1189479">
<ele>462</ele>
<time>2013-06-02T19:02:41Z</time>
</trkpt>
<trkpt lat="38.232193" lon="-1.1188459">
<ele>462</ele>
<time>2013-06-02T19:02:44Z</time>
</trkpt>
<trkpt lat="38.232212" lon="-1.1188191">
<ele>462</ele>
<time>2013-06-02T19:02:45Z</time>
</trkpt>
<trkpt lat="38.23224" lon="-1.1187869">
<ele>462</ele>
<time>2013-06-02T19:02:46Z</time>
</trkpt>
<trkpt lat="38.23225" lon="-1.1187708">
<ele>462</ele>
<time>2013-06-02T19:02:47Z</time>
</trkpt>
<trkpt lat="38.232273" lon="-1.1187494">
<ele>462</ele>
<time>2013-06-02T19:02:48Z</time>
</trkpt>
<trkpt lat="38.23229" lon="-1.1187279">
<ele>462</ele>
<time>2013-06-02T19:02:49Z</time>
</trkpt>
<trkpt lat="38.232307" lon="-1.1187065">
<ele>461</ele>
<time>2013-06-02T19:02:50Z</time>
</trkpt>
<trkpt lat="38.232315" lon="-1.1186796">
<ele>461</ele>
<time>2013-06-02T19:02:51Z</time>
</trkpt>
<trkpt lat="38.232315" lon="-1.1186528">
<ele>461</ele>
<time>2013-06-02T19:02:52Z</time>
</trkpt>
<trkpt lat="38.232315" lon="-1.1186314">
<ele>463</ele>
<time>2013-06-02T19:02:53Z</time>
</trkpt>
<trkpt lat="38.23232" lon="-1.1186045">
<ele>463</ele>
<time>2013-06-02T19:02:54Z</time>
</trkpt>
<trkpt lat="38.2323" lon="-1.1185187">
<ele>463</ele>
<time>2013-06-02T19:02:57Z</time>
</trkpt>
<trkpt lat="38.232292" lon="-1.1184919">
<ele>464</ele>
<time>2013-06-02T19:02:58Z</time>
</trkpt>
<trkpt lat="38.232277" lon="-1.1184651">
<ele>465</ele>
<time>2013-06-02T19:02:59Z</time>
</trkpt>
<trkpt lat="38.23228" lon="-1.1184436">
<ele>466</ele>
<time>2013-06-02T19:03:00Z</time>
</trkpt>
<trkpt lat="38.232277" lon="-1.1184222">
<ele>466</ele>
<time>2013-06-02T19:03:01Z</time>
</trkpt>
<trkpt lat="38.23228" lon="-1.11839">
<ele>468</ele>
<time>2013-06-02T19:03:02Z</time>
</trkpt>
<trkpt lat="38.232277" lon="-1.1183524">
<ele>469</ele>
<time>2013-06-02T19:03:03Z</time>
</trkpt>
<trkpt lat="38.232277" lon="-1.1183095">
<ele>471</ele>
<time>2013-06-02T19:03:04Z</time>
</trkpt>
<trkpt lat="38.232265" lon="-1.1182827">
<ele>472</ele>
<time>2013-06-02T19:03:05Z</time>
</trkpt>
<trkpt lat="38.23226" lon="-1.1182666">
<ele>472</ele>
<time>2013-06-02T19:03:06Z</time>
</trkpt>
<trkpt lat="38.23225" lon="-1.1182451">
<ele>473</ele>
<time>2013-06-02T19:03:07Z</time>
</trkpt>
<trkpt lat="38.23225" lon="-1.1181486">
<ele>476</ele>
<time>2013-06-02T19:03:10Z</time>
</trkpt>
<trkpt lat="38.23225" lon="-1.1181217">
<ele>477</ele>
<time>2013-06-02T19:03:11Z</time>
</trkpt>
<trkpt lat="38.23225" lon="-1.1180949">
<ele>478</ele>
<time>2013-06-02T19:03:12Z</time>
</trkpt>
<trkpt lat="38.232235" lon="-1.1180896">
<ele>478</ele>
<time>2013-06-02T19:03:13Z</time>
</trkpt>
<trkpt lat="38.232235" lon="-1.1180735">
<ele>479</ele>
<time>2013-06-02T19:03:14Z</time>
</trkpt>
<trkpt lat="38.232227" lon="-1.1180413">
<ele>479</ele>
<time>2013-06-02T19:03:15Z</time>
</trkpt>
<trkpt lat="38.232227" lon="-1.1180145">
<ele>480</ele>
<time>2013-06-02T19:03:16Z</time>
</trkpt>
<trkpt lat="38.232224" lon="-1.1179984">
<ele>481</ele>
<time>2013-06-02T19:03:17Z</time>
</trkpt>
<trkpt lat="38.23222" lon="-1.1179823">
<ele>481</ele>
<time>2013-06-02T19:03:18Z</time>
</trkpt>
<trkpt lat="38.232212" lon="-1.1179715">
<ele>482</ele>
<time>2013-06-02T19:03:19Z</time>
</trkpt>
<trkpt lat="38.232227" lon="-1.1179823">
<ele>483</ele>
<time>2013-06-02T19:03:20Z</time>
</trkpt>
<trkpt lat="38.23222" lon="-1.1179715">
<ele>484</ele>
<time>2013-06-02T19:03:23Z</time>
</trkpt>
<trkpt lat="38.232193" lon="-1.1179018">
<ele>484</ele>
<time>2013-06-02T19:03:25Z</time>
</trkpt>
<trkpt lat="38.232185" lon="-1.1178589">
<ele>486</ele>
<time>2013-06-02T19:03:26Z</time>
</trkpt>
<trkpt lat="38.232193" lon="-1.1178321">
<ele>487</ele>
<time>2013-06-02T19:03:27Z</time>
</trkpt>
<trkpt lat="38.232197" lon="-1.1178106">
<ele>487</ele>
<time>2013-06-02T19:03:28Z</time>
</trkpt>
<trkpt lat="38.2322" lon="-1.1177891">
<ele>487</ele>
<time>2013-06-02T19:03:29Z</time>
</trkpt>
<trkpt lat="38.2322" lon="-1.1177623">
<ele>487</ele>
<time>2013-06-02T19:03:30Z</time>
</trkpt>
<trkpt lat="38.23222" lon="-1.1177355">
<ele>487</ele>
<time>2013-06-02T19:03:31Z</time>
</trkpt>
<trkpt lat="38.232224" lon="-1.117698">
<ele>488</ele>
<time>2013-06-02T19:03:32Z</time>
</trkpt>
<trkpt lat="38.232227" lon="-1.1176711">
<ele>489</ele>
<time>2013-06-02T19:03:33Z</time>
</trkpt>
<trkpt lat="38.232224" lon="-1.1176229">
<ele>494</ele>
<time>2013-06-02T19:03:36Z</time>
</trkpt>
<trkpt lat="38.2322" lon="-1.1176068">
<ele>496</ele>
<time>2013-06-02T19:03:37Z</time>
</trkpt>
<trkpt lat="38.232193" lon="-1.1175853">
<ele>498</ele>
<time>2013-06-02T19:03:38Z</time>
</trkpt>
<trkpt lat="38.23218" lon="-1.1175585">
<ele>500</ele>
<time>2013-06-02T19:03:39Z</time>
</trkpt>
<trkpt lat="38.23217" lon="-1.1175317">
<ele>501</ele>
<time>2013-06-02T19:03:40Z</time>
</trkpt>
<trkpt lat="38.232147" lon="-1.1175048">
<ele>502</ele>
<time>2013-06-02T19:03:41Z</time>
</trkpt>
<trkpt lat="38.232132" lon="-1.117478">
<ele>503</ele>
<time>2013-06-02T19:03:42Z</time>
</trkpt>
<trkpt lat="38.23211" lon="-1.1174566">
<ele>505</ele>
<time>2013-06-02T19:03:43Z</time>
</trkpt>
<trkpt lat="38.232105" lon="-1.1174405">
<ele>507</ele>
<time>2013-06-02T19:03:44Z</time>
</trkpt>
<trkpt lat="38.232094" lon="-1.1174136">
<ele>509</ele>
<time>2013-06-02T19:03:45Z</time>
</trkpt>
<trkpt lat="38.23208" lon="-1.1173922">
<ele>511</ele>
<time>2013-06-02T19:03:46Z</time>
</trkpt>
<trkpt lat="38.232075" lon="-1.1173439">
<ele>516</ele>
<time>2013-06-02T19:03:49Z</time>
</trkpt>
<trkpt lat="38.23208" lon="-1.1173385">
<ele>518</ele>
<time>2013-06-02T19:03:50Z</time>
</trkpt>
<trkpt lat="38.232075" lon="-1.1173278">
<ele>519</ele>
<time>2013-06-02T19:03:51Z</time>
</trkpt>
<trkpt lat="38.232056" lon="-1.1173117">
<ele>519</ele>
<time>2013-06-02T19:03:52Z</time>
</trkpt>
<trkpt lat="38.232048" lon="-1.1172956">
<ele>519</ele>
<time>2013-06-02T19:03:53Z</time>
</trkpt>
<trkpt lat="38.232037" lon="-1.1172581">
<ele>519</ele>
<time>2013-06-02T19:03:54Z</time>
</trkpt>
<trkpt lat="38.23203" lon="-1.1172205">
<ele>519</ele>
<time>2013-06-02T19:03:55Z</time>
</trkpt>
<trkpt lat="38.232037" lon="-1.1171937">
<ele>520</ele>
<time>2013-06-02T19:03:56Z</time>
</trkpt>
<trkpt lat="38.23204" lon="-1.1171669">
<ele>521</ele>
<time>2013-06-02T19:03:57Z</time>
</trkpt>
<trkpt lat="38.23204" lon="-1.1171508">
<ele>521</ele>
<time>2013-06-02T19:03:58Z</time>
</trkpt>
<trkpt lat="38.23205" lon="-1.1171293">
<ele>520</ele>
<time>2013-06-02T19:03:59Z</time>
</trkpt>
<trkpt lat="38.232056" lon="-1.1170274">
<ele>520</ele>
<time>2013-06-02T19:04:02Z</time>
</trkpt>
<trkpt lat="38.232056" lon="-1.1169952">
<ele>520</ele>
<time>2013-06-02T19:04:03Z</time>
</trkpt>
<trkpt lat="38.232063" lon="-1.1169738">
<ele>521</ele>
<time>2013-06-02T19:04:04Z</time>
</trkpt>
<trkpt lat="38.232056" lon="-1.1169469">
<ele>522</ele>
<time>2013-06-02T19:04:05Z</time>
</trkpt>
<trkpt lat="38.232056" lon="-1.1169201">
<ele>522</ele>
<time>2013-06-02T19:04:06Z</time>
</trkpt>
<trkpt lat="38.232056" lon="-1.1168933">
<ele>521</ele>
<time>2013-06-02T19:04:07Z</time>
</trkpt>
<trkpt lat="38.232056" lon="-1.1168557">
<ele>521</ele>
<time>2013-06-02T19:04:08Z</time>
</trkpt>
<trkpt lat="38.23205" lon="-1.1168182">
<ele>521</ele>
<time>2013-06-02T19:04:09Z</time>
</trkpt>
<trkpt lat="38.23204" lon="-1.1167914">
<ele>522</ele>
<time>2013-06-02T19:04:10Z</time>
</trkpt>
<trkpt lat="38.23203" lon="-1.1167538">
<ele>523</ele>
<time>2013-06-02T19:04:11Z</time>
</trkpt>
<trkpt lat="38.23202" lon="-1.1167216">
<ele>522</ele>
<time>2013-06-02T19:04:12Z</time>
</trkpt>
<trkpt lat="38.23202" lon="-1.1166143">
<ele>520</ele>
<time>2013-06-02T19:04:15Z</time>
</trkpt>
<trkpt lat="38.23202" lon="-1.1165822">
<ele>519</ele>
<time>2013-06-02T19:04:16Z</time>
</trkpt>
<trkpt lat="38.232037" lon="-1.11655">
<ele>518</ele>
<time>2013-06-02T19:04:17Z</time>
</trkpt>
<trkpt lat="38.232048" lon="-1.1165231">
<ele>517</ele>
<time>2013-06-02T19:04:18Z</time>
</trkpt>
<trkpt lat="38.232056" lon="-1.1164963">
<ele>517</ele>
<time>2013-06-02T19:04:19Z</time>
</trkpt>
<trkpt lat="38.232067" lon="-1.1164588">
<ele>516</ele>
<time>2013-06-02T19:04:20Z</time>
</trkpt>
<trkpt lat="38.23208" lon="-1.1164212">
<ele>516</ele>
<time>2013-06-02T19:04:21Z</time>
</trkpt>
<trkpt lat="38.232063" lon="-1.1163783">
<ele>515</ele>
<time>2013-06-02T19:04:22Z</time>
</trkpt>
<trkpt lat="38.232056" lon="-1.11633">
<ele>515</ele>
<time>2013-06-02T19:04:23Z</time>
</trkpt>
<trkpt lat="38.232063" lon="-1.1162925">
<ele>514</ele>
<time>2013-06-02T19:04:24Z</time>
</trkpt>
<trkpt lat="38.232063" lon="-1.1162496">
<ele>513</ele>
<time>2013-06-02T19:04:25Z</time>
</trkpt>
<trkpt lat="38.232075" lon="-1.1161262">
<ele>512</ele>
<time>2013-06-02T19:04:28Z</time>
</trkpt>
<trkpt lat="38.232082" lon="-1.116094">
<ele>512</ele>
<time>2013-06-02T19:04:29Z</time>
</trkpt>
<trkpt lat="38.232094" lon="-1.1160618">
<ele>513</ele>
<time>2013-06-02T19:04:30Z</time>
</trkpt>
<trkpt lat="38.232105" lon="-1.1160403">
<ele>512</ele>
<time>2013-06-02T19:04:31Z</time>
</trkpt>
<trkpt lat="38.23212" lon="-1.1160135">
<ele>511</ele>
<time>2013-06-02T19:04:32Z</time>
</trkpt>
<trkpt lat="38.232136" lon="-1.1159813">
<ele>510</ele>
<time>2013-06-02T19:04:33Z</time>
</trkpt>
<trkpt lat="38.232136" lon="-1.1159384">
<ele>510</ele>
<time>2013-06-02T19:04:34Z</time>
</trkpt>
<trkpt lat="38.232136" lon="-1.1159009">
<ele>509</ele>
<time>2013-06-02T19:04:35Z</time>
</trkpt>
<trkpt lat="38.232132" lon="-1.115874">
<ele>509</ele>
<time>2013-06-02T19:04:36Z</time>
</trkpt>
<trkpt lat="38.232136" lon="-1.115858">
<ele>509</ele>
<time>2013-06-02T19:04:37Z</time>
</trkpt>
<trkpt lat="38.232132" lon="-1.1158258">
<ele>508</ele>
<time>2013-06-02T19:04:38Z</time>
</trkpt>
<trkpt lat="38.232143" lon="-1.1157131">
<ele>506</ele>
<time>2013-06-02T19:04:41Z</time>
</trkpt>
<trkpt lat="38.232143" lon="-1.1156595">
<ele>505</ele>
<time>2013-06-02T19:04:42Z</time>
</trkpt>
<trkpt lat="38.232147" lon="-1.1156327">
<ele>505</ele>
<time>2013-06-02T19:04:43Z</time>
</trkpt>
<trkpt lat="38.23216" lon="-1.1156058">
<ele>505</ele>
<time>2013-06-02T19:04:44Z</time>
</trkpt>
<trkpt lat="38.232162" lon="-1.1155736">
<ele>504</ele>
<time>2013-06-02T19:04:45Z</time>
</trkpt>
<trkpt lat="38.232174" lon="-1.1155468">
<ele>504</ele>
<time>2013-06-02T19:04:46Z</time>
</trkpt>
<trkpt lat="38.23218" lon="-1.1155146">
<ele>503</ele>
<time>2013-06-02T19:04:47Z</time>
</trkpt>
<trkpt lat="38.232174" lon="-1.1154771">
<ele>503</ele>
<time>2013-06-02T19:04:48Z</time>
</trkpt>
<trkpt lat="38.23217" lon="-1.1154395">
<ele>503</ele>
<time>2013-06-02T19:04:49Z</time>
</trkpt>
<trkpt lat="38.232174" lon="-1.1154073">
<ele>504</ele>
<time>2013-06-02T19:04:50Z</time>
</trkpt>
<trkpt lat="38.232174" lon="-1.1153698">
<ele>504</ele>
<time>2013-06-02T19:04:51Z</time>
</trkpt>
<trkpt lat="38.23218" lon="-1.1152947">
<ele>504</ele>
<time>2013-06-02T19:04:54Z</time>
</trkpt>
<trkpt lat="38.232185" lon="-1.1152679">
<ele>505</ele>
<time>2013-06-02T19:04:55Z</time>
</trkpt>
<trkpt lat="38.2322" lon="-1.1152464">
<ele>505</ele>
<time>2013-06-02T19:04:56Z</time>
</trkpt>
<trkpt lat="38.232212" lon="-1.115225">
<ele>505</ele>
<time>2013-06-02T19:04:57Z</time>
</trkpt>
<trkpt lat="38.232227" lon="-1.1152089">
<ele>506</ele>
<time>2013-06-02T19:04:58Z</time>
</trkpt>
<trkpt lat="38.23224" lon="-1.1151928">
<ele>506</ele>
<time>2013-06-02T19:04:59Z</time>
</trkpt>
<trkpt lat="38.23225" lon="-1.1151713">
<ele>506</ele>
<time>2013-06-02T19:05:00Z</time>
</trkpt>
<trkpt lat="38.23224" lon="-1.1151391">
<ele>507</ele>
<time>2013-06-02T19:05:01Z</time>
</trkpt>
<trkpt lat="38.232246" lon="-1.1151123">
<ele>507</ele>
<time>2013-06-02T19:05:02Z</time>
</trkpt>
<trkpt lat="38.232246" lon="-1.1150855">
<ele>508</ele>
<time>2013-06-02T19:05:03Z</time>
</trkpt>
<trkpt lat="38.232246" lon="-1.115064">
<ele>508</ele>
<time>2013-06-02T19:05:04Z</time>
</trkpt>
<trkpt lat="38.232246" lon="-1.1149997">
<ele>509</ele>
<time>2013-06-02T19:05:07Z</time>
</trkpt>
<trkpt lat="38.232246" lon="-1.1149836">
<ele>509</ele>
<time>2013-06-02T19:05:08Z</time>
</trkpt>
<trkpt lat="38.23224" lon="-1.1149567">
<ele>508</ele>
<time>2013-06-02T19:05:09Z</time>
</trkpt>
<trkpt lat="38.23224" lon="-1.1149192">
<ele>507</ele>
<time>2013-06-02T19:05:10Z</time>
</trkpt>
<trkpt lat="38.232235" lon="-1.1148924">
<ele>507</ele>
<time>2013-06-02T19:05:11Z</time>
</trkpt>
<trkpt lat="38.232235" lon="-1.1148655">
<ele>507</ele>
<time>2013-06-02T19:05:12Z</time>
</trkpt>
<trkpt lat="38.232227" lon="-1.1148494">
<ele>507</ele>
<time>2013-06-02T19:05:13Z</time>
</trkpt>
<trkpt lat="38.232224" lon="-1.114828">
<ele>507</ele>
<time>2013-06-02T19:05:14Z</time>
</trkpt>
<trkpt lat="38.23222" lon="-1.1148012">
<ele>507</ele>
<time>2013-06-02T19:05:15Z</time>
</trkpt>
<trkpt lat="38.23222" lon="-1.1147797">
<ele>507</ele>
<time>2013-06-02T19:05:16Z</time>
</trkpt>
<trkpt lat="38.23222" lon="-1.1147636">
<ele>508</ele>
<time>2013-06-02T19:05:17Z</time>
</trkpt>
<trkpt lat="38.232197" lon="-1.11471">
<ele>508</ele>
<time>2013-06-02T19:05:20Z</time>
</trkpt>
<trkpt lat="38.232185" lon="-1.1146939">
<ele>508</ele>
<time>2013-06-02T19:05:21Z</time>
</trkpt>
<trkpt lat="38.23218" lon="-1.114667">
<ele>508</ele>
<time>2013-06-02T19:05:22Z</time>
</trkpt>
<trkpt lat="38.23218" lon="-1.1146402">
<ele>508</ele>
<time>2013-06-02T19:05:23Z</time>
</trkpt>
<trkpt lat="38.23221" lon="-1.1146241">
<ele>508</ele>
<time>2013-06-02T19:05:24Z</time>
</trkpt>
<trkpt lat="38.232224" lon="-1.114608">
<ele>508</ele>
<time>2013-06-02T19:05:25Z</time>
</trkpt>
<trkpt lat="38.232224" lon="-1.1145973">
<ele>507</ele>
<time>2013-06-02T19:05:26Z</time>
</trkpt>
<trkpt lat="38.232235" lon="-1.1145705">
<ele>507</ele>
<time>2013-06-02T19:05:27Z</time>
</trkpt>
<trkpt lat="38.23225" lon="-1.1145276">
<ele>507</ele>
<time>2013-06-02T19:05:28Z</time>
</trkpt>
<trkpt lat="38.23226" lon="-1.1144954">
<ele>507</ele>
<time>2013-06-02T19:05:29Z</time>
</trkpt>
<trkpt lat="38.232265" lon="-1.1144739">
<ele>506</ele>
<time>2013-06-02T19:05:30Z</time>
</trkpt>
<trkpt lat="38.232273" lon="-1.1144257">
<ele>506</ele>
<time>2013-06-02T19:05:33Z</time>
</trkpt>
<trkpt lat="38.232265" lon="-1.1143988">
<ele>505</ele>
<time>2013-06-02T19:05:34Z</time>
</trkpt>
<trkpt lat="38.232277" lon="-1.1143345">
<ele>504</ele>
<time>2013-06-02T19:05:35Z</time>
</trkpt>
<trkpt lat="38.23229" lon="-1.1142915">
<ele>503</ele>
<time>2013-06-02T19:05:36Z</time>
</trkpt>
<trkpt lat="38.232292" lon="-1.1142647">
<ele>504</ele>
<time>2013-06-02T19:05:37Z</time>
</trkpt>
<trkpt lat="38.232292" lon="-1.1142325">
<ele>504</ele>
<time>2013-06-02T19:05:38Z</time>
</trkpt>
<trkpt lat="38.2323" lon="-1.1142004">
<ele>503</ele>
<time>2013-06-02T19:05:39Z</time>
</trkpt>
<trkpt lat="38.232292" lon="-1.1141574">
<ele>504</ele>
<time>2013-06-02T19:05:40Z</time>
</trkpt>
<trkpt lat="38.2323" lon="-1.1141145">
<ele>504</ele>
<time>2013-06-02T19:05:41Z</time>
</trkpt>
<trkpt lat="38.2323" lon="-1.1140662">
<ele>504</ele>
<time>2013-06-02T19:05:42Z</time>
</trkpt>
<trkpt lat="38.2323" lon="-1.1140287">
<ele>504</ele>
<time>2013-06-02T19:05:43Z</time>
</trkpt>
<trkpt lat="38.232307" lon="-1.1139214">
<ele>506</ele>
<time>2013-06-02T19:05:46Z</time>
</trkpt>
<trkpt lat="38.232307" lon="-1.1138785">
<ele>506</ele>
<time>2013-06-02T19:05:47Z</time>
</trkpt>
<trkpt lat="38.232304" lon="-1.1138248">
<ele>505</ele>
<time>2013-06-02T19:05:48Z</time>
</trkpt>
<trkpt lat="38.232292" lon="-1.1137712">
<ele>505</ele>
<time>2013-06-02T19:05:49Z</time>
</trkpt>
<trkpt lat="38.232292" lon="-1.1137229">
<ele>506</ele>
<time>2013-06-02T19:05:50Z</time>
</trkpt>
<trkpt lat="38.232292" lon="-1.1136746">
<ele>506</ele>
<time>2013-06-02T19:05:51Z</time>
</trkpt>
<trkpt lat="38.2323" lon="-1.1136425">
<ele>508</ele>
<time>2013-06-02T19:05:52Z</time>
</trkpt>
<trkpt lat="38.232304" lon="-1.1136103">
<ele>509</ele>
<time>2013-06-02T19:05:53Z</time>
</trkpt>
<trkpt lat="38.232304" lon="-1.1135781">
<ele>509</ele>
<time>2013-06-02T19:05:54Z</time>
</trkpt>
<trkpt lat="38.232307" lon="-1.1135352">
<ele>509</ele>
<time>2013-06-02T19:05:55Z</time>
</trkpt>
<trkpt lat="38.232315" lon="-1.1134976">
<ele>510</ele>
<time>2013-06-02T19:05:56Z</time>
</trkpt>
<trkpt lat="38.232353" lon="-1.1133796">
<ele>512</ele>
<time>2013-06-02T19:05:59Z</time>
</trkpt>
<trkpt lat="38.23237" lon="-1.1133367">
<ele>513</ele>
<time>2013-06-02T19:06:00Z</time>
</trkpt>
<trkpt lat="38.232384" lon="-1.1132938">
<ele>513</ele>
<time>2013-06-02T19:06:01Z</time>
</trkpt>
<trkpt lat="38.2324" lon="-1.1132562">
<ele>513</ele>
<time>2013-06-02T19:06:02Z</time>
</trkpt>
<trkpt lat="38.23241" lon="-1.1132294">
<ele>514</ele>
<time>2013-06-02T19:06:03Z</time>
</trkpt>
<trkpt lat="38.232426" lon="-1.1132079">
<ele>515</ele>
<time>2013-06-02T19:06:04Z</time>
</trkpt>
<trkpt lat="38.232437" lon="-1.1131811">
<ele>515</ele>
<time>2013-06-02T19:06:05Z</time>
</trkpt>
<trkpt lat="38.23246" lon="-1.1131382">
<ele>515</ele>
<time>2013-06-02T19:06:06Z</time>
</trkpt>
<trkpt lat="38.23249" lon="-1.1130953">
<ele>516</ele>
<time>2013-06-02T19:06:07Z</time>
</trkpt>
<trkpt lat="38.232513" lon="-1.1130738">
<ele>516</ele>
<time>2013-06-02T19:06:08Z</time>
</trkpt>
<trkpt lat="38.23254" lon="-1.1130416">
<ele>515</ele>
<time>2013-06-02T19:06:09Z</time>
</trkpt>
<trkpt lat="38.23255" lon="-1.1129665">
<ele>518</ele>
<time>2013-06-02T19:06:12Z</time>
</trkpt>
<trkpt lat="38.232555" lon="-1.1129451">
<ele>519</ele>
<time>2013-06-02T19:06:13Z</time>
</trkpt>
<trkpt lat="38.232567" lon="-1.1129183">
<ele>519</ele>
<time>2013-06-02T19:06:14Z</time>
</trkpt>
<trkpt lat="38.23258" lon="-1.1128914">
<ele>520</ele>
<time>2013-06-02T19:06:15Z</time>
</trkpt>
<trkpt lat="38.23259" lon="-1.11287">
<ele>520</ele>
<time>2013-06-02T19:06:16Z</time>
</trkpt>
<trkpt lat="38.232605" lon="-1.1128485">
<ele>521</ele>
<time>2013-06-02T19:06:17Z</time>
</trkpt>
<trkpt lat="38.232616" lon="-1.1128056">
<ele>521</ele>
<time>2013-06-02T19:06:18Z</time>
</trkpt>
<trkpt lat="38.232624" lon="-1.1127627">
<ele>522</ele>
<time>2013-06-02T19:06:19Z</time>
</trkpt>
<trkpt lat="38.23263" lon="-1.1127251">
<ele>523</ele>
<time>2013-06-02T19:06:20Z</time>
</trkpt>
<trkpt lat="38.232616" lon="-1.1126876">
<ele>525</ele>
<time>2013-06-02T19:06:21Z</time>
</trkpt>
<trkpt lat="38.23262" lon="-1.11265">
<ele>525</ele>
<time>2013-06-02T19:06:22Z</time>
</trkpt>
<trkpt lat="38.232674" lon="-1.1125588">
<ele>527</ele>
<time>2013-06-02T19:06:25Z</time>
</trkpt>
<trkpt lat="38.23267" lon="-1.1125106">
<ele>528</ele>
<time>2013-06-02T19:06:26Z</time>
</trkpt>
<trkpt lat="38.232662" lon="-1.1124623">
<ele>528</ele>
<time>2013-06-02T19:06:27Z</time>
</trkpt>
<trkpt lat="38.232674" lon="-1.112414">
<ele>529</ele>
<time>2013-06-02T19:06:28Z</time>
</trkpt>
<trkpt lat="38.232685" lon="-1.1123389">
<ele>529</ele>
<time>2013-06-02T19:06:29Z</time>
</trkpt>
<trkpt lat="38.2327" lon="-1.1122853">
<ele>528</ele>
<time>2013-06-02T19:06:30Z</time>
</trkpt>
<trkpt lat="38.232716" lon="-1.1122477">
<ele>529</ele>
<time>2013-06-02T19:06:31Z</time>
</trkpt>
<trkpt lat="38.232742" lon="-1.1122102">
<ele>530</ele>
<time>2013-06-02T19:06:32Z</time>
</trkpt>
<trkpt lat="38.23278" lon="-1.1121887">
<ele>531</ele>
<time>2013-06-02T19:06:33Z</time>
</trkpt>
<trkpt lat="38.232822" lon="-1.1121672">
<ele>531</ele>
<time>2013-06-02T19:06:34Z</time>
</trkpt>
<trkpt lat="38.232845" lon="-1.112135">
<ele>534</ele>
<time>2013-06-02T19:06:35Z</time>
</trkpt>
<trkpt lat="38.232895" lon="-1.1120278">
<ele>537</ele>
<time>2013-06-02T19:06:38Z</time>
</trkpt>
<trkpt lat="38.232906" lon="-1.1119956">
<ele>538</ele>
<time>2013-06-02T19:06:39Z</time>
</trkpt>
<trkpt lat="38.232925" lon="-1.111958">
<ele>538</ele>
<time>2013-06-02T19:06:40Z</time>
</trkpt>
<trkpt lat="38.23294" lon="-1.1119205">
<ele>539</ele>
<time>2013-06-02T19:06:41Z</time>
</trkpt>
<trkpt lat="38.232952" lon="-1.1118615">
<ele>541</ele>
<time>2013-06-02T19:06:42Z</time>
</trkpt>
<trkpt lat="38.232964" lon="-1.1118078">
<ele>541</ele>
<time>2013-06-02T19:06:43Z</time>
</trkpt>
<trkpt lat="38.232975" lon="-1.1117703">
<ele>542</ele>
<time>2013-06-02T19:06:44Z</time>
</trkpt>
<trkpt lat="38.232986" lon="-1.1117381">
<ele>542</ele>
<time>2013-06-02T19:06:45Z</time>
</trkpt>
<trkpt lat="38.232994" lon="-1.1117113">
<ele>542</ele>
<time>2013-06-02T19:06:46Z</time>
</trkpt>
<trkpt lat="38.233" lon="-1.1116737">
<ele>542</ele>
<time>2013-06-02T19:06:47Z</time>
</trkpt>
<trkpt lat="38.233006" lon="-1.1116254">
<ele>542</ele>
<time>2013-06-02T19:06:48Z</time>
</trkpt>
<trkpt lat="38.233044" lon="-1.1114806">
<ele>541</ele>
<time>2013-06-02T19:06:51Z</time>
</trkpt>
<trkpt lat="38.23307" lon="-1.1114538">
<ele>541</ele>
<time>2013-06-02T19:06:52Z</time>
</trkpt>
<trkpt lat="38.233105" lon="-1.1114216">
<ele>542</ele>
<time>2013-06-02T19:06:53Z</time>
</trkpt>
<trkpt lat="38.23312" lon="-1.1113787">
<ele>541</ele>
<time>2013-06-02T19:06:54Z</time>
</trkpt>
<trkpt lat="38.233166" lon="-1.1113572">
<ele>541</ele>
<time>2013-06-02T19:06:55Z</time>
</trkpt>
<trkpt lat="38.23321" lon="-1.1113304">
<ele>541</ele>
<time>2013-06-02T19:06:56Z</time>
</trkpt>
<trkpt lat="38.23323" lon="-1.1113197">
<ele>543</ele>
<time>2013-06-02T19:06:57Z</time>
</trkpt>
<trkpt lat="38.233242" lon="-1.1112982">
<ele>544</ele>
<time>2013-06-02T19:06:58Z</time>
</trkpt>
<trkpt lat="38.233257" lon="-1.1112767">
<ele>544</ele>
<time>2013-06-02T19:06:59Z</time>
</trkpt>
<trkpt lat="38.233284" lon="-1.1112553">
<ele>545</ele>
<time>2013-06-02T19:07:00Z</time>
</trkpt>
<trkpt lat="38.233307" lon="-1.1112124">
<ele>546</ele>
<time>2013-06-02T19:07:01Z</time>
</trkpt>
<trkpt lat="38.2334" lon="-1.111148">
<ele>545</ele>
<time>2013-06-02T19:07:04Z</time>
</trkpt>
<trkpt lat="38.233425" lon="-1.1110997">
<ele>547</ele>
<time>2013-06-02T19:07:05Z</time>
</trkpt>
<trkpt lat="38.23345" lon="-1.1110622">
<ele>549</ele>
<time>2013-06-02T19:07:06Z</time>
</trkpt>
<trkpt lat="38.233475" lon="-1.1110353">
<ele>551</ele>
<time>2013-06-02T19:07:07Z</time>
</trkpt>
<trkpt lat="38.233505" lon="-1.1110032">
<ele>552</ele>
<time>2013-06-02T19:07:08Z</time>
</trkpt>
<trkpt lat="38.233532" lon="-1.110971">
<ele>551</ele>
<time>2013-06-02T19:07:09Z</time>
</trkpt>
<trkpt lat="38.233566" lon="-1.1109442">
<ele>552</ele>
<time>2013-06-02T19:07:10Z</time>
</trkpt>
<trkpt lat="38.233597" lon="-1.110912">
<ele>552</ele>
<time>2013-06-02T19:07:11Z</time>
</trkpt>
<trkpt lat="38.23361" lon="-1.110853">
<ele>551</ele>
<time>2013-06-02T19:07:12Z</time>
</trkpt>
<trkpt lat="38.233627" lon="-1.1107993">
<ele>552</ele>
<time>2013-06-02T19:07:13Z</time>
</trkpt>
<trkpt lat="38.23364" lon="-1.1107618">
<ele>552</ele>
<time>2013-06-02T19:07:14Z</time>
</trkpt>
<trkpt lat="38.23372" lon="-1.1106598">
<ele>553</ele>
<time>2013-06-02T19:07:17Z</time>
</trkpt>
<trkpt lat="38.233753" lon="-1.1106384">
<ele>553</ele>
<time>2013-06-02T19:07:18Z</time>
</trkpt>
<trkpt lat="38.233753" lon="-1.1106223">
<ele>554</ele>
<time>2013-06-02T19:07:19Z</time>
</trkpt>
<trkpt lat="38.23378" lon="-1.1105955">
<ele>555</ele>
<time>2013-06-02T19:07:20Z</time>
</trkpt>
<trkpt lat="38.2338" lon="-1.1105633">
<ele>555</ele>
<time>2013-06-02T19:07:21Z</time>
</trkpt>
<trkpt lat="38.23382" lon="-1.1105311">
<ele>555</ele>
<time>2013-06-02T19:07:22Z</time>
</trkpt>
<trkpt lat="38.23386" lon="-1.1105096">
<ele>556</ele>
<time>2013-06-02T19:07:23Z</time>
</trkpt>
<trkpt lat="38.2339" lon="-1.1104828">
<ele>557</ele>
<time>2013-06-02T19:07:24Z</time>
</trkpt>
<trkpt lat="38.23393" lon="-1.1104345">
<ele>557</ele>
<time>2013-06-02T19:07:25Z</time>
</trkpt>
<trkpt lat="38.233967" lon="-1.1103916">
<ele>558</ele>
<time>2013-06-02T19:07:26Z</time>
</trkpt>
<trkpt lat="38.23398" lon="-1.1103541">
<ele>558</ele>
<time>2013-06-02T19:07:27Z</time>
</trkpt>
<trkpt lat="38.234043" lon="-1.1102307">
<ele>558</ele>
<time>2013-06-02T19:07:30Z</time>
</trkpt>
<trkpt lat="38.233955" lon="-1.1102039">
<ele>560</ele>
<time>2013-06-02T19:07:31Z</time>
</trkpt>
<trkpt lat="38.23398" lon="-1.110161">
<ele>561</ele>
<time>2013-06-02T19:07:32Z</time>
</trkpt>
<trkpt lat="38.233963" lon="-1.110118">
<ele>561</ele>
<time>2013-06-02T19:07:33Z</time>
</trkpt>
<trkpt lat="38.23398" lon="-1.1100644">
<ele>560</ele>
<time>2013-06-02T19:07:34Z</time>
</trkpt>
<trkpt lat="38.233982" lon="-1.1100107">
<ele>561</ele>
<time>2013-06-02T19:07:35Z</time>
</trkpt>
<trkpt lat="38.23398" lon="-1.1099678">
<ele>562</ele>
<time>2013-06-02T19:07:36Z</time>
</trkpt>
<trkpt lat="38.233997" lon="-1.1099303">
<ele>562</ele>
<time>2013-06-02T19:07:37Z</time>
</trkpt>
<trkpt lat="38.234016" lon="-1.109882">
<ele>564</ele>
<time>2013-06-02T19:07:38Z</time>
</trkpt>
<trkpt lat="38.234035" lon="-1.1098391">
<ele>564</ele>
<time>2013-06-02T19:07:39Z</time>
</trkpt>
<trkpt lat="38.234055" lon="-1.1098123">
<ele>564</ele>
<time>2013-06-02T19:07:40Z</time>
</trkpt>
<trkpt lat="38.234062" lon="-1.1097372">
<ele>563</ele>
<time>2013-06-02T19:07:43Z</time>
</trkpt>
<trkpt lat="38.234062" lon="-1.1096513">
<ele>565</ele>
<time>2013-06-02T19:07:45Z</time>
</trkpt>
<trkpt lat="38.234097" lon="-1.1096138">
<ele>564</ele>
<time>2013-06-02T19:07:46Z</time>
</trkpt>
<trkpt lat="38.234116" lon="-1.1095816">
<ele>565</ele>
<time>2013-06-02T19:07:47Z</time>
</trkpt>
<trkpt lat="38.234127" lon="-1.1095601">
<ele>569</ele>
<time>2013-06-02T19:07:48Z</time>
</trkpt>
<trkpt lat="38.23414" lon="-1.109544">
<ele>571</ele>
<time>2013-06-02T19:07:49Z</time>
</trkpt>
<trkpt lat="38.234215" lon="-1.109544">
<ele>572</ele>
<time>2013-06-02T19:07:50Z</time>
</trkpt>
<trkpt lat="38.234272" lon="-1.1095387">
<ele>572</ele>
<time>2013-06-02T19:07:51Z</time>
</trkpt>
<trkpt lat="38.234325" lon="-1.1095226">
<ele>573</ele>
<time>2013-06-02T19:07:52Z</time>
</trkpt>
<trkpt lat="38.23438" lon="-1.1094904">
<ele>573</ele>
<time>2013-06-02T19:07:53Z</time>
</trkpt>
<trkpt lat="38.23444" lon="-1.1094582">
<ele>573</ele>
<time>2013-06-02T19:07:54Z</time>
</trkpt>
<trkpt lat="38.234676" lon="-1.1093885">
<ele>574</ele>
<time>2013-06-02T19:07:57Z</time>
</trkpt>
<trkpt lat="38.23472" lon="-1.1093456">
<ele>575</ele>
<time>2013-06-02T19:07:58Z</time>
</trkpt>
<trkpt lat="38.234776" lon="-1.1093134">
<ele>575</ele>
<time>2013-06-02T19:07:59Z</time>
</trkpt>
<trkpt lat="38.23483" lon="-1.1092651">
<ele>574</ele>
<time>2013-06-02T19:08:00Z</time>
</trkpt>
<trkpt lat="38.234882" lon="-1.1092383">
<ele>574</ele>
<time>2013-06-02T19:08:01Z</time>
</trkpt>
<trkpt lat="38.23493" lon="-1.1092222">
<ele>574</ele>
<time>2013-06-02T19:08:02Z</time>
</trkpt>
<trkpt lat="38.234966" lon="-1.1091846">
<ele>574</ele>
<time>2013-06-02T19:08:03Z</time>
</trkpt>
<trkpt lat="38.234993" lon="-1.109131">
<ele>573</ele>
<time>2013-06-02T19:08:04Z</time>
</trkpt>
<trkpt lat="38.235027" lon="-1.1090773">
<ele>573</ele>
<time>2013-06-02T19:08:05Z</time>
</trkpt>
<trkpt lat="38.23505" lon="-1.1090237">
<ele>573</ele>
<time>2013-06-02T19:08:06Z</time>
</trkpt>
<trkpt lat="38.235085" lon="-1.1089915">
<ele>573</ele>
<time>2013-06-02T19:08:07Z</time>
</trkpt>
<trkpt lat="38.235218" lon="-1.108911">
<ele>573</ele>
<time>2013-06-02T19:08:10Z</time>
</trkpt>
<trkpt lat="38.23526" lon="-1.1088789">
<ele>574</ele>
<time>2013-06-02T19:08:11Z</time>
</trkpt>
<trkpt lat="38.235302" lon="-1.1088359">
<ele>574</ele>
<time>2013-06-02T19:08:12Z</time>
</trkpt>
<trkpt lat="38.235313" lon="-1.1088091">
<ele>574</ele>
<time>2013-06-02T19:08:13Z</time>
</trkpt>
<trkpt lat="38.23534" lon="-1.1087984">
<ele>574</ele>
<time>2013-06-02T19:08:14Z</time>
</trkpt>
<trkpt lat="38.23539" lon="-1.1087608">
<ele>574</ele>
<time>2013-06-02T19:08:15Z</time>
</trkpt>
<trkpt lat="38.23537" lon="-1.1087286">
<ele>575</ele>
<time>2013-06-02T19:08:16Z</time>
</trkpt>
<trkpt lat="38.235344" lon="-1.1086911">
<ele>578</ele>
<time>2013-06-02T19:08:17Z</time>
</trkpt>
<trkpt lat="38.235054" lon="-1.1086804">
<ele>587</ele>
<time>2013-06-02T19:08:18Z</time>
</trkpt>
<trkpt lat="38.234974" lon="-1.1086643">
<ele>589</ele>
<time>2013-06-02T19:08:19Z</time>
</trkpt>
<trkpt lat="38.234917" lon="-1.1086643">
<ele>590</ele>
<time>2013-06-02T19:08:20Z</time>
</trkpt>
<trkpt lat="38.23482" lon="-1.1087233">
<ele>591</ele>
<time>2013-06-02T19:08:23Z</time>
</trkpt>
<trkpt lat="38.23475" lon="-1.1087608">
<ele>592</ele>
<time>2013-06-02T19:08:24Z</time>
</trkpt>
<trkpt lat="38.234596" lon="-1.1088091">
<ele>599</ele>
<time>2013-06-02T19:08:25Z</time>
</trkpt>
<trkpt lat="38.23448" lon="-1.1089057">
<ele>601</ele>
<time>2013-06-02T19:08:26Z</time>
</trkpt>
<trkpt lat="38.234425" lon="-1.1089861">
<ele>603</ele>
<time>2013-06-02T19:08:27Z</time>
</trkpt>
<trkpt lat="38.234364" lon="-1.1090827">
<ele>606</ele>
<time>2013-06-02T19:08:28Z</time>
</trkpt>
<trkpt lat="38.234314" lon="-1.10919">
<ele>607</ele>
<time>2013-06-02T19:08:29Z</time>
</trkpt>
<trkpt lat="38.234272" lon="-1.1092865">
<ele>607</ele>
<time>2013-06-02T19:08:30Z</time>
</trkpt>
<trkpt lat="38.234245" lon="-1.1093777">
<ele>610</ele>
<time>2013-06-02T19:08:31Z</time>
</trkpt>
<trkpt lat="38.234215" lon="-1.1094689">
<ele>611</ele>
<time>2013-06-02T19:08:32Z</time>
</trkpt>
<trkpt lat="38.234165" lon="-1.1095548">
<ele>613</ele>
<time>2013-06-02T19:08:33Z</time>
</trkpt>
<trkpt lat="38.234024" lon="-1.1098713">
<ele>615</ele>
<time>2013-06-02T19:08:36Z</time>
</trkpt>
<trkpt lat="38.233994" lon="-1.1099678">
<ele>615</ele>
<time>2013-06-02T19:08:37Z</time>
</trkpt>
<trkpt lat="38.233967" lon="-1.1100858">
<ele>614</ele>
<time>2013-06-02T19:08:38Z</time>
</trkpt>
<trkpt lat="38.233925" lon="-1.1101985">
<ele>614</ele>
<time>2013-06-02T19:08:39Z</time>
</trkpt>
<trkpt lat="38.233887" lon="-1.1103326">
<ele>614</ele>
<time>2013-06-02T19:08:40Z</time>
</trkpt>
<trkpt lat="38.233845" lon="-1.1104399">
<ele>614</ele>
<time>2013-06-02T19:08:41Z</time>
</trkpt>
<trkpt lat="38.23381" lon="-1.1105472">
<ele>614</ele>
<time>2013-06-02T19:08:42Z</time>
</trkpt>
<trkpt lat="38.233795" lon="-1.1106545">
<ele>614</ele>
<time>2013-06-02T19:08:43Z</time>
</trkpt>
<trkpt lat="38.23379" lon="-1.1107725">
<ele>614</ele>
<time>2013-06-02T19:08:44Z</time>
</trkpt>
<trkpt lat="38.23378" lon="-1.110912">
<ele>614</ele>
<time>2013-06-02T19:08:45Z</time>
</trkpt>
<trkpt lat="38.233753" lon="-1.11103">
<ele>614</ele>
<time>2013-06-02T19:08:46Z</time>
</trkpt>
<trkpt lat="38.233727" lon="-1.1114055">
<ele>614</ele>
<time>2013-06-02T19:08:49Z</time>
</trkpt>
<trkpt lat="38.2337" lon="-1.1115074">
<ele>615</ele>
<time>2013-06-02T19:08:50Z</time>
</trkpt>
<trkpt lat="38.23366" lon="-1.1115879">
<ele>613</ele>
<time>2013-06-02T19:08:51Z</time>
</trkpt>
<trkpt lat="38.23362" lon="-1.1116683">
<ele>613</ele>
<time>2013-06-02T19:08:52Z</time>
</trkpt>
<trkpt lat="38.23357" lon="-1.1117435">
<ele>613</ele>
<time>2013-06-02T19:08:53Z</time>
</trkpt>
<trkpt lat="38.2335" lon="-1.1117756">
<ele>611</ele>
<time>2013-06-02T19:08:54Z</time>
</trkpt>
<trkpt lat="38.23344" lon="-1.1117971">
<ele>611</ele>
<time>2013-06-02T19:08:55Z</time>
</trkpt>
<trkpt lat="38.233383" lon="-1.1117595">
<ele>611</ele>
<time>2013-06-02T19:08:56Z</time>
</trkpt>
<trkpt lat="38.233322" lon="-1.1117542">
<ele>611</ele>
<time>2013-06-02T19:08:57Z</time>
</trkpt>
<trkpt lat="38.233265" lon="-1.1117435">
<ele>611</ele>
<time>2013-06-02T19:08:58Z</time>
</trkpt>
<trkpt lat="38.23321" lon="-1.1117113">
<ele>611</ele>
<time>2013-06-02T19:08:59Z</time>
</trkpt>
<trkpt lat="38.233345" lon="-1.1115611">
<ele>611</ele>
<time>2013-06-02T19:09:02Z</time>
</trkpt>
<trkpt lat="38.233387" lon="-1.1115289">
<ele>611</ele>
<time>2013-06-02T19:09:03Z</time>
</trkpt>
<trkpt lat="38.23342" lon="-1.1115128">
<ele>611</ele>
<time>2013-06-02T19:09:04Z</time>
</trkpt>
<trkpt lat="38.233463" lon="-1.1114752">
<ele>611</ele>
<time>2013-06-02T19:09:05Z</time>
</trkpt>
<trkpt lat="38.23349" lon="-1.1114323">
<ele>611</ele>
<time>2013-06-02T19:09:06Z</time>
</trkpt>
<trkpt lat="38.23353" lon="-1.1113894">
<ele>611</ele>
<time>2013-06-02T19:09:07Z</time>
</trkpt>
<trkpt lat="38.233566" lon="-1.1113733">
<ele>610</ele>
<time>2013-06-02T19:09:08Z</time>
</trkpt>
<trkpt lat="38.233597" lon="-1.1113465">
<ele>610</ele>
<time>2013-06-02T19:09:09Z</time>
</trkpt>
<trkpt lat="38.23364" lon="-1.1113197">
<ele>610</ele>
<time>2013-06-02T19:09:10Z</time>
</trkpt>
<trkpt lat="38.233677" lon="-1.1113197">
<ele>610</ele>
<time>2013-06-02T19:09:11Z</time>
</trkpt>
<trkpt lat="38.233727" lon="-1.1112982">
<ele>609</ele>
<time>2013-06-02T19:09:12Z</time>
</trkpt>
<trkpt lat="38.233818" lon="-1.1112231">
<ele>609</ele>
<time>2013-06-02T19:09:15Z</time>
</trkpt>
<trkpt lat="38.233852" lon="-1.1111856">
<ele>609</ele>
<time>2013-06-02T19:09:16Z</time>
</trkpt>
<trkpt lat="38.233887" lon="-1.1111641">
<ele>609</ele>
<time>2013-06-02T19:09:17Z</time>
</trkpt>
<trkpt lat="38.233913" lon="-1.1111373">
<ele>609</ele>
<time>2013-06-02T19:09:18Z</time>
</trkpt>
<trkpt lat="38.23394" lon="-1.1110997">
<ele>608</ele>
<time>2013-06-02T19:09:19Z</time>
</trkpt>
<trkpt lat="38.233955" lon="-1.1110675">
<ele>608</ele>
<time>2013-06-02T19:09:20Z</time>
</trkpt>
<trkpt lat="38.233997" lon="-1.11103">
<ele>609</ele>
<time>2013-06-02T19:09:21Z</time>
</trkpt>
<trkpt lat="38.23403" lon="-1.1110139">
<ele>609</ele>
<time>2013-06-02T19:09:22Z</time>
</trkpt>
<trkpt lat="38.23406" lon="-1.1110085">
<ele>609</ele>
<time>2013-06-02T19:09:23Z</time>
</trkpt>
<trkpt lat="38.23407" lon="-1.110971">
<ele>608</ele>
<time>2013-06-02T19:09:24Z</time>
</trkpt>
<trkpt lat="38.23408" lon="-1.1109173">
<ele>608</ele>
<time>2013-06-02T19:09:25Z</time>
</trkpt>
<trkpt lat="38.234142" lon="-1.110794">
<ele>606</ele>
<time>2013-06-02T19:09:28Z</time>
</trkpt>
<trkpt lat="38.23417" lon="-1.1107725">
<ele>606</ele>
<time>2013-06-02T19:09:29Z</time>
</trkpt>
<trkpt lat="38.234188" lon="-1.1107403">
<ele>606</ele>
<time>2013-06-02T19:09:30Z</time>
</trkpt>
<trkpt lat="38.23423" lon="-1.1107028">
<ele>606</ele>
<time>2013-06-02T19:09:31Z</time>
</trkpt>
<trkpt lat="38.234272" lon="-1.1106867">
<ele>606</ele>
<time>2013-06-02T19:09:32Z</time>
</trkpt>
<trkpt lat="38.234295" lon="-1.1106491">
<ele>607</ele>
<time>2013-06-02T19:09:33Z</time>
</trkpt>
<trkpt lat="38.23432" lon="-1.1106277">
<ele>607</ele>
<time>2013-06-02T19:09:34Z</time>
</trkpt>
<trkpt lat="38.23434" lon="-1.1106008">
<ele>606</ele>
<time>2013-06-02T19:09:35Z</time>
</trkpt>
<trkpt lat="38.23434" lon="-1.1105579">
<ele>605</ele>
<time>2013-06-02T19:09:36Z</time>
</trkpt>
<trkpt lat="38.234367" lon="-1.1105096">
<ele>604</ele>
<time>2013-06-02T19:09:37Z</time>
</trkpt>
<trkpt lat="38.23439" lon="-1.1104721">
<ele>604</ele>
<time>2013-06-02T19:09:38Z</time>
</trkpt>
<trkpt lat="38.234467" lon="-1.1104238">
<ele>606</ele>
<time>2013-06-02T19:09:41Z</time>
</trkpt>
<trkpt lat="38.234505" lon="-1.1104023">
<ele>606</ele>
<time>2013-06-02T19:09:42Z</time>
</trkpt>
<trkpt lat="38.23452" lon="-1.1103648">
<ele>606</ele>
<time>2013-06-02T19:09:43Z</time>
</trkpt>
<trkpt lat="38.234547" lon="-1.1103272">
<ele>605</ele>
<time>2013-06-02T19:09:44Z</time>
</trkpt>
<trkpt lat="38.234585" lon="-1.1103004">
<ele>605</ele>
<time>2013-06-02T19:09:45Z</time>
</trkpt>
<trkpt lat="38.234615" lon="-1.1102629">
<ele>606</ele>
<time>2013-06-02T19:09:46Z</time>
</trkpt>
<trkpt lat="38.234615" lon="-1.11022">
<ele>606</ele>
<time>2013-06-02T19:09:47Z</time>
</trkpt>
<trkpt lat="38.23465" lon="-1.1101878">
<ele>605</ele>
<time>2013-06-02T19:09:48Z</time>
</trkpt>
<trkpt lat="38.23467" lon="-1.1101502">
<ele>605</ele>
<time>2013-06-02T19:09:49Z</time>
</trkpt>
<trkpt lat="38.234695" lon="-1.1101234">
<ele>604</ele>
<time>2013-06-02T19:09:50Z</time>
</trkpt>
<trkpt lat="38.23474" lon="-1.1100966">
<ele>604</ele>
<time>2013-06-02T19:09:51Z</time>
</trkpt>
<trkpt lat="38.23483" lon="-1.1100107">
<ele>604</ele>
<time>2013-06-02T19:09:54Z</time>
</trkpt>
<trkpt lat="38.234856" lon="-1.1099839">
<ele>605</ele>
<time>2013-06-02T19:09:55Z</time>
</trkpt>
<trkpt lat="38.23489" lon="-1.1099625">
<ele>605</ele>
<time>2013-06-02T19:09:56Z</time>
</trkpt>
<trkpt lat="38.23492" lon="-1.109941">
<ele>605</ele>
<time>2013-06-02T19:09:57Z</time>
</trkpt>
<trkpt lat="38.234932" lon="-1.1099195">
<ele>604</ele>
<time>2013-06-02T19:09:58Z</time>
</trkpt>
<trkpt lat="38.234974" lon="-1.1098927">
<ele>602</ele>
<time>2013-06-02T19:09:59Z</time>
</trkpt>
<trkpt lat="38.23501" lon="-1.1098552">
<ele>602</ele>
<time>2013-06-02T19:10:00Z</time>
</trkpt>
<trkpt lat="38.235027" lon="-1.109823">
<ele>601</ele>
<time>2013-06-02T19:10:01Z</time>
</trkpt>
<trkpt lat="38.235065" lon="-1.1097962">
<ele>601</ele>
<time>2013-06-02T19:10:02Z</time>
</trkpt>
<trkpt lat="38.235092" lon="-1.1097586">
<ele>601</ele>
<time>2013-06-02T19:10:03Z</time>
</trkpt>
<trkpt lat="38.235138" lon="-1.1097318">
<ele>600</ele>
<time>2013-06-02T19:10:04Z</time>
</trkpt>
<trkpt lat="38.235264" lon="-1.1096245">
<ele>599</ele>
<time>2013-06-02T19:10:07Z</time>
</trkpt>
<trkpt lat="38.2353" lon="-1.1095977">
<ele>600</ele>
<time>2013-06-02T19:10:08Z</time>
</trkpt>
<trkpt lat="38.23533" lon="-1.1095709">
<ele>600</ele>
<time>2013-06-02T19:10:09Z</time>
</trkpt>
<trkpt lat="38.23537" lon="-1.1095387">
<ele>600</ele>
<time>2013-06-02T19:10:10Z</time>
</trkpt>
<trkpt lat="38.23541" lon="-1.1095011">
<ele>600</ele>
<time>2013-06-02T19:10:11Z</time>
</trkpt>
<trkpt lat="38.235443" lon="-1.1094689">
<ele>601</ele>
<time>2013-06-02T19:10:12Z</time>
</trkpt>
<trkpt lat="38.23547" lon="-1.1094314">
<ele>601</ele>
<time>2013-06-02T19:10:13Z</time>
</trkpt>
<trkpt lat="38.235508" lon="-1.1093938">
<ele>600</ele>
<time>2013-06-02T19:10:14Z</time>
</trkpt>
<trkpt lat="38.23554" lon="-1.1093563">
<ele>601</ele>
<time>2013-06-02T19:10:15Z</time>
</trkpt>
<trkpt lat="38.235577" lon="-1.1093295">
<ele>601</ele>
<time>2013-06-02T19:10:16Z</time>
</trkpt>
<trkpt lat="38.235607" lon="-1.1092865">
<ele>600</ele>
<time>2013-06-02T19:10:17Z</time>
</trkpt>
<trkpt lat="38.235683" lon="-1.1091256">
<ele>599</ele>
<time>2013-06-02T19:10:20Z</time>
</trkpt>
<trkpt lat="38.235714" lon="-1.1090934">
<ele>601</ele>
<time>2013-06-02T19:10:21Z</time>
</trkpt>
<trkpt lat="38.235752" lon="-1.1090827">
<ele>601</ele>
<time>2013-06-02T19:10:22Z</time>
</trkpt>
<trkpt lat="38.235798" lon="-1.1090666">
<ele>602</ele>
<time>2013-06-02T19:10:23Z</time>
</trkpt>
<trkpt lat="38.235832" lon="-1.1090505">
<ele>602</ele>
<time>2013-06-02T19:10:24Z</time>
</trkpt>
<trkpt lat="38.23586" lon="-1.1090237">
<ele>602</ele>
<time>2013-06-02T19:10:25Z</time>
</trkpt>
<trkpt lat="38.23587" lon="-1.109013">
<ele>602</ele>
<time>2013-06-02T19:10:26Z</time>
</trkpt>
<trkpt lat="38.235897" lon="-1.1089808">
<ele>603</ele>
<time>2013-06-02T19:10:27Z</time>
</trkpt>
<trkpt lat="38.235893" lon="-1.1089432">
<ele>605</ele>
<time>2013-06-02T19:10:28Z</time>
</trkpt>
<trkpt lat="38.235912" lon="-1.1089218">
<ele>607</ele>
<time>2013-06-02T19:10:29Z</time>
</trkpt>
<trkpt lat="38.235924" lon="-1.108895">
<ele>609</ele>
<time>2013-06-02T19:10:30Z</time>
</trkpt>
<trkpt lat="38.236" lon="-1.1087823">
<ele>612</ele>
<time>2013-06-02T19:10:33Z</time>
</trkpt>
<trkpt lat="38.236023" lon="-1.1087447">
<ele>612</ele>
<time>2013-06-02T19:10:34Z</time>
</trkpt>
<trkpt lat="38.23605" lon="-1.1087126">
<ele>613</ele>
<time>2013-06-02T19:10:35Z</time>
</trkpt>
<trkpt lat="38.23605" lon="-1.108675">
<ele>615</ele>
<time>2013-06-02T19:10:36Z</time>
</trkpt>
<trkpt lat="38.236057" lon="-1.1086482">
<ele>615</ele>
<time>2013-06-02T19:10:37Z</time>
</trkpt>
<trkpt lat="38.23608" lon="-1.1086214">
<ele>616</ele>
<time>2013-06-02T19:10:38Z</time>
</trkpt>
<trkpt lat="38.23609" lon="-1.1085677">
<ele>615</ele>
<time>2013-06-02T19:10:39Z</time>
</trkpt>
<trkpt lat="38.23609" lon="-1.1085302">
<ele>615</ele>
<time>2013-06-02T19:10:40Z</time>
</trkpt>
<trkpt lat="38.236095" lon="-1.1084926">
<ele>615</ele>
<time>2013-06-02T19:10:41Z</time>
</trkpt>
<trkpt lat="38.236107" lon="-1.1084604">
<ele>617</ele>
<time>2013-06-02T19:10:42Z</time>
</trkpt>
<trkpt lat="38.236122" lon="-1.1084336">
<ele>617</ele>
<time>2013-06-02T19:10:43Z</time>
</trkpt>
<trkpt lat="38.236176" lon="-1.1083263">
<ele>618</ele>
<time>2013-06-02T19:10:46Z</time>
</trkpt>
<trkpt lat="38.2362" lon="-1.1082995">
<ele>619</ele>
<time>2013-06-02T19:10:47Z</time>
</trkpt>
<trkpt lat="38.236195" lon="-1.108278">
<ele>620</ele>
<time>2013-06-02T19:10:48Z</time>
</trkpt>
<trkpt lat="38.23621" lon="-1.1082727">
<ele>621</ele>
<time>2013-06-02T19:10:49Z</time>
</trkpt>
<trkpt lat="38.23621" lon="-1.1082512">
<ele>622</ele>
<time>2013-06-02T19:10:50Z</time>
</trkpt>
<trkpt lat="38.23622" lon="-1.1082298">
<ele>622</ele>
<time>2013-06-02T19:10:51Z</time>
</trkpt>
<trkpt lat="38.236225" lon="-1.1082029">
<ele>623</ele>
<time>2013-06-02T19:10:52Z</time>
</trkpt>
<trkpt lat="38.23623" lon="-1.1081761">
<ele>625</ele>
<time>2013-06-02T19:10:53Z</time>
</trkpt>
<trkpt lat="38.236248" lon="-1.1081547">
<ele>626</ele>
<time>2013-06-02T19:10:54Z</time>
</trkpt>
<trkpt lat="38.236275" lon="-1.1081278">
<ele>624</ele>
<time>2013-06-02T19:10:55Z</time>
</trkpt>
<trkpt lat="38.23629" lon="-1.108101">
<ele>624</ele>
<time>2013-06-02T19:10:56Z</time>
</trkpt>
<trkpt lat="38.236355" lon="-1.1079937">
<ele>624</ele>
<time>2013-06-02T19:10:59Z</time>
</trkpt>
<trkpt lat="38.236385" lon="-1.1079508">
<ele>626</ele>
<time>2013-06-02T19:11:00Z</time>
</trkpt>
<trkpt lat="38.2364" lon="-1.1079186">
<ele>627</ele>
<time>2013-06-02T19:11:01Z</time>
</trkpt>
<trkpt lat="38.23642" lon="-1.1078972">
<ele>627</ele>
<time>2013-06-02T19:11:02Z</time>
</trkpt>
<trkpt lat="38.236423" lon="-1.1078864">
<ele>628</ele>
<time>2013-06-02T19:11:03Z</time>
</trkpt>
<trkpt lat="38.236435" lon="-1.1078596">
<ele>628</ele>
<time>2013-06-02T19:11:04Z</time>
</trkpt>
<trkpt lat="38.23644" lon="-1.1078382">
<ele>629</ele>
<time>2013-06-02T19:11:05Z</time>
</trkpt>
<trkpt lat="38.236446" lon="-1.107806">
<ele>629</ele>
<time>2013-06-02T19:11:06Z</time>
</trkpt>
<trkpt lat="38.23644" lon="-1.107763">
<ele>630</ele>
<time>2013-06-02T19:11:07Z</time>
</trkpt>
<trkpt lat="38.23642" lon="-1.107704">
<ele>632</ele>
<time>2013-06-02T19:11:08Z</time>
</trkpt>
<trkpt lat="38.236412" lon="-1.1076611">
<ele>633</ele>
<time>2013-06-02T19:11:09Z</time>
</trkpt>
<trkpt lat="38.23638" lon="-1.1076128">
<ele>635</ele>
<time>2013-06-02T19:11:12Z</time>
</trkpt>
<trkpt lat="38.236202" lon="-1.1076558">
<ele>640</ele>
<time>2013-06-02T19:11:13Z</time>
</trkpt>
<trkpt lat="38.23613" lon="-1.1076987">
<ele>641</ele>
<time>2013-06-02T19:11:14Z</time>
</trkpt>
<trkpt lat="38.236042" lon="-1.1077577">
<ele>641</ele>
<time>2013-06-02T19:11:15Z</time>
</trkpt>
<trkpt lat="38.23603" lon="-1.1078918">
<ele>635</ele>
<time>2013-06-02T19:11:16Z</time>
</trkpt>
<trkpt lat="38.235977" lon="-1.1080045">
<ele>636</ele>
<time>2013-06-02T19:11:17Z</time>
</trkpt>
<trkpt lat="38.235924" lon="-1.1081493">
<ele>635</ele>
<time>2013-06-02T19:11:18Z</time>
</trkpt>
<trkpt lat="38.235886" lon="-1.1082995">
<ele>635</ele>
<time>2013-06-02T19:11:19Z</time>
</trkpt>
<trkpt lat="38.235844" lon="-1.1084336">
<ele>635</ele>
<time>2013-06-02T19:11:20Z</time>
</trkpt>
<trkpt lat="38.235806" lon="-1.1085945">
<ele>634</ele>
<time>2013-06-02T19:11:21Z</time>
</trkpt>
<trkpt lat="38.235764" lon="-1.1087126">
<ele>635</ele>
<time>2013-06-02T19:11:22Z</time>
</trkpt>
<trkpt lat="38.23564" lon="-1.1090773">
<ele>639</ele>
<time>2013-06-02T19:11:25Z</time>
</trkpt>
<trkpt lat="38.235596" lon="-1.1091793">
<ele>640</ele>
<time>2013-06-02T19:11:26Z</time>
</trkpt>
<trkpt lat="38.23557" lon="-1.1092544">
<ele>641</ele>
<time>2013-06-02T19:11:27Z</time>
</trkpt>
<trkpt lat="38.235516" lon="-1.1093348">
<ele>642</ele>
<time>2013-06-02T19:11:28Z</time>
</trkpt>
<trkpt lat="38.235474" lon="-1.1093831">
<ele>643</ele>
<time>2013-06-02T19:11:29Z</time>
</trkpt>
<trkpt lat="38.23543" lon="-1.1094207">
<ele>644</ele>
<time>2013-06-02T19:11:30Z</time>
</trkpt>
<trkpt lat="38.235394" lon="-1.1094475">
<ele>644</ele>
<time>2013-06-02T19:11:31Z</time>
</trkpt>
<trkpt lat="38.235344" lon="-1.1094743">
<ele>644</ele>
<time>2013-06-02T19:11:32Z</time>
</trkpt>
<trkpt lat="38.23531" lon="-1.109485">
<ele>645</ele>
<time>2013-06-02T19:11:33Z</time>
</trkpt>
<trkpt lat="38.23527" lon="-1.1095011">
<ele>646</ele>
<time>2013-06-02T19:11:34Z</time>
</trkpt>
<trkpt lat="38.235233" lon="-1.1095119">
<ele>647</ele>
<time>2013-06-02T19:11:35Z</time>
</trkpt>
<trkpt lat="38.235157" lon="-1.1095065">
<ele>648</ele>
<time>2013-06-02T19:11:38Z</time>
</trkpt>
<trkpt lat="38.235146" lon="-1.1095011">
<ele>649</ele>
<time>2013-06-02T19:11:39Z</time>
</trkpt>
<trkpt lat="38.235172" lon="-1.1094958">
<ele>650</ele>
<time>2013-06-02T19:11:40Z</time>
</trkpt>
<trkpt lat="38.23518" lon="-1.109485">
<ele>650</ele>
<time>2013-06-02T19:11:41Z</time>
</trkpt>
<trkpt lat="38.2352" lon="-1.1094421">
<ele>650</ele>
<time>2013-06-02T19:11:42Z</time>
</trkpt>
<trkpt lat="38.235218" lon="-1.1094153">
<ele>650</ele>
<time>2013-06-02T19:11:43Z</time>
</trkpt>
<trkpt lat="38.235233" lon="-1.1093831">
<ele>651</ele>
<time>2013-06-02T19:11:44Z</time>
</trkpt>
<trkpt lat="38.23527" lon="-1.1093509">
<ele>651</ele>
<time>2013-06-02T19:11:45Z</time>
</trkpt>
<trkpt lat="38.235336" lon="-1.1092973">
<ele>651</ele>
<time>2013-06-02T19:11:46Z</time>
</trkpt>
<trkpt lat="38.235367" lon="-1.1092544">
<ele>651</ele>
<time>2013-06-02T19:11:47Z</time>
</trkpt>
<trkpt lat="38.235394" lon="-1.1092222">
<ele>651</ele>
<time>2013-06-02T19:11:48Z</time>
</trkpt>
<trkpt lat="38.235382" lon="-1.1091417">
<ele>651</ele>
<time>2013-06-02T19:11:51Z</time>
</trkpt>
<trkpt lat="38.235416" lon="-1.1091042">
<ele>650</ele>
<time>2013-06-02T19:11:52Z</time>
</trkpt>
<trkpt lat="38.23543" lon="-1.1090612">
<ele>650</ele>
<time>2013-06-02T19:11:53Z</time>
</trkpt>
<trkpt lat="38.23547" lon="-1.109029">
<ele>651</ele>
<time>2013-06-02T19:11:54Z</time>
</trkpt>
<trkpt lat="38.235508" lon="-1.10897">
<ele>653</ele>
<time>2013-06-02T19:11:55Z</time>
</trkpt>
<trkpt lat="38.235542" lon="-1.1089325">
<ele>653</ele>
<time>2013-06-02T19:11:56Z</time>
</trkpt>
<trkpt lat="38.23559" lon="-1.1089057">
<ele>653</ele>
<time>2013-06-02T19:11:57Z</time>
</trkpt>
<trkpt lat="38.23563" lon="-1.1088896">
<ele>654</ele>
<time>2013-06-02T19:11:58Z</time>
</trkpt>
<trkpt lat="38.235683" lon="-1.1088842">
<ele>656</ele>
<time>2013-06-02T19:11:59Z</time>
</trkpt>
<trkpt lat="38.23572" lon="-1.1088789">
<ele>657</ele>
<time>2013-06-02T19:12:00Z</time>
</trkpt>
<trkpt lat="38.23576" lon="-1.108852">
<ele>657</ele>
<time>2013-06-02T19:12:01Z</time>
</trkpt>
<trkpt lat="38.235825" lon="-1.1087769">
<ele>658</ele>
<time>2013-06-02T19:12:04Z</time>
</trkpt>
<trkpt lat="38.23585" lon="-1.1087555">
<ele>658</ele>
<time>2013-06-02T19:12:05Z</time>
</trkpt>
<trkpt lat="38.235855" lon="-1.1087072">
<ele>660</ele>
<time>2013-06-02T19:12:06Z</time>
</trkpt>
<trkpt lat="38.23586" lon="-1.1086804">
<ele>661</ele>
<time>2013-06-02T19:12:07Z</time>
</trkpt>
<trkpt lat="38.23587" lon="-1.1086375">
<ele>663</ele>
<time>2013-06-02T19:12:08Z</time>
</trkpt>
<trkpt lat="38.235886" lon="-1.1086106">
<ele>665</ele>
<time>2013-06-02T19:12:09Z</time>
</trkpt>
<trkpt lat="38.235905" lon="-1.1085892">
<ele>665</ele>
<time>2013-06-02T19:12:10Z</time>
</trkpt>
<trkpt lat="38.23592" lon="-1.1085731">
<ele>665</ele>
<time>2013-06-02T19:12:11Z</time>
</trkpt>
<trkpt lat="38.235935" lon="-1.1085355">
<ele>664</ele>
<time>2013-06-02T19:12:12Z</time>
</trkpt>
<trkpt lat="38.23596" lon="-1.1084872">
<ele>664</ele>
<time>2013-06-02T19:12:13Z</time>
</trkpt>
<trkpt lat="38.23597" lon="-1.1084551">
<ele>666</ele>
<time>2013-06-02T19:12:14Z</time>
</trkpt>
<trkpt lat="38.236023" lon="-1.1083478">
<ele>668</ele>
<time>2013-06-02T19:12:17Z</time>
</trkpt>
<trkpt lat="38.236023" lon="-1.108321">
<ele>668</ele>
<time>2013-06-02T19:12:18Z</time>
</trkpt>
<trkpt lat="38.23603" lon="-1.1082941">
<ele>668</ele>
<time>2013-06-02T19:12:19Z</time>
</trkpt>
<trkpt lat="38.23604" lon="-1.108262">
<ele>669</ele>
<time>2013-06-02T19:12:20Z</time>
</trkpt>
<trkpt lat="38.23605" lon="-1.1082405">
<ele>670</ele>
<time>2013-06-02T19:12:21Z</time>
</trkpt>
<trkpt lat="38.236057" lon="-1.1082083">
<ele>670</ele>
<time>2013-06-02T19:12:22Z</time>
</trkpt>
<trkpt lat="38.236057" lon="-1.1081976">
<ele>671</ele>
<time>2013-06-02T19:12:23Z</time>
</trkpt>
<trkpt lat="38.236095" lon="-1.1081976">
<ele>667</ele>
<time>2013-06-02T19:12:24Z</time>
</trkpt>
<trkpt lat="38.236053" lon="-1.1082083">
<ele>665</ele>
<time>2013-06-02T19:12:25Z</time>
</trkpt>
<trkpt lat="38.236053" lon="-1.1082137">
<ele>662</ele>
<time>2013-06-02T19:12:26Z</time>
</trkpt>
<trkpt lat="38.23604" lon="-1.1082083">
<ele>661</ele>
<time>2013-06-02T19:12:27Z</time>
</trkpt>
<trkpt lat="38.235924" lon="-1.1082727">
<ele>656</ele>
<time>2013-06-02T19:12:30Z</time>
</trkpt>
<trkpt lat="38.23576" lon="-1.1083424">
<ele>657</ele>
<time>2013-06-02T19:12:31Z</time>
</trkpt>
<trkpt lat="38.23567" lon="-1.10838">
<ele>658</ele>
<time>2013-06-02T19:12:32Z</time>
</trkpt>
<trkpt lat="38.235603" lon="-1.108439">
<ele>659</ele>
<time>2013-06-02T19:12:33Z</time>
</trkpt>
<trkpt lat="38.235542" lon="-1.1085355">
<ele>658</ele>
<time>2013-06-02T19:12:34Z</time>
</trkpt>
<trkpt lat="38.2355" lon="-1.1086428">
<ele>659</ele>
<time>2013-06-02T19:12:35Z</time>
</trkpt>
<trkpt lat="38.235447" lon="-1.108734">
<ele>659</ele>
<time>2013-06-02T19:12:36Z</time>
</trkpt>
<trkpt lat="38.235397" lon="-1.1088359">
<ele>660</ele>
<time>2013-06-02T19:12:37Z</time>
</trkpt>
<trkpt lat="38.235363" lon="-1.1089379">
<ele>660</ele>
<time>2013-06-02T19:12:38Z</time>
</trkpt>
<trkpt lat="38.235317" lon="-1.109013">
<ele>659</ele>
<time>2013-06-02T19:12:39Z</time>
</trkpt>
<trkpt lat="38.235275" lon="-1.1090827">
<ele>660</ele>
<time>2013-06-02T19:12:40Z</time>
</trkpt>
<trkpt lat="38.235146" lon="-1.1093777">
<ele>660</ele>
<time>2013-06-02T19:12:43Z</time>
</trkpt>
<trkpt lat="38.235104" lon="-1.1094797">
<ele>659</ele>
<time>2013-06-02T19:12:44Z</time>
</trkpt>
<trkpt lat="38.235065" lon="-1.109587">
<ele>659</ele>
<time>2013-06-02T19:12:45Z</time>
</trkpt>
<trkpt lat="38.235027" lon="-1.1096889">
<ele>659</ele>
<time>2013-06-02T19:12:46Z</time>
</trkpt>
<trkpt lat="38.23501" lon="-1.109823">
<ele>658</ele>
<time>2013-06-02T19:12:47Z</time>
</trkpt>
<trkpt lat="38.23496" lon="-1.1099035">
<ele>657</ele>
<time>2013-06-02T19:12:48Z</time>
</trkpt>
<trkpt lat="38.234905" lon="-1.1099786">
<ele>658</ele>
<time>2013-06-02T19:12:49Z</time>
</trkpt>
<trkpt lat="38.234863" lon="-1.1100429">
<ele>659</ele>
<time>2013-06-02T19:12:50Z</time>
</trkpt>
<trkpt lat="38.234825" lon="-1.1101019">
<ele>660</ele>
<time>2013-06-02T19:12:51Z</time>
</trkpt>
<trkpt lat="38.234787" lon="-1.1101556">
<ele>660</ele>
<time>2013-06-02T19:12:52Z</time>
</trkpt>
<trkpt lat="38.23474" lon="-1.1102039">
<ele>661</ele>
<time>2013-06-02T19:12:53Z</time>
</trkpt>
<trkpt lat="38.234615" lon="-1.1102843">
<ele>663</ele>
<time>2013-06-02T19:12:56Z</time>
</trkpt>
<trkpt lat="38.23456" lon="-1.110279">
<ele>664</ele>
<time>2013-06-02T19:12:57Z</time>
</trkpt>
<trkpt lat="38.234505" lon="-1.1102843">
<ele>665</ele>
<time>2013-06-02T19:12:58Z</time>
</trkpt>
<trkpt lat="38.23445" lon="-1.110279">
<ele>666</ele>
<time>2013-06-02T19:12:59Z</time>
</trkpt>
<trkpt lat="38.234417" lon="-1.110279">
<ele>667</ele>
<time>2013-06-02T19:13:00Z</time>
</trkpt>
<trkpt lat="38.234386" lon="-1.110279">
<ele>668</ele>
<time>2013-06-02T19:13:01Z</time>
</trkpt>
<trkpt lat="38.234333" lon="-1.1102629">
<ele>670</ele>
<time>2013-06-02T19:13:02Z</time>
</trkpt>
<trkpt lat="38.234295" lon="-1.110279">
<ele>669</ele>
<time>2013-06-02T19:13:03Z</time>
</trkpt>
<trkpt lat="38.23426" lon="-1.1102843">
<ele>670</ele>
<time>2013-06-02T19:13:04Z</time>
</trkpt>
<trkpt lat="38.23423" lon="-1.1102843">
<ele>671</ele>
<time>2013-06-02T19:13:05Z</time>
</trkpt>
<trkpt lat="38.234196" lon="-1.1102736">
<ele>671</ele>
<time>2013-06-02T19:13:06Z</time>
</trkpt>
<trkpt lat="38.234142" lon="-1.1102039">
<ele>672</ele>
<time>2013-06-02T19:13:09Z</time>
</trkpt>
<trkpt lat="38.234142" lon="-1.1101556">
<ele>671</ele>
<time>2013-06-02T19:13:10Z</time>
</trkpt>
<trkpt lat="38.234188" lon="-1.1100858">
<ele>671</ele>
<time>2013-06-02T19:13:11Z</time>
</trkpt>
<trkpt lat="38.23417" lon="-1.1100429">
<ele>671</ele>
<time>2013-06-02T19:13:12Z</time>
</trkpt>
<trkpt lat="38.23418" lon="-1.1100161">
<ele>671</ele>
<time>2013-06-02T19:13:13Z</time>
</trkpt>
<trkpt lat="38.23418" lon="-1.1099786">
<ele>671</ele>
<time>2013-06-02T19:13:14Z</time>
</trkpt>
<trkpt lat="38.23417" lon="-1.109941">
<ele>672</ele>
<time>2013-06-02T19:13:15Z</time>
</trkpt>
<trkpt lat="38.234188" lon="-1.1099142">
<ele>672</ele>
<time>2013-06-02T19:13:16Z</time>
</trkpt>
<trkpt lat="38.234203" lon="-1.1098981">
<ele>672</ele>
<time>2013-06-02T19:13:17Z</time>
</trkpt>
<trkpt lat="38.234207" lon="-1.1098766">
<ele>672</ele>
<time>2013-06-02T19:13:18Z</time>
</trkpt>
<trkpt lat="38.23422" lon="-1.1098498">
<ele>673</ele>
<time>2013-06-02T19:13:19Z</time>
</trkpt>
<trkpt lat="38.234215" lon="-1.1097211">
<ele>673</ele>
<time>2013-06-02T19:13:22Z</time>
</trkpt>
<trkpt lat="38.23423" lon="-1.1096889">
<ele>673</ele>
<time>2013-06-02T19:13:23Z</time>
</trkpt>
<trkpt lat="38.23427" lon="-1.109646">
<ele>673</ele>
<time>2013-06-02T19:13:24Z</time>
</trkpt>
<trkpt lat="38.23427" lon="-1.1096191">
<ele>673</ele>
<time>2013-06-02T19:13:25Z</time>
</trkpt>
<trkpt lat="38.234287" lon="-1.1095709">
<ele>674</ele>
<time>2013-06-02T19:13:26Z</time>
</trkpt>
<trkpt lat="38.234287" lon="-1.109528">
<ele>674</ele>
<time>2013-06-02T19:13:27Z</time>
</trkpt>
<trkpt lat="38.23431" lon="-1.1094958">
<ele>675</ele>
<time>2013-06-02T19:13:28Z</time>
</trkpt>
<trkpt lat="38.234333" lon="-1.1094689">
<ele>675</ele>
<time>2013-06-02T19:13:29Z</time>
</trkpt>
<trkpt lat="38.23436" lon="-1.1094314">
<ele>675</ele>
<time>2013-06-02T19:13:30Z</time>
</trkpt>
<trkpt lat="38.234386" lon="-1.1093885">
<ele>676</ele>
<time>2013-06-02T19:13:31Z</time>
</trkpt>
<trkpt lat="38.234406" lon="-1.1093509">
<ele>676</ele>
<time>2013-06-02T19:13:32Z</time>
</trkpt>
<trkpt lat="38.23448" lon="-1.1092544">
<ele>676</ele>
<time>2013-06-02T19:13:35Z</time>
</trkpt>
<trkpt lat="38.23452" lon="-1.1092275">
<ele>676</ele>
<time>2013-06-02T19:13:36Z</time>
</trkpt>
<trkpt lat="38.23451" lon="-1.1092061">
<ele>677</ele>
<time>2013-06-02T19:13:37Z</time>
</trkpt>
<trkpt lat="38.23451" lon="-1.1091632">
<ele>677</ele>
<time>2013-06-02T19:13:38Z</time>
</trkpt>
<trkpt lat="38.23452" lon="-1.109131">
<ele>677</ele>
<time>2013-06-02T19:13:39Z</time>
</trkpt>
<trkpt lat="38.234505" lon="-1.109072">
<ele>680</ele>
<time>2013-06-02T19:13:40Z</time>
</trkpt>
<trkpt lat="38.23452" lon="-1.1090398">
<ele>680</ele>
<time>2013-06-02T19:13:41Z</time>
</trkpt>
<trkpt lat="38.23453" lon="-1.109013">
<ele>680</ele>
<time>2013-06-02T19:13:42Z</time>
</trkpt>
<trkpt lat="38.23454" lon="-1.1089861">
<ele>680</ele>
<time>2013-06-02T19:13:43Z</time>
</trkpt>
<trkpt lat="38.23456" lon="-1.1089593">
<ele>680</ele>
<time>2013-06-02T19:13:44Z</time>
</trkpt>
<trkpt lat="38.23454" lon="-1.108911">
<ele>683</ele>
<time>2013-06-02T19:13:45Z</time>
</trkpt>
<trkpt lat="38.234444" lon="-1.1087608">
<ele>698</ele>
<time>2013-06-02T19:13:48Z</time>
</trkpt>
<trkpt lat="38.2344" lon="-1.1087179">
<ele>697</ele>
<time>2013-06-02T19:13:49Z</time>
</trkpt>
<trkpt lat="38.234398" lon="-1.1086857">
<ele>697</ele>
<time>2013-06-02T19:13:50Z</time>
</trkpt>
<trkpt lat="38.23432" lon="-1.1086643">
<ele>699</ele>
<time>2013-06-02T19:13:51Z</time>
</trkpt>
<trkpt lat="38.234314" lon="-1.1086428">
<ele>699</ele>
<time>2013-06-02T19:13:52Z</time>
</trkpt>
<trkpt lat="38.234272" lon="-1.1086214">
<ele>700</ele>
<time>2013-06-02T19:13:53Z</time>
</trkpt>
<trkpt lat="38.23424" lon="-1.1085999">
<ele>701</ele>
<time>2013-06-02T19:13:54Z</time>
</trkpt>
<trkpt lat="38.234222" lon="-1.1085731">
<ele>701</ele>
<time>2013-06-02T19:13:55Z</time>
</trkpt>
<trkpt lat="38.23423" lon="-1.1085516">
<ele>702</ele>
<time>2013-06-02T19:13:56Z</time>
</trkpt>
<trkpt lat="38.234245" lon="-1.1085409">
<ele>702</ele>
<time>2013-06-02T19:13:57Z</time>
</trkpt>
<trkpt lat="38.23426" lon="-1.1085409">
<ele>702</ele>
<time>2013-06-02T19:13:58Z</time>
</trkpt>
<trkpt lat="38.23426" lon="-1.1084872">
<ele>703</ele>
<time>2013-06-02T19:14:01Z</time>
</trkpt>
<trkpt lat="38.23428" lon="-1.1084604">
<ele>704</ele>
<time>2013-06-02T19:14:02Z</time>
</trkpt>
<trkpt lat="38.234287" lon="-1.1084443">
<ele>704</ele>
<time>2013-06-02T19:14:03Z</time>
</trkpt>
<trkpt lat="38.23431" lon="-1.1084229">
<ele>704</ele>
<time>2013-06-02T19:14:04Z</time>
</trkpt>
<trkpt lat="38.234364" lon="-1.1083853">
<ele>704</ele>
<time>2013-06-02T19:14:05Z</time>
</trkpt>
<trkpt lat="38.2344" lon="-1.10838">
<ele>704</ele>
<time>2013-06-02T19:14:06Z</time>
</trkpt>
<trkpt lat="38.234406" lon="-1.1083317">
<ele>706</ele>
<time>2013-06-02T19:14:07Z</time>
</trkpt>
<trkpt lat="38.23443" lon="-1.1082995">
<ele>710</ele>
<time>2013-06-02T19:14:08Z</time>
</trkpt>
<trkpt lat="38.23435" lon="-1.1082566">
<ele>720</ele>
<time>2013-06-02T19:14:09Z</time>
</trkpt>
<trkpt lat="38.234272" lon="-1.1082137">
<ele>729</ele>
<time>2013-06-02T19:14:10Z</time>
</trkpt>
<trkpt lat="38.23428" lon="-1.1082029">
<ele>730</ele>
<time>2013-06-02T19:14:11Z</time>
</trkpt>
<trkpt lat="38.23444" lon="-1.1082244">
<ele>731</ele>
<time>2013-06-02T19:14:14Z</time>
</trkpt>
<trkpt lat="38.23452" lon="-1.1082888">
<ele>731</ele>
<time>2013-06-02T19:14:15Z</time>
</trkpt>
<trkpt lat="38.234615" lon="-1.10838">
<ele>733</ele>
<time>2013-06-02T19:14:16Z</time>
</trkpt>
<trkpt lat="38.234695" lon="-1.1084819">
<ele>734</ele>
<time>2013-06-02T19:14:17Z</time>
</trkpt>
<trkpt lat="38.23476" lon="-1.1085945">
<ele>736</ele>
<time>2013-06-02T19:14:18Z</time>
</trkpt>
<trkpt lat="38.23485" lon="-1.1087286">
<ele>734</ele>
<time>2013-06-02T19:14:19Z</time>
</trkpt>
<trkpt lat="38.234875" lon="-1.108911">
<ele>735</ele>
<time>2013-06-02T19:14:20Z</time>
</trkpt>
<trkpt lat="38.23489" lon="-1.1090773">
<ele>737</ele>
<time>2013-06-02T19:14:21Z</time>
</trkpt>
<trkpt lat="38.234867" lon="-1.1092114">
<ele>738</ele>
<time>2013-06-02T19:14:22Z</time>
</trkpt>
<trkpt lat="38.234802" lon="-1.109367">
<ele>741</ele>
<time>2013-06-02T19:14:23Z</time>
</trkpt>
<trkpt lat="38.234756" lon="-1.1095065">
<ele>742</ele>
<time>2013-06-02T19:14:24Z</time>
</trkpt>
<trkpt lat="38.234615" lon="-1.109764">
<ele>747</ele>
<time>2013-06-02T19:14:27Z</time>
</trkpt>
<trkpt lat="38.234585" lon="-1.1098284">
<ele>747</ele>
<time>2013-06-02T19:14:28Z</time>
</trkpt>
<trkpt lat="38.23453" lon="-1.1098874">
<ele>747</ele>
<time>2013-06-02T19:14:29Z</time>
</trkpt>
<trkpt lat="38.23445" lon="-1.1099303">
<ele>748</ele>
<time>2013-06-02T19:14:30Z</time>
</trkpt>
<trkpt lat="38.234364" lon="-1.1099786">
<ele>751</ele>
<time>2013-06-02T19:14:31Z</time>
</trkpt>
<trkpt lat="38.234287" lon="-1.1099786">
<ele>751</ele>
<time>2013-06-02T19:14:32Z</time>
</trkpt>
<trkpt lat="38.23424" lon="-1.1099839">
<ele>751</ele>
<time>2013-06-02T19:14:33Z</time>
</trkpt>
<trkpt lat="38.234188" lon="-1.1099839">
<ele>752</ele>
<time>2013-06-02T19:14:34Z</time>
</trkpt>
<trkpt lat="38.23415" lon="-1.1099732">
<ele>753</ele>
<time>2013-06-02T19:14:35Z</time>
</trkpt>
<trkpt lat="38.234135" lon="-1.1099625">
<ele>753</ele>
<time>2013-06-02T19:14:36Z</time>
</trkpt>
<trkpt lat="38.234116" lon="-1.1099571">
<ele>753</ele>
<time>2013-06-02T19:14:37Z</time>
</trkpt>
<trkpt lat="38.234127" lon="-1.1099088">
<ele>754</ele>
<time>2013-06-02T19:14:40Z</time>
</trkpt>
<trkpt lat="38.23414" lon="-1.1098766">
<ele>755</ele>
<time>2013-06-02T19:14:41Z</time>
</trkpt>
<trkpt lat="38.23415" lon="-1.1098498">
<ele>755</ele>
<time>2013-06-02T19:14:42Z</time>
</trkpt>
<trkpt lat="38.23417" lon="-1.109823">
<ele>756</ele>
<time>2013-06-02T19:14:43Z</time>
</trkpt>
<trkpt lat="38.234207" lon="-1.1098123">
<ele>756</ele>
<time>2013-06-02T19:14:44Z</time>
</trkpt>
<trkpt lat="38.234188" lon="-1.1098069">
<ele>756</ele>
<time>2013-06-02T19:14:45Z</time>
</trkpt>
<trkpt lat="38.234207" lon="-1.1098069">
<ele>757</ele>
<time>2013-06-02T19:14:46Z</time>
</trkpt>
<trkpt lat="38.23423" lon="-1.1097908">
<ele>757</ele>
<time>2013-06-02T19:14:47Z</time>
</trkpt>
<trkpt lat="38.23423" lon="-1.1097747">
<ele>757</ele>
<time>2013-06-02T19:14:48Z</time>
</trkpt>
<trkpt lat="38.234234" lon="-1.1097479">
<ele>757</ele>
<time>2013-06-02T19:14:49Z</time>
</trkpt>
<trkpt lat="38.234234" lon="-1.1097211">
<ele>757</ele>
<time>2013-06-02T19:14:50Z</time>
</trkpt>
<trkpt lat="38.234314" lon="-1.1096728">
<ele>758</ele>
<time>2013-06-02T19:14:53Z</time>
</trkpt>
<trkpt lat="38.234333" lon="-1.1096406">
<ele>758</ele>
<time>2013-06-02T19:14:54Z</time>
</trkpt>
<trkpt lat="38.234352" lon="-1.109603">
<ele>758</ele>
<time>2013-06-02T19:14:55Z</time>
</trkpt>
<trkpt lat="38.234386" lon="-1.1095655">
<ele>758</ele>
<time>2013-06-02T19:14:56Z</time>
</trkpt>
<trkpt lat="38.234406" lon="-1.109528">
<ele>758</ele>
<time>2013-06-02T19:14:57Z</time>
</trkpt>
<trkpt lat="38.23443" lon="-1.1095011">
<ele>758</ele>
<time>2013-06-02T19:14:58Z</time>
</trkpt>
<trkpt lat="38.234455" lon="-1.1094743">
<ele>758</ele>
<time>2013-06-02T19:14:59Z</time>
</trkpt>
<trkpt lat="38.234467" lon="-1.1094099">
<ele>758</ele>
<time>2013-06-02T19:15:00Z</time>
</trkpt>
<trkpt lat="38.234493" lon="-1.109367">
<ele>759</ele>
<time>2013-06-02T19:15:01Z</time>
</trkpt>
<trkpt lat="38.234524" lon="-1.1093241">
<ele>759</ele>
<time>2013-06-02T19:15:02Z</time>
</trkpt>
<trkpt lat="38.234562" lon="-1.1092973">
<ele>759</ele>
<time>2013-06-02T19:15:03Z</time>
</trkpt>
<trkpt lat="38.234665" lon="-1.1092007">
<ele>759</ele>
<time>2013-06-02T19:15:06Z</time>
</trkpt>
<trkpt lat="38.23468" lon="-1.1091256">
<ele>761</ele>
<time>2013-06-02T19:15:07Z</time>
</trkpt>
<trkpt lat="38.234722" lon="-1.1090934">
<ele>762</ele>
<time>2013-06-02T19:15:08Z</time>
</trkpt>
<trkpt lat="38.234768" lon="-1.1090612">
<ele>762</ele>
<time>2013-06-02T19:15:09Z</time>
</trkpt>
<trkpt lat="38.23482" lon="-1.1090398">
<ele>763</ele>
<time>2013-06-02T19:15:10Z</time>
</trkpt>
<trkpt lat="38.23485" lon="-1.1089969">
<ele>763</ele>
<time>2013-06-02T19:15:11Z</time>
</trkpt>
<trkpt lat="38.234856" lon="-1.1089754">
<ele>763</ele>
<time>2013-06-02T19:15:12Z</time>
</trkpt>
<trkpt lat="38.234882" lon="-1.1089486">
<ele>764</ele>
<time>2013-06-02T19:15:13Z</time>
</trkpt>
<trkpt lat="38.234905" lon="-1.108911">
<ele>764</ele>
<time>2013-06-02T19:15:14Z</time>
</trkpt>
<trkpt lat="38.234875" lon="-1.1088896">
<ele>765</ele>
<time>2013-06-02T19:15:15Z</time>
</trkpt>
<trkpt lat="38.234867" lon="-1.1088574">
<ele>765</ele>
<time>2013-06-02T19:15:16Z</time>
</trkpt>
<trkpt lat="38.23485" lon="-1.1087286">
<ele>770</ele>
<time>2013-06-02T19:15:19Z</time>
</trkpt>
<trkpt lat="38.234825" lon="-1.1086589">
<ele>775</ele>
<time>2013-06-02T19:15:20Z</time>
</trkpt>
<trkpt lat="38.234825" lon="-1.1086106">
<ele>778</ele>
<time>2013-06-02T19:15:21Z</time>
</trkpt>
<trkpt lat="38.234642" lon="-1.1085624">
<ele>790</ele>
<time>2013-06-02T19:15:22Z</time>
</trkpt>
<trkpt lat="38.234585" lon="-1.1085194">
<ele>796</ele>
<time>2013-06-02T19:15:23Z</time>
</trkpt>
<trkpt lat="38.234596" lon="-1.1084765">
<ele>801</ele>
<time>2013-06-02T19:15:24Z</time>
</trkpt>
<trkpt lat="38.234623" lon="-1.1084443">
<ele>804</ele>
<time>2013-06-02T19:15:25Z</time>
</trkpt>
<trkpt lat="38.234657" lon="-1.1084282">
<ele>804</ele>
<time>2013-06-02T19:15:26Z</time>
</trkpt>
<trkpt lat="38.234707" lon="-1.108439">
<ele>805</ele>
<time>2013-06-02T19:15:27Z</time>
</trkpt>
<trkpt lat="38.234825" lon="-1.108498">
<ele>807</ele>
<time>2013-06-02T19:15:28Z</time>
</trkpt>
<trkpt lat="38.234894" lon="-1.1085892">
<ele>808</ele>
<time>2013-06-02T19:15:29Z</time>
</trkpt>
<trkpt lat="38.235138" lon="-1.1089057">
<ele>809</ele>
<time>2013-06-02T19:15:32Z</time>
</trkpt>
<trkpt lat="38.235138" lon="-1.1091042">
<ele>813</ele>
<time>2013-06-02T19:15:33Z</time>
</trkpt>
<trkpt lat="38.235115" lon="-1.1092544">
<ele>813</ele>
<time>2013-06-02T19:15:34Z</time>
</trkpt>
<trkpt lat="38.23511" lon="-1.1093777">
<ele>814</ele>
<time>2013-06-02T19:15:35Z</time>
</trkpt>
<trkpt lat="38.235012" lon="-1.1094958">
<ele>812</ele>
<time>2013-06-02T19:15:36Z</time>
</trkpt>
<trkpt lat="38.234966" lon="-1.109603">
<ele>813</ele>
<time>2013-06-02T19:15:37Z</time>
</trkpt>
<trkpt lat="38.23493" lon="-1.109705">
<ele>813</ele>
<time>2013-06-02T19:15:38Z</time>
</trkpt>
<trkpt lat="38.234875" lon="-1.1097747">
<ele>814</ele>
<time>2013-06-02T19:15:39Z</time>
</trkpt>
<trkpt lat="38.234783" lon="-1.1097801">
<ele>816</ele>
<time>2013-06-02T19:15:40Z</time>
</trkpt>
<trkpt lat="38.234707" lon="-1.1098123">
<ele>816</ele>
<time>2013-06-02T19:15:41Z</time>
</trkpt>
<trkpt lat="38.23463" lon="-1.1098391">
<ele>817</ele>
<time>2013-06-02T19:15:42Z</time>
</trkpt>
<trkpt lat="38.234444" lon="-1.1098605">
<ele>816</ele>
<time>2013-06-02T19:15:45Z</time>
</trkpt>
<trkpt lat="38.23438" lon="-1.1098552">
<ele>817</ele>
<time>2013-06-02T19:15:46Z</time>
</trkpt>
<trkpt lat="38.234325" lon="-1.1098284">
<ele>815</ele>
<time>2013-06-02T19:15:47Z</time>
</trkpt>
<trkpt lat="38.234283" lon="-1.1098069">
<ele>816</ele>
<time>2013-06-02T19:15:48Z</time>
</trkpt>
<trkpt lat="38.23424" lon="-1.1097854">
<ele>817</ele>
<time>2013-06-02T19:15:49Z</time>
</trkpt>
<trkpt lat="38.234196" lon="-1.1097533">
<ele>816</ele>
<time>2013-06-02T19:15:50Z</time>
</trkpt>
<trkpt lat="38.23416" lon="-1.1097318">
<ele>816</ele>
<time>2013-06-02T19:15:51Z</time>
</trkpt>
<trkpt lat="38.234142" lon="-1.109705">
<ele>817</ele>
<time>2013-06-02T19:15:52Z</time>
</trkpt>
<trkpt lat="38.234196" lon="-1.1096513">
<ele>817</ele>
<time>2013-06-02T19:15:53Z</time>
</trkpt>
<trkpt lat="38.234203" lon="-1.1096245">
<ele>817</ele>
<time>2013-06-02T19:15:54Z</time>
</trkpt>
<trkpt lat="38.234215" lon="-1.109587">
<ele>818</ele>
<time>2013-06-02T19:15:55Z</time>
</trkpt>
<trkpt lat="38.234257" lon="-1.1095226">
<ele>819</ele>
<time>2013-06-02T19:15:58Z</time>
</trkpt>
<trkpt lat="38.234272" lon="-1.1095011">
<ele>819</ele>
<time>2013-06-02T19:15:59Z</time>
</trkpt>
<trkpt lat="38.234306" lon="-1.1094689">
<ele>819</ele>
<time>2013-06-02T19:16:00Z</time>
</trkpt>
<trkpt lat="38.234306" lon="-1.1094368">
<ele>819</ele>
<time>2013-06-02T19:16:01Z</time>
</trkpt>
<trkpt lat="38.234325" lon="-1.1094099">
<ele>820</ele>
<time>2013-06-02T19:16:02Z</time>
</trkpt>
<trkpt lat="38.23434" lon="-1.1093992">
<ele>820</ele>
<time>2013-06-02T19:16:03Z</time>
</trkpt>
<trkpt lat="38.23435" lon="-1.1093777">
<ele>820</ele>
<time>2013-06-02T19:16:04Z</time>
</trkpt>
<trkpt lat="38.23435" lon="-1.1093402">
<ele>820</ele>
<time>2013-06-02T19:16:05Z</time>
</trkpt>
<trkpt lat="38.23434" lon="-1.1093026">
<ele>819</ele>
<time>2013-06-02T19:16:06Z</time>
</trkpt>
<trkpt lat="38.234352" lon="-1.1092705">
<ele>820</ele>
<time>2013-06-02T19:16:07Z</time>
</trkpt>
<trkpt lat="38.23436" lon="-1.1092275">
<ele>819</ele>
<time>2013-06-02T19:16:08Z</time>
</trkpt>
<trkpt lat="38.234375" lon="-1.1091417">
<ele>819</ele>
<time>2013-06-02T19:16:11Z</time>
</trkpt>
<trkpt lat="38.234386" lon="-1.1091149">
<ele>820</ele>
<time>2013-06-02T19:16:12Z</time>
</trkpt>
<trkpt lat="38.234406" lon="-1.1090881">
<ele>820</ele>
<time>2013-06-02T19:16:13Z</time>
</trkpt>
<trkpt lat="38.234417" lon="-1.1090505">
<ele>820</ele>
<time>2013-06-02T19:16:14Z</time>
</trkpt>
<trkpt lat="38.234425" lon="-1.109013">
<ele>820</ele>
<time>2013-06-02T19:16:15Z</time>
</trkpt>
<trkpt lat="38.23446" lon="-1.1089754">
<ele>820</ele>
<time>2013-06-02T19:16:16Z</time>
</trkpt>
<trkpt lat="38.23447" lon="-1.108954">
<ele>820</ele>
<time>2013-06-02T19:16:17Z</time>
</trkpt>
<trkpt lat="38.23447" lon="-1.1089379">
<ele>820</ele>
<time>2013-06-02T19:16:18Z</time>
</trkpt>
<trkpt lat="38.23448" lon="-1.1089057">
<ele>820</ele>
<time>2013-06-02T19:16:19Z</time>
</trkpt>
<trkpt lat="38.23448" lon="-1.1088628">
<ele>823</ele>
<time>2013-06-02T19:16:20Z</time>
</trkpt>
<trkpt lat="38.234486" lon="-1.1088037">
<ele>823</ele>
<time>2013-06-02T19:16:21Z</time>
</trkpt>
<trkpt lat="38.23438" lon="-1.1086696">
<ele>838</ele>
<time>2013-06-02T19:16:24Z</time>
</trkpt>
<trkpt lat="38.234406" lon="-1.1086428">
<ele>840</ele>
<time>2013-06-02T19:16:25Z</time>
</trkpt>
<trkpt lat="38.23445" lon="-1.1086375">
<ele>841</ele>
<time>2013-06-02T19:16:26Z</time>
</trkpt>
<trkpt lat="38.23448" lon="-1.1086375">
<ele>839</ele>
<time>2013-06-02T19:16:27Z</time>
</trkpt>
<trkpt lat="38.234524" lon="-1.1086911">
<ele>838</ele>
<time>2013-06-02T19:16:28Z</time>
</trkpt>
<trkpt lat="38.234596" lon="-1.1087823">
<ele>838</ele>
<time>2013-06-02T19:16:29Z</time>
</trkpt>
<trkpt lat="38.234665" lon="-1.1088896">
<ele>839</ele>
<time>2013-06-02T19:16:30Z</time>
</trkpt>
<trkpt lat="38.23471" lon="-1.1089593">
<ele>840</ele>
<time>2013-06-02T19:16:31Z</time>
</trkpt>
<trkpt lat="38.234768" lon="-1.1090881">
<ele>840</ele>
<time>2013-06-02T19:16:32Z</time>
</trkpt>
<trkpt lat="38.234848" lon="-1.1092919">
<ele>839</ele>
<time>2013-06-02T19:16:33Z</time>
</trkpt>
<trkpt lat="38.234875" lon="-1.1094636">
<ele>839</ele>
<time>2013-06-02T19:16:34Z</time>
</trkpt>
<trkpt lat="38.2348" lon="-1.1099356">
<ele>840</ele>
<time>2013-06-02T19:16:37Z</time>
</trkpt>
<trkpt lat="38.234768" lon="-1.1100698">
<ele>841</ele>
<time>2013-06-02T19:16:38Z</time>
</trkpt>
<trkpt lat="38.23473" lon="-1.1102092">
<ele>842</ele>
<time>2013-06-02T19:16:39Z</time>
</trkpt>
<trkpt lat="38.234695" lon="-1.1103433">
<ele>843</ele>
<time>2013-06-02T19:16:40Z</time>
</trkpt>
<trkpt lat="38.234657" lon="-1.1104774">
<ele>845</ele>
<time>2013-06-02T19:16:41Z</time>
</trkpt>
<trkpt lat="38.234627" lon="-1.1106062">
<ele>846</ele>
<time>2013-06-02T19:16:42Z</time>
</trkpt>
<trkpt lat="38.2346" lon="-1.1107403">
<ele>848</ele>
<time>2013-06-02T19:16:43Z</time>
</trkpt>
<trkpt lat="38.234566" lon="-1.1108583">
<ele>849</ele>
<time>2013-06-02T19:16:44Z</time>
</trkpt>
<trkpt lat="38.234524" lon="-1.1109817">
<ele>850</ele>
<time>2013-06-02T19:16:45Z</time>
</trkpt>
<trkpt lat="38.23448" lon="-1.1110997">
<ele>852</ele>
<time>2013-06-02T19:16:46Z</time>
</trkpt>
<trkpt lat="38.234444" lon="-1.1112177">
<ele>853</ele>
<time>2013-06-02T19:16:47Z</time>
</trkpt>
<trkpt lat="38.234337" lon="-1.1115772">
<ele>854</ele>
<time>2013-06-02T19:16:50Z</time>
</trkpt>
<trkpt lat="38.2343" lon="-1.1117005">
<ele>854</ele>
<time>2013-06-02T19:16:51Z</time>
</trkpt>
<trkpt lat="38.23426" lon="-1.1118186">
<ele>855</ele>
<time>2013-06-02T19:16:52Z</time>
</trkpt>
<trkpt lat="38.234222" lon="-1.1119419">
<ele>855</ele>
<time>2013-06-02T19:16:53Z</time>
</trkpt>
<trkpt lat="38.23419" lon="-1.1120546">
<ele>855</ele>
<time>2013-06-02T19:16:54Z</time>
</trkpt>
<trkpt lat="38.23416" lon="-1.1121833">
<ele>855</ele>
<time>2013-06-02T19:16:55Z</time>
</trkpt>
<trkpt lat="38.234123" lon="-1.1123174">
<ele>855</ele>
<time>2013-06-02T19:16:56Z</time>
</trkpt>
<trkpt lat="38.234097" lon="-1.1124569">
<ele>855</ele>
<time>2013-06-02T19:16:57Z</time>
</trkpt>
<trkpt lat="38.23407" lon="-1.112591">
<ele>857</ele>
<time>2013-06-02T19:16:58Z</time>
</trkpt>
<trkpt lat="38.234047" lon="-1.1127198">
<ele>858</ele>
<time>2013-06-02T19:16:59Z</time>
</trkpt>
<trkpt lat="38.234024" lon="-1.1128324">
<ele>858</ele>
<time>2013-06-02T19:17:00Z</time>
</trkpt>
<trkpt lat="38.23395" lon="-1.113224">
<ele>857</ele>
<time>2013-06-02T19:17:03Z</time>
</trkpt>
<trkpt lat="38.233925" lon="-1.1133796">
<ele>857</ele>
<time>2013-06-02T19:17:04Z</time>
</trkpt>
<trkpt lat="38.23391" lon="-1.1135405">
<ele>857</ele>
<time>2013-06-02T19:17:05Z</time>
</trkpt>
<trkpt lat="38.23389" lon="-1.1136854">
<ele>858</ele>
<time>2013-06-02T19:17:06Z</time>
</trkpt>
<trkpt lat="38.233875" lon="-1.1138248">
<ele>858</ele>
<time>2013-06-02T19:17:07Z</time>
</trkpt>
<trkpt lat="38.23386" lon="-1.1139536">
<ele>858</ele>
<time>2013-06-02T19:17:08Z</time>
</trkpt>
<trkpt lat="38.233845" lon="-1.114077">
<ele>858</ele>
<time>2013-06-02T19:17:09Z</time>
</trkpt>
<trkpt lat="38.23382" lon="-1.1142111">
<ele>858</ele>
<time>2013-06-02T19:17:10Z</time>
</trkpt>
<trkpt lat="38.2338" lon="-1.1143452">
<ele>858</ele>
<time>2013-06-02T19:17:11Z</time>
</trkpt>
<trkpt lat="38.23378" lon="-1.11449">
<ele>858</ele>
<time>2013-06-02T19:17:12Z</time>
</trkpt>
<trkpt lat="38.233784" lon="-1.1146617">
<ele>858</ele>
<time>2013-06-02T19:17:13Z</time>
</trkpt>
<trkpt lat="38.233757" lon="-1.1150855">
<ele>860</ele>
<time>2013-06-02T19:17:16Z</time>
</trkpt>
<trkpt lat="38.23374" lon="-1.1152196">
<ele>860</ele>
<time>2013-06-02T19:17:17Z</time>
</trkpt>
<trkpt lat="38.233727" lon="-1.1153483">
<ele>860</ele>
<time>2013-06-02T19:17:18Z</time>
</trkpt>
<trkpt lat="38.233727" lon="-1.1155039">
<ele>859</ele>
<time>2013-06-02T19:17:19Z</time>
</trkpt>
<trkpt lat="38.233727" lon="-1.1156648">
<ele>859</ele>
<time>2013-06-02T19:17:20Z</time>
</trkpt>
<trkpt lat="38.23371" lon="-1.1158258">
<ele>859</ele>
<time>2013-06-02T19:17:21Z</time>
</trkpt>
<trkpt lat="38.23371" lon="-1.1159492">
<ele>858</ele>
<time>2013-06-02T19:17:22Z</time>
</trkpt>
<trkpt lat="38.233704" lon="-1.1160779">
<ele>858</ele>
<time>2013-06-02T19:17:23Z</time>
</trkpt>
<trkpt lat="38.233692" lon="-1.116212">
<ele>858</ele>
<time>2013-06-02T19:17:24Z</time>
</trkpt>
<trkpt lat="38.2337" lon="-1.1163837">
<ele>857</ele>
<time>2013-06-02T19:17:25Z</time>
</trkpt>
<trkpt lat="38.23369" lon="-1.1165446">
<ele>857</ele>
<time>2013-06-02T19:17:26Z</time>
</trkpt>
<trkpt lat="38.235443" lon="-1.1309642">
<ele>711</ele>
<time>2013-06-02T19:19:06Z</time>
</trkpt>
<trkpt lat="38.235462" lon="-1.1312056">
<ele>717</ele>
<time>2013-06-02T19:19:07Z</time>
</trkpt>
<trkpt lat="38.235527" lon="-1.1313611">
<ele>717</ele>
<time>2013-06-02T19:19:08Z</time>
</trkpt>
<trkpt lat="38.23548" lon="-1.1315596">
<ele>709</ele>
<time>2013-06-02T19:19:09Z</time>
</trkpt>
<trkpt lat="38.235615" lon="-1.1317044">
<ele>718</ele>
<time>2013-06-02T19:19:10Z</time>
</trkpt>
<trkpt lat="38.235672" lon="-1.1318225">
<ele>720</ele>
<time>2013-06-02T19:19:11Z</time>
</trkpt>
<trkpt lat="38.23572" lon="-1.1319566">
<ele>723</ele>
<time>2013-06-02T19:19:12Z</time>
</trkpt>
<trkpt lat="38.235764" lon="-1.132096">
<ele>722</ele>
<time>2013-06-02T19:19:13Z</time>
</trkpt>
<trkpt lat="38.235817" lon="-1.1322355">
<ele>722</ele>
<time>2013-06-02T19:19:14Z</time>
</trkpt>
<trkpt lat="38.23586" lon="-1.132375">
<ele>722</ele>
<time>2013-06-02T19:19:15Z</time>
</trkpt>
<trkpt lat="38.235893" lon="-1.1324984">
<ele>721</ele>
<time>2013-06-02T19:19:16Z</time>
</trkpt>
<trkpt lat="38.235947" lon="-1.1328793">
<ele>719</ele>
<time>2013-06-02T19:19:19Z</time>
</trkpt>
<trkpt lat="38.235947" lon="-1.1330241">
<ele>719</ele>
<time>2013-06-02T19:19:20Z</time>
</trkpt>
<trkpt lat="38.235935" lon="-1.1331475">
<ele>719</ele>
<time>2013-06-02T19:19:21Z</time>
</trkpt>
<trkpt lat="38.235924" lon="-1.1332655">
<ele>719</ele>
<time>2013-06-02T19:19:22Z</time>
</trkpt>
<trkpt lat="38.235912" lon="-1.1333781">
<ele>719</ele>
<time>2013-06-02T19:19:23Z</time>
</trkpt>
<trkpt lat="38.23591" lon="-1.1334854">
<ele>718</ele>
<time>2013-06-02T19:19:24Z</time>
</trkpt>
<trkpt lat="38.235905" lon="-1.1336035">
<ele>718</ele>
<time>2013-06-02T19:19:25Z</time>
</trkpt>
<trkpt lat="38.23591" lon="-1.1337429">
<ele>717</ele>
<time>2013-06-02T19:19:26Z</time>
</trkpt>
<trkpt lat="38.235912" lon="-1.1338985">
<ele>716</ele>
<time>2013-06-02T19:19:27Z</time>
</trkpt>
<trkpt lat="38.23594" lon="-1.1340326">
<ele>716</ele>
<time>2013-06-02T19:19:28Z</time>
</trkpt>
<trkpt lat="38.235962" lon="-1.1341721">
<ele>716</ele>
<time>2013-06-02T19:19:29Z</time>
</trkpt>
<trkpt lat="38.236042" lon="-1.1346066">
<ele>718</ele>
<time>2013-06-02T19:19:32Z</time>
</trkpt>
<trkpt lat="38.236065" lon="-1.1347514">
<ele>718</ele>
<time>2013-06-02T19:19:33Z</time>
</trkpt>
<trkpt lat="38.236095" lon="-1.1348855">
<ele>718</ele>
<time>2013-06-02T19:19:34Z</time>
</trkpt>
<trkpt lat="38.236115" lon="-1.1350143">
<ele>718</ele>
<time>2013-06-02T19:19:35Z</time>
</trkpt>
<trkpt lat="38.23612" lon="-1.1351538">
<ele>718</ele>
<time>2013-06-02T19:19:36Z</time>
</trkpt>
<trkpt lat="38.236122" lon="-1.1352986">
<ele>718</ele>
<time>2013-06-02T19:19:37Z</time>
</trkpt>
<trkpt lat="38.236122" lon="-1.1354434">
<ele>718</ele>
<time>2013-06-02T19:19:38Z</time>
</trkpt>
<trkpt lat="38.236115" lon="-1.1355722">
<ele>719</ele>
<time>2013-06-02T19:19:39Z</time>
</trkpt>
<trkpt lat="38.236095" lon="-1.1356956">
<ele>720</ele>
<time>2013-06-02T19:19:40Z</time>
</trkpt>
<trkpt lat="38.23608" lon="-1.1358082">
<ele>719</ele>
<time>2013-06-02T19:19:41Z</time>
</trkpt>
<trkpt lat="38.23605" lon="-1.1359316">
<ele>719</ele>
<time>2013-06-02T19:19:42Z</time>
</trkpt>
<trkpt lat="38.23592" lon="-1.1362481">
<ele>720</ele>
<time>2013-06-02T19:19:45Z</time>
</trkpt>
<trkpt lat="38.235855" lon="-1.1363393">
<ele>721</ele>
<time>2013-06-02T19:19:46Z</time>
</trkpt>
<trkpt lat="38.235806" lon="-1.1364198">
<ele>721</ele>
<time>2013-06-02T19:19:47Z</time>
</trkpt>
<trkpt lat="38.235752" lon="-1.1364734">
<ele>721</ele>
<time>2013-06-02T19:19:48Z</time>
</trkpt>
<trkpt lat="38.235706" lon="-1.1364841">
<ele>721</ele>
<time>2013-06-02T19:19:49Z</time>
</trkpt>
<trkpt lat="38.235672" lon="-1.1363554">
<ele>720</ele>
<time>2013-06-02T19:19:50Z</time>
</trkpt>
<trkpt lat="38.23563" lon="-1.1363018">
<ele>720</ele>
<time>2013-06-02T19:19:51Z</time>
</trkpt>
<trkpt lat="38.235588" lon="-1.1362964">
<ele>719</ele>
<time>2013-06-02T19:19:52Z</time>
</trkpt>
<trkpt lat="38.23558" lon="-1.1362749">
<ele>720</ele>
<time>2013-06-02T19:19:53Z</time>
</trkpt>
<trkpt lat="38.235607" lon="-1.136291">
<ele>719</ele>
<time>2013-06-02T19:19:54Z</time>
</trkpt>
<trkpt lat="38.23574" lon="-1.1362535">
<ele>720</ele>
<time>2013-06-02T19:19:55Z</time>
</trkpt>
<trkpt lat="38.23594" lon="-1.1361998">
<ele>722</ele>
<time>2013-06-02T19:19:58Z</time>
</trkpt>
<trkpt lat="38.235996" lon="-1.1361676">
<ele>722</ele>
<time>2013-06-02T19:19:59Z</time>
</trkpt>
<trkpt lat="38.236076" lon="-1.1361462">
<ele>722</ele>
<time>2013-06-02T19:20:00Z</time>
</trkpt>
<trkpt lat="38.23632" lon="-1.1361086">
<ele>722</ele>
<time>2013-06-02T19:20:01Z</time>
</trkpt>
<trkpt lat="38.23642" lon="-1.1360925">
<ele>722</ele>
<time>2013-06-02T19:20:02Z</time>
</trkpt>
<trkpt lat="38.23653" lon="-1.1360604">
<ele>722</ele>
<time>2013-06-02T19:20:03Z</time>
</trkpt>
<trkpt lat="38.23661" lon="-1.1360443">
<ele>723</ele>
<time>2013-06-02T19:20:04Z</time>
</trkpt>
<trkpt lat="38.2367" lon="-1.1360121">
<ele>723</ele>
<time>2013-06-02T19:20:05Z</time>
</trkpt>
<trkpt lat="38.236767" lon="-1.1360121">
<ele>724</ele>
<time>2013-06-02T19:20:06Z</time>
</trkpt>
<trkpt lat="38.23681" lon="-1.1359799">
<ele>724</ele>
<time>2013-06-02T19:20:07Z</time>
</trkpt>
<trkpt lat="38.236835" lon="-1.1359477">
<ele>723</ele>
<time>2013-06-02T19:20:08Z</time>
</trkpt>
<trkpt lat="38.236927" lon="-1.1358672">
<ele>723</ele>
<time>2013-06-02T19:20:11Z</time>
</trkpt>
<trkpt lat="38.23696" lon="-1.1358619">
<ele>724</ele>
<time>2013-06-02T19:20:12Z</time>
</trkpt>
<trkpt lat="38.237" lon="-1.1358565">
<ele>724</ele>
<time>2013-06-02T19:20:13Z</time>
</trkpt>
<trkpt lat="38.237" lon="-1.1358082">
<ele>724</ele>
<time>2013-06-02T19:20:14Z</time>
</trkpt>
<trkpt lat="38.23702" lon="-1.13576">
<ele>724</ele>
<time>2013-06-02T19:20:15Z</time>
</trkpt>
<trkpt lat="38.237034" lon="-1.1357278">
<ele>724</ele>
<time>2013-06-02T19:20:16Z</time>
</trkpt>
<trkpt lat="38.23707" lon="-1.135701">
<ele>724</ele>
<time>2013-06-02T19:20:17Z</time>
</trkpt>
<trkpt lat="38.237106" lon="-1.135658">
<ele>724</ele>
<time>2013-06-02T19:20:18Z</time>
</trkpt>
<trkpt lat="38.237175" lon="-1.1356097">
<ele>724</ele>
<time>2013-06-02T19:20:19Z</time>
</trkpt>
<trkpt lat="38.237186" lon="-1.1355293">
<ele>724</ele>
<time>2013-06-02T19:20:20Z</time>
</trkpt>
<trkpt lat="38.23724" lon="-1.135481">
<ele>724</ele>
<time>2013-06-02T19:20:21Z</time>
</trkpt>
<trkpt lat="38.237404" lon="-1.1353898">
<ele>724</ele>
<time>2013-06-02T19:20:24Z</time>
</trkpt>
<trkpt lat="38.23744" lon="-1.1353576">
<ele>725</ele>
<time>2013-06-02T19:20:25Z</time>
</trkpt>
<trkpt lat="38.23748" lon="-1.1353523">
<ele>725</ele>
<time>2013-06-02T19:20:26Z</time>
</trkpt>
<trkpt lat="38.237514" lon="-1.1353093">
<ele>725</ele>
<time>2013-06-02T19:20:27Z</time>
</trkpt>
<trkpt lat="38.23754" lon="-1.1352825">
<ele>725</ele>
<time>2013-06-02T19:20:28Z</time>
</trkpt>
<trkpt lat="38.23755" lon="-1.135261">
<ele>725</ele>
<time>2013-06-02T19:20:29Z</time>
</trkpt>
<trkpt lat="38.23755" lon="-1.1352503">
<ele>725</ele>
<time>2013-06-02T19:20:30Z</time>
</trkpt>
<trkpt lat="38.23756" lon="-1.135245">
<ele>725</ele>
<time>2013-06-02T19:20:31Z</time>
</trkpt>
<trkpt lat="38.23756" lon="-1.135245">
<ele>725</ele>
<time>2013-06-02T19:20:32Z</time>
</trkpt>
<trkpt lat="38.23748" lon="-1.1352074">
<ele>730</ele>
<time>2013-06-02T19:20:33Z</time>
</trkpt>
<trkpt lat="38.237457" lon="-1.1351967">
<ele>732</ele>
<time>2013-06-02T19:20:34Z</time>
</trkpt>
<trkpt lat="38.23727" lon="-1.1351645">
<ele>747</ele>
<time>2013-06-02T19:20:37Z</time>
</trkpt>
<trkpt lat="38.23725" lon="-1.1351699">
<ele>748</ele>
<time>2013-06-02T19:20:38Z</time>
</trkpt>
<trkpt lat="38.23719" lon="-1.1351484">
<ele>754</ele>
<time>2013-06-02T19:20:39Z</time>
</trkpt>
<trkpt lat="38.237152" lon="-1.1351484">
<ele>755</ele>
<time>2013-06-02T19:20:40Z</time>
</trkpt>
<trkpt lat="38.237125" lon="-1.1351538">
<ele>756</ele>
<time>2013-06-02T19:20:41Z</time>
</trkpt>
<trkpt lat="38.23708" lon="-1.1351699">
<ele>758</ele>
<time>2013-06-02T19:20:42Z</time>
</trkpt>
<trkpt lat="38.237" lon="-1.1351967">
<ele>762</ele>
<time>2013-06-02T19:20:43Z</time>
</trkpt>
<trkpt lat="38.23694" lon="-1.1352289">
<ele>765</ele>
<time>2013-06-02T19:20:44Z</time>
</trkpt>
<trkpt lat="38.23689" lon="-1.1352503">
<ele>767</ele>
<time>2013-06-02T19:20:45Z</time>
</trkpt>
<trkpt lat="38.236847" lon="-1.1352718">
<ele>767</ele>
<time>2013-06-02T19:20:46Z</time>
</trkpt>
<trkpt lat="38.236805" lon="-1.1352879">
<ele>768</ele>
<time>2013-06-02T19:20:47Z</time>
</trkpt>
<trkpt lat="38.23666" lon="-1.1353254">
<ele>769</ele>
<time>2013-06-02T19:20:50Z</time>
</trkpt>
<trkpt lat="38.23661" lon="-1.1353415">
<ele>770</ele>
<time>2013-06-02T19:20:51Z</time>
</trkpt>
<trkpt lat="38.23657" lon="-1.135363">
<ele>770</ele>
<time>2013-06-02T19:20:52Z</time>
</trkpt>
<trkpt lat="38.23652" lon="-1.1354005">
<ele>771</ele>
<time>2013-06-02T19:20:53Z</time>
</trkpt>
<trkpt lat="38.236465" lon="-1.1354381">
<ele>771</ele>
<time>2013-06-02T19:20:54Z</time>
</trkpt>
<trkpt lat="38.23644" lon="-1.1354703">
<ele>772</ele>
<time>2013-06-02T19:20:55Z</time>
</trkpt>
<trkpt lat="38.236397" lon="-1.1355025">
<ele>772</ele>
<time>2013-06-02T19:20:56Z</time>
</trkpt>
<trkpt lat="38.23634" lon="-1.13554">
<ele>772</ele>
<time>2013-06-02T19:20:57Z</time>
</trkpt>
<trkpt lat="38.236256" lon="-1.1355937">
<ele>773</ele>
<time>2013-06-02T19:20:58Z</time>
</trkpt>
<trkpt lat="38.236176" lon="-1.135658">
<ele>773</ele>
<time>2013-06-02T19:20:59Z</time>
</trkpt>
<trkpt lat="38.236115" lon="-1.1357331">
<ele>774</ele>
<time>2013-06-02T19:21:00Z</time>
</trkpt>
<trkpt lat="38.235977" lon="-1.1360013">
<ele>776</ele>
<time>2013-06-02T19:21:03Z</time>
</trkpt>
<trkpt lat="38.236" lon="-1.1361408">
<ele>776</ele>
<time>2013-06-02T19:21:04Z</time>
</trkpt>
<trkpt lat="38.236023" lon="-1.1363018">
<ele>776</ele>
<time>2013-06-02T19:21:05Z</time>
</trkpt>
<trkpt lat="38.23605" lon="-1.1364573">
<ele>775</ele>
<time>2013-06-02T19:21:06Z</time>
</trkpt>
<trkpt lat="38.236076" lon="-1.1366022">
<ele>775</ele>
<time>2013-06-02T19:21:07Z</time>
</trkpt>
<trkpt lat="38.23608" lon="-1.1367416">
<ele>774</ele>
<time>2013-06-02T19:21:08Z</time>
</trkpt>
<trkpt lat="38.236084" lon="-1.1368865">
<ele>773</ele>
<time>2013-06-02T19:21:09Z</time>
</trkpt>
<trkpt lat="38.236065" lon="-1.137026">
<ele>774</ele>
<time>2013-06-02T19:21:10Z</time>
</trkpt>
<trkpt lat="38.23604" lon="-1.1371493">
<ele>774</ele>
<time>2013-06-02T19:21:11Z</time>
</trkpt>
<trkpt lat="38.23601" lon="-1.1372781">
<ele>775</ele>
<time>2013-06-02T19:21:12Z</time>
</trkpt>
<trkpt lat="38.235977" lon="-1.13738">
<ele>775</ele>
<time>2013-06-02T19:21:13Z</time>
</trkpt>
<trkpt lat="38.235832" lon="-1.1375463">
<ele>774</ele>
<time>2013-06-02T19:21:16Z</time>
</trkpt>
<trkpt lat="38.235798" lon="-1.1375946">
<ele>775</ele>
<time>2013-06-02T19:21:17Z</time>
</trkpt>
<trkpt lat="38.235764" lon="-1.1375624">
<ele>775</ele>
<time>2013-06-02T19:21:18Z</time>
</trkpt>
<trkpt lat="38.235733" lon="-1.1375302">
<ele>775</ele>
<time>2013-06-02T19:21:19Z</time>
</trkpt>
<trkpt lat="38.235737" lon="-1.1375141">
<ele>776</ele>
<time>2013-06-02T19:21:20Z</time>
</trkpt>
<trkpt lat="38.235775" lon="-1.1374658">
<ele>776</ele>
<time>2013-06-02T19:21:21Z</time>
</trkpt>
<trkpt lat="38.23586" lon="-1.1374283">
<ele>776</ele>
<time>2013-06-02T19:21:22Z</time>
</trkpt>
<trkpt lat="38.23594" lon="-1.1373854">
<ele>776</ele>
<time>2013-06-02T19:21:23Z</time>
</trkpt>
<trkpt lat="38.235977" lon="-1.1373425">
<ele>775</ele>
<time>2013-06-02T19:21:24Z</time>
</trkpt>
<trkpt lat="38.236027" lon="-1.1372995">
<ele>776</ele>
<time>2013-06-02T19:21:25Z</time>
</trkpt>
<trkpt lat="38.236076" lon="-1.137262">
<ele>776</ele>
<time>2013-06-02T19:21:26Z</time>
</trkpt>
<trkpt lat="38.23621" lon="-1.1371547">
<ele>774</ele>
<time>2013-06-02T19:21:29Z</time>
</trkpt>
<trkpt lat="38.236256" lon="-1.1371171">
<ele>774</ele>
<time>2013-06-02T19:21:30Z</time>
</trkpt>
<trkpt lat="38.236294" lon="-1.1370796">
<ele>774</ele>
<time>2013-06-02T19:21:31Z</time>
</trkpt>
<trkpt lat="38.23634" lon="-1.1370474">
<ele>774</ele>
<time>2013-06-02T19:21:32Z</time>
</trkpt>
<trkpt lat="38.236385" lon="-1.1370206">
<ele>774</ele>
<time>2013-06-02T19:21:33Z</time>
</trkpt>
<trkpt lat="38.23641" lon="-1.1369991">
<ele>774</ele>
<time>2013-06-02T19:21:34Z</time>
</trkpt>
<trkpt lat="38.236458" lon="-1.1369723">
<ele>774</ele>
<time>2013-06-02T19:21:35Z</time>
</trkpt>
<trkpt lat="38.236492" lon="-1.1369294">
<ele>774</ele>
<time>2013-06-02T19:21:36Z</time>
</trkpt>
<trkpt lat="38.236538" lon="-1.1369187">
<ele>774</ele>
<time>2013-06-02T19:21:37Z</time>
</trkpt>
<trkpt lat="38.236584" lon="-1.1369133">
<ele>775</ele>
<time>2013-06-02T19:21:38Z</time>
</trkpt>
<trkpt lat="38.236626" lon="-1.1368972">
<ele>775</ele>
<time>2013-06-02T19:21:39Z</time>
</trkpt>
<trkpt lat="38.23675" lon="-1.1368489">
<ele>775</ele>
<time>2013-06-02T19:21:42Z</time>
</trkpt>
<trkpt lat="38.236794" lon="-1.1368275">
<ele>775</ele>
<time>2013-06-02T19:21:43Z</time>
</trkpt>
<trkpt lat="38.23683" lon="-1.1368006">
<ele>776</ele>
<time>2013-06-02T19:21:44Z</time>
</trkpt>
<trkpt lat="38.236843" lon="-1.1367846">
<ele>776</ele>
<time>2013-06-02T19:21:45Z</time>
</trkpt>
<trkpt lat="38.23687" lon="-1.136747">
<ele>776</ele>
<time>2013-06-02T19:21:46Z</time>
</trkpt>
<trkpt lat="38.236908" lon="-1.1367309">
<ele>776</ele>
<time>2013-06-02T19:21:47Z</time>
</trkpt>
<trkpt lat="38.2369" lon="-1.1366612">
<ele>776</ele>
<time>2013-06-02T19:21:48Z</time>
</trkpt>
<trkpt lat="38.2369" lon="-1.1366075">
<ele>776</ele>
<time>2013-06-02T19:21:49Z</time>
</trkpt>
<trkpt lat="38.23691" lon="-1.1365753">
<ele>776</ele>
<time>2013-06-02T19:21:50Z</time>
</trkpt>
<trkpt lat="38.236942" lon="-1.1365432">
<ele>776</ele>
<time>2013-06-02T19:21:51Z</time>
</trkpt>
<trkpt lat="38.23695" lon="-1.1365056">
<ele>776</ele>
<time>2013-06-02T19:21:52Z</time>
</trkpt>
<trkpt lat="38.23706" lon="-1.1364144">
<ele>774</ele>
<time>2013-06-02T19:21:55Z</time>
</trkpt>
<trkpt lat="38.237095" lon="-1.1363822">
<ele>774</ele>
<time>2013-06-02T19:21:56Z</time>
</trkpt>
<trkpt lat="38.23711" lon="-1.136334">
<ele>774</ele>
<time>2013-06-02T19:21:57Z</time>
</trkpt>
<trkpt lat="38.237144" lon="-1.1363125">
<ele>770</ele>
<time>2013-06-02T19:21:58Z</time>
</trkpt>
<trkpt lat="38.237175" lon="-1.1363178">
<ele>766</ele>
<time>2013-06-02T19:21:59Z</time>
</trkpt>
<trkpt lat="38.237164" lon="-1.1362642">
<ele>765</ele>
<time>2013-06-02T19:22:00Z</time>
</trkpt>
<trkpt lat="38.237152" lon="-1.1362159">
<ele>766</ele>
<time>2013-06-02T19:22:01Z</time>
</trkpt>
<trkpt lat="38.237144" lon="-1.1362052">
<ele>762</ele>
<time>2013-06-02T19:22:02Z</time>
</trkpt>
<trkpt lat="38.237114" lon="-1.1361837">
<ele>762</ele>
<time>2013-06-02T19:22:03Z</time>
</trkpt>
<trkpt lat="38.2371" lon="-1.1361623">
<ele>761</ele>
<time>2013-06-02T19:22:04Z</time>
</trkpt>
<trkpt lat="38.23698" lon="-1.1362588">
<ele>759</ele>
<time>2013-06-02T19:22:05Z</time>
</trkpt>
<trkpt lat="38.236805" lon="-1.1365217">
<ele>756</ele>
<time>2013-06-02T19:22:08Z</time>
</trkpt>
<trkpt lat="38.23677" lon="-1.136629">
<ele>756</ele>
<time>2013-06-02T19:22:09Z</time>
</trkpt>
<trkpt lat="38.236736" lon="-1.1367148">
<ele>757</ele>
<time>2013-06-02T19:22:10Z</time>
</trkpt>
<trkpt lat="38.2367" lon="-1.1368275">
<ele>756</ele>
<time>2013-06-02T19:22:11Z</time>
</trkpt>
<trkpt lat="38.236633" lon="-1.1369187">
<ele>758</ele>
<time>2013-06-02T19:22:12Z</time>
</trkpt>
<trkpt lat="38.236595" lon="-1.137026">
<ele>758</ele>
<time>2013-06-02T19:22:13Z</time>
</trkpt>
<trkpt lat="38.236572" lon="-1.1371386">
<ele>758</ele>
<time>2013-06-02T19:22:14Z</time>
</trkpt>
<trkpt lat="38.236538" lon="-1.1372298">
<ele>759</ele>
<time>2013-06-02T19:22:15Z</time>
</trkpt>
<trkpt lat="38.236504" lon="-1.137321">
<ele>759</ele>
<time>2013-06-02T19:22:16Z</time>
</trkpt>
<trkpt lat="38.236465" lon="-1.1374444">
<ele>759</ele>
<time>2013-06-02T19:22:17Z</time>
</trkpt>
<trkpt lat="38.23644" lon="-1.1375785">
<ele>760</ele>
<time>2013-06-02T19:22:18Z</time>
</trkpt>
<trkpt lat="38.236412" lon="-1.1379701">
<ele>762</ele>
<time>2013-06-02T19:22:21Z</time>
</trkpt>
<trkpt lat="38.236423" lon="-1.1380935">
<ele>762</ele>
<time>2013-06-02T19:22:22Z</time>
</trkpt>
<trkpt lat="38.236435" lon="-1.138233">
<ele>761</ele>
<time>2013-06-02T19:22:23Z</time>
</trkpt>
<trkpt lat="38.23644" lon="-1.1383724">
<ele>760</ele>
<time>2013-06-02T19:22:24Z</time>
</trkpt>
<trkpt lat="38.23644" lon="-1.1385226">
<ele>759</ele>
<time>2013-06-02T19:22:25Z</time>
</trkpt>
<trkpt lat="38.23644" lon="-1.1386728">
<ele>759</ele>
<time>2013-06-02T19:22:26Z</time>
</trkpt>
<trkpt lat="38.23646" lon="-1.138823">
<ele>759</ele>
<time>2013-06-02T19:22:27Z</time>
</trkpt>
<trkpt lat="38.236473" lon="-1.1389679">
<ele>759</ele>
<time>2013-06-02T19:22:28Z</time>
</trkpt>
<trkpt lat="38.23649" lon="-1.1391181">
<ele>759</ele>
<time>2013-06-02T19:22:29Z</time>
</trkpt>
<trkpt lat="38.2365" lon="-1.1392629">
<ele>758</ele>
<time>2013-06-02T19:22:30Z</time>
</trkpt>
<trkpt lat="38.23651" lon="-1.1394024">
<ele>758</ele>
<time>2013-06-02T19:22:31Z</time>
</trkpt>
<trkpt lat="38.23659" lon="-1.1398208">
<ele>757</ele>
<time>2013-06-02T19:22:34Z</time>
</trkpt>
<trkpt lat="38.236633" lon="-1.139971">
<ele>756</ele>
<time>2013-06-02T19:22:35Z</time>
</trkpt>
<trkpt lat="38.236664" lon="-1.1401159">
<ele>755</ele>
<time>2013-06-02T19:22:36Z</time>
</trkpt>
<trkpt lat="38.236687" lon="-1.1402553">
<ele>755</ele>
<time>2013-06-02T19:22:37Z</time>
</trkpt>
<trkpt lat="38.236713" lon="-1.1403894">
<ele>754</ele>
<time>2013-06-02T19:22:38Z</time>
</trkpt>
<trkpt lat="38.23674" lon="-1.1405343">
<ele>752</ele>
<time>2013-06-02T19:22:39Z</time>
</trkpt>
<trkpt lat="38.23677" lon="-1.1406791">
<ele>751</ele>
<time>2013-06-02T19:22:40Z</time>
</trkpt>
<trkpt lat="38.236805" lon="-1.140824">
<ele>750</ele>
<time>2013-06-02T19:22:41Z</time>
</trkpt>
<trkpt lat="38.236835" lon="-1.1409742">
<ele>751</ele>
<time>2013-06-02T19:22:42Z</time>
</trkpt>
<trkpt lat="38.23686" lon="-1.141119">
<ele>751</ele>
<time>2013-06-02T19:22:43Z</time>
</trkpt>
<trkpt lat="38.236874" lon="-1.1412638">
<ele>752</ele>
<time>2013-06-02T19:22:44Z</time>
</trkpt>
<trkpt lat="38.2369" lon="-1.1416876">
<ele>752</ele>
<time>2013-06-02T19:22:47Z</time>
</trkpt>
<trkpt lat="38.236897" lon="-1.1418271">
<ele>752</ele>
<time>2013-06-02T19:22:48Z</time>
</trkpt>
<trkpt lat="38.236885" lon="-1.141972">
<ele>753</ele>
<time>2013-06-02T19:22:49Z</time>
</trkpt>
<trkpt lat="38.236874" lon="-1.142106">
<ele>755</ele>
<time>2013-06-02T19:22:50Z</time>
</trkpt>
<trkpt lat="38.23686" lon="-1.1422294">
<ele>755</ele>
<time>2013-06-02T19:22:51Z</time>
</trkpt>
<trkpt lat="38.23683" lon="-1.1423475">
<ele>755</ele>
<time>2013-06-02T19:22:52Z</time>
</trkpt>
<trkpt lat="38.236805" lon="-1.1424655">
<ele>756</ele>
<time>2013-06-02T19:22:53Z</time>
</trkpt>
<trkpt lat="38.236763" lon="-1.1425835">
<ele>756</ele>
<time>2013-06-02T19:22:54Z</time>
</trkpt>
<trkpt lat="38.236717" lon="-1.14268">
<ele>757</ele>
<time>2013-06-02T19:22:55Z</time>
</trkpt>
<trkpt lat="38.236683" lon="-1.1427659">
<ele>758</ele>
<time>2013-06-02T19:22:56Z</time>
</trkpt>
<trkpt lat="38.23665" lon="-1.142841">
<ele>758</ele>
<time>2013-06-02T19:22:57Z</time>
</trkpt>
<trkpt lat="38.236526" lon="-1.1430341">
<ele>760</ele>
<time>2013-06-02T19:23:00Z</time>
</trkpt>
<trkpt lat="38.236485" lon="-1.1430931">
<ele>760</ele>
<time>2013-06-02T19:23:01Z</time>
</trkpt>
<trkpt lat="38.23644" lon="-1.1431468">
<ele>759</ele>
<time>2013-06-02T19:23:02Z</time>
</trkpt>
<trkpt lat="38.236393" lon="-1.1431897">
<ele>759</ele>
<time>2013-06-02T19:23:03Z</time>
</trkpt>
<trkpt lat="38.23634" lon="-1.1432272">
<ele>760</ele>
<time>2013-06-02T19:23:04Z</time>
</trkpt>
<trkpt lat="38.236282" lon="-1.1432701">
<ele>760</ele>
<time>2013-06-02T19:23:05Z</time>
</trkpt>
<trkpt lat="38.23623" lon="-1.1433184">
<ele>761</ele>
<time>2013-06-02T19:23:06Z</time>
</trkpt>
<trkpt lat="38.236183" lon="-1.143372">
<ele>761</ele>
<time>2013-06-02T19:23:07Z</time>
</trkpt>
<trkpt lat="38.236134" lon="-1.1434257">
<ele>761</ele>
<time>2013-06-02T19:23:08Z</time>
</trkpt>
<trkpt lat="38.23608" lon="-1.1434793">
<ele>761</ele>
<time>2013-06-02T19:23:09Z</time>
</trkpt>
<trkpt lat="38.236027" lon="-1.1435384">
<ele>761</ele>
<time>2013-06-02T19:23:10Z</time>
</trkpt>
<trkpt lat="38.23586" lon="-1.1437261">
<ele>761</ele>
<time>2013-06-02T19:23:13Z</time>
</trkpt>
<trkpt lat="38.2358" lon="-1.1437905">
<ele>762</ele>
<time>2013-06-02T19:23:14Z</time>
</trkpt>
<trkpt lat="38.23574" lon="-1.1438441">
<ele>762</ele>
<time>2013-06-02T19:23:15Z</time>
</trkpt>
<trkpt lat="38.235683" lon="-1.1439031">
<ele>763</ele>
<time>2013-06-02T19:23:16Z</time>
</trkpt>
<trkpt lat="38.235626" lon="-1.1439514">
<ele>764</ele>
<time>2013-06-02T19:23:17Z</time>
</trkpt>
<trkpt lat="38.235565" lon="-1.1440051">
<ele>764</ele>
<time>2013-06-02T19:23:18Z</time>
</trkpt>
<trkpt lat="38.23551" lon="-1.1440587">
<ele>765</ele>
<time>2013-06-02T19:23:19Z</time>
</trkpt>
<trkpt lat="38.235447" lon="-1.1441123">
<ele>766</ele>
<time>2013-06-02T19:23:20Z</time>
</trkpt>
<trkpt lat="38.23539" lon="-1.144166">
<ele>766</ele>
<time>2013-06-02T19:23:21Z</time>
</trkpt>
<trkpt lat="38.235325" lon="-1.1442304">
<ele>768</ele>
<time>2013-06-02T19:23:22Z</time>
</trkpt>
<trkpt lat="38.23526" lon="-1.1443001">
<ele>769</ele>
<time>2013-06-02T19:23:23Z</time>
</trkpt>
<trkpt lat="38.235073" lon="-1.144504">
<ele>772</ele>
<time>2013-06-02T19:23:26Z</time>
</trkpt>
<trkpt lat="38.235012" lon="-1.144563">
<ele>773</ele>
<time>2013-06-02T19:23:27Z</time>
</trkpt>
<trkpt lat="38.234947" lon="-1.144622">
<ele>774</ele>
<time>2013-06-02T19:23:28Z</time>
</trkpt>
<trkpt lat="38.23489" lon="-1.1446971">
<ele>775</ele>
<time>2013-06-02T19:23:29Z</time>
</trkpt>
<trkpt lat="38.234837" lon="-1.1447668">
<ele>776</ele>
<time>2013-06-02T19:23:30Z</time>
</trkpt>
<trkpt lat="38.234783" lon="-1.1448258">
<ele>777</ele>
<time>2013-06-02T19:23:31Z</time>
</trkpt>
<trkpt lat="38.23472" lon="-1.1448848">
<ele>777</ele>
<time>2013-06-02T19:23:32Z</time>
</trkpt>
<trkpt lat="38.234653" lon="-1.1449438">
<ele>778</ele>
<time>2013-06-02T19:23:33Z</time>
</trkpt>
<trkpt lat="38.234577" lon="-1.1450028">
<ele>779</ele>
<time>2013-06-02T19:23:34Z</time>
</trkpt>
<trkpt lat="38.234524" lon="-1.1450619">
<ele>779</ele>
<time>2013-06-02T19:23:35Z</time>
</trkpt>
<trkpt lat="38.234467" lon="-1.1451262">
<ele>780</ele>
<time>2013-06-02T19:23:36Z</time>
</trkpt>
<trkpt lat="38.23427" lon="-1.1453086">
<ele>781</ele>
<time>2013-06-02T19:23:39Z</time>
</trkpt>
<trkpt lat="38.234188" lon="-1.1453676">
<ele>783</ele>
<time>2013-06-02T19:23:40Z</time>
</trkpt>
<trkpt lat="38.234116" lon="-1.145432">
<ele>784</ele>
<time>2013-06-02T19:23:41Z</time>
</trkpt>
<trkpt lat="38.234047" lon="-1.1454964">
<ele>785</ele>
<time>2013-06-02T19:23:42Z</time>
</trkpt>
<trkpt lat="38.23398" lon="-1.1455554">
<ele>786</ele>
<time>2013-06-02T19:23:43Z</time>
</trkpt>
<trkpt lat="38.23391" lon="-1.1456198">
<ele>787</ele>
<time>2013-06-02T19:23:44Z</time>
</trkpt>
<trkpt lat="38.233833" lon="-1.1456734">
<ele>789</ele>
<time>2013-06-02T19:23:45Z</time>
</trkpt>
<trkpt lat="38.23377" lon="-1.1457378">
<ele>790</ele>
<time>2013-06-02T19:23:46Z</time>
</trkpt>
<trkpt lat="38.233715" lon="-1.1458075">
<ele>790</ele>
<time>2013-06-02T19:23:47Z</time>
</trkpt>
<trkpt lat="38.233665" lon="-1.145888">
<ele>790</ele>
<time>2013-06-02T19:23:48Z</time>
</trkpt>
<trkpt lat="38.23361" lon="-1.1459577">
<ele>791</ele>
<time>2013-06-02T19:23:49Z</time>
</trkpt>
<trkpt lat="38.23341" lon="-1.1460865">
<ele>794</ele>
<time>2013-06-02T19:23:52Z</time>
</trkpt>
<trkpt lat="38.233334" lon="-1.1461133">
<ele>796</ele>
<time>2013-06-02T19:23:53Z</time>
</trkpt>
<trkpt lat="38.233253" lon="-1.1461508">
<ele>798</ele>
<time>2013-06-02T19:23:54Z</time>
</trkpt>
<trkpt lat="38.233185" lon="-1.1462098">
<ele>798</ele>
<time>2013-06-02T19:23:55Z</time>
</trkpt>
<trkpt lat="38.23312" lon="-1.1462742">
<ele>799</ele>
<time>2013-06-02T19:23:56Z</time>
</trkpt>
<trkpt lat="38.23305" lon="-1.1463225">
<ele>799</ele>
<time>2013-06-02T19:23:57Z</time>
</trkpt>
<trkpt lat="38.232967" lon="-1.1463493">
<ele>801</ele>
<time>2013-06-02T19:23:58Z</time>
</trkpt>
<trkpt lat="38.2329" lon="-1.1463869">
<ele>802</ele>
<time>2013-06-02T19:23:59Z</time>
</trkpt>
<trkpt lat="38.23284" lon="-1.1464351">
<ele>804</ele>
<time>2013-06-02T19:24:00Z</time>
</trkpt>
<trkpt lat="38.232788" lon="-1.1464942">
<ele>806</ele>
<time>2013-06-02T19:24:01Z</time>
</trkpt>
<trkpt lat="38.232723" lon="-1.1465639">
<ele>807</ele>
<time>2013-06-02T19:24:02Z</time>
</trkpt>
<trkpt lat="38.232555" lon="-1.146816">
<ele>810</ele>
<time>2013-06-02T19:24:05Z</time>
</trkpt>
<trkpt lat="38.232502" lon="-1.1468911">
<ele>810</ele>
<time>2013-06-02T19:24:06Z</time>
</trkpt>
<trkpt lat="38.23245" lon="-1.1469716">
<ele>811</ele>
<time>2013-06-02T19:24:07Z</time>
</trkpt>
<trkpt lat="38.232384" lon="-1.1470467">
<ele>813</ele>
<time>2013-06-02T19:24:08Z</time>
</trkpt>
<trkpt lat="38.2323" lon="-1.1471164">
<ele>815</ele>
<time>2013-06-02T19:24:09Z</time>
</trkpt>
<trkpt lat="38.23221" lon="-1.1471915">
<ele>818</ele>
<time>2013-06-02T19:24:10Z</time>
</trkpt>
<trkpt lat="38.232147" lon="-1.1472666">
<ele>818</ele>
<time>2013-06-02T19:24:11Z</time>
</trkpt>
<trkpt lat="38.232094" lon="-1.1473417">
<ele>819</ele>
<time>2013-06-02T19:24:12Z</time>
</trkpt>
<trkpt lat="38.23205" lon="-1.1473954">
<ele>819</ele>
<time>2013-06-02T19:24:13Z</time>
</trkpt>
<trkpt lat="38.23201" lon="-1.1474544">
<ele>819</ele>
<time>2013-06-02T19:24:14Z</time>
</trkpt>
<trkpt lat="38.231964" lon="-1.1475027">
<ele>819</ele>
<time>2013-06-02T19:24:15Z</time>
</trkpt>
<trkpt lat="38.23185" lon="-1.1475992">
<ele>821</ele>
<time>2013-06-02T19:24:18Z</time>
</trkpt>
<trkpt lat="38.231804" lon="-1.1476314">
<ele>823</ele>
<time>2013-06-02T19:24:19Z</time>
</trkpt>
<trkpt lat="38.231747" lon="-1.1476743">
<ele>823</ele>
<time>2013-06-02T19:24:20Z</time>
</trkpt>
<trkpt lat="38.231697" lon="-1.1477119">
<ele>824</ele>
<time>2013-06-02T19:24:21Z</time>
</trkpt>
<trkpt lat="38.231655" lon="-1.1477387">
<ele>824</ele>
<time>2013-06-02T19:24:22Z</time>
</trkpt>
<trkpt lat="38.2316" lon="-1.1477655">
<ele>824</ele>
<time>2013-06-02T19:24:23Z</time>
</trkpt>
<trkpt lat="38.23154" lon="-1.1477816">
<ele>826</ele>
<time>2013-06-02T19:24:24Z</time>
</trkpt>
<trkpt lat="38.231495" lon="-1.1477977">
<ele>827</ele>
<time>2013-06-02T19:24:25Z</time>
</trkpt>
<trkpt lat="38.23145" lon="-1.1478031">
<ele>828</ele>
<time>2013-06-02T19:24:26Z</time>
</trkpt>
<trkpt lat="38.231396" lon="-1.1478084">
<ele>829</ele>
<time>2013-06-02T19:24:27Z</time>
</trkpt>
<trkpt lat="38.231354" lon="-1.1478138">
<ele>830</ele>
<time>2013-06-02T19:24:28Z</time>
</trkpt>
<trkpt lat="38.231243" lon="-1.1477977">
<ele>833</ele>
<time>2013-06-02T19:24:31Z</time>
</trkpt>
<trkpt lat="38.231224" lon="-1.1478031">
<ele>834</ele>
<time>2013-06-02T19:24:32Z</time>
</trkpt>
<trkpt lat="38.231216" lon="-1.1478084">
<ele>835</ele>
<time>2013-06-02T19:24:33Z</time>
</trkpt>
<trkpt lat="38.23121" lon="-1.1477494">
<ele>837</ele>
<time>2013-06-02T19:24:34Z</time>
</trkpt>
<trkpt lat="38.231197" lon="-1.1477226">
<ele>837</ele>
<time>2013-06-02T19:24:35Z</time>
</trkpt>
<trkpt lat="38.23119" lon="-1.1477065">
<ele>837</ele>
<time>2013-06-02T19:24:36Z</time>
</trkpt>
<trkpt lat="38.23118" lon="-1.147685">
<ele>837</ele>
<time>2013-06-02T19:24:37Z</time>
</trkpt>
<trkpt lat="38.23119" lon="-1.1476529">
<ele>839</ele>
<time>2013-06-02T19:24:38Z</time>
</trkpt>
<trkpt lat="38.231216" lon="-1.1476207">
<ele>841</ele>
<time>2013-06-02T19:24:39Z</time>
</trkpt>
<trkpt lat="38.2313" lon="-1.1476046">
<ele>843</ele>
<time>2013-06-02T19:24:40Z</time>
</trkpt>
<trkpt lat="38.231327" lon="-1.1476207">
<ele>843</ele>
<time>2013-06-02T19:24:41Z</time>
</trkpt>
<trkpt lat="38.231365" lon="-1.1475617">
<ele>847</ele>
<time>2013-06-02T19:24:44Z</time>
</trkpt>
<trkpt lat="38.231396" lon="-1.1475134">
<ele>849</ele>
<time>2013-06-02T19:24:45Z</time>
</trkpt>
<trkpt lat="38.23144" lon="-1.1474705">
<ele>850</ele>
<time>2013-06-02T19:24:46Z</time>
</trkpt>
<trkpt lat="38.231483" lon="-1.1474597">
<ele>851</ele>
<time>2013-06-02T19:24:47Z</time>
</trkpt>
<trkpt lat="38.23151" lon="-1.147449">
<ele>851</ele>
<time>2013-06-02T19:24:48Z</time>
</trkpt>
<trkpt lat="38.231537" lon="-1.147449">
<ele>852</ele>
<time>2013-06-02T19:24:49Z</time>
</trkpt>
<trkpt lat="38.23154" lon="-1.1474168">
<ele>853</ele>
<time>2013-06-02T19:24:50Z</time>
</trkpt>
<trkpt lat="38.231575" lon="-1.14739">
<ele>855</ele>
<time>2013-06-02T19:24:51Z</time>
</trkpt>
<trkpt lat="38.231564" lon="-1.1473471">
<ele>857</ele>
<time>2013-06-02T19:24:52Z</time>
</trkpt>
<trkpt lat="38.231586" lon="-1.1473203">
<ele>858</ele>
<time>2013-06-02T19:24:53Z</time>
</trkpt>
<trkpt lat="38.231613" lon="-1.1472934">
<ele>859</ele>
<time>2013-06-02T19:24:54Z</time>
</trkpt>
<trkpt lat="38.231712" lon="-1.1472505">
<ele>861</ele>
<time>2013-06-02T19:24:57Z</time>
</trkpt>
<trkpt lat="38.23175" lon="-1.1472398">
<ele>862</ele>
<time>2013-06-02T19:24:58Z</time>
</trkpt>
<trkpt lat="38.23181" lon="-1.1472344">
<ele>863</ele>
<time>2013-06-02T19:24:59Z</time>
</trkpt>
<trkpt lat="38.23188" lon="-1.147213">
<ele>864</ele>
<time>2013-06-02T19:25:00Z</time>
</trkpt>
<trkpt lat="38.23197" lon="-1.1471969">
<ele>865</ele>
<time>2013-06-02T19:25:01Z</time>
</trkpt>
<trkpt lat="38.232067" lon="-1.1471808">
<ele>866</ele>
<time>2013-06-02T19:25:02Z</time>
</trkpt>
<trkpt lat="38.23217" lon="-1.1471647">
<ele>867</ele>
<time>2013-06-02T19:25:03Z</time>
</trkpt>
<trkpt lat="38.23228" lon="-1.1471379">
<ele>867</ele>
<time>2013-06-02T19:25:04Z</time>
</trkpt>
<trkpt lat="38.2324" lon="-1.1471272">
<ele>868</ele>
<time>2013-06-02T19:25:05Z</time>
</trkpt>
<trkpt lat="38.232075" lon="-1.1471432">
<ele>872</ele>
<time>2013-06-02T19:25:06Z</time>
</trkpt>
<trkpt lat="38.232174" lon="-1.1470842">
<ele>876</ele>
<time>2013-06-02T19:25:07Z</time>
</trkpt>
<trkpt lat="38.232384" lon="-1.1469716">
<ele>882</ele>
<time>2013-06-02T19:25:10Z</time>
</trkpt>
<trkpt lat="38.23245" lon="-1.1469448">
<ele>883</ele>
<time>2013-06-02T19:25:11Z</time>
</trkpt>
<trkpt lat="38.23249" lon="-1.1469448">
<ele>885</ele>
<time>2013-06-02T19:25:12Z</time>
</trkpt>
<trkpt lat="38.23254" lon="-1.1469448">
<ele>885</ele>
<time>2013-06-02T19:25:13Z</time>
</trkpt>
<trkpt lat="38.232563" lon="-1.1469448">
<ele>886</ele>
<time>2013-06-02T19:25:14Z</time>
</trkpt>
<trkpt lat="38.232582" lon="-1.1469072">
<ele>888</ele>
<time>2013-06-02T19:25:15Z</time>
</trkpt>
<trkpt lat="38.23263" lon="-1.1468804">
<ele>890</ele>
<time>2013-06-02T19:25:16Z</time>
</trkpt>
<trkpt lat="38.232635" lon="-1.1468589">
<ele>894</ele>
<time>2013-06-02T19:25:17Z</time>
</trkpt>
<trkpt lat="38.232674" lon="-1.1468267">
<ele>894</ele>
<time>2013-06-02T19:25:18Z</time>
</trkpt>
<trkpt lat="38.232716" lon="-1.1467892">
<ele>896</ele>
<time>2013-06-02T19:25:19Z</time>
</trkpt>
<trkpt lat="38.23277" lon="-1.146757">
<ele>897</ele>
<time>2013-06-02T19:25:20Z</time>
</trkpt>
<trkpt lat="38.23292" lon="-1.1467302">
<ele>901</ele>
<time>2013-06-02T19:25:23Z</time>
</trkpt>
<trkpt lat="38.232872" lon="-1.1467302">
<ele>905</ele>
<time>2013-06-02T19:25:24Z</time>
</trkpt>
<trkpt lat="38.232883" lon="-1.1467302">
<ele>908</ele>
<time>2013-06-02T19:25:25Z</time>
</trkpt>
<trkpt lat="38.232906" lon="-1.1467302">
<ele>910</ele>
<time>2013-06-02T19:25:26Z</time>
</trkpt>
<trkpt lat="38.232925" lon="-1.1467141">
<ele>911</ele>
<time>2013-06-02T19:25:27Z</time>
</trkpt>
<trkpt lat="38.23298" lon="-1.1466765">
<ele>912</ele>
<time>2013-06-02T19:25:28Z</time>
</trkpt>
<trkpt lat="38.233032" lon="-1.1466604">
<ele>913</ele>
<time>2013-06-02T19:25:29Z</time>
</trkpt>
<trkpt lat="38.23308" lon="-1.1466551">
<ele>914</ele>
<time>2013-06-02T19:25:30Z</time>
</trkpt>
<trkpt lat="38.23312" lon="-1.1466497">
<ele>915</ele>
<time>2013-06-02T19:25:31Z</time>
</trkpt>
<trkpt lat="38.23315" lon="-1.1466283">
<ele>916</ele>
<time>2013-06-02T19:25:32Z</time>
</trkpt>
<trkpt lat="38.23319" lon="-1.14658">
<ele>915</ele>
<time>2013-06-02T19:25:33Z</time>
</trkpt>
<trkpt lat="38.233322" lon="-1.146521">
<ele>917</ele>
<time>2013-06-02T19:25:36Z</time>
</trkpt>
<trkpt lat="38.23336" lon="-1.1465156">
<ele>918</ele>
<time>2013-06-02T19:25:37Z</time>
</trkpt>
<trkpt lat="38.23337" lon="-1.1464888">
<ele>919</ele>
<time>2013-06-02T19:25:38Z</time>
</trkpt>
<trkpt lat="38.2334" lon="-1.1464405">
<ele>919</ele>
<time>2013-06-02T19:25:39Z</time>
</trkpt>
<trkpt lat="38.233437" lon="-1.1463922">
<ele>919</ele>
<time>2013-06-02T19:25:40Z</time>
</trkpt>
<trkpt lat="38.2335" lon="-1.1463708">
<ele>920</ele>
<time>2013-06-02T19:25:41Z</time>
</trkpt>
<trkpt lat="38.233555" lon="-1.1463493">
<ele>921</ele>
<time>2013-06-02T19:25:42Z</time>
</trkpt>
<trkpt lat="38.233593" lon="-1.1463332">
<ele>922</ele>
<time>2013-06-02T19:25:43Z</time>
</trkpt>
<trkpt lat="38.233627" lon="-1.1463064">
<ele>922</ele>
<time>2013-06-02T19:25:44Z</time>
</trkpt>
<trkpt lat="38.233646" lon="-1.1462742">
<ele>922</ele>
<time>2013-06-02T19:25:45Z</time>
</trkpt>
<trkpt lat="38.233677" lon="-1.1462259">
<ele>922</ele>
<time>2013-06-02T19:25:46Z</time>
</trkpt>
<trkpt lat="38.233753" lon="-1.1461186">
<ele>929</ele>
<time>2013-06-02T19:25:49Z</time>
</trkpt>
<trkpt lat="38.233753" lon="-1.1460811">
<ele>932</ele>
<time>2013-06-02T19:25:50Z</time>
</trkpt>
<trkpt lat="38.23378" lon="-1.1460435">
<ele>934</ele>
<time>2013-06-02T19:25:51Z</time>
</trkpt>
<trkpt lat="38.23381" lon="-1.1460006">
<ele>935</ele>
<time>2013-06-02T19:25:52Z</time>
</trkpt>
<trkpt lat="38.23385" lon="-1.1459577">
<ele>936</ele>
<time>2013-06-02T19:25:53Z</time>
</trkpt>
<trkpt lat="38.23389" lon="-1.1459094">
<ele>937</ele>
<time>2013-06-02T19:25:54Z</time>
</trkpt>
<trkpt lat="38.23393" lon="-1.1458665">
<ele>938</ele>
<time>2013-06-02T19:25:55Z</time>
</trkpt>
<trkpt lat="38.233967" lon="-1.145829">
<ele>939</ele>
<time>2013-06-02T19:25:56Z</time>
</trkpt>
<trkpt lat="38.23401" lon="-1.1458021">
<ele>940</ele>
<time>2013-06-02T19:25:57Z</time>
</trkpt>
<trkpt lat="38.234062" lon="-1.1457753">
<ele>941</ele>
<time>2013-06-02T19:25:58Z</time>
</trkpt>
<trkpt lat="38.2341" lon="-1.1457431">
<ele>942</ele>
<time>2013-06-02T19:25:59Z</time>
</trkpt>
<trkpt lat="38.234207" lon="-1.1456519">
<ele>947</ele>
<time>2013-06-02T19:26:02Z</time>
</trkpt>
<trkpt lat="38.23424" lon="-1.1456198">
<ele>948</ele>
<time>2013-06-02T19:26:03Z</time>
</trkpt>
<trkpt lat="38.23428" lon="-1.1455876">
<ele>948</ele>
<time>2013-06-02T19:26:04Z</time>
</trkpt>
<trkpt lat="38.23431" lon="-1.1455607">
<ele>949</ele>
<time>2013-06-02T19:26:05Z</time>
</trkpt>
<trkpt lat="38.234333" lon="-1.1455339">
<ele>948</ele>
<time>2013-06-02T19:26:06Z</time>
</trkpt>
<trkpt lat="38.234364" lon="-1.1455017">
<ele>948</ele>
<time>2013-06-02T19:26:07Z</time>
</trkpt>
<trkpt lat="38.23439" lon="-1.1454642">
<ele>948</ele>
<time>2013-06-02T19:26:08Z</time>
</trkpt>
<trkpt lat="38.234425" lon="-1.1454266">
<ele>948</ele>
<time>2013-06-02T19:26:09Z</time>
</trkpt>
<trkpt lat="38.234455" lon="-1.1453891">
<ele>948</ele>
<time>2013-06-02T19:26:10Z</time>
</trkpt>
<trkpt lat="38.23448" lon="-1.1453408">
<ele>948</ele>
<time>2013-06-02T19:26:11Z</time>
</trkpt>
<trkpt lat="38.234512" lon="-1.1453032">
<ele>947</ele>
<time>2013-06-02T19:26:12Z</time>
</trkpt>
<trkpt lat="38.23463" lon="-1.1451852">
<ele>946</ele>
<time>2013-06-02T19:26:15Z</time>
</trkpt>
<trkpt lat="38.234665" lon="-1.1451477">
<ele>946</ele>
<time>2013-06-02T19:26:16Z</time>
</trkpt>
<trkpt lat="38.234695" lon="-1.1451155">
<ele>945</ele>
<time>2013-06-02T19:26:17Z</time>
</trkpt>
<trkpt lat="38.23474" lon="-1.1450833">
<ele>945</ele>
<time>2013-06-02T19:26:18Z</time>
</trkpt>
<trkpt lat="38.234776" lon="-1.1450672">
<ele>946</ele>
<time>2013-06-02T19:26:19Z</time>
</trkpt>
<trkpt lat="38.234814" lon="-1.1450404">
<ele>946</ele>
<time>2013-06-02T19:26:20Z</time>
</trkpt>
<trkpt lat="38.23485" lon="-1.1450189">
<ele>947</ele>
<time>2013-06-02T19:26:21Z</time>
</trkpt>
<trkpt lat="38.234882" lon="-1.1449921">
<ele>947</ele>
<time>2013-06-02T19:26:22Z</time>
</trkpt>
<trkpt lat="38.234917" lon="-1.144976">
<ele>948</ele>
<time>2013-06-02T19:26:23Z</time>
</trkpt>
<trkpt lat="38.234955" lon="-1.1449653">
<ele>950</ele>
<time>2013-06-02T19:26:24Z</time>
</trkpt>
<trkpt lat="38.23501" lon="-1.1449707">
<ele>948</ele>
<time>2013-06-02T19:26:25Z</time>
</trkpt>
<trkpt lat="38.23517" lon="-1.1449385">
<ele>946</ele>
<time>2013-06-02T19:26:28Z</time>
</trkpt>
<trkpt lat="38.23522" lon="-1.1449277">
<ele>945</ele>
<time>2013-06-02T19:26:29Z</time>
</trkpt>
<trkpt lat="38.235283" lon="-1.1449224">
<ele>944</ele>
<time>2013-06-02T19:26:30Z</time>
</trkpt>
<trkpt lat="38.235336" lon="-1.1449063">
<ele>944</ele>
<time>2013-06-02T19:26:31Z</time>
</trkpt>
<trkpt lat="38.235382" lon="-1.1448902">
<ele>944</ele>
<time>2013-06-02T19:26:32Z</time>
</trkpt>
<trkpt lat="38.235443" lon="-1.1448634">
<ele>943</ele>
<time>2013-06-02T19:26:33Z</time>
</trkpt>
<trkpt lat="38.235497" lon="-1.1448473">
<ele>943</ele>
<time>2013-06-02T19:26:34Z</time>
</trkpt>
<trkpt lat="38.235554" lon="-1.1448365">
<ele>943</ele>
<time>2013-06-02T19:26:35Z</time>
</trkpt>
<trkpt lat="38.235603" lon="-1.1448151">
<ele>944</ele>
<time>2013-06-02T19:26:36Z</time>
</trkpt>
<trkpt lat="38.235657" lon="-1.144799">
<ele>944</ele>
<time>2013-06-02T19:26:37Z</time>
</trkpt>
<trkpt lat="38.235714" lon="-1.1447829">
<ele>944</ele>
<time>2013-06-02T19:26:38Z</time>
</trkpt>
<trkpt lat="38.235893" lon="-1.1446971">
<ele>946</ele>
<time>2013-06-02T19:26:41Z</time>
</trkpt>
<trkpt lat="38.23592" lon="-1.1447078">
<ele>947</ele>
<time>2013-06-02T19:26:42Z</time>
</trkpt>
<trkpt lat="38.23595" lon="-1.1446917">
<ele>948</ele>
<time>2013-06-02T19:26:43Z</time>
</trkpt>
<trkpt lat="38.235985" lon="-1.1446917">
<ele>948</ele>
<time>2013-06-02T19:26:44Z</time>
</trkpt>
<trkpt lat="38.236004" lon="-1.1446702">
<ele>948</ele>
<time>2013-06-02T19:26:45Z</time>
</trkpt>
<trkpt lat="38.23603" lon="-1.1446649">
<ele>948</ele>
<time>2013-06-02T19:26:46Z</time>
</trkpt>
<trkpt lat="38.236004" lon="-1.1446381">
<ele>950</ele>
<time>2013-06-02T19:26:47Z</time>
</trkpt>
<trkpt lat="38.23595" lon="-1.1445951">
<ele>951</ele>
<time>2013-06-02T19:26:48Z</time>
</trkpt>
<trkpt lat="38.235886" lon="-1.1445737">
<ele>953</ele>
<time>2013-06-02T19:26:49Z</time>
</trkpt>
<trkpt lat="38.23584" lon="-1.144563">
<ele>954</ele>
<time>2013-06-02T19:26:50Z</time>
</trkpt>
<trkpt lat="38.235786" lon="-1.1445522">
<ele>954</ele>
<time>2013-06-02T19:26:51Z</time>
</trkpt>
<trkpt lat="38.235603" lon="-1.1445951">
<ele>955</ele>
<time>2013-06-02T19:26:54Z</time>
</trkpt>
<trkpt lat="38.235542" lon="-1.1446327">
<ele>955</ele>
<time>2013-06-02T19:26:55Z</time>
</trkpt>
<trkpt lat="38.23549" lon="-1.1446702">
<ele>955</ele>
<time>2013-06-02T19:26:56Z</time>
</trkpt>
<trkpt lat="38.235435" lon="-1.1447132">
<ele>956</ele>
<time>2013-06-02T19:26:57Z</time>
</trkpt>
<trkpt lat="38.235363" lon="-1.1447346">
<ele>955</ele>
<time>2013-06-02T19:26:58Z</time>
</trkpt>
<trkpt lat="38.235313" lon="-1.1447507">
<ele>955</ele>
<time>2013-06-02T19:26:59Z</time>
</trkpt>
<trkpt lat="38.235245" lon="-1.1448151">
<ele>955</ele>
<time>2013-06-02T19:27:00Z</time>
</trkpt>
<trkpt lat="38.235157" lon="-1.1448795">
<ele>956</ele>
<time>2013-06-02T19:27:01Z</time>
</trkpt>
<trkpt lat="38.235104" lon="-1.1449277">
<ele>956</ele>
<time>2013-06-02T19:27:02Z</time>
</trkpt>
<trkpt lat="38.235046" lon="-1.1449975">
<ele>955</ele>
<time>2013-06-02T19:27:03Z</time>
</trkpt>
<trkpt lat="38.23496" lon="-1.1450565">
<ele>956</ele>
<time>2013-06-02T19:27:04Z</time>
</trkpt>
<trkpt lat="38.23475" lon="-1.1452281">
<ele>957</ele>
<time>2013-06-02T19:27:07Z</time>
</trkpt>
<trkpt lat="38.23468" lon="-1.1452818">
<ele>956</ele>
<time>2013-06-02T19:27:08Z</time>
</trkpt>
<trkpt lat="38.234604" lon="-1.1453354">
<ele>956</ele>
<time>2013-06-02T19:27:09Z</time>
</trkpt>
<trkpt lat="38.23453" lon="-1.1453784">
<ele>957</ele>
<time>2013-06-02T19:27:10Z</time>
</trkpt>
<trkpt lat="38.234455" lon="-1.1454213">
<ele>959</ele>
<time>2013-06-02T19:27:11Z</time>
</trkpt>
<trkpt lat="38.234386" lon="-1.1454588">
<ele>960</ele>
<time>2013-06-02T19:27:12Z</time>
</trkpt>
<trkpt lat="38.234314" lon="-1.1454856">
<ele>960</ele>
<time>2013-06-02T19:27:13Z</time>
</trkpt>
<trkpt lat="38.234245" lon="-1.1455232">
<ele>960</ele>
<time>2013-06-02T19:27:14Z</time>
</trkpt>
<trkpt lat="38.234165" lon="-1.1455554">
<ele>960</ele>
<time>2013-06-02T19:27:15Z</time>
</trkpt>
<trkpt lat="38.23409" lon="-1.1455715">
<ele>960</ele>
<time>2013-06-02T19:27:16Z</time>
</trkpt>
<trkpt lat="38.23402" lon="-1.1455822">
<ele>961</ele>
<time>2013-06-02T19:27:17Z</time>
</trkpt>
<trkpt lat="38.233818" lon="-1.1456198">
<ele>962</ele>
<time>2013-06-02T19:27:20Z</time>
</trkpt>
<trkpt lat="38.233765" lon="-1.1456358">
<ele>963</ele>
<time>2013-06-02T19:27:21Z</time>
</trkpt>
<trkpt lat="38.23369" lon="-1.1456519">
<ele>964</ele>
<time>2013-06-02T19:27:22Z</time>
</trkpt>
<trkpt lat="38.233624" lon="-1.1456788">
<ele>964</ele>
<time>2013-06-02T19:27:23Z</time>
</trkpt>
<trkpt lat="38.233566" lon="-1.1456949">
<ele>964</ele>
<time>2013-06-02T19:27:24Z</time>
</trkpt>
<trkpt lat="38.23351" lon="-1.1457163">
<ele>964</ele>
<time>2013-06-02T19:27:25Z</time>
</trkpt>
<trkpt lat="38.23344" lon="-1.1457431">
<ele>966</ele>
<time>2013-06-02T19:27:26Z</time>
</trkpt>
<trkpt lat="38.23337" lon="-1.1457753">
<ele>968</ele>
<time>2013-06-02T19:27:27Z</time>
</trkpt>
<trkpt lat="38.23329" lon="-1.1458075">
<ele>967</ele>
<time>2013-06-02T19:27:28Z</time>
</trkpt>
<trkpt lat="38.23323" lon="-1.1458665">
<ele>966</ele>
<time>2013-06-02T19:27:29Z</time>
</trkpt>
<trkpt lat="38.233173" lon="-1.1459202">
<ele>967</ele>
<time>2013-06-02T19:27:30Z</time>
</trkpt>
<trkpt lat="38.232967" lon="-1.1461025">
<ele>970</ele>
<time>2013-06-02T19:27:33Z</time>
</trkpt>
<trkpt lat="38.23291" lon="-1.1461616">
<ele>970</ele>
<time>2013-06-02T19:27:34Z</time>
</trkpt>
<trkpt lat="38.232845" lon="-1.1462313">
<ele>970</ele>
<time>2013-06-02T19:27:35Z</time>
</trkpt>
<trkpt lat="38.23278" lon="-1.1462903">
<ele>969</ele>
<time>2013-06-02T19:27:36Z</time>
</trkpt>
<trkpt lat="38.23271" lon="-1.1463386">
<ele>968</ele>
<time>2013-06-02T19:27:37Z</time>
</trkpt>
<trkpt lat="38.232647" lon="-1.1464083">
<ele>968</ele>
<time>2013-06-02T19:27:38Z</time>
</trkpt>
<trkpt lat="38.232582" lon="-1.146478">
<ele>968</ele>
<time>2013-06-02T19:27:39Z</time>
</trkpt>
<trkpt lat="38.232525" lon="-1.1465532">
<ele>969</ele>
<time>2013-06-02T19:27:40Z</time>
</trkpt>
<trkpt lat="38.23247" lon="-1.146639">
<ele>969</ele>
<time>2013-06-02T19:27:41Z</time>
</trkpt>
<trkpt lat="38.2324" lon="-1.1467248">
<ele>969</ele>
<time>2013-06-02T19:27:42Z</time>
</trkpt>
<trkpt lat="38.232346" lon="-1.1468482">
<ele>969</ele>
<time>2013-06-02T19:27:43Z</time>
</trkpt>
<trkpt lat="38.232162" lon="-1.1471862">
<ele>968</ele>
<time>2013-06-02T19:27:46Z</time>
</trkpt>
<trkpt lat="38.23209" lon="-1.1472774">
<ele>968</ele>
<time>2013-06-02T19:27:47Z</time>
</trkpt>
<trkpt lat="38.23202" lon="-1.1473793">
<ele>968</ele>
<time>2013-06-02T19:27:48Z</time>
</trkpt>
<trkpt lat="38.231945" lon="-1.1474812">
<ele>969</ele>
<time>2013-06-02T19:27:49Z</time>
</trkpt>
<trkpt lat="38.23187" lon="-1.1475939">
<ele>970</ele>
<time>2013-06-02T19:27:50Z</time>
</trkpt>
<trkpt lat="38.2318" lon="-1.1477065">
<ele>971</ele>
<time>2013-06-02T19:27:51Z</time>
</trkpt>
<trkpt lat="38.23173" lon="-1.1478192">
<ele>972</ele>
<time>2013-06-02T19:27:52Z</time>
</trkpt>
<trkpt lat="38.23166" lon="-1.1479157">
<ele>972</ele>
<time>2013-06-02T19:27:53Z</time>
</trkpt>
<trkpt lat="38.2316" lon="-1.1480069">
<ele>973</ele>
<time>2013-06-02T19:27:54Z</time>
</trkpt>
<trkpt lat="38.231537" lon="-1.1480927">
<ele>973</ele>
<time>2013-06-02T19:27:55Z</time>
</trkpt>
<trkpt lat="38.23147" lon="-1.148184">
<ele>973</ele>
<time>2013-06-02T19:27:56Z</time>
</trkpt>
<trkpt lat="38.23122" lon="-1.1483663">
<ele>974</ele>
<time>2013-06-02T19:27:59Z</time>
</trkpt>
<trkpt lat="38.23114" lon="-1.1484253">
<ele>975</ele>
<time>2013-06-02T19:28:00Z</time>
</trkpt>
<trkpt lat="38.231064" lon="-1.1484683">
<ele>975</ele>
<time>2013-06-02T19:28:01Z</time>
</trkpt>
<trkpt lat="38.230953" lon="-1.1485273">
<ele>975</ele>
<time>2013-06-02T19:28:02Z</time>
</trkpt>
<trkpt lat="38.230865" lon="-1.1485434">
<ele>975</ele>
<time>2013-06-02T19:28:03Z</time>
</trkpt>
<trkpt lat="38.23078" lon="-1.1485702">
<ele>976</ele>
<time>2013-06-02T19:28:04Z</time>
</trkpt>
<trkpt lat="38.23071" lon="-1.1485648">
<ele>975</ele>
<time>2013-06-02T19:28:05Z</time>
</trkpt>
<trkpt lat="38.230656" lon="-1.148538">
<ele>975</ele>
<time>2013-06-02T19:28:06Z</time>
</trkpt>
<trkpt lat="38.230602" lon="-1.1485058">
<ele>975</ele>
<time>2013-06-02T19:28:07Z</time>
</trkpt>
<trkpt lat="38.230564" lon="-1.1484629">
<ele>975</ele>
<time>2013-06-02T19:28:08Z</time>
</trkpt>
<trkpt lat="38.230522" lon="-1.1484414">
<ele>976</ele>
<time>2013-06-02T19:28:09Z</time>
</trkpt>
<trkpt lat="38.230583" lon="-1.1483932">
<ele>977</ele>
<time>2013-06-02T19:28:12Z</time>
</trkpt>
<trkpt lat="38.23061" lon="-1.1483824">
<ele>976</ele>
<time>2013-06-02T19:28:13Z</time>
</trkpt>
<trkpt lat="38.230675" lon="-1.148361">
<ele>977</ele>
<time>2013-06-02T19:28:14Z</time>
</trkpt>
<trkpt lat="38.23078" lon="-1.1483234">
<ele>978</ele>
<time>2013-06-02T19:28:15Z</time>
</trkpt>
<trkpt lat="38.23084" lon="-1.1483127">
<ele>980</ele>
<time>2013-06-02T19:28:16Z</time>
</trkpt>
<trkpt lat="38.230877" lon="-1.1482966">
<ele>981</ele>
<time>2013-06-02T19:28:17Z</time>
</trkpt>
<trkpt lat="38.230907" lon="-1.1482805">
<ele>982</ele>
<time>2013-06-02T19:28:18Z</time>
</trkpt>
<trkpt lat="38.230946" lon="-1.148259">
<ele>983</ele>
<time>2013-06-02T19:28:19Z</time>
</trkpt>
<trkpt lat="38.23098" lon="-1.1482483">
<ele>983</ele>
<time>2013-06-02T19:28:20Z</time>
</trkpt>
<trkpt lat="38.231018" lon="-1.1482161">
<ele>983</ele>
<time>2013-06-02T19:28:21Z</time>
</trkpt>
<trkpt lat="38.23105" lon="-1.148184">
<ele>984</ele>
<time>2013-06-02T19:28:22Z</time>
</trkpt>
<trkpt lat="38.231216" lon="-1.1481464">
<ele>986</ele>
<time>2013-06-02T19:28:25Z</time>
</trkpt>
<trkpt lat="38.231247" lon="-1.1481464">
<ele>986</ele>
<time>2013-06-02T19:28:26Z</time>
</trkpt>
<trkpt lat="38.231277" lon="-1.1481357">
<ele>987</ele>
<time>2013-06-02T19:28:27Z</time>
</trkpt>
<trkpt lat="38.23131" lon="-1.1481196">
<ele>987</ele>
<time>2013-06-02T19:28:28Z</time>
</trkpt>
<trkpt lat="38.231335" lon="-1.148082">
<ele>987</ele>
<time>2013-06-02T19:28:29Z</time>
</trkpt>
<trkpt lat="38.231403" lon="-1.1480552">
<ele>987</ele>
<time>2013-06-02T19:28:30Z</time>
</trkpt>
<trkpt lat="38.231457" lon="-1.1480498">
<ele>988</ele>
<time>2013-06-02T19:28:31Z</time>
</trkpt>
<trkpt lat="38.231495" lon="-1.1480391">
<ele>988</ele>
<time>2013-06-02T19:28:32Z</time>
</trkpt>
<trkpt lat="38.23152" lon="-1.1480337">
<ele>989</ele>
<time>2013-06-02T19:28:33Z</time>
</trkpt>
<trkpt lat="38.23156" lon="-1.1480123">
<ele>989</ele>
<time>2013-06-02T19:28:34Z</time>
</trkpt>
<trkpt lat="38.231632" lon="-1.1480016">
<ele>990</ele>
<time>2013-06-02T19:28:35Z</time>
</trkpt>
<trkpt lat="38.23165" lon="-1.1479586">
<ele>994</ele>
<time>2013-06-02T19:28:38Z</time>
</trkpt>
<trkpt lat="38.23163" lon="-1.1479425">
<ele>996</ele>
<time>2013-06-02T19:28:39Z</time>
</trkpt>
<trkpt lat="38.23162" lon="-1.1479425">
<ele>996</ele>
<time>2013-06-02T19:28:40Z</time>
</trkpt>
<trkpt lat="38.23165" lon="-1.1479425">
<ele>996</ele>
<time>2013-06-02T19:28:41Z</time>
</trkpt>
<trkpt lat="38.231712" lon="-1.1478835">
<ele>996</ele>
<time>2013-06-02T19:28:42Z</time>
</trkpt>
<trkpt lat="38.231766" lon="-1.1478621">
<ele>997</ele>
<time>2013-06-02T19:28:43Z</time>
</trkpt>
<trkpt lat="38.231792" lon="-1.1478621">
<ele>998</ele>
<time>2013-06-02T19:28:44Z</time>
</trkpt>
<trkpt lat="38.23182" lon="-1.1478406">
<ele>998</ele>
<time>2013-06-02T19:28:45Z</time>
</trkpt>
<trkpt lat="38.231842" lon="-1.1478299">
<ele>998</ele>
<time>2013-06-02T19:28:46Z</time>
</trkpt>
<trkpt lat="38.231857" lon="-1.1478192">
<ele>998</ele>
<time>2013-06-02T19:28:47Z</time>
</trkpt>
<trkpt lat="38.23187" lon="-1.1477923">
<ele>997</ele>
<time>2013-06-02T19:28:48Z</time>
</trkpt>
<trkpt lat="38.231842" lon="-1.1477226">
<ele>995</ele>
<time>2013-06-02T19:28:51Z</time>
</trkpt>
<trkpt lat="38.231804" lon="-1.1477011">
<ele>995</ele>
<time>2013-06-02T19:28:52Z</time>
</trkpt>
<trkpt lat="38.231766" lon="-1.1476797">
<ele>993</ele>
<time>2013-06-02T19:28:53Z</time>
</trkpt>
<trkpt lat="38.231712" lon="-1.1476636">
<ele>992</ele>
<time>2013-06-02T19:28:54Z</time>
</trkpt>
<trkpt lat="38.23167" lon="-1.1476743">
<ele>989</ele>
<time>2013-06-02T19:28:55Z</time>
</trkpt>
<trkpt lat="38.231606" lon="-1.1476743">
<ele>987</ele>
<time>2013-06-02T19:28:56Z</time>
</trkpt>
<trkpt lat="38.23151" lon="-1.1476797">
<ele>987</ele>
<time>2013-06-02T19:28:57Z</time>
</trkpt>
<trkpt lat="38.23143" lon="-1.1477011">
<ele>988</ele>
<time>2013-06-02T19:28:58Z</time>
</trkpt>
<trkpt lat="38.23135" lon="-1.1477923">
<ele>988</ele>
<time>2013-06-02T19:28:59Z</time>
</trkpt>
<trkpt lat="38.23127" lon="-1.1478782">
<ele>988</ele>
<time>2013-06-02T19:29:00Z</time>
</trkpt>
<trkpt lat="38.231194" lon="-1.1479586">
<ele>989</ele>
<time>2013-06-02T19:29:01Z</time>
</trkpt>
<trkpt lat="38.231007" lon="-1.1483878">
<ele>989</ele>
<time>2013-06-02T19:29:04Z</time>
</trkpt>
<trkpt lat="38.23093" lon="-1.1485058">
<ele>988</ele>
<time>2013-06-02T19:29:05Z</time>
</trkpt>
<trkpt lat="38.230854" lon="-1.148597">
<ele>988</ele>
<time>2013-06-02T19:29:06Z</time>
</trkpt>
<trkpt lat="38.23077" lon="-1.1486721">
<ele>987</ele>
<time>2013-06-02T19:29:07Z</time>
</trkpt>
<trkpt lat="38.230675" lon="-1.1487311">
<ele>988</ele>
<time>2013-06-02T19:29:08Z</time>
</trkpt>
<trkpt lat="38.230583" lon="-1.1487633">
<ele>987</ele>
<time>2013-06-02T19:29:09Z</time>
</trkpt>
<trkpt lat="38.230495" lon="-1.1487794">
<ele>987</ele>
<time>2013-06-02T19:29:10Z</time>
</trkpt>
<trkpt lat="38.230446" lon="-1.1487687">
<ele>987</ele>
<time>2013-06-02T19:29:11Z</time>
</trkpt>
<trkpt lat="38.2304" lon="-1.1487579">
<ele>987</ele>
<time>2013-06-02T19:29:12Z</time>
</trkpt>
<trkpt lat="38.230362" lon="-1.1487365">
<ele>987</ele>
<time>2013-06-02T19:29:13Z</time>
</trkpt>
<trkpt lat="38.230312" lon="-1.1487257">
<ele>987</ele>
<time>2013-06-02T19:29:14Z</time>
</trkpt>
<trkpt lat="38.230305" lon="-1.1485755">
<ele>988</ele>
<time>2013-06-02T19:29:17Z</time>
</trkpt>
<trkpt lat="38.230297" lon="-1.1485219">
<ele>988</ele>
<time>2013-06-02T19:29:18Z</time>
</trkpt>
<trkpt lat="38.230312" lon="-1.1484897">
<ele>989</ele>
<time>2013-06-02T19:29:19Z</time>
</trkpt>
<trkpt lat="38.23033" lon="-1.1484522">
<ele>989</ele>
<time>2013-06-02T19:29:20Z</time>
</trkpt>
<trkpt lat="38.23035" lon="-1.1484039">
<ele>990</ele>
<time>2013-06-02T19:29:21Z</time>
</trkpt>
<trkpt lat="38.2304" lon="-1.1483663">
<ele>990</ele>
<time>2013-06-02T19:29:22Z</time>
</trkpt>
<trkpt lat="38.230427" lon="-1.1483395">
<ele>991</ele>
<time>2013-06-02T19:29:23Z</time>
</trkpt>
<trkpt lat="38.230465" lon="-1.148302">
<ele>991</ele>
<time>2013-06-02T19:29:24Z</time>
</trkpt>
<trkpt lat="38.230503" lon="-1.1482644">
<ele>992</ele>
<time>2013-06-02T19:29:25Z</time>
</trkpt>
<trkpt lat="38.230534" lon="-1.1482376">
<ele>992</ele>
<time>2013-06-02T19:29:26Z</time>
</trkpt>
<trkpt lat="38.230583" lon="-1.1482161">
<ele>993</ele>
<time>2013-06-02T19:29:27Z</time>
</trkpt>
<trkpt lat="38.23056" lon="-1.1481678">
<ele>995</ele>
<time>2013-06-02T19:29:30Z</time>
</trkpt>
<trkpt lat="38.230537" lon="-1.1481303">
<ele>995</ele>
<time>2013-06-02T19:29:31Z</time>
</trkpt>
<trkpt lat="38.230564" lon="-1.1480981">
<ele>996</ele>
<time>2013-06-02T19:29:32Z</time>
</trkpt>
<trkpt lat="38.230576" lon="-1.1480606">
<ele>996</ele>
<time>2013-06-02T19:29:33Z</time>
</trkpt>
<trkpt lat="38.2306" lon="-1.1480176">
<ele>996</ele>
<time>2013-06-02T19:29:34Z</time>
</trkpt>
<trkpt lat="38.23063" lon="-1.1480069">
<ele>996</ele>
<time>2013-06-02T19:29:35Z</time>
</trkpt>
<trkpt lat="38.23065" lon="-1.1480016">
<ele>997</ele>
<time>2013-06-02T19:29:36Z</time>
</trkpt>
<trkpt lat="38.230587" lon="-1.1479855">
<ele>998</ele>
<time>2013-06-02T19:29:37Z</time>
</trkpt>
<trkpt lat="38.2306" lon="-1.1479855">
<ele>997</ele>
<time>2013-06-02T19:29:38Z</time>
</trkpt>
<trkpt lat="38.23063" lon="-1.1479855">
<ele>998</ele>
<time>2013-06-02T19:29:39Z</time>
</trkpt>
<trkpt lat="38.23068" lon="-1.1479855">
<ele>1001</ele>
<time>2013-06-02T19:29:40Z</time>
</trkpt>
<trkpt lat="38.230877" lon="-1.1480981">
<ele>1000</ele>
<time>2013-06-02T19:29:43Z</time>
</trkpt>
<trkpt lat="38.230946" lon="-1.1481678">
<ele>1002</ele>
<time>2013-06-02T19:29:44Z</time>
</trkpt>
<trkpt lat="38.23101" lon="-1.1482376">
<ele>1003</ele>
<time>2013-06-02T19:29:45Z</time>
</trkpt>
<trkpt lat="38.231052" lon="-1.1483234">
<ele>1003</ele>
<time>2013-06-02T19:29:46Z</time>
</trkpt>
<trkpt lat="38.231087" lon="-1.1483717">
<ele>1003</ele>
<time>2013-06-02T19:29:47Z</time>
</trkpt>
<trkpt lat="38.231102" lon="-1.1485112">
<ele>1003</ele>
<time>2013-06-02T19:29:48Z</time>
</trkpt>
<trkpt lat="38.231163" lon="-1.1486614">
<ele>1003</ele>
<time>2013-06-02T19:29:49Z</time>
</trkpt>
<trkpt lat="38.23113" lon="-1.1488384">
<ele>1005</ele>
<time>2013-06-02T19:29:50Z</time>
</trkpt>
<trkpt lat="38.231075" lon="-1.1490315">
<ele>1008</ele>
<time>2013-06-02T19:29:51Z</time>
</trkpt>
<trkpt lat="38.231045" lon="-1.1492032">
<ele>1011</ele>
<time>2013-06-02T19:29:52Z</time>
</trkpt>
<trkpt lat="38.231" lon="-1.149348">
<ele>1012</ele>
<time>2013-06-02T19:29:53Z</time>
</trkpt>
<trkpt lat="38.23079" lon="-1.1496967">
<ele>1013</ele>
<time>2013-06-02T19:29:56Z</time>
</trkpt>
<trkpt lat="38.230705" lon="-1.1497611">
<ele>1014</ele>
<time>2013-06-02T19:29:57Z</time>
</trkpt>
<trkpt lat="38.23062" lon="-1.149804">
<ele>1015</ele>
<time>2013-06-02T19:29:58Z</time>
</trkpt>
<trkpt lat="38.230537" lon="-1.149804">
<ele>1016</ele>
<time>2013-06-02T19:29:59Z</time>
</trkpt>
<trkpt lat="38.230484" lon="-1.1498094">
<ele>1017</ele>
<time>2013-06-02T19:30:00Z</time>
</trkpt>
<trkpt lat="38.23041" lon="-1.1498147">
<ele>1018</ele>
<time>2013-06-02T19:30:01Z</time>
</trkpt>
<trkpt lat="38.230377" lon="-1.1498094">
<ele>1018</ele>
<time>2013-06-02T19:30:02Z</time>
</trkpt>
<trkpt lat="38.230324" lon="-1.1498094">
<ele>1018</ele>
<time>2013-06-02T19:30:03Z</time>
</trkpt>
<trkpt lat="38.230278" lon="-1.1497933">
<ele>1018</ele>
<time>2013-06-02T19:30:04Z</time>
</trkpt>
<trkpt lat="38.230244" lon="-1.1497611">
<ele>1018</ele>
<time>2013-06-02T19:30:05Z</time>
</trkpt>
<trkpt lat="38.23024" lon="-1.1497557">
<ele>1018</ele>
<time>2013-06-02T19:30:06Z</time>
</trkpt>
<trkpt lat="38.230175" lon="-1.1496592">
<ele>1018</ele>
<time>2013-06-02T19:30:09Z</time>
</trkpt>
<trkpt lat="38.23015" lon="-1.1496162">
<ele>1018</ele>
<time>2013-06-02T19:30:10Z</time>
</trkpt>
<trkpt lat="38.230072" lon="-1.1495572">
<ele>1015</ele>
<time>2013-06-02T19:30:11Z</time>
</trkpt>
<trkpt lat="38.230022" lon="-1.149509">
<ele>1013</ele>
<time>2013-06-02T19:30:12Z</time>
</trkpt>
<trkpt lat="38.22998" lon="-1.149466">
<ele>1013</ele>
<time>2013-06-02T19:30:13Z</time>
</trkpt>
<trkpt lat="38.22994" lon="-1.1494446">
<ele>1014</ele>
<time>2013-06-02T19:30:14Z</time>
</trkpt>
<trkpt lat="38.22989" lon="-1.1494178">
<ele>1013</ele>
<time>2013-06-02T19:30:15Z</time>
</trkpt>
<trkpt lat="38.229847" lon="-1.1494017">
<ele>1012</ele>
<time>2013-06-02T19:30:16Z</time>
</trkpt>
<trkpt lat="38.22977" lon="-1.149407">
<ele>1011</ele>
<time>2013-06-02T19:30:17Z</time>
</trkpt>
<trkpt lat="38.22967" lon="-1.1494339">
<ele>1010</ele>
<time>2013-06-02T19:30:18Z</time>
</trkpt>
<trkpt lat="38.229557" lon="-1.1494821">
<ele>1010</ele>
<time>2013-06-02T19:30:19Z</time>
</trkpt>
<trkpt lat="38.229305" lon="-1.1495465">
<ele>1007</ele>
<time>2013-06-02T19:30:22Z</time>
</trkpt>
<trkpt lat="38.229237" lon="-1.1495626">
<ele>1007</ele>
<time>2013-06-02T19:30:23Z</time>
</trkpt>
<trkpt lat="38.22916" lon="-1.1495733">
<ele>1004</ele>
<time>2013-06-02T19:30:24Z</time>
</trkpt>
<trkpt lat="38.22908" lon="-1.1495733">
<ele>1003</ele>
<time>2013-06-02T19:30:25Z</time>
</trkpt>
<trkpt lat="38.228992" lon="-1.1495894">
<ele>1001</ele>
<time>2013-06-02T19:30:26Z</time>
</trkpt>
<trkpt lat="38.228905" lon="-1.1495948">
<ele>1000</ele>
<time>2013-06-02T19:30:27Z</time>
</trkpt>
<trkpt lat="38.22883" lon="-1.1496055">
<ele>997</ele>
<time>2013-06-02T19:30:28Z</time>
</trkpt>
<trkpt lat="38.22876" lon="-1.1496109">
<ele>995</ele>
<time>2013-06-02T19:30:29Z</time>
</trkpt>
<trkpt lat="38.228683" lon="-1.149627">
<ele>994</ele>
<time>2013-06-02T19:30:30Z</time>
</trkpt>
<trkpt lat="38.228615" lon="-1.1496538">
<ele>993</ele>
<time>2013-06-02T19:30:31Z</time>
</trkpt>
<trkpt lat="38.22853" lon="-1.1496967">
<ele>992</ele>
<time>2013-06-02T19:30:32Z</time>
</trkpt>
<trkpt lat="38.228252" lon="-1.1498791">
<ele>990</ele>
<time>2013-06-02T19:30:35Z</time>
</trkpt>
<trkpt lat="38.228157" lon="-1.1499596">
<ele>989</ele>
<time>2013-06-02T19:30:36Z</time>
</trkpt>
<trkpt lat="38.228073" lon="-1.1500561">
<ele>987</ele>
<time>2013-06-02T19:30:37Z</time>
</trkpt>
<trkpt lat="38.227985" lon="-1.150142">
<ele>985</ele>
<time>2013-06-02T19:30:38Z</time>
</trkpt>
<trkpt lat="38.2279" lon="-1.1502117">
<ele>984</ele>
<time>2013-06-02T19:30:39Z</time>
</trkpt>
<trkpt lat="38.22781" lon="-1.1502868">
<ele>984</ele>
<time>2013-06-02T19:30:40Z</time>
</trkpt>
<trkpt lat="38.22773" lon="-1.1503458">
<ele>984</ele>
<time>2013-06-02T19:30:41Z</time>
</trkpt>
<trkpt lat="38.22764" lon="-1.1503994">
<ele>984</ele>
<time>2013-06-02T19:30:42Z</time>
</trkpt>
<trkpt lat="38.227573" lon="-1.1504263">
<ele>984</ele>
<time>2013-06-02T19:30:43Z</time>
</trkpt>
<trkpt lat="38.22751" lon="-1.1504155">
<ele>983</ele>
<time>2013-06-02T19:30:44Z</time>
</trkpt>
<trkpt lat="38.22746" lon="-1.1504048">
<ele>983</ele>
<time>2013-06-02T19:30:45Z</time>
</trkpt>
<trkpt lat="38.227367" lon="-1.1503029">
<ele>981</ele>
<time>2013-06-02T19:30:48Z</time>
</trkpt>
<trkpt lat="38.227356" lon="-1.1502707">
<ele>981</ele>
<time>2013-06-02T19:30:49Z</time>
</trkpt>
<trkpt lat="38.227356" lon="-1.1502224">
<ele>981</ele>
<time>2013-06-02T19:30:50Z</time>
</trkpt>
<trkpt lat="38.227406" lon="-1.1501902">
<ele>980</ele>
<time>2013-06-02T19:30:51Z</time>
</trkpt>
<trkpt lat="38.227417" lon="-1.150142">
<ele>980</ele>
<time>2013-06-02T19:30:52Z</time>
</trkpt>
<trkpt lat="38.227413" lon="-1.150099">
<ele>981</ele>
<time>2013-06-02T19:30:53Z</time>
</trkpt>
<trkpt lat="38.22742" lon="-1.15004">
<ele>981</ele>
<time>2013-06-02T19:30:54Z</time>
</trkpt>
<trkpt lat="38.227455" lon="-1.1499971">
<ele>980</ele>
<time>2013-06-02T19:30:55Z</time>
</trkpt>
<trkpt lat="38.227467" lon="-1.1499649">
<ele>981</ele>
<time>2013-06-02T19:30:56Z</time>
</trkpt>
<trkpt lat="38.22748" lon="-1.1499327">
<ele>981</ele>
<time>2013-06-02T19:30:57Z</time>
</trkpt>
<trkpt lat="38.2275" lon="-1.1498737">
<ele>981</ele>
<time>2013-06-02T19:30:58Z</time>
</trkpt>
<trkpt lat="38.227562" lon="-1.1497343">
<ele>981</ele>
<time>2013-06-02T19:31:01Z</time>
</trkpt>
<trkpt lat="38.227577" lon="-1.1496967">
<ele>981</ele>
<time>2013-06-02T19:31:02Z</time>
</trkpt>
<trkpt lat="38.227592" lon="-1.1496645">
<ele>981</ele>
<time>2013-06-02T19:31:03Z</time>
</trkpt>
<trkpt lat="38.22761" lon="-1.1496323">
<ele>981</ele>
<time>2013-06-02T19:31:04Z</time>
</trkpt>
<trkpt lat="38.227627" lon="-1.1495733">
<ele>981</ele>
<time>2013-06-02T19:31:05Z</time>
</trkpt>
<trkpt lat="38.227642" lon="-1.1495304">
<ele>981</ele>
<time>2013-06-02T19:31:06Z</time>
</trkpt>
<trkpt lat="38.227657" lon="-1.1495036">
<ele>981</ele>
<time>2013-06-02T19:31:07Z</time>
</trkpt>
<trkpt lat="38.227673" lon="-1.1494768">
<ele>981</ele>
<time>2013-06-02T19:31:08Z</time>
</trkpt>
<trkpt lat="38.227684" lon="-1.1494553">
<ele>981</ele>
<time>2013-06-02T19:31:09Z</time>
</trkpt>
<trkpt lat="38.2277" lon="-1.1494231">
<ele>981</ele>
<time>2013-06-02T19:31:10Z</time>
</trkpt>
<trkpt lat="38.22772" lon="-1.1493802">
<ele>981</ele>
<time>2013-06-02T19:31:11Z</time>
</trkpt>
<trkpt lat="38.22776" lon="-1.149289">
<ele>981</ele>
<time>2013-06-02T19:31:14Z</time>
</trkpt>
<trkpt lat="38.228153" lon="-1.1492407">
<ele>968</ele>
<time>2013-06-02T19:31:18Z</time>
</trkpt>
<trkpt lat="38.228184" lon="-1.1492085">
<ele>967</ele>
<time>2013-06-02T19:31:19Z</time>
</trkpt>
<trkpt lat="38.22822" lon="-1.1491764">
<ele>967</ele>
<time>2013-06-02T19:31:20Z</time>
</trkpt>
<trkpt lat="38.228252" lon="-1.1491388">
<ele>967</ele>
<time>2013-06-02T19:31:21Z</time>
</trkpt>
<trkpt lat="38.228237" lon="-1.1491174">
<ele>967</ele>
<time>2013-06-02T19:31:22Z</time>
</trkpt>
<trkpt lat="38.228226" lon="-1.1490959">
<ele>967</ele>
<time>2013-06-02T19:31:23Z</time>
</trkpt>
<trkpt lat="38.228237" lon="-1.1490744">
<ele>967</ele>
<time>2013-06-02T19:31:24Z</time>
</trkpt>
<trkpt lat="38.22826" lon="-1.1490422">
<ele>967</ele>
<time>2013-06-02T19:31:25Z</time>
</trkpt>
<trkpt lat="38.22829" lon="-1.1490154">
<ele>967</ele>
<time>2013-06-02T19:31:26Z</time>
</trkpt>
<trkpt lat="38.228325" lon="-1.1489993">
<ele>967</ele>
<time>2013-06-02T19:31:27Z</time>
</trkpt>
<trkpt lat="38.22841" lon="-1.1489296">
<ele>967</ele>
<time>2013-06-02T19:31:30Z</time>
</trkpt>
<trkpt lat="38.228367" lon="-1.1489296">
<ele>964</ele>
<time>2013-06-02T19:31:31Z</time>
</trkpt>
<trkpt lat="38.228386" lon="-1.1488974">
<ele>964</ele>
<time>2013-06-02T19:31:32Z</time>
</trkpt>
<trkpt lat="38.22841" lon="-1.1489028">
<ele>960</ele>
<time>2013-06-02T19:31:33Z</time>
</trkpt>
<trkpt lat="38.228477" lon="-1.1488867">
<ele>955</ele>
<time>2013-06-02T19:31:34Z</time>
</trkpt>
<trkpt lat="38.228504" lon="-1.1488491">
<ele>954</ele>
<time>2013-06-02T19:31:35Z</time>
</trkpt>
<trkpt lat="38.22855" lon="-1.1488223">
<ele>954</ele>
<time>2013-06-02T19:31:36Z</time>
</trkpt>
<trkpt lat="38.22859" lon="-1.1488008">
<ele>954</ele>
<time>2013-06-02T19:31:37Z</time>
</trkpt>
<trkpt lat="38.22862" lon="-1.148774">
<ele>954</ele>
<time>2013-06-02T19:31:38Z</time>
</trkpt>
<trkpt lat="38.228683" lon="-1.1487687">
<ele>953</ele>
<time>2013-06-02T19:31:39Z</time>
</trkpt>
<trkpt lat="38.228737" lon="-1.1487472">
<ele>952</ele>
<time>2013-06-02T19:31:40Z</time>
</trkpt>
<trkpt lat="38.228977" lon="-1.1487579">
<ele>941</ele>
<time>2013-06-02T19:31:43Z</time>
</trkpt>
<trkpt lat="38.22903" lon="-1.1487365">
<ele>941</ele>
<time>2013-06-02T19:31:44Z</time>
</trkpt>
<trkpt lat="38.22907" lon="-1.1487204">
<ele>941</ele>
<time>2013-06-02T19:31:45Z</time>
</trkpt>
<trkpt lat="38.22911" lon="-1.1486882">
<ele>940</ele>
<time>2013-06-02T19:31:46Z</time>
</trkpt>
<trkpt lat="38.229256" lon="-1.1487257">
<ele>933</ele>
<time>2013-06-02T19:31:47Z</time>
</trkpt>
<trkpt lat="38.229412" lon="-1.1487526">
<ele>927</ele>
<time>2013-06-02T19:31:48Z</time>
</trkpt>
<trkpt lat="38.22938" lon="-1.1487365">
<ele>925</ele>
<time>2013-06-02T19:31:49Z</time>
</trkpt>
<trkpt lat="38.229374" lon="-1.1487472">
<ele>923</ele>
<time>2013-06-02T19:31:50Z</time>
</trkpt>
<trkpt lat="38.229397" lon="-1.1487365">
<ele>922</ele>
<time>2013-06-02T19:31:51Z</time>
</trkpt>
<trkpt lat="38.22944" lon="-1.1487526">
<ele>920</ele>
<time>2013-06-02T19:31:52Z</time>
</trkpt>
<trkpt lat="38.22949" lon="-1.1487579">
<ele>919</ele>
<time>2013-06-02T19:31:53Z</time>
</trkpt>
<trkpt lat="38.229626" lon="-1.148715">
<ele>918</ele>
<time>2013-06-02T19:31:56Z</time>
</trkpt>
<trkpt lat="38.229675" lon="-1.1486882">
<ele>918</ele>
<time>2013-06-02T19:31:57Z</time>
</trkpt>
<trkpt lat="38.229702" lon="-1.1486882">
<ele>918</ele>
<time>2013-06-02T19:31:58Z</time>
</trkpt>
<trkpt lat="38.22975" lon="-1.1486882">
<ele>918</ele>
<time>2013-06-02T19:31:59Z</time>
</trkpt>
<trkpt lat="38.229794" lon="-1.1486775">
<ele>918</ele>
<time>2013-06-02T19:32:00Z</time>
</trkpt>
<trkpt lat="38.229824" lon="-1.1486667">
<ele>918</ele>
<time>2013-06-02T19:32:01Z</time>
</trkpt>
<trkpt lat="38.22987" lon="-1.148656">
<ele>918</ele>
<time>2013-06-02T19:32:02Z</time>
</trkpt>
<trkpt lat="38.229916" lon="-1.1486346">
<ele>918</ele>
<time>2013-06-02T19:32:03Z</time>
</trkpt>
<trkpt lat="38.229954" lon="-1.1486131">
<ele>918</ele>
<time>2013-06-02T19:32:04Z</time>
</trkpt>
<trkpt lat="38.22998" lon="-1.1485916">
<ele>917</ele>
<time>2013-06-02T19:32:05Z</time>
</trkpt>
<trkpt lat="38.23003" lon="-1.148597">
<ele>917</ele>
<time>2013-06-02T19:32:06Z</time>
</trkpt>
<trkpt lat="38.230152" lon="-1.1485702">
<ele>917</ele>
<time>2013-06-02T19:32:09Z</time>
</trkpt>
<trkpt lat="38.23024" lon="-1.1485702">
<ele>914</ele>
<time>2013-06-02T19:32:10Z</time>
</trkpt>
<trkpt lat="38.23032" lon="-1.1485648">
<ele>912</ele>
<time>2013-06-02T19:32:11Z</time>
</trkpt>
<trkpt lat="38.230366" lon="-1.1485487">
<ele>912</ele>
<time>2013-06-02T19:32:12Z</time>
</trkpt>
<trkpt lat="38.230415" lon="-1.148538">
<ele>912</ele>
<time>2013-06-02T19:32:13Z</time>
</trkpt>
<trkpt lat="38.230457" lon="-1.1485273">
<ele>913</ele>
<time>2013-06-02T19:32:14Z</time>
</trkpt>
<trkpt lat="38.230522" lon="-1.1485058">
<ele>914</ele>
<time>2013-06-02T19:32:15Z</time>
</trkpt>
<trkpt lat="38.230495" lon="-1.1484843">
<ele>917</ele>
<time>2013-06-02T19:32:16Z</time>
</trkpt>
<trkpt lat="38.230503" lon="-1.1484683">
<ele>919</ele>
<time>2013-06-02T19:32:17Z</time>
</trkpt>
<trkpt lat="38.230495" lon="-1.1484575">
<ele>921</ele>
<time>2013-06-02T19:32:18Z</time>
</trkpt>
<trkpt lat="38.23049" lon="-1.1484414">
<ele>922</ele>
<time>2013-06-02T19:32:19Z</time>
</trkpt>
<trkpt lat="38.230545" lon="-1.1483771">
<ele>921</ele>
<time>2013-06-02T19:32:22Z</time>
</trkpt>
<trkpt lat="38.230576" lon="-1.1483502">
<ele>922</ele>
<time>2013-06-02T19:32:23Z</time>
</trkpt>
<trkpt lat="38.230587" lon="-1.1483341">
<ele>922</ele>
<time>2013-06-02T19:32:24Z</time>
</trkpt>
<trkpt lat="38.230587" lon="-1.148318">
<ele>923</ele>
<time>2013-06-02T19:32:25Z</time>
</trkpt>
<trkpt lat="38.23057" lon="-1.148318">
<ele>924</ele>
<time>2013-06-02T19:32:26Z</time>
</trkpt>
<trkpt lat="38.230545" lon="-1.1482805">
<ele>925</ele>
<time>2013-06-02T19:32:27Z</time>
</trkpt>
<trkpt lat="38.230534" lon="-1.1482859">
<ele>923</ele>
<time>2013-06-02T19:32:28Z</time>
</trkpt>
<trkpt lat="38.23051" lon="-1.1482751">
<ele>920</ele>
<time>2013-06-02T19:32:29Z</time>
</trkpt>
<trkpt lat="38.230503" lon="-1.148259">
<ele>920</ele>
<time>2013-06-02T19:32:30Z</time>
</trkpt>
<trkpt lat="38.230453" lon="-1.1482376">
<ele>920</ele>
<time>2013-06-02T19:32:31Z</time>
</trkpt>
<trkpt lat="38.2304" lon="-1.1482215">
<ele>920</ele>
<time>2013-06-02T19:32:32Z</time>
</trkpt>
<trkpt lat="38.230267" lon="-1.1482698">
<ele>916</ele>
<time>2013-06-02T19:32:35Z</time>
</trkpt>
<trkpt lat="38.230137" lon="-1.148302">
<ele>915</ele>
<time>2013-06-02T19:32:36Z</time>
</trkpt>
<trkpt lat="38.23007" lon="-1.1483288">
<ele>915</ele>
<time>2013-06-02T19:32:37Z</time>
</trkpt>
<trkpt lat="38.23002" lon="-1.1483234">
<ele>915</ele>
<time>2013-06-02T19:32:38Z</time>
</trkpt>
<trkpt lat="38.22997" lon="-1.1483127">
<ele>915</ele>
<time>2013-06-02T19:32:39Z</time>
</trkpt>
<trkpt lat="38.22991" lon="-1.1482805">
<ele>914</ele>
<time>2013-06-02T19:32:40Z</time>
</trkpt>
<trkpt lat="38.229874" lon="-1.1482698">
<ele>914</ele>
<time>2013-06-02T19:32:41Z</time>
</trkpt>
<trkpt lat="38.229862" lon="-1.1482644">
<ele>913</ele>
<time>2013-06-02T19:32:42Z</time>
</trkpt>
<trkpt lat="38.229862" lon="-1.1482483">
<ele>913</ele>
<time>2013-06-02T19:32:43Z</time>
</trkpt>
<trkpt lat="38.229877" lon="-1.1482376">
<ele>913</ele>
<time>2013-06-02T19:32:44Z</time>
</trkpt>
<trkpt lat="38.229954" lon="-1.1482537">
<ele>913</ele>
<time>2013-06-02T19:32:45Z</time>
</trkpt>
<trkpt lat="38.23022" lon="-1.1483127">
<ele>913</ele>
<time>2013-06-02T19:32:48Z</time>
</trkpt>
<trkpt lat="38.23027" lon="-1.1483127">
<ele>913</ele>
<time>2013-06-02T19:32:49Z</time>
</trkpt>
<trkpt lat="38.230324" lon="-1.1483127">
<ele>913</ele>
<time>2013-06-02T19:32:50Z</time>
</trkpt>
<trkpt lat="38.230366" lon="-1.148302">
<ele>914</ele>
<time>2013-06-02T19:32:51Z</time>
</trkpt>
<trkpt lat="38.230415" lon="-1.1482966">
<ele>914</ele>
<time>2013-06-02T19:32:52Z</time>
</trkpt>
<trkpt lat="38.230465" lon="-1.1482859">
<ele>914</ele>
<time>2013-06-02T19:32:53Z</time>
</trkpt>
<trkpt lat="38.23051" lon="-1.1482751">
<ele>914</ele>
<time>2013-06-02T19:32:54Z</time>
</trkpt>
<trkpt lat="38.23056" lon="-1.1482537">
<ele>914</ele>
<time>2013-06-02T19:32:55Z</time>
</trkpt>
<trkpt lat="38.23062" lon="-1.1482483">
<ele>913</ele>
<time>2013-06-02T19:32:56Z</time>
</trkpt>
<trkpt lat="38.230663" lon="-1.1482376">
<ele>913</ele>
<time>2013-06-02T19:32:57Z</time>
</trkpt>
<trkpt lat="38.230694" lon="-1.1482644">
<ele>913</ele>
<time>2013-06-02T19:32:58Z</time>
</trkpt>
<trkpt lat="38.230827" lon="-1.1482805">
<ele>914</ele>
<time>2013-06-02T19:33:01Z</time>
</trkpt>
<trkpt lat="38.230907" lon="-1.1482805">
<ele>915</ele>
<time>2013-06-02T19:33:02Z</time>
</trkpt>
<trkpt lat="38.230972" lon="-1.1482805">
<ele>916</ele>
<time>2013-06-02T19:33:03Z</time>
</trkpt>
<trkpt lat="38.231026" lon="-1.1482805">
<ele>917</ele>
<time>2013-06-02T19:33:04Z</time>
</trkpt>
<trkpt lat="38.23108" lon="-1.1482805">
<ele>918</ele>
<time>2013-06-02T19:33:05Z</time>
</trkpt>
<trkpt lat="38.231133" lon="-1.1482859">
<ele>918</ele>
<time>2013-06-02T19:33:06Z</time>
</trkpt>
<trkpt lat="38.231182" lon="-1.1482698">
<ele>918</ele>
<time>2013-06-02T19:33:07Z</time>
</trkpt>
<trkpt lat="38.231216" lon="-1.148243">
<ele>919</ele>
<time>2013-06-02T19:33:08Z</time>
</trkpt>
<trkpt lat="38.231262" lon="-1.1482161">
<ele>919</ele>
<time>2013-06-02T19:33:09Z</time>
</trkpt>
<trkpt lat="38.23131" lon="-1.1482054">
<ele>920</ele>
<time>2013-06-02T19:33:10Z</time>
</trkpt>
<trkpt lat="38.23136" lon="-1.1481947">
<ele>921</ele>
<time>2013-06-02T19:33:11Z</time>
</trkpt>
<trkpt lat="38.231487" lon="-1.1482269">
<ele>923</ele>
<time>2013-06-02T19:33:14Z</time>
</trkpt>
<trkpt lat="38.231537" lon="-1.1482269">
<ele>925</ele>
<time>2013-06-02T19:33:15Z</time>
</trkpt>
<trkpt lat="38.23158" lon="-1.1482108">
<ele>927</ele>
<time>2013-06-02T19:33:16Z</time>
</trkpt>
<trkpt lat="38.231617" lon="-1.1481893">
<ele>929</ele>
<time>2013-06-02T19:33:17Z</time>
</trkpt>
<trkpt lat="38.23165" lon="-1.1481678">
<ele>931</ele>
<time>2013-06-02T19:33:18Z</time>
</trkpt>
<trkpt lat="38.231678" lon="-1.1481464">
<ele>932</ele>
<time>2013-06-02T19:33:19Z</time>
</trkpt>
<trkpt lat="38.231686" lon="-1.1481142">
<ele>933</ele>
<time>2013-06-02T19:33:20Z</time>
</trkpt>
<trkpt lat="38.231697" lon="-1.1480874">
<ele>934</ele>
<time>2013-06-02T19:33:21Z</time>
</trkpt>
<trkpt lat="38.231697" lon="-1.1480552">
<ele>935</ele>
<time>2013-06-02T19:33:22Z</time>
</trkpt>
<trkpt lat="38.23168" lon="-1.148023">
<ele>935</ele>
<time>2013-06-02T19:33:23Z</time>
</trkpt>
<trkpt lat="38.231667" lon="-1.1479855">
<ele>937</ele>
<time>2013-06-02T19:33:24Z</time>
</trkpt>
<trkpt lat="38.2316" lon="-1.1478728">
<ele>940</ele>
<time>2013-06-02T19:33:27Z</time>
</trkpt>
<trkpt lat="38.231567" lon="-1.1478353">
<ele>941</ele>
<time>2013-06-02T19:33:28Z</time>
</trkpt>
<trkpt lat="38.231533" lon="-1.1477977">
<ele>942</ele>
<time>2013-06-02T19:33:29Z</time>
</trkpt>
<trkpt lat="38.231506" lon="-1.1477655">
<ele>941</ele>
<time>2013-06-02T19:33:30Z</time>
</trkpt>
<trkpt lat="38.231483" lon="-1.1477387">
<ele>941</ele>
<time>2013-06-02T19:33:31Z</time>
</trkpt>
<trkpt lat="38.23145" lon="-1.1477172">
<ele>941</ele>
<time>2013-06-02T19:33:32Z</time>
</trkpt>
<trkpt lat="38.231422" lon="-1.1476904">
<ele>941</ele>
<time>2013-06-02T19:33:33Z</time>
</trkpt>
<trkpt lat="38.23139" lon="-1.147669">
<ele>941</ele>
<time>2013-06-02T19:33:34Z</time>
</trkpt>
<trkpt lat="38.23135" lon="-1.1476314">
<ele>941</ele>
<time>2013-06-02T19:33:35Z</time>
</trkpt>
<trkpt lat="38.23131" lon="-1.1475992">
<ele>941</ele>
<time>2013-06-02T19:33:36Z</time>
</trkpt>
<trkpt lat="38.23126" lon="-1.1475617">
<ele>941</ele>
<time>2013-06-02T19:33:37Z</time>
</trkpt>
<trkpt lat="38.231163" lon="-1.1474973">
<ele>941</ele>
<time>2013-06-02T19:33:40Z</time>
</trkpt>
<trkpt lat="38.23114" lon="-1.1474544">
<ele>941</ele>
<time>2013-06-02T19:33:41Z</time>
</trkpt>
<trkpt lat="38.2311" lon="-1.1474222">
<ele>941</ele>
<time>2013-06-02T19:33:42Z</time>
</trkpt>
<trkpt lat="38.231075" lon="-1.1474115">
<ele>943</ele>
<time>2013-06-02T19:33:43Z</time>
</trkpt>
<trkpt lat="38.23105" lon="-1.1473954">
<ele>943</ele>
<time>2013-06-02T19:33:44Z</time>
</trkpt>
<trkpt lat="38.231007" lon="-1.14739">
<ele>944</ele>
<time>2013-06-02T19:33:45Z</time>
</trkpt>
<trkpt lat="38.230965" lon="-1.14739">
<ele>944</ele>
<time>2013-06-02T19:33:46Z</time>
</trkpt>
<trkpt lat="38.230907" lon="-1.1473846">
<ele>945</ele>
<time>2013-06-02T19:33:47Z</time>
</trkpt>
<trkpt lat="38.230877" lon="-1.1473739">
<ele>945</ele>
<time>2013-06-02T19:33:48Z</time>
</trkpt>
<trkpt lat="38.23085" lon="-1.1473149">
<ele>946</ele>
<time>2013-06-02T19:33:49Z</time>
</trkpt>
<trkpt lat="38.230824" lon="-1.1472988">
<ele>947</ele>
<time>2013-06-02T19:33:50Z</time>
</trkpt>
<trkpt lat="38.23073" lon="-1.1472344">
<ele>947</ele>
<time>2013-06-02T19:33:53Z</time>
</trkpt>
<trkpt lat="38.23069" lon="-1.1471969">
<ele>947</ele>
<time>2013-06-02T19:33:54Z</time>
</trkpt>
<trkpt lat="38.230656" lon="-1.1471593">
<ele>947</ele>
<time>2013-06-02T19:33:55Z</time>
</trkpt>
<trkpt lat="38.230625" lon="-1.1471164">
<ele>947</ele>
<time>2013-06-02T19:33:56Z</time>
</trkpt>
<trkpt lat="38.230564" lon="-1.147111">
<ele>947</ele>
<time>2013-06-02T19:33:57Z</time>
</trkpt>
<trkpt lat="38.23055" lon="-1.147095">
<ele>946</ele>
<time>2013-06-02T19:33:58Z</time>
</trkpt>
<trkpt lat="38.230495" lon="-1.147111">
<ele>946</ele>
<time>2013-06-02T19:33:59Z</time>
</trkpt>
<trkpt lat="38.23041" lon="-1.1471164">
<ele>946</ele>
<time>2013-06-02T19:34:00Z</time>
</trkpt>
<trkpt lat="38.230347" lon="-1.1471164">
<ele>946</ele>
<time>2013-06-02T19:34:01Z</time>
</trkpt>
<trkpt lat="38.230293" lon="-1.1471057">
<ele>946</ele>
<time>2013-06-02T19:34:02Z</time>
</trkpt>
<trkpt lat="38.23023" lon="-1.1470681">
<ele>946</ele>
<time>2013-06-02T19:34:03Z</time>
</trkpt>
<trkpt lat="38.230297" lon="-1.1469984">
<ele>945</ele>
<time>2013-06-02T19:34:06Z</time>
</trkpt>
<trkpt lat="38.23031" lon="-1.1469823">
<ele>945</ele>
<time>2013-06-02T19:34:07Z</time>
</trkpt>
<trkpt lat="38.23034" lon="-1.1469823">
<ele>944</ele>
<time>2013-06-02T19:34:08Z</time>
</trkpt>
<trkpt lat="38.230392" lon="-1.1470091">
<ele>943</ele>
<time>2013-06-02T19:34:09Z</time>
</trkpt>
<trkpt lat="38.230457" lon="-1.147052">
<ele>941</ele>
<time>2013-06-02T19:34:10Z</time>
</trkpt>
<trkpt lat="38.23053" lon="-1.1471057">
<ele>941</ele>
<time>2013-06-02T19:34:11Z</time>
</trkpt>
<trkpt lat="38.23059" lon="-1.1472023">
<ele>939</ele>
<time>2013-06-02T19:34:12Z</time>
</trkpt>
<trkpt lat="38.230667" lon="-1.147272">
<ele>941</ele>
<time>2013-06-02T19:34:13Z</time>
</trkpt>
<trkpt lat="38.230774" lon="-1.1473954">
<ele>941</ele>
<time>2013-06-02T19:34:14Z</time>
</trkpt>
<trkpt lat="38.230854" lon="-1.147508">
<ele>941</ele>
<time>2013-06-02T19:34:15Z</time>
</trkpt>
<trkpt lat="38.23086" lon="-1.1476743">
<ele>943</ele>
<time>2013-06-02T19:34:16Z</time>
</trkpt>
<trkpt lat="38.230972" lon="-1.148023">
<ele>942</ele>
<time>2013-06-02T19:34:19Z</time>
</trkpt>
<trkpt lat="38.231026" lon="-1.1481303">
<ele>942</ele>
<time>2013-06-02T19:34:20Z</time>
</trkpt>
<trkpt lat="38.23108" lon="-1.1482108">
<ele>942</ele>
<time>2013-06-02T19:34:21Z</time>
</trkpt>
<trkpt lat="38.231133" lon="-1.1482912">
<ele>941</ele>
<time>2013-06-02T19:34:22Z</time>
</trkpt>
<trkpt lat="38.231194" lon="-1.1483449">
<ele>941</ele>
<time>2013-06-02T19:34:23Z</time>
</trkpt>
<trkpt lat="38.23126" lon="-1.1483932">
<ele>941</ele>
<time>2013-06-02T19:34:24Z</time>
</trkpt>
<trkpt lat="38.231323" lon="-1.1484307">
<ele>941</ele>
<time>2013-06-02T19:34:25Z</time>
</trkpt>
<trkpt lat="38.231388" lon="-1.1484629">
<ele>941</ele>
<time>2013-06-02T19:34:26Z</time>
</trkpt>
<trkpt lat="38.231445" lon="-1.1484414">
<ele>941</ele>
<time>2013-06-02T19:34:27Z</time>
</trkpt>
<trkpt lat="38.231487" lon="-1.1484575">
<ele>941</ele>
<time>2013-06-02T19:34:28Z</time>
</trkpt>
<trkpt lat="38.23154" lon="-1.1484522">
<ele>940</ele>
<time>2013-06-02T19:34:29Z</time>
</trkpt>
<trkpt lat="38.23167" lon="-1.1484146">
<ele>939</ele>
<time>2013-06-02T19:34:32Z</time>
</trkpt>
<trkpt lat="38.231705" lon="-1.1483985">
<ele>940</ele>
<time>2013-06-02T19:34:33Z</time>
</trkpt>
<trkpt lat="38.23174" lon="-1.1483717">
<ele>940</ele>
<time>2013-06-02T19:34:34Z</time>
</trkpt>
<trkpt lat="38.231777" lon="-1.1483502">
<ele>940</ele>
<time>2013-06-02T19:34:35Z</time>
</trkpt>
<trkpt lat="38.23181" lon="-1.1483341">
<ele>940</ele>
<time>2013-06-02T19:34:36Z</time>
</trkpt>
<trkpt lat="38.23185" lon="-1.148318">
<ele>941</ele>
<time>2013-06-02T19:34:37Z</time>
</trkpt>
<trkpt lat="38.23188" lon="-1.1482966">
<ele>941</ele>
<time>2013-06-02T19:34:38Z</time>
</trkpt>
<trkpt lat="38.23191" lon="-1.1482698">
<ele>942</ele>
<time>2013-06-02T19:34:39Z</time>
</trkpt>
<trkpt lat="38.23195" lon="-1.1482483">
<ele>942</ele>
<time>2013-06-02T19:34:40Z</time>
</trkpt>
<trkpt lat="38.231987" lon="-1.1482269">
<ele>942</ele>
<time>2013-06-02T19:34:41Z</time>
</trkpt>
<trkpt lat="38.232014" lon="-1.1482">
<ele>943</ele>
<time>2013-06-02T19:34:42Z</time>
</trkpt>
<trkpt lat="38.232117" lon="-1.148141">
<ele>944</ele>
<time>2013-06-02T19:34:45Z</time>
</trkpt>
<trkpt lat="38.232155" lon="-1.1481196">
<ele>944</ele>
<time>2013-06-02T19:34:46Z</time>
</trkpt>
<trkpt lat="38.232185" lon="-1.1480981">
<ele>944</ele>
<time>2013-06-02T19:34:47Z</time>
</trkpt>
<trkpt lat="38.23222" lon="-1.1480767">
<ele>944</ele>
<time>2013-06-02T19:34:48Z</time>
</trkpt>
<trkpt lat="38.232254" lon="-1.1480659">
<ele>944</ele>
<time>2013-06-02T19:34:49Z</time>
</trkpt>
<trkpt lat="38.23229" lon="-1.1480445">
<ele>944</ele>
<time>2013-06-02T19:34:50Z</time>
</trkpt>
<trkpt lat="38.23232" lon="-1.1480337">
<ele>944</ele>
<time>2013-06-02T19:34:51Z</time>
</trkpt>
<trkpt lat="38.232353" lon="-1.1480123">
<ele>944</ele>
<time>2013-06-02T19:34:52Z</time>
</trkpt>
<trkpt lat="38.23239" lon="-1.1479962">
<ele>944</ele>
<time>2013-06-02T19:34:53Z</time>
</trkpt>
<trkpt lat="38.23242" lon="-1.1479747">
<ele>944</ele>
<time>2013-06-02T19:34:54Z</time>
</trkpt>
<trkpt lat="38.232452" lon="-1.1479533">
<ele>944</ele>
<time>2013-06-02T19:34:55Z</time>
</trkpt>
<trkpt lat="38.232605" lon="-1.147846">
<ele>944</ele>
<time>2013-06-02T19:34:58Z</time>
</trkpt>
<trkpt lat="38.232643" lon="-1.1478138">
<ele>944</ele>
<time>2013-06-02T19:34:59Z</time>
</trkpt>
<trkpt lat="38.23267" lon="-1.1477816">
<ele>944</ele>
<time>2013-06-02T19:35:00Z</time>
</trkpt>
<trkpt lat="38.2327" lon="-1.1477494">
<ele>944</ele>
<time>2013-06-02T19:35:01Z</time>
</trkpt>
<trkpt lat="38.23274" lon="-1.1477119">
<ele>944</ele>
<time>2013-06-02T19:35:02Z</time>
</trkpt>
<trkpt lat="38.23277" lon="-1.147669">
<ele>944</ele>
<time>2013-06-02T19:35:03Z</time>
</trkpt>
<trkpt lat="38.23286" lon="-1.1476314">
<ele>945</ele>
<time>2013-06-02T19:35:04Z</time>
</trkpt>
<trkpt lat="38.232906" lon="-1.1475939">
<ele>946</ele>
<time>2013-06-02T19:35:05Z</time>
</trkpt>
<trkpt lat="38.23292" lon="-1.147551">
<ele>947</ele>
<time>2013-06-02T19:35:06Z</time>
</trkpt>
<trkpt lat="38.232933" lon="-1.1475027">
<ele>948</ele>
<time>2013-06-02T19:35:07Z</time>
</trkpt>
<trkpt lat="38.232906" lon="-1.1475027">
<ele>948</ele>
<time>2013-06-02T19:35:08Z</time>
</trkpt>
<trkpt lat="38.232883" lon="-1.1474651">
<ele>948</ele>
<time>2013-06-02T19:35:11Z</time>
</trkpt>
<trkpt lat="38.23286" lon="-1.1474276">
<ele>948</ele>
<time>2013-06-02T19:35:12Z</time>
</trkpt>
<trkpt lat="38.23283" lon="-1.1473954">
<ele>948</ele>
<time>2013-06-02T19:35:13Z</time>
</trkpt>
<trkpt lat="38.232796" lon="-1.1473578">
<ele>948</ele>
<time>2013-06-02T19:35:14Z</time>
</trkpt>
<trkpt lat="38.23275" lon="-1.1473256">
<ele>948</ele>
<time>2013-06-02T19:35:15Z</time>
</trkpt>
<trkpt lat="38.232723" lon="-1.1473364">
<ele>946</ele>
<time>2013-06-02T19:35:16Z</time>
</trkpt>
<trkpt lat="38.2327" lon="-1.1473203">
<ele>946</ele>
<time>2013-06-02T19:35:17Z</time>
</trkpt>
<trkpt lat="38.232647" lon="-1.1473149">
<ele>947</ele>
<time>2013-06-02T19:35:18Z</time>
</trkpt>
<trkpt lat="38.232597" lon="-1.1473203">
<ele>948</ele>
<time>2013-06-02T19:35:19Z</time>
</trkpt>
<trkpt lat="38.232517" lon="-1.1473632">
<ele>949</ele>
<time>2013-06-02T19:35:20Z</time>
</trkpt>
<trkpt lat="38.232433" lon="-1.1474329">
<ele>948</ele>
<time>2013-06-02T19:35:21Z</time>
</trkpt>
<trkpt lat="38.23216" lon="-1.1477387">
<ele>954</ele>
<time>2013-06-02T19:35:24Z</time>
</trkpt>
<trkpt lat="38.232082" lon="-1.1478299">
<ele>957</ele>
<time>2013-06-02T19:35:25Z</time>
</trkpt>
<trkpt lat="38.23201" lon="-1.1479479">
<ele>958</ele>
<time>2013-06-02T19:35:26Z</time>
</trkpt>
<trkpt lat="38.231956" lon="-1.1480713">
<ele>961</ele>
<time>2013-06-02T19:35:27Z</time>
</trkpt>
<trkpt lat="38.231895" lon="-1.1481893">
<ele>962</ele>
<time>2013-06-02T19:35:28Z</time>
</trkpt>
<trkpt lat="38.231842" lon="-1.1483127">
<ele>962</ele>
<time>2013-06-02T19:35:29Z</time>
</trkpt>
<trkpt lat="38.231773" lon="-1.1484092">
<ele>963</ele>
<time>2013-06-02T19:35:30Z</time>
</trkpt>
<trkpt lat="38.23171" lon="-1.1484843">
<ele>962</ele>
<time>2013-06-02T19:35:31Z</time>
</trkpt>
<trkpt lat="38.23164" lon="-1.1485487">
<ele>962</ele>
<time>2013-06-02T19:35:32Z</time>
</trkpt>
<trkpt lat="38.231564" lon="-1.1486077">
<ele>962</ele>
<time>2013-06-02T19:35:33Z</time>
</trkpt>
<trkpt lat="38.231506" lon="-1.1486667">
<ele>961</ele>
<time>2013-06-02T19:35:34Z</time>
</trkpt>
<trkpt lat="38.23131" lon="-1.1486936">
<ele>960</ele>
<time>2013-06-02T19:35:37Z</time>
</trkpt>
<trkpt lat="38.231285" lon="-1.1486667">
<ele>959</ele>
<time>2013-06-02T19:35:38Z</time>
</trkpt>
<trkpt lat="38.231247" lon="-1.1486399">
<ele>959</ele>
<time>2013-06-02T19:35:39Z</time>
</trkpt>
<trkpt lat="38.23121" lon="-1.1486077">
<ele>959</ele>
<time>2013-06-02T19:35:40Z</time>
</trkpt>
<trkpt lat="38.231163" lon="-1.1485916">
<ele>959</ele>
<time>2013-06-02T19:35:41Z</time>
</trkpt>
<trkpt lat="38.231216" lon="-1.1485809">
<ele>958</ele>
<time>2013-06-02T19:35:42Z</time>
</trkpt>
<trkpt lat="38.23125" lon="-1.1485809">
<ele>957</ele>
<time>2013-06-02T19:35:43Z</time>
</trkpt>
<trkpt lat="38.231327" lon="-1.1485809">
<ele>957</ele>
<time>2013-06-02T19:35:44Z</time>
</trkpt>
<trkpt lat="38.23142" lon="-1.1485916">
<ele>957</ele>
<time>2013-06-02T19:35:45Z</time>
</trkpt>
<trkpt lat="38.231487" lon="-1.1486131">
<ele>957</ele>
<time>2013-06-02T19:35:46Z</time>
</trkpt>
<trkpt lat="38.23154" lon="-1.1486238">
<ele>957</ele>
<time>2013-06-02T19:35:47Z</time>
</trkpt>
<trkpt lat="38.231712" lon="-1.1486399">
<ele>957</ele>
<time>2013-06-02T19:35:50Z</time>
</trkpt>
<trkpt lat="38.231773" lon="-1.1486453">
<ele>955</ele>
<time>2013-06-02T19:35:51Z</time>
</trkpt>
<trkpt lat="38.231827" lon="-1.1486399">
<ele>955</ele>
<time>2013-06-02T19:35:52Z</time>
</trkpt>
<trkpt lat="38.23189" lon="-1.1486024">
<ele>955</ele>
<time>2013-06-02T19:35:53Z</time>
</trkpt>
<trkpt lat="38.23193" lon="-1.1485809">
<ele>955</ele>
<time>2013-06-02T19:35:54Z</time>
</trkpt>
<trkpt lat="38.231983" lon="-1.1485541">
<ele>955</ele>
<time>2013-06-02T19:35:55Z</time>
</trkpt>
<trkpt lat="38.23203" lon="-1.1485326">
<ele>955</ele>
<time>2013-06-02T19:35:56Z</time>
</trkpt>
<trkpt lat="38.232082" lon="-1.1485112">
<ele>955</ele>
<time>2013-06-02T19:35:57Z</time>
</trkpt>
<trkpt lat="38.232117" lon="-1.1485058">
<ele>955</ele>
<time>2013-06-02T19:35:58Z</time>
</trkpt>
<trkpt lat="38.232136" lon="-1.1484897">
<ele>955</ele>
<time>2013-06-02T19:35:59Z</time>
</trkpt>
<trkpt lat="38.23217" lon="-1.1484843">
<ele>955</ele>
<time>2013-06-02T19:36:00Z</time>
</trkpt>
<trkpt lat="38.23229" lon="-1.1483824">
<ele>955</ele>
<time>2013-06-02T19:36:03Z</time>
</trkpt>
<trkpt lat="38.23233" lon="-1.1483502">
<ele>955</ele>
<time>2013-06-02T19:36:04Z</time>
</trkpt>
<trkpt lat="38.232372" lon="-1.1483234">
<ele>955</ele>
<time>2013-06-02T19:36:05Z</time>
</trkpt>
<trkpt lat="38.232418" lon="-1.1482966">
<ele>955</ele>
<time>2013-06-02T19:36:06Z</time>
</trkpt>
<trkpt lat="38.232452" lon="-1.1482805">
<ele>955</ele>
<time>2013-06-02T19:36:07Z</time>
</trkpt>
<trkpt lat="38.2325" lon="-1.1482537">
<ele>955</ele>
<time>2013-06-02T19:36:08Z</time>
</trkpt>
<trkpt lat="38.232536" lon="-1.1482269">
<ele>955</ele>
<time>2013-06-02T19:36:09Z</time>
</trkpt>
<trkpt lat="38.23257" lon="-1.1482215">
<ele>955</ele>
<time>2013-06-02T19:36:10Z</time>
</trkpt>
<trkpt lat="38.23258" lon="-1.1481035">
<ele>955</ele>
<time>2013-06-02T19:36:16Z</time>
</trkpt>
<trkpt lat="38.232605" lon="-1.1480713">
<ele>955</ele>
<time>2013-06-02T19:36:17Z</time>
</trkpt>
<trkpt lat="38.232723" lon="-1.1480445">
<ele>955</ele>
<time>2013-06-02T19:36:18Z</time>
</trkpt>
<trkpt lat="38.23285" lon="-1.1479747">
<ele>955</ele>
<time>2013-06-02T19:36:21Z</time>
</trkpt>
<trkpt lat="38.23285" lon="-1.1479533">
<ele>955</ele>
<time>2013-06-02T19:36:22Z</time>
</trkpt>
<trkpt lat="38.232857" lon="-1.1479264">
<ele>955</ele>
<time>2013-06-02T19:36:23Z</time>
</trkpt>
<trkpt lat="38.23288" lon="-1.1478996">
<ele>955</ele>
<time>2013-06-02T19:36:24Z</time>
</trkpt>
<trkpt lat="38.232895" lon="-1.1478621">
<ele>955</ele>
<time>2013-06-02T19:36:25Z</time>
</trkpt>
<trkpt lat="38.232887" lon="-1.1478031">
<ele>957</ele>
<time>2013-06-02T19:36:26Z</time>
</trkpt>
<trkpt lat="38.232906" lon="-1.1477762">
<ele>958</ele>
<time>2013-06-02T19:36:27Z</time>
</trkpt>
<trkpt lat="38.232914" lon="-1.147744">
<ele>957</ele>
<time>2013-06-02T19:36:28Z</time>
</trkpt>
<trkpt lat="38.232933" lon="-1.1477226">
<ele>957</ele>
<time>2013-06-02T19:36:29Z</time>
</trkpt>
<trkpt lat="38.233006" lon="-1.1477011">
<ele>958</ele>
<time>2013-06-02T19:36:30Z</time>
</trkpt>
<trkpt lat="38.233013" lon="-1.1476743">
<ele>958</ele>
<time>2013-06-02T19:36:31Z</time>
</trkpt>
<trkpt lat="38.23312" lon="-1.1475617">
<ele>959</ele>
<time>2013-06-02T19:36:34Z</time>
</trkpt>
<trkpt lat="38.233135" lon="-1.1475241">
<ele>960</ele>
<time>2013-06-02T19:36:35Z</time>
</trkpt>
<trkpt lat="38.233162" lon="-1.1474973">
<ele>960</ele>
<time>2013-06-02T19:36:36Z</time>
</trkpt>
<trkpt lat="38.23319" lon="-1.1474705">
<ele>960</ele>
<time>2013-06-02T19:36:37Z</time>
</trkpt>
<trkpt lat="38.233215" lon="-1.1474383">
<ele>960</ele>
<time>2013-06-02T19:36:38Z</time>
</trkpt>
<trkpt lat="38.233242" lon="-1.1474168">
<ele>960</ele>
<time>2013-06-02T19:36:39Z</time>
</trkpt>
<trkpt lat="38.233253" lon="-1.1474007">
<ele>961</ele>
<time>2013-06-02T19:36:40Z</time>
</trkpt>
<trkpt lat="38.233276" lon="-1.1473793">
<ele>961</ele>
<time>2013-06-02T19:36:41Z</time>
</trkpt>
<trkpt lat="38.23335" lon="-1.1473525">
<ele>962</ele>
<time>2013-06-02T19:36:42Z</time>
</trkpt>
<trkpt lat="38.233376" lon="-1.1473364">
<ele>962</ele>
<time>2013-06-02T19:36:43Z</time>
</trkpt>
<trkpt lat="38.233402" lon="-1.1473149">
<ele>962</ele>
<time>2013-06-02T19:36:44Z</time>
</trkpt>
<trkpt lat="38.233402" lon="-1.1472559">
<ele>961</ele>
<time>2013-06-02T19:36:47Z</time>
</trkpt>
<trkpt lat="38.233414" lon="-1.1472237">
<ele>961</ele>
<time>2013-06-02T19:36:48Z</time>
</trkpt>
<trkpt lat="38.233448" lon="-1.1471593">
<ele>965</ele>
<time>2013-06-02T19:36:49Z</time>
</trkpt>
<trkpt lat="38.233463" lon="-1.1471272">
<ele>965</ele>
<time>2013-06-02T19:36:50Z</time>
</trkpt>
<trkpt lat="38.233475" lon="-1.1470896">
<ele>968</ele>
<time>2013-06-02T19:36:51Z</time>
</trkpt>
<trkpt lat="38.233482" lon="-1.1470628">
<ele>969</ele>
<time>2013-06-02T19:36:52Z</time>
</trkpt>
<trkpt lat="38.23349" lon="-1.147036">
<ele>971</ele>
<time>2013-06-02T19:36:53Z</time>
</trkpt>
<trkpt lat="38.233494" lon="-1.1470038">
<ele>973</ele>
<time>2013-06-02T19:36:54Z</time>
</trkpt>
<trkpt lat="38.23349" lon="-1.1469877">
<ele>974</ele>
<time>2013-06-02T19:36:55Z</time>
</trkpt>
<trkpt lat="38.23345" lon="-1.1469179">
<ele>974</ele>
<time>2013-06-02T19:36:56Z</time>
</trkpt>
<trkpt lat="38.23343" lon="-1.1468643">
<ele>975</ele>
<time>2013-06-02T19:36:57Z</time>
</trkpt>
<trkpt lat="38.233383" lon="-1.1467624">
<ele>974</ele>
<time>2013-06-02T19:37:00Z</time>
</trkpt>
<trkpt lat="38.233368" lon="-1.1467248">
<ele>974</ele>
<time>2013-06-02T19:37:01Z</time>
</trkpt>
<trkpt lat="38.23336" lon="-1.1466926">
<ele>974</ele>
<time>2013-06-02T19:37:02Z</time>
</trkpt>
<trkpt lat="38.233345" lon="-1.1466551">
<ele>975</ele>
<time>2013-06-02T19:37:03Z</time>
</trkpt>
<trkpt lat="38.233337" lon="-1.1466229">
<ele>975</ele>
<time>2013-06-02T19:37:04Z</time>
</trkpt>
<trkpt lat="38.23332" lon="-1.1465907">
<ele>976</ele>
<time>2013-06-02T19:37:05Z</time>
</trkpt>
<trkpt lat="38.233295" lon="-1.1465639">
<ele>976</ele>
<time>2013-06-02T19:37:06Z</time>
</trkpt>
<trkpt lat="38.233284" lon="-1.1465263">
<ele>976</ele>
<time>2013-06-02T19:37:07Z</time>
</trkpt>
<trkpt lat="38.233276" lon="-1.1464888">
<ele>976</ele>
<time>2013-06-02T19:37:08Z</time>
</trkpt>
<trkpt lat="38.233253" lon="-1.1464405">
<ele>976</ele>
<time>2013-06-02T19:37:09Z</time>
</trkpt>
<trkpt lat="38.23324" lon="-1.146403">
<ele>976</ele>
<time>2013-06-02T19:37:10Z</time>
</trkpt>
<trkpt lat="38.23321" lon="-1.1462903">
<ele>976</ele>
<time>2013-06-02T19:37:13Z</time>
</trkpt>
<trkpt lat="38.233192" lon="-1.1462528">
<ele>975</ele>
<time>2013-06-02T19:37:14Z</time>
</trkpt>
<trkpt lat="38.23312" lon="-1.1461562">
<ele>973</ele>
<time>2013-06-02T19:37:15Z</time>
</trkpt>
<trkpt lat="38.233078" lon="-1.1461079">
<ele>973</ele>
<time>2013-06-02T19:37:16Z</time>
</trkpt>
<trkpt lat="38.23305" lon="-1.1460865">
<ele>973</ele>
<time>2013-06-02T19:37:17Z</time>
</trkpt>
<trkpt lat="38.233017" lon="-1.1460757">
<ele>974</ele>
<time>2013-06-02T19:37:18Z</time>
</trkpt>
<trkpt lat="38.232975" lon="-1.1460596">
<ele>974</ele>
<time>2013-06-02T19:37:19Z</time>
</trkpt>
<trkpt lat="38.23295" lon="-1.1460435">
<ele>974</ele>
<time>2013-06-02T19:37:20Z</time>
</trkpt>
<trkpt lat="38.23291" lon="-1.1460221">
<ele>974</ele>
<time>2013-06-02T19:37:21Z</time>
</trkpt>
<trkpt lat="38.232845" lon="-1.1459899">
<ele>974</ele>
<time>2013-06-02T19:37:22Z</time>
</trkpt>
<trkpt lat="38.23279" lon="-1.1459792">
<ele>974</ele>
<time>2013-06-02T19:37:23Z</time>
</trkpt>
<trkpt lat="38.232605" lon="-1.1459309">
<ele>975</ele>
<time>2013-06-02T19:37:26Z</time>
</trkpt>
<trkpt lat="38.23255" lon="-1.145888">
<ele>975</ele>
<time>2013-06-02T19:37:27Z</time>
</trkpt>
<trkpt lat="38.2325" lon="-1.145845">
<ele>974</ele>
<time>2013-06-02T19:37:28Z</time>
</trkpt>
<trkpt lat="38.232445" lon="-1.1458021">
<ele>974</ele>
<time>2013-06-02T19:37:29Z</time>
</trkpt>
<trkpt lat="38.232384" lon="-1.1457646">
<ele>974</ele>
<time>2013-06-02T19:37:30Z</time>
</trkpt>
<trkpt lat="38.232338" lon="-1.1457485">
<ele>974</ele>
<time>2013-06-02T19:37:31Z</time>
</trkpt>
<trkpt lat="38.232292" lon="-1.1457324">
<ele>974</ele>
<time>2013-06-02T19:37:32Z</time>
</trkpt>
<trkpt lat="38.232246" lon="-1.1457163">
<ele>974</ele>
<time>2013-06-02T19:37:33Z</time>
</trkpt>
<trkpt lat="38.2322" lon="-1.1456788">
<ele>974</ele>
<time>2013-06-02T19:37:34Z</time>
</trkpt>
<trkpt lat="38.232162" lon="-1.1456305">
<ele>974</ele>
<time>2013-06-02T19:37:35Z</time>
</trkpt>
<trkpt lat="38.23213" lon="-1.1455929">
<ele>974</ele>
<time>2013-06-02T19:37:36Z</time>
</trkpt>
<trkpt lat="38.232025" lon="-1.1454749">
<ele>974</ele>
<time>2013-06-02T19:37:39Z</time>
</trkpt>
<trkpt lat="38.231987" lon="-1.145432">
<ele>974</ele>
<time>2013-06-02T19:37:40Z</time>
</trkpt>
<trkpt lat="38.23196" lon="-1.145373">
<ele>974</ele>
<time>2013-06-02T19:37:41Z</time>
</trkpt>
<trkpt lat="38.231922" lon="-1.1453193">
<ele>974</ele>
<time>2013-06-02T19:37:42Z</time>
</trkpt>
<trkpt lat="38.23189" lon="-1.1452818">
<ele>974</ele>
<time>2013-06-02T19:37:43Z</time>
</trkpt>
<trkpt lat="38.231842" lon="-1.1452603">
<ele>974</ele>
<time>2013-06-02T19:37:44Z</time>
</trkpt>
<trkpt lat="38.231792" lon="-1.1452228">
<ele>974</ele>
<time>2013-06-02T19:37:45Z</time>
</trkpt>
<trkpt lat="38.231762" lon="-1.1451852">
<ele>974</ele>
<time>2013-06-02T19:37:46Z</time>
</trkpt>
<trkpt lat="38.231724" lon="-1.1451423">
<ele>974</ele>
<time>2013-06-02T19:37:47Z</time>
</trkpt>
<trkpt lat="38.231667" lon="-1.145078">
<ele>974</ele>
<time>2013-06-02T19:37:48Z</time>
</trkpt>
<trkpt lat="38.231644" lon="-1.1450458">
<ele>974</ele>
<time>2013-06-02T19:37:49Z</time>
</trkpt>
<trkpt lat="38.231525" lon="-1.1449063">
<ele>974</ele>
<time>2013-06-02T19:37:52Z</time>
</trkpt>
<trkpt lat="38.231495" lon="-1.1448526">
<ele>974</ele>
<time>2013-06-02T19:37:53Z</time>
</trkpt>
<trkpt lat="38.231476" lon="-1.1448044">
<ele>974</ele>
<time>2013-06-02T19:37:54Z</time>
</trkpt>
<trkpt lat="38.23144" lon="-1.1447561">
<ele>974</ele>
<time>2013-06-02T19:37:55Z</time>
</trkpt>
<trkpt lat="38.23139" lon="-1.1446917">
<ele>974</ele>
<time>2013-06-02T19:37:56Z</time>
</trkpt>
<trkpt lat="38.231342" lon="-1.1446434">
<ele>974</ele>
<time>2013-06-02T19:37:57Z</time>
</trkpt>
<trkpt lat="38.2313" lon="-1.1446005">
<ele>974</ele>
<time>2013-06-02T19:37:58Z</time>
</trkpt>
<trkpt lat="38.231274" lon="-1.1445576">
<ele>974</ele>
<time>2013-06-02T19:37:59Z</time>
</trkpt>
<trkpt lat="38.23122" lon="-1.1445093">
<ele>974</ele>
<time>2013-06-02T19:38:00Z</time>
</trkpt>
<trkpt lat="38.23119" lon="-1.1444557">
<ele>974</ele>
<time>2013-06-02T19:38:01Z</time>
</trkpt>
<trkpt lat="38.23115" lon="-1.1444074">
<ele>974</ele>
<time>2013-06-02T19:38:02Z</time>
</trkpt>
<trkpt lat="38.23105" lon="-1.1442626">
<ele>974</ele>
<time>2013-06-02T19:38:05Z</time>
</trkpt>
<trkpt lat="38.231018" lon="-1.1442035">
<ele>974</ele>
<time>2013-06-02T19:38:06Z</time>
</trkpt>
<trkpt lat="38.230984" lon="-1.1441553">
<ele>974</ele>
<time>2013-06-02T19:38:07Z</time>
</trkpt>
<trkpt lat="38.230946" lon="-1.1441123">
<ele>974</ele>
<time>2013-06-02T19:38:08Z</time>
</trkpt>
<trkpt lat="38.230904" lon="-1.1440533">
<ele>973</ele>
<time>2013-06-02T19:38:09Z</time>
</trkpt>
<trkpt lat="38.230865" lon="-1.1440051">
<ele>973</ele>
<time>2013-06-02T19:38:10Z</time>
</trkpt>
<trkpt lat="38.230846" lon="-1.1439568">
<ele>973</ele>
<time>2013-06-02T19:38:11Z</time>
</trkpt>
<trkpt lat="38.23081" lon="-1.1439192">
<ele>973</ele>
<time>2013-06-02T19:38:12Z</time>
</trkpt>
<trkpt lat="38.230755" lon="-1.1438602">
<ele>973</ele>
<time>2013-06-02T19:38:13Z</time>
</trkpt>
<trkpt lat="38.23071" lon="-1.143812">
<ele>973</ele>
<time>2013-06-02T19:38:14Z</time>
</trkpt>
<trkpt lat="38.230675" lon="-1.1437583">
<ele>973</ele>
<time>2013-06-02T19:38:15Z</time>
</trkpt>
<trkpt lat="38.230545" lon="-1.1436671">
<ele>973</ele>
<time>2013-06-02T19:38:18Z</time>
</trkpt>
<trkpt lat="38.23051" lon="-1.1436296">
<ele>973</ele>
<time>2013-06-02T19:38:19Z</time>
</trkpt>
<trkpt lat="38.230476" lon="-1.143592">
<ele>973</ele>
<time>2013-06-02T19:38:20Z</time>
</trkpt>
<trkpt lat="38.230446" lon="-1.1435437">
<ele>973</ele>
<time>2013-06-02T19:38:21Z</time>
</trkpt>
<trkpt lat="38.230415" lon="-1.1435008">
<ele>973</ele>
<time>2013-06-02T19:38:22Z</time>
</trkpt>
<trkpt lat="38.2304" lon="-1.1434418">
<ele>973</ele>
<time>2013-06-02T19:38:23Z</time>
</trkpt>
<trkpt lat="38.230366" lon="-1.1433989">
<ele>973</ele>
<time>2013-06-02T19:38:24Z</time>
</trkpt>
<trkpt lat="38.23035" lon="-1.1433399">
<ele>973</ele>
<time>2013-06-02T19:38:25Z</time>
</trkpt>
<trkpt lat="38.230324" lon="-1.1432862">
<ele>973</ele>
<time>2013-06-02T19:38:26Z</time>
</trkpt>
<trkpt lat="38.23032" lon="-1.143238">
<ele>973</ele>
<time>2013-06-02T19:38:27Z</time>
</trkpt>
<trkpt lat="38.23028" lon="-1.1432058">
<ele>973</ele>
<time>2013-06-02T19:38:28Z</time>
</trkpt>
<trkpt lat="38.23018" lon="-1.1430877">
<ele>973</ele>
<time>2013-06-02T19:38:31Z</time>
</trkpt>
<trkpt lat="38.23014" lon="-1.1430448">
<ele>973</ele>
<time>2013-06-02T19:38:32Z</time>
</trkpt>
<trkpt lat="38.230095" lon="-1.1430287">
<ele>964</ele>
<time>2013-06-02T19:38:33Z</time>
</trkpt>
<trkpt lat="38.23006" lon="-1.1429858">
<ele>965</ele>
<time>2013-06-02T19:38:34Z</time>
</trkpt>
<trkpt lat="38.230057" lon="-1.1429697">
<ele>965</ele>
<time>2013-06-02T19:38:35Z</time>
</trkpt>
<trkpt lat="38.23002" lon="-1.1429375">
<ele>965</ele>
<time>2013-06-02T19:38:36Z</time>
</trkpt>
<trkpt lat="38.22999" lon="-1.1428893">
<ele>965</ele>
<time>2013-06-02T19:38:37Z</time>
</trkpt>
<trkpt lat="38.22996" lon="-1.142841">
<ele>965</ele>
<time>2013-06-02T19:38:38Z</time>
</trkpt>
<trkpt lat="38.22994" lon="-1.1428195">
<ele>962</ele>
<time>2013-06-02T19:38:39Z</time>
</trkpt>
<trkpt lat="38.229877" lon="-1.1427498">
<ele>961</ele>
<time>2013-06-02T19:38:40Z</time>
</trkpt>
<trkpt lat="38.229862" lon="-1.142723">
<ele>961</ele>
<time>2013-06-02T19:38:41Z</time>
</trkpt>
<trkpt lat="38.22973" lon="-1.1425728">
<ele>961</ele>
<time>2013-06-02T19:38:44Z</time>
</trkpt>
<trkpt lat="38.22969" lon="-1.1425245">
<ele>961</ele>
<time>2013-06-02T19:38:45Z</time>
</trkpt>
<trkpt lat="38.229626" lon="-1.1424816">
<ele>961</ele>
<time>2013-06-02T19:38:46Z</time>
</trkpt>
<trkpt lat="38.229584" lon="-1.1424333">
<ele>961</ele>
<time>2013-06-02T19:38:47Z</time>
</trkpt>
<trkpt lat="38.229557" lon="-1.1424011">
<ele>961</ele>
<time>2013-06-02T19:38:48Z</time>
</trkpt>
<trkpt lat="38.22952" lon="-1.1423582">
<ele>961</ele>
<time>2013-06-02T19:38:49Z</time>
</trkpt>
<trkpt lat="38.22948" lon="-1.142326">
<ele>961</ele>
<time>2013-06-02T19:38:50Z</time>
</trkpt>
<trkpt lat="38.229435" lon="-1.1422777">
<ele>961</ele>
<time>2013-06-02T19:38:51Z</time>
</trkpt>
<trkpt lat="38.229385" lon="-1.1422187">
<ele>960</ele>
<time>2013-06-02T19:38:52Z</time>
</trkpt>
<trkpt lat="38.229355" lon="-1.1421758">
<ele>959</ele>
<time>2013-06-02T19:38:53Z</time>
</trkpt>
<trkpt lat="38.229332" lon="-1.1421275">
<ele>959</ele>
<time>2013-06-02T19:38:54Z</time>
</trkpt>
<trkpt lat="38.22923" lon="-1.1420095">
<ele>959</ele>
<time>2013-06-02T19:38:57Z</time>
</trkpt>
<trkpt lat="38.229183" lon="-1.1419451">
<ele>959</ele>
<time>2013-06-02T19:38:58Z</time>
</trkpt>
<trkpt lat="38.229145" lon="-1.1418968">
<ele>958</ele>
<time>2013-06-02T19:38:59Z</time>
</trkpt>
<trkpt lat="38.22909" lon="-1.1418593">
<ele>959</ele>
<time>2013-06-02T19:39:00Z</time>
</trkpt>
<trkpt lat="38.22904" lon="-1.1418217">
<ele>959</ele>
<time>2013-06-02T19:39:01Z</time>
</trkpt>
<trkpt lat="38.22901" lon="-1.1417627">
<ele>958</ele>
<time>2013-06-02T19:39:02Z</time>
</trkpt>
<trkpt lat="38.228973" lon="-1.1417091">
<ele>958</ele>
<time>2013-06-02T19:39:03Z</time>
</trkpt>
<trkpt lat="38.228924" lon="-1.1416554">
<ele>958</ele>
<time>2013-06-02T19:39:04Z</time>
</trkpt>
<trkpt lat="38.228874" lon="-1.1416179">
<ele>957</ele>
<time>2013-06-02T19:39:05Z</time>
</trkpt>
<trkpt lat="38.22884" lon="-1.1415857">
<ele>957</ele>
<time>2013-06-02T19:39:06Z</time>
</trkpt>
<trkpt lat="38.22879" lon="-1.1415321">
<ele>957</ele>
<time>2013-06-02T19:39:07Z</time>
</trkpt>
<trkpt lat="38.22866" lon="-1.1413604">
<ele>957</ele>
<time>2013-06-02T19:39:10Z</time>
</trkpt>
<trkpt lat="38.228596" lon="-1.141296">
<ele>957</ele>
<time>2013-06-02T19:39:11Z</time>
</trkpt>
<trkpt lat="38.228554" lon="-1.1412692">
<ele>957</ele>
<time>2013-06-02T19:39:12Z</time>
</trkpt>
<trkpt lat="38.228527" lon="-1.1412209">
<ele>956</ele>
<time>2013-06-02T19:39:13Z</time>
</trkpt>
<trkpt lat="38.228485" lon="-1.1411834">
<ele>957</ele>
<time>2013-06-02T19:39:14Z</time>
</trkpt>
<trkpt lat="38.22846" lon="-1.1411297">
<ele>956</ele>
<time>2013-06-02T19:39:15Z</time>
</trkpt>
<trkpt lat="38.228436" lon="-1.1410707">
<ele>956</ele>
<time>2013-06-02T19:39:16Z</time>
</trkpt>
<trkpt lat="38.22836" lon="-1.1410117">
<ele>952</ele>
<time>2013-06-02T19:39:17Z</time>
</trkpt>
<trkpt lat="38.22833" lon="-1.1409849">
<ele>951</ele>
<time>2013-06-02T19:39:18Z</time>
</trkpt>
<trkpt lat="38.228306" lon="-1.1409581">
<ele>949</ele>
<time>2013-06-02T19:39:19Z</time>
</trkpt>
<trkpt lat="38.22827" lon="-1.1409312">
<ele>949</ele>
<time>2013-06-02T19:39:20Z</time>
</trkpt>
<trkpt lat="38.228127" lon="-1.1407918">
<ele>947</ele>
<time>2013-06-02T19:39:23Z</time>
</trkpt>
<trkpt lat="38.228073" lon="-1.1407489">
<ele>945</ele>
<time>2013-06-02T19:39:24Z</time>
</trkpt>
<trkpt lat="38.22804" lon="-1.1407113">
<ele>944</ele>
<time>2013-06-02T19:39:25Z</time>
</trkpt>
<trkpt lat="38.22804" lon="-1.1406684">
<ele>943</ele>
<time>2013-06-02T19:39:26Z</time>
</trkpt>
<trkpt lat="38.22801" lon="-1.1406308">
<ele>943</ele>
<time>2013-06-02T19:39:27Z</time>
</trkpt>
<trkpt lat="38.22798" lon="-1.1405933">
<ele>943</ele>
<time>2013-06-02T19:39:28Z</time>
</trkpt>
<trkpt lat="38.227936" lon="-1.1405236">
<ele>941</ele>
<time>2013-06-02T19:39:29Z</time>
</trkpt>
<trkpt lat="38.227882" lon="-1.1404645">
<ele>941</ele>
<time>2013-06-02T19:39:30Z</time>
</trkpt>
<trkpt lat="38.227837" lon="-1.1404055">
<ele>940</ele>
<time>2013-06-02T19:39:31Z</time>
</trkpt>
<trkpt lat="38.227787" lon="-1.1403573">
<ele>940</ele>
<time>2013-06-02T19:39:32Z</time>
</trkpt>
<trkpt lat="38.22775" lon="-1.140309">
<ele>940</ele>
<time>2013-06-02T19:39:33Z</time>
</trkpt>
<trkpt lat="38.22762" lon="-1.1401373">
<ele>939</ele>
<time>2013-06-02T19:39:36Z</time>
</trkpt>
<trkpt lat="38.22756" lon="-1.1400837">
<ele>939</ele>
<time>2013-06-02T19:39:37Z</time>
</trkpt>
<trkpt lat="38.227524" lon="-1.14003">
<ele>939</ele>
<time>2013-06-02T19:39:38Z</time>
</trkpt>
<trkpt lat="38.22747" lon="-1.1399871">
<ele>939</ele>
<time>2013-06-02T19:39:39Z</time>
</trkpt>
<trkpt lat="38.22742" lon="-1.139971">
<ele>936</ele>
<time>2013-06-02T19:39:40Z</time>
</trkpt>
<trkpt lat="38.227386" lon="-1.1399227">
<ele>936</ele>
<time>2013-06-02T19:39:41Z</time>
</trkpt>
<trkpt lat="38.22733" lon="-1.1398637">
<ele>936</ele>
<time>2013-06-02T19:39:42Z</time>
</trkpt>
<trkpt lat="38.2273" lon="-1.1398101">
<ele>936</ele>
<time>2013-06-02T19:39:43Z</time>
</trkpt>
<trkpt lat="38.227257" lon="-1.1397564">
<ele>936</ele>
<time>2013-06-02T19:39:44Z</time>
</trkpt>
<trkpt lat="38.227215" lon="-1.1397082">
<ele>936</ele>
<time>2013-06-02T19:39:45Z</time>
</trkpt>
<trkpt lat="38.227177" lon="-1.1396545">
<ele>936</ele>
<time>2013-06-02T19:39:46Z</time>
</trkpt>
<trkpt lat="38.22701" lon="-1.1394936">
<ele>935</ele>
<time>2013-06-02T19:39:49Z</time>
</trkpt>
<trkpt lat="38.226955" lon="-1.1394614">
<ele>935</ele>
<time>2013-06-02T19:39:50Z</time>
</trkpt>
<trkpt lat="38.22689" lon="-1.1394238">
<ele>935</ele>
<time>2013-06-02T19:39:51Z</time>
</trkpt>
<trkpt lat="38.226833" lon="-1.1393917">
<ele>935</ele>
<time>2013-06-02T19:39:52Z</time>
</trkpt>
<trkpt lat="38.226784" lon="-1.1393434">
<ele>935</ele>
<time>2013-06-02T19:39:53Z</time>
</trkpt>
<trkpt lat="38.22672" lon="-1.1393005">
<ele>935</ele>
<time>2013-06-02T19:39:54Z</time>
</trkpt>
<trkpt lat="38.22665" lon="-1.1392522">
<ele>935</ele>
<time>2013-06-02T19:39:55Z</time>
</trkpt>
<trkpt lat="38.2266" lon="-1.1392093">
<ele>935</ele>
<time>2013-06-02T19:39:56Z</time>
</trkpt>
<trkpt lat="38.226555" lon="-1.1391771">
<ele>935</ele>
<time>2013-06-02T19:39:57Z</time>
</trkpt>
<trkpt lat="38.22651" lon="-1.1391234">
<ele>935</ele>
<time>2013-06-02T19:39:58Z</time>
</trkpt>
<trkpt lat="38.226456" lon="-1.1390859">
<ele>935</ele>
<time>2013-06-02T19:39:59Z</time>
</trkpt>
<trkpt lat="38.22632" lon="-1.1389357">
<ele>935</ele>
<time>2013-06-02T19:40:02Z</time>
</trkpt>
<trkpt lat="38.226273" lon="-1.1388874">
<ele>935</ele>
<time>2013-06-02T19:40:03Z</time>
</trkpt>
<trkpt lat="38.22623" lon="-1.1388338">
<ele>935</ele>
<time>2013-06-02T19:40:04Z</time>
</trkpt>
<trkpt lat="38.226185" lon="-1.1387694">
<ele>935</ele>
<time>2013-06-02T19:40:05Z</time>
</trkpt>
<trkpt lat="38.226135" lon="-1.1387157">
<ele>935</ele>
<time>2013-06-02T19:40:06Z</time>
</trkpt>
<trkpt lat="38.226093" lon="-1.1386675">
<ele>935</ele>
<time>2013-06-02T19:40:07Z</time>
</trkpt>
<trkpt lat="38.226032" lon="-1.1386192">
<ele>935</ele>
<time>2013-06-02T19:40:08Z</time>
</trkpt>
<trkpt lat="38.22598" lon="-1.1386514">
<ele>922</ele>
<time>2013-06-02T19:40:09Z</time>
</trkpt>
<trkpt lat="38.22593" lon="-1.1385924">
<ele>921</ele>
<time>2013-06-02T19:40:10Z</time>
</trkpt>
<trkpt lat="38.225883" lon="-1.1385548">
<ele>921</ele>
<time>2013-06-02T19:40:11Z</time>
</trkpt>
<trkpt lat="38.22587" lon="-1.1385548">
<ele>914</ele>
<time>2013-06-02T19:40:12Z</time>
</trkpt>
<trkpt lat="38.22573" lon="-1.13841">
<ele>906</ele>
<time>2013-06-02T19:40:15Z</time>
</trkpt>
<trkpt lat="38.225677" lon="-1.1383832">
<ele>901</ele>
<time>2013-06-02T19:40:16Z</time>
</trkpt>
<trkpt lat="38.225662" lon="-1.1383349">
<ele>898</ele>
<time>2013-06-02T19:40:17Z</time>
</trkpt>
<trkpt lat="38.225624" lon="-1.1382705">
<ele>896</ele>
<time>2013-06-02T19:40:18Z</time>
</trkpt>
<trkpt lat="38.225582" lon="-1.1382169">
<ele>896</ele>
<time>2013-06-02T19:40:19Z</time>
</trkpt>
<trkpt lat="38.225555" lon="-1.1381471">
<ele>896</ele>
<time>2013-06-02T19:40:20Z</time>
</trkpt>
<trkpt lat="38.22554" lon="-1.1380774">
<ele>896</ele>
<time>2013-06-02T19:40:21Z</time>
</trkpt>
<trkpt lat="38.225525" lon="-1.1380076">
<ele>896</ele>
<time>2013-06-02T19:40:22Z</time>
</trkpt>
<trkpt lat="38.225525" lon="-1.1379379">
<ele>896</ele>
<time>2013-06-02T19:40:23Z</time>
</trkpt>
<trkpt lat="38.225506" lon="-1.1378682">
<ele>896</ele>
<time>2013-06-02T19:40:24Z</time>
</trkpt>
<trkpt lat="38.225544" lon="-1.1378038">
<ele>896</ele>
<time>2013-06-02T19:40:25Z</time>
</trkpt>
<trkpt lat="38.225594" lon="-1.1376214">
<ele>896</ele>
<time>2013-06-02T19:40:28Z</time>
</trkpt>
<trkpt lat="38.225597" lon="-1.1375463">
<ele>896</ele>
<time>2013-06-02T19:40:29Z</time>
</trkpt>
<trkpt lat="38.225605" lon="-1.1374873">
<ele>896</ele>
<time>2013-06-02T19:40:30Z</time>
</trkpt>
<trkpt lat="38.225613" lon="-1.1374176">
<ele>896</ele>
<time>2013-06-02T19:40:31Z</time>
</trkpt>
<trkpt lat="38.225624" lon="-1.1373478">
<ele>895</ele>
<time>2013-06-02T19:40:32Z</time>
</trkpt>
<trkpt lat="38.22563" lon="-1.1372888">
<ele>896</ele>
<time>2013-06-02T19:40:33Z</time>
</trkpt>
<trkpt lat="38.22564" lon="-1.1372352">
<ele>896</ele>
<time>2013-06-02T19:40:34Z</time>
</trkpt>
<trkpt lat="38.225647" lon="-1.1371762">
<ele>896</ele>
<time>2013-06-02T19:40:35Z</time>
</trkpt>
<trkpt lat="38.225662" lon="-1.1371332">
<ele>893</ele>
<time>2013-06-02T19:40:36Z</time>
</trkpt>
<trkpt lat="38.225662" lon="-1.1370742">
<ele>893</ele>
<time>2013-06-02T19:40:37Z</time>
</trkpt>
<trkpt lat="38.22566" lon="-1.1369991">
<ele>893</ele>
<time>2013-06-02T19:40:38Z</time>
</trkpt>
<trkpt lat="38.22567" lon="-1.136806">
<ele>893</ele>
<time>2013-06-02T19:40:41Z</time>
</trkpt>
<trkpt lat="38.225674" lon="-1.1367363">
<ele>893</ele>
<time>2013-06-02T19:40:42Z</time>
</trkpt>
<trkpt lat="38.225677" lon="-1.1366773">
<ele>893</ele>
<time>2013-06-02T19:40:43Z</time>
</trkpt>
<trkpt lat="38.225685" lon="-1.1366183">
<ele>893</ele>
<time>2013-06-02T19:40:44Z</time>
</trkpt>
<trkpt lat="38.22569" lon="-1.1365592">
<ele>893</ele>
<time>2013-06-02T19:40:45Z</time>
</trkpt>
<trkpt lat="38.22569" lon="-1.1365002">
<ele>893</ele>
<time>2013-06-02T19:40:46Z</time>
</trkpt>
<trkpt lat="38.225697" lon="-1.1364466">
<ele>893</ele>
<time>2013-06-02T19:40:47Z</time>
</trkpt>
<trkpt lat="38.225925" lon="-1.136452">
<ele>883</ele>
<time>2013-06-02T19:40:48Z</time>
</trkpt>
<trkpt lat="38.22595" lon="-1.1363822">
<ele>883</ele>
<time>2013-06-02T19:40:49Z</time>
</trkpt>
<trkpt lat="38.225964" lon="-1.1363071">
<ele>882</ele>
<time>2013-06-02T19:40:50Z</time>
</trkpt>
<trkpt lat="38.225983" lon="-1.1362374">
<ele>882</ele>
<time>2013-06-02T19:40:51Z</time>
</trkpt>
<trkpt lat="38.225937" lon="-1.1361033">
<ele>869</ele>
<time>2013-06-02T19:40:54Z</time>
</trkpt>
<trkpt lat="38.225952" lon="-1.1360389">
<ele>869</ele>
<time>2013-06-02T19:40:55Z</time>
</trkpt>
<trkpt lat="38.22594" lon="-1.1359799">
<ele>869</ele>
<time>2013-06-02T19:40:56Z</time>
</trkpt>
<trkpt lat="38.225952" lon="-1.1359102">
<ele>869</ele>
<time>2013-06-02T19:40:57Z</time>
</trkpt>
<trkpt lat="38.225964" lon="-1.1358404">
<ele>869</ele>
<time>2013-06-02T19:40:58Z</time>
</trkpt>
<trkpt lat="38.225967" lon="-1.1357707">
<ele>868</ele>
<time>2013-06-02T19:40:59Z</time>
</trkpt>
<trkpt lat="38.225964" lon="-1.1357117">
<ele>868</ele>
<time>2013-06-02T19:41:00Z</time>
</trkpt>
<trkpt lat="38.225964" lon="-1.1356473">
<ele>868</ele>
<time>2013-06-02T19:41:01Z</time>
</trkpt>
<trkpt lat="38.225983" lon="-1.1355829">
<ele>868</ele>
<time>2013-06-02T19:41:02Z</time>
</trkpt>
<trkpt lat="38.225994" lon="-1.1355186">
<ele>868</ele>
<time>2013-06-02T19:41:03Z</time>
</trkpt>
<trkpt lat="38.226013" lon="-1.1354488">
<ele>868</ele>
<time>2013-06-02T19:41:04Z</time>
</trkpt>
<trkpt lat="38.22602" lon="-1.1352718">
<ele>868</ele>
<time>2013-06-02T19:41:07Z</time>
</trkpt>
<trkpt lat="38.226032" lon="-1.1352128">
<ele>868</ele>
<time>2013-06-02T19:41:08Z</time>
</trkpt>
<trkpt lat="38.226044" lon="-1.1351484">
<ele>868</ele>
<time>2013-06-02T19:41:09Z</time>
</trkpt>
<trkpt lat="38.226048" lon="-1.1350894">
<ele>868</ele>
<time>2013-06-02T19:41:10Z</time>
</trkpt>
<trkpt lat="38.226055" lon="-1.135025">
<ele>868</ele>
<time>2013-06-02T19:41:11Z</time>
</trkpt>
<trkpt lat="38.226093" lon="-1.1350089">
<ele>864</ele>
<time>2013-06-02T19:41:12Z</time>
</trkpt>
<trkpt lat="38.226128" lon="-1.1349821">
<ele>860</ele>
<time>2013-06-02T19:41:13Z</time>
</trkpt>
<trkpt lat="38.226135" lon="-1.134907">
<ele>860</ele>
<time>2013-06-02T19:41:14Z</time>
</trkpt>
<trkpt lat="38.22614" lon="-1.1348319">
<ele>860</ele>
<time>2013-06-02T19:41:15Z</time>
</trkpt>
<trkpt lat="38.22614" lon="-1.1347675">
<ele>859</ele>
<time>2013-06-02T19:41:16Z</time>
</trkpt>
<trkpt lat="38.226204" lon="-1.1347514">
<ele>853</ele>
<time>2013-06-02T19:41:17Z</time>
</trkpt>
<trkpt lat="38.226242" lon="-1.134569">
<ele>852</ele>
<time>2013-06-02T19:41:20Z</time>
</trkpt>
<trkpt lat="38.226265" lon="-1.13451">
<ele>852</ele>
<time>2013-06-02T19:41:21Z</time>
</trkpt>
<trkpt lat="38.22627" lon="-1.1344242">
<ele>852</ele>
<time>2013-06-02T19:41:22Z</time>
</trkpt>
<trkpt lat="38.226284" lon="-1.1343652">
<ele>852</ele>
<time>2013-06-02T19:41:23Z</time>
</trkpt>
<trkpt lat="38.226284" lon="-1.1342901">
<ele>852</ele>
<time>2013-06-02T19:41:24Z</time>
</trkpt>
<trkpt lat="38.226284" lon="-1.1342257">
<ele>852</ele>
<time>2013-06-02T19:41:25Z</time>
</trkpt>
<trkpt lat="38.226295" lon="-1.1341614">
<ele>852</ele>
<time>2013-06-02T19:41:26Z</time>
</trkpt>
<trkpt lat="38.226307" lon="-1.1340916">
<ele>852</ele>
<time>2013-06-02T19:41:27Z</time>
</trkpt>
<trkpt lat="38.22632" lon="-1.1340272">
<ele>852</ele>
<time>2013-06-02T19:41:28Z</time>
</trkpt>
<trkpt lat="38.226322" lon="-1.1339575">
<ele>852</ele>
<time>2013-06-02T19:41:29Z</time>
</trkpt>
<trkpt lat="38.22637" lon="-1.1339092">
<ele>849</ele>
<time>2013-06-02T19:41:30Z</time>
</trkpt>
<trkpt lat="38.226402" lon="-1.133759">
<ele>845</ele>
<time>2013-06-02T19:41:33Z</time>
</trkpt>
<trkpt lat="38.226414" lon="-1.1336893">
<ele>845</ele>
<time>2013-06-02T19:41:34Z</time>
</trkpt>
<trkpt lat="38.226437" lon="-1.1336195">
<ele>845</ele>
<time>2013-06-02T19:41:35Z</time>
</trkpt>
<trkpt lat="38.226467" lon="-1.1335605">
<ele>843</ele>
<time>2013-06-02T19:41:36Z</time>
</trkpt>
<trkpt lat="38.2265" lon="-1.1334908">
<ele>844</ele>
<time>2013-06-02T19:41:37Z</time>
</trkpt>
<trkpt lat="38.226517" lon="-1.1334425">
<ele>843</ele>
<time>2013-06-02T19:41:38Z</time>
</trkpt>
<trkpt lat="38.226532" lon="-1.1333889">
<ele>843</ele>
<time>2013-06-02T19:41:39Z</time>
</trkpt>
<trkpt lat="38.226547" lon="-1.1333299">
<ele>843</ele>
<time>2013-06-02T19:41:40Z</time>
</trkpt>
<trkpt lat="38.22657" lon="-1.133287">
<ele>841</ele>
<time>2013-06-02T19:41:41Z</time>
</trkpt>
<trkpt lat="38.226585" lon="-1.1332494">
<ele>839</ele>
<time>2013-06-02T19:41:42Z</time>
</trkpt>
<trkpt lat="38.22661" lon="-1.1332011">
<ele>838</ele>
<time>2013-06-02T19:41:43Z</time>
</trkpt>
<trkpt lat="38.22664" lon="-1.1330241">
<ele>836</ele>
<time>2013-06-02T19:41:46Z</time>
</trkpt>
<trkpt lat="38.226643" lon="-1.132949">
<ele>836</ele>
<time>2013-06-02T19:41:47Z</time>
</trkpt>
<trkpt lat="38.22666" lon="-1.1328739">
<ele>836</ele>
<time>2013-06-02T19:41:48Z</time>
</trkpt>
<trkpt lat="38.22667" lon="-1.1327934">
<ele>836</ele>
<time>2013-06-02T19:41:49Z</time>
</trkpt>
<trkpt lat="38.22668" lon="-1.132713">
<ele>835</ele>
<time>2013-06-02T19:41:50Z</time>
</trkpt>
<trkpt lat="38.22669" lon="-1.1326432">
<ele>835</ele>
<time>2013-06-02T19:41:51Z</time>
</trkpt>
<trkpt lat="38.2267" lon="-1.1325842">
<ele>835</ele>
<time>2013-06-02T19:41:52Z</time>
</trkpt>
<trkpt lat="38.226707" lon="-1.1325091">
<ele>835</ele>
<time>2013-06-02T19:41:53Z</time>
</trkpt>
<trkpt lat="38.22672" lon="-1.1324394">
<ele>835</ele>
<time>2013-06-02T19:41:54Z</time>
</trkpt>
<trkpt lat="38.22673" lon="-1.1323643">
<ele>835</ele>
<time>2013-06-02T19:41:55Z</time>
</trkpt>
<trkpt lat="38.22674" lon="-1.1323106">
<ele>835</ele>
<time>2013-06-02T19:41:56Z</time>
</trkpt>
<trkpt lat="38.22676" lon="-1.1320478">
<ele>835</ele>
<time>2013-06-02T19:42:00Z</time>
</trkpt>
<trkpt lat="38.226772" lon="-1.1319888">
<ele>835</ele>
<time>2013-06-02T19:42:01Z</time>
</trkpt>
<trkpt lat="38.226788" lon="-1.1319244">
<ele>835</ele>
<time>2013-06-02T19:42:02Z</time>
</trkpt>
<trkpt lat="38.226795" lon="-1.13186">
<ele>835</ele>
<time>2013-06-02T19:42:03Z</time>
</trkpt>
<trkpt lat="38.2268" lon="-1.1317903">
<ele>835</ele>
<time>2013-06-02T19:42:04Z</time>
</trkpt>
<trkpt lat="38.22681" lon="-1.1317259">
<ele>835</ele>
<time>2013-06-02T19:42:05Z</time>
</trkpt>
<trkpt lat="38.226933" lon="-1.1316723">
<ele>835</ele>
<time>2013-06-02T19:42:06Z</time>
</trkpt>
<trkpt lat="38.227127" lon="-1.1317259">
<ele>815</ele>
<time>2013-06-02T19:42:07Z</time>
</trkpt>
<trkpt lat="38.227097" lon="-1.1317152">
<ele>801</ele>
<time>2013-06-02T19:42:08Z</time>
</trkpt>
<trkpt lat="38.227097" lon="-1.1316562">
<ele>800</ele>
<time>2013-06-02T19:42:09Z</time>
</trkpt>
<trkpt lat="38.22709" lon="-1.1316401">
<ele>790</ele>
<time>2013-06-02T19:42:10Z</time>
</trkpt>
<trkpt lat="38.2271" lon="-1.1315167">
<ele>772</ele>
<time>2013-06-02T19:42:13Z</time>
</trkpt>
<trkpt lat="38.227104" lon="-1.1314523">
<ele>770</ele>
<time>2013-06-02T19:42:14Z</time>
</trkpt>
<trkpt lat="38.227123" lon="-1.1313772">
<ele>770</ele>
<time>2013-06-02T19:42:15Z</time>
</trkpt>
<trkpt lat="38.22713" lon="-1.1313128">
<ele>770</ele>
<time>2013-06-02T19:42:16Z</time>
</trkpt>
<trkpt lat="38.227142" lon="-1.1312485">
<ele>770</ele>
<time>2013-06-02T19:42:17Z</time>
</trkpt>
<trkpt lat="38.227165" lon="-1.1311948">
<ele>768</ele>
<time>2013-06-02T19:42:18Z</time>
</trkpt>
<trkpt lat="38.227177" lon="-1.1311305">
<ele>768</ele>
<time>2013-06-02T19:42:19Z</time>
</trkpt>
<trkpt lat="38.227192" lon="-1.1310446">
<ele>767</ele>
<time>2013-06-02T19:42:20Z</time>
</trkpt>
<trkpt lat="38.227207" lon="-1.1309695">
<ele>767</ele>
<time>2013-06-02T19:42:21Z</time>
</trkpt>
<trkpt lat="38.22725" lon="-1.1308837">
<ele>767</ele>
<time>2013-06-02T19:42:22Z</time>
</trkpt>
<trkpt lat="38.22727" lon="-1.1308032">
<ele>767</ele>
<time>2013-06-02T19:42:23Z</time>
</trkpt>
<trkpt lat="38.227337" lon="-1.1305994">
<ele>767</ele>
<time>2013-06-02T19:42:26Z</time>
</trkpt>
<trkpt lat="38.227356" lon="-1.1305296">
<ele>767</ele>
<time>2013-06-02T19:42:27Z</time>
</trkpt>
<trkpt lat="38.227356" lon="-1.1304545">
<ele>767</ele>
<time>2013-06-02T19:42:28Z</time>
</trkpt>
<trkpt lat="38.227406" lon="-1.1303848">
<ele>767</ele>
<time>2013-06-02T19:42:29Z</time>
</trkpt>
<trkpt lat="38.227386" lon="-1.1303097">
<ele>767</ele>
<time>2013-06-02T19:42:30Z</time>
</trkpt>
<trkpt lat="38.2274" lon="-1.13024">
<ele>767</ele>
<time>2013-06-02T19:42:31Z</time>
</trkpt>
<trkpt lat="38.227417" lon="-1.1301702">
<ele>767</ele>
<time>2013-06-02T19:42:32Z</time>
</trkpt>
<trkpt lat="38.227432" lon="-1.1301005">
<ele>767</ele>
<time>2013-06-02T19:42:33Z</time>
</trkpt>
<trkpt lat="38.227417" lon="-1.1300415">
<ele>766</ele>
<time>2013-06-02T19:42:34Z</time>
</trkpt>
<trkpt lat="38.227444" lon="-1.1299664">
<ele>766</ele>
<time>2013-06-02T19:42:35Z</time>
</trkpt>
<trkpt lat="38.22746" lon="-1.1299074">
<ele>766</ele>
<time>2013-06-02T19:42:36Z</time>
</trkpt>
<trkpt lat="38.22752" lon="-1.1297089">
<ele>766</ele>
<time>2013-06-02T19:42:39Z</time>
</trkpt>
<trkpt lat="38.22754" lon="-1.1296338">
<ele>766</ele>
<time>2013-06-02T19:42:40Z</time>
</trkpt>
<trkpt lat="38.227573" lon="-1.1295694">
<ele>766</ele>
<time>2013-06-02T19:42:41Z</time>
</trkpt>
<trkpt lat="38.227592" lon="-1.129505">
<ele>766</ele>
<time>2013-06-02T19:42:42Z</time>
</trkpt>
<trkpt lat="38.22762" lon="-1.129446">
<ele>766</ele>
<time>2013-06-02T19:42:43Z</time>
</trkpt>
<trkpt lat="38.227646" lon="-1.1293763">
<ele>766</ele>
<time>2013-06-02T19:42:44Z</time>
</trkpt>
<trkpt lat="38.227654" lon="-1.1293226">
<ele>765</ele>
<time>2013-06-02T19:42:45Z</time>
</trkpt>
<trkpt lat="38.227654" lon="-1.1292583">
<ele>765</ele>
<time>2013-06-02T19:42:46Z</time>
</trkpt>
<trkpt lat="38.227665" lon="-1.1291993">
<ele>765</ele>
<time>2013-06-02T19:42:47Z</time>
</trkpt>
<trkpt lat="38.227684" lon="-1.1291349">
<ele>765</ele>
<time>2013-06-02T19:42:48Z</time>
</trkpt>
<trkpt lat="38.227695" lon="-1.1290973">
<ele>765</ele>
<time>2013-06-02T19:42:49Z</time>
</trkpt>
<trkpt lat="38.227737" lon="-1.1289257">
<ele>765</ele>
<time>2013-06-02T19:42:52Z</time>
</trkpt>
<trkpt lat="38.227745" lon="-1.128872">
<ele>765</ele>
<time>2013-06-02T19:42:53Z</time>
</trkpt>
<trkpt lat="38.22781" lon="-1.1289418">
<ele>750</ele>
<time>2013-06-02T19:42:54Z</time>
</trkpt>
<trkpt lat="38.227814" lon="-1.1288828">
<ele>749</ele>
<time>2013-06-02T19:42:55Z</time>
</trkpt>
<trkpt lat="38.227818" lon="-1.1288238">
<ele>748</ele>
<time>2013-06-02T19:42:56Z</time>
</trkpt>
<trkpt lat="38.227825" lon="-1.1287594">
<ele>748</ele>
<time>2013-06-02T19:42:57Z</time>
</trkpt>
<trkpt lat="38.22783" lon="-1.1286896">
<ele>748</ele>
<time>2013-06-02T19:42:58Z</time>
</trkpt>
<trkpt lat="38.227837" lon="-1.1286306">
<ele>748</ele>
<time>2013-06-02T19:42:59Z</time>
</trkpt>
<trkpt lat="38.227837" lon="-1.1285609">
<ele>747</ele>
<time>2013-06-02T19:43:00Z</time>
</trkpt>
<trkpt lat="38.227844" lon="-1.1284858">
<ele>747</ele>
<time>2013-06-02T19:43:01Z</time>
</trkpt>
<trkpt lat="38.227863" lon="-1.1284161">
<ele>746</ele>
<time>2013-06-02T19:43:02Z</time>
</trkpt>
<trkpt lat="38.227917" lon="-1.1282337">
<ele>746</ele>
<time>2013-06-02T19:43:05Z</time>
</trkpt>
<trkpt lat="38.227943" lon="-1.12818">
<ele>746</ele>
<time>2013-06-02T19:43:06Z</time>
</trkpt>
<trkpt lat="38.22797" lon="-1.1281157">
<ele>746</ele>
<time>2013-06-02T19:43:07Z</time>
</trkpt>
<trkpt lat="38.227985" lon="-1.1280459">
<ele>746</ele>
<time>2013-06-02T19:43:08Z</time>
</trkpt>
<trkpt lat="38.228" lon="-1.1279815">
<ele>746</ele>
<time>2013-06-02T19:43:09Z</time>
</trkpt>
<trkpt lat="38.228024" lon="-1.1279225">
<ele>746</ele>
<time>2013-06-02T19:43:10Z</time>
</trkpt>
<trkpt lat="38.22805" lon="-1.1278635">
<ele>746</ele>
<time>2013-06-02T19:43:11Z</time>
</trkpt>
<trkpt lat="38.22809" lon="-1.1278099">
<ele>746</ele>
<time>2013-06-02T19:43:12Z</time>
</trkpt>
<trkpt lat="38.2281" lon="-1.1277455">
<ele>746</ele>
<time>2013-06-02T19:43:13Z</time>
</trkpt>
<trkpt lat="38.228115" lon="-1.1276758">
<ele>746</ele>
<time>2013-06-02T19:43:14Z</time>
</trkpt>
<trkpt lat="38.22813" lon="-1.1276114">
<ele>746</ele>
<time>2013-06-02T19:43:15Z</time>
</trkpt>
<trkpt lat="38.22818" lon="-1.1274129">
<ele>746</ele>
<time>2013-06-02T19:43:18Z</time>
</trkpt>
<trkpt lat="38.2282" lon="-1.1273378">
<ele>746</ele>
<time>2013-06-02T19:43:19Z</time>
</trkpt>
<trkpt lat="38.228226" lon="-1.1272734">
<ele>746</ele>
<time>2013-06-02T19:43:20Z</time>
</trkpt>
<trkpt lat="38.22825" lon="-1.1272091">
<ele>746</ele>
<time>2013-06-02T19:43:21Z</time>
</trkpt>
<trkpt lat="38.22827" lon="-1.1271554">
<ele>745</ele>
<time>2013-06-02T19:43:22Z</time>
</trkpt>
<trkpt lat="38.22828" lon="-1.1270964">
<ele>745</ele>
<time>2013-06-02T19:43:23Z</time>
</trkpt>
<trkpt lat="38.228302" lon="-1.127032">
<ele>744</ele>
<time>2013-06-02T19:43:24Z</time>
</trkpt>
<trkpt lat="38.228317" lon="-1.1269784">
<ele>744</ele>
<time>2013-06-02T19:43:25Z</time>
</trkpt>
<trkpt lat="38.228317" lon="-1.1269301">
<ele>744</ele>
<time>2013-06-02T19:43:26Z</time>
</trkpt>
<trkpt lat="38.228333" lon="-1.1268765">
<ele>744</ele>
<time>2013-06-02T19:43:27Z</time>
</trkpt>
<trkpt lat="38.228344" lon="-1.1268336">
<ele>744</ele>
<time>2013-06-02T19:43:28Z</time>
</trkpt>
<trkpt lat="38.22834" lon="-1.1266351">
<ele>743</ele>
<time>2013-06-02T19:43:31Z</time>
</trkpt>
<trkpt lat="38.228344" lon="-1.1265761">
<ele>743</ele>
<time>2013-06-02T19:43:32Z</time>
</trkpt>
<trkpt lat="38.228355" lon="-1.1265063">
<ele>743</ele>
<time>2013-06-02T19:43:33Z</time>
</trkpt>
<trkpt lat="38.22837" lon="-1.1264473">
<ele>742</ele>
<time>2013-06-02T19:43:34Z</time>
</trkpt>
<trkpt lat="38.22836" lon="-1.1263937">
<ele>742</ele>
<time>2013-06-02T19:43:35Z</time>
</trkpt>
<trkpt lat="38.22837" lon="-1.1263186">
<ele>742</ele>
<time>2013-06-02T19:43:36Z</time>
</trkpt>
<trkpt lat="38.228386" lon="-1.1262435">
<ele>742</ele>
<time>2013-06-02T19:43:37Z</time>
</trkpt>
<trkpt lat="38.228397" lon="-1.1261737">
<ele>742</ele>
<time>2013-06-02T19:43:38Z</time>
</trkpt>
<trkpt lat="38.228424" lon="-1.1261147">
<ele>742</ele>
<time>2013-06-02T19:43:39Z</time>
</trkpt>
<trkpt lat="38.228447" lon="-1.1260718">
<ele>742</ele>
<time>2013-06-02T19:43:40Z</time>
</trkpt>
<trkpt lat="38.228477" lon="-1.1260182">
<ele>741</ele>
<time>2013-06-02T19:43:41Z</time>
</trkpt>
<trkpt lat="38.228504" lon="-1.1257982">
<ele>740</ele>
<time>2013-06-02T19:43:44Z</time>
</trkpt>
<trkpt lat="38.22865" lon="-1.1258894">
<ele>710</ele>
<time>2013-06-02T19:43:45Z</time>
</trkpt>
<trkpt lat="38.228657" lon="-1.1258197">
<ele>710</ele>
<time>2013-06-02T19:43:46Z</time>
</trkpt>
<trkpt lat="38.228676" lon="-1.1257553">
<ele>710</ele>
<time>2013-06-02T19:43:47Z</time>
</trkpt>
<trkpt lat="38.228687" lon="-1.1257285">
<ele>702</ele>
<time>2013-06-02T19:43:48Z</time>
</trkpt>
<trkpt lat="38.22871" lon="-1.1256534">
<ele>701</ele>
<time>2013-06-02T19:43:49Z</time>
</trkpt>
<trkpt lat="38.228714" lon="-1.1255944">
<ele>700</ele>
<time>2013-06-02T19:43:50Z</time>
</trkpt>
<trkpt lat="38.228725" lon="-1.1255354">
<ele>700</ele>
<time>2013-06-02T19:43:51Z</time>
</trkpt>
<trkpt lat="38.22871" lon="-1.1254978">
<ele>699</ele>
<time>2013-06-02T19:43:52Z</time>
</trkpt>
<trkpt lat="38.228714" lon="-1.1254442">
<ele>699</ele>
<time>2013-06-02T19:43:53Z</time>
</trkpt>
<trkpt lat="38.22873" lon="-1.1253852">
<ele>699</ele>
<time>2013-06-02T19:43:54Z</time>
</trkpt>
<trkpt lat="38.228737" lon="-1.1251438">
<ele>699</ele>
<time>2013-06-02T19:43:57Z</time>
</trkpt>
<trkpt lat="38.228764" lon="-1.1250794">
<ele>699</ele>
<time>2013-06-02T19:43:58Z</time>
</trkpt>
<trkpt lat="38.22878" lon="-1.1250043">
<ele>699</ele>
<time>2013-06-02T19:43:59Z</time>
</trkpt>
<trkpt lat="38.228844" lon="-1.1249292">
<ele>698</ele>
<time>2013-06-02T19:44:00Z</time>
</trkpt>
<trkpt lat="38.228893" lon="-1.1248809">
<ele>698</ele>
<time>2013-06-02T19:44:01Z</time>
</trkpt>
<trkpt lat="38.22892" lon="-1.1248326">
<ele>698</ele>
<time>2013-06-02T19:44:02Z</time>
</trkpt>
<trkpt lat="38.22896" lon="-1.1247951">
<ele>698</ele>
<time>2013-06-02T19:44:03Z</time>
</trkpt>
<trkpt lat="38.228962" lon="-1.1247683">
<ele>697</ele>
<time>2013-06-02T19:44:04Z</time>
</trkpt>
<trkpt lat="38.228977" lon="-1.1247307">
<ele>697</ele>
<time>2013-06-02T19:44:05Z</time>
</trkpt>
<trkpt lat="38.229004" lon="-1.1246771">
<ele>697</ele>
<time>2013-06-02T19:44:06Z</time>
</trkpt>
<trkpt lat="38.229027" lon="-1.1246234">
<ele>697</ele>
<time>2013-06-02T19:44:07Z</time>
</trkpt>
<trkpt lat="38.229065" lon="-1.124484">
<ele>697</ele>
<time>2013-06-02T19:44:10Z</time>
</trkpt>
<trkpt lat="38.229095" lon="-1.1244142">
<ele>697</ele>
<time>2013-06-02T19:44:11Z</time>
</trkpt>
<trkpt lat="38.229107" lon="-1.1243552">
<ele>697</ele>
<time>2013-06-02T19:44:12Z</time>
</trkpt>
<trkpt lat="38.229122" lon="-1.1242855">
<ele>697</ele>
<time>2013-06-02T19:44:13Z</time>
</trkpt>
<trkpt lat="38.229145" lon="-1.1242318">
<ele>697</ele>
<time>2013-06-02T19:44:14Z</time>
</trkpt>
<trkpt lat="38.229164" lon="-1.1241728">
<ele>697</ele>
<time>2013-06-02T19:44:15Z</time>
</trkpt>
<trkpt lat="38.229187" lon="-1.1240977">
<ele>697</ele>
<time>2013-06-02T19:44:16Z</time>
</trkpt>
<trkpt lat="38.229225" lon="-1.1240923">
<ele>682</ele>
<time>2013-06-02T19:44:17Z</time>
</trkpt>
<trkpt lat="38.229263" lon="-1.124028">
<ele>682</ele>
<time>2013-06-02T19:44:18Z</time>
</trkpt>
<trkpt lat="38.22928" lon="-1.1239582">
<ele>682</ele>
<time>2013-06-02T19:44:19Z</time>
</trkpt>
<trkpt lat="38.22929" lon="-1.1238939">
<ele>682</ele>
<time>2013-06-02T19:44:20Z</time>
</trkpt>
<trkpt lat="38.229332" lon="-1.1237276">
<ele>672</ele>
<time>2013-06-02T19:44:23Z</time>
</trkpt>
<trkpt lat="38.22937" lon="-1.1237544">
<ele>653</ele>
<time>2013-06-02T19:44:24Z</time>
</trkpt>
<trkpt lat="38.2294" lon="-1.1237168">
<ele>647</ele>
<time>2013-06-02T19:44:25Z</time>
</trkpt>
<trkpt lat="38.229435" lon="-1.1237007">
<ele>646</ele>
<time>2013-06-02T19:44:26Z</time>
</trkpt>
<trkpt lat="38.22946" lon="-1.1236632">
<ele>644</ele>
<time>2013-06-02T19:44:27Z</time>
</trkpt>
<trkpt lat="38.22949" lon="-1.1236149">
<ele>642</ele>
<time>2013-06-02T19:44:28Z</time>
</trkpt>
<trkpt lat="38.22952" lon="-1.123572">
<ele>637</ele>
<time>2013-06-02T19:44:29Z</time>
</trkpt>
<trkpt lat="38.229553" lon="-1.1235237">
<ele>633</ele>
<time>2013-06-02T19:44:30Z</time>
</trkpt>
<trkpt lat="38.229584" lon="-1.1234701">
<ele>629</ele>
<time>2013-06-02T19:44:31Z</time>
</trkpt>
<trkpt lat="38.22961" lon="-1.1234164">
<ele>629</ele>
<time>2013-06-02T19:44:32Z</time>
</trkpt>
<trkpt lat="38.22962" lon="-1.1233628">
<ele>629</ele>
<time>2013-06-02T19:44:33Z</time>
</trkpt>
<trkpt lat="38.229645" lon="-1.1231911">
<ele>628</ele>
<time>2013-06-02T19:44:36Z</time>
</trkpt>
<trkpt lat="38.229637" lon="-1.1231482">
<ele>628</ele>
<time>2013-06-02T19:44:37Z</time>
</trkpt>
<trkpt lat="38.229645" lon="-1.1230892">
<ele>628</ele>
<time>2013-06-02T19:44:38Z</time>
</trkpt>
<trkpt lat="38.22965" lon="-1.1230248">
<ele>628</ele>
<time>2013-06-02T19:44:39Z</time>
</trkpt>
<trkpt lat="38.22966" lon="-1.1229551">
<ele>628</ele>
<time>2013-06-02T19:44:40Z</time>
</trkpt>
<trkpt lat="38.229652" lon="-1.1228746">
<ele>628</ele>
<time>2013-06-02T19:44:41Z</time>
</trkpt>
<trkpt lat="38.229717" lon="-1.1228478">
<ele>625</ele>
<time>2013-06-02T19:44:42Z</time>
</trkpt>
<trkpt lat="38.229725" lon="-1.1227942">
<ele>624</ele>
<time>2013-06-02T19:44:43Z</time>
</trkpt>
<trkpt lat="38.22974" lon="-1.1227459">
<ele>624</ele>
<time>2013-06-02T19:44:44Z</time>
</trkpt>
<trkpt lat="38.22977" lon="-1.122703">
<ele>625</ele>
<time>2013-06-02T19:44:45Z</time>
</trkpt>
<trkpt lat="38.229794" lon="-1.1226547">
<ele>624</ele>
<time>2013-06-02T19:44:46Z</time>
</trkpt>
<trkpt lat="38.229874" lon="-1.1225045">
<ele>623</ele>
<time>2013-06-02T19:44:49Z</time>
</trkpt>
<trkpt lat="38.229897" lon="-1.1224508">
<ele>623</ele>
<time>2013-06-02T19:44:50Z</time>
</trkpt>
<trkpt lat="38.229923" lon="-1.1223972">
<ele>623</ele>
<time>2013-06-02T19:44:51Z</time>
</trkpt>
<trkpt lat="38.22994" lon="-1.1223435">
<ele>623</ele>
<time>2013-06-02T19:44:52Z</time>
</trkpt>
<trkpt lat="38.22995" lon="-1.1222631">
<ele>623</ele>
<time>2013-06-02T19:44:53Z</time>
</trkpt>
<trkpt lat="38.229965" lon="-1.1221933">
<ele>623</ele>
<time>2013-06-02T19:44:54Z</time>
</trkpt>
<trkpt lat="38.229977" lon="-1.122129">
<ele>622</ele>
<time>2013-06-02T19:44:55Z</time>
</trkpt>
<trkpt lat="38.22999" lon="-1.12207">
<ele>622</ele>
<time>2013-06-02T19:44:56Z</time>
</trkpt>
<trkpt lat="38.230015" lon="-1.1220217">
<ele>621</ele>
<time>2013-06-02T19:44:57Z</time>
</trkpt>
<trkpt lat="38.23004" lon="-1.1219734">
<ele>621</ele>
<time>2013-06-02T19:44:58Z</time>
</trkpt>
<trkpt lat="38.230083" lon="-1.1219198">
<ele>619</ele>
<time>2013-06-02T19:44:59Z</time>
</trkpt>
<trkpt lat="38.23016" lon="-1.1217588">
<ele>619</ele>
<time>2013-06-02T19:45:02Z</time>
</trkpt>
<trkpt lat="38.230167" lon="-1.1217159">
<ele>619</ele>
<time>2013-06-02T19:45:03Z</time>
</trkpt>
<trkpt lat="38.230186" lon="-1.121673">
<ele>619</ele>
<time>2013-06-02T19:45:04Z</time>
</trkpt>
<trkpt lat="38.230194" lon="-1.1216247">
<ele>619</ele>
<time>2013-06-02T19:45:05Z</time>
</trkpt>
<trkpt lat="38.230217" lon="-1.1215764">
<ele>619</ele>
<time>2013-06-02T19:45:06Z</time>
</trkpt>
<trkpt lat="38.23023" lon="-1.1215389">
<ele>619</ele>
<time>2013-06-02T19:45:07Z</time>
</trkpt>
<trkpt lat="38.230247" lon="-1.1214852">
<ele>619</ele>
<time>2013-06-02T19:45:08Z</time>
</trkpt>
<trkpt lat="38.230247" lon="-1.121437">
<ele>619</ele>
<time>2013-06-02T19:45:09Z</time>
</trkpt>
<trkpt lat="38.230247" lon="-1.1213833">
<ele>618</ele>
<time>2013-06-02T19:45:10Z</time>
</trkpt>
<trkpt lat="38.230255" lon="-1.1213243">
<ele>618</ele>
<time>2013-06-02T19:45:11Z</time>
</trkpt>
<trkpt lat="38.230247" lon="-1.1212492">
<ele>618</ele>
<time>2013-06-02T19:45:12Z</time>
</trkpt>
<trkpt lat="38.230293" lon="-1.1210775">
<ele>617</ele>
<time>2013-06-02T19:45:15Z</time>
</trkpt>
<trkpt lat="38.230324" lon="-1.12104">
<ele>617</ele>
<time>2013-06-02T19:45:16Z</time>
</trkpt>
<trkpt lat="38.230335" lon="-1.1209917">
<ele>617</ele>
<time>2013-06-02T19:45:17Z</time>
</trkpt>
<trkpt lat="38.230347" lon="-1.1209327">
<ele>617</ele>
<time>2013-06-02T19:45:18Z</time>
</trkpt>
<trkpt lat="38.23039" lon="-1.1208951">
<ele>615</ele>
<time>2013-06-02T19:45:19Z</time>
</trkpt>
<trkpt lat="38.230392" lon="-1.1208308">
<ele>615</ele>
<time>2013-06-02T19:45:20Z</time>
</trkpt>
<trkpt lat="38.230404" lon="-1.1207664">
<ele>615</ele>
<time>2013-06-02T19:45:21Z</time>
</trkpt>
<trkpt lat="38.230415" lon="-1.120702">
<ele>615</ele>
<time>2013-06-02T19:45:22Z</time>
</trkpt>
<trkpt lat="38.230446" lon="-1.1206537">
<ele>614</ele>
<time>2013-06-02T19:45:23Z</time>
</trkpt>
<trkpt lat="38.230476" lon="-1.1206108">
<ele>612</ele>
<time>2013-06-02T19:45:24Z</time>
</trkpt>
<trkpt lat="38.230495" lon="-1.1205572">
<ele>610</ele>
<time>2013-06-02T19:45:25Z</time>
</trkpt>
<trkpt lat="38.230537" lon="-1.1203802">
<ele>610</ele>
<time>2013-06-02T19:45:28Z</time>
</trkpt>
<trkpt lat="38.230576" lon="-1.1203587">
<ele>611</ele>
<time>2013-06-02T19:45:29Z</time>
</trkpt>
<trkpt lat="38.23059" lon="-1.1202943">
<ele>611</ele>
<time>2013-06-02T19:45:30Z</time>
</trkpt>
<trkpt lat="38.23065" lon="-1.1202729">
<ele>606</ele>
<time>2013-06-02T19:45:31Z</time>
</trkpt>
<trkpt lat="38.230694" lon="-1.1202139">
<ele>606</ele>
<time>2013-06-02T19:45:32Z</time>
</trkpt>
<trkpt lat="38.230732" lon="-1.1201495">
<ele>605</ele>
<time>2013-06-02T19:45:33Z</time>
</trkpt>
<trkpt lat="38.230762" lon="-1.1201012">
<ele>605</ele>
<time>2013-06-02T19:45:34Z</time>
</trkpt>
<trkpt lat="38.23078" lon="-1.1200315">
<ele>605</ele>
<time>2013-06-02T19:45:35Z</time>
</trkpt>
<trkpt lat="38.2308" lon="-1.1199886">
<ele>605</ele>
<time>2013-06-02T19:45:36Z</time>
</trkpt>
<trkpt lat="38.23086" lon="-1.1199296">
<ele>605</ele>
<time>2013-06-02T19:45:37Z</time>
</trkpt>
<trkpt lat="38.2309" lon="-1.1198813">
<ele>605</ele>
<time>2013-06-02T19:45:38Z</time>
</trkpt>
<trkpt lat="38.23099" lon="-1.1197096">
<ele>605</ele>
<time>2013-06-02T19:45:41Z</time>
</trkpt>
<trkpt lat="38.23102" lon="-1.119656">
<ele>605</ele>
<time>2013-06-02T19:45:42Z</time>
</trkpt>
<trkpt lat="38.23105" lon="-1.1196238">
<ele>604</ele>
<time>2013-06-02T19:45:43Z</time>
</trkpt>
<trkpt lat="38.23108" lon="-1.1195916">
<ele>603</ele>
<time>2013-06-02T19:45:44Z</time>
</trkpt>
<trkpt lat="38.23109" lon="-1.1195594">
<ele>602</ele>
<time>2013-06-02T19:45:45Z</time>
</trkpt>
<trkpt lat="38.231106" lon="-1.1195165">
<ele>602</ele>
<time>2013-06-02T19:45:46Z</time>
</trkpt>
<trkpt lat="38.23113" lon="-1.1194843">
<ele>602</ele>
<time>2013-06-02T19:45:47Z</time>
</trkpt>
<trkpt lat="38.231144" lon="-1.1194468">
<ele>602</ele>
<time>2013-06-02T19:45:48Z</time>
</trkpt>
<trkpt lat="38.231144" lon="-1.1194092">
<ele>602</ele>
<time>2013-06-02T19:45:49Z</time>
</trkpt>
<trkpt lat="38.231102" lon="-1.1193126">
<ele>601</ele>
<time>2013-06-02T19:45:50Z</time>
</trkpt>
<trkpt lat="38.231125" lon="-1.119259">
<ele>601</ele>
<time>2013-06-02T19:45:51Z</time>
</trkpt>
<trkpt lat="38.231182" lon="-1.1190981">
<ele>600</ele>
<time>2013-06-02T19:45:54Z</time>
</trkpt>
<trkpt lat="38.23121" lon="-1.1190337">
<ele>600</ele>
<time>2013-06-02T19:45:55Z</time>
</trkpt>
<trkpt lat="38.23123" lon="-1.1189693">
<ele>600</ele>
<time>2013-06-02T19:45:56Z</time>
</trkpt>
<trkpt lat="38.231262" lon="-1.118921">
<ele>600</ele>
<time>2013-06-02T19:45:57Z</time>
</trkpt>
<trkpt lat="38.231297" lon="-1.1188835">
<ele>601</ele>
<time>2013-06-02T19:45:58Z</time>
</trkpt>
<trkpt lat="38.231327" lon="-1.1188513">
<ele>601</ele>
<time>2013-06-02T19:45:59Z</time>
</trkpt>
<trkpt lat="38.231342" lon="-1.1188191">
<ele>601</ele>
<time>2013-06-02T19:46:00Z</time>
</trkpt>
<trkpt lat="38.23137" lon="-1.1187601">
<ele>601</ele>
<time>2013-06-02T19:46:01Z</time>
</trkpt>
<trkpt lat="38.231403" lon="-1.1187065">
<ele>601</ele>
<time>2013-06-02T19:46:02Z</time>
</trkpt>
<trkpt lat="38.23144" lon="-1.1186421">
<ele>601</ele>
<time>2013-06-02T19:46:03Z</time>
</trkpt>
<trkpt lat="38.23135" lon="-1.1184865">
<ele>598</ele>
<time>2013-06-02T19:46:04Z</time>
</trkpt>
<trkpt lat="38.231377" lon="-1.1183578">
<ele>599</ele>
<time>2013-06-02T19:46:07Z</time>
</trkpt>
<trkpt lat="38.231377" lon="-1.1183041">
<ele>599</ele>
<time>2013-06-02T19:46:08Z</time>
</trkpt>
<trkpt lat="38.231396" lon="-1.1182505">
<ele>599</ele>
<time>2013-06-02T19:46:09Z</time>
</trkpt>
<trkpt lat="38.231415" lon="-1.1182076">
<ele>599</ele>
<time>2013-06-02T19:46:10Z</time>
</trkpt>
<trkpt lat="38.23143" lon="-1.1181539">
<ele>599</ele>
<time>2013-06-02T19:46:11Z</time>
</trkpt>
<trkpt lat="38.23145" lon="-1.1181003">
<ele>599</ele>
<time>2013-06-02T19:46:12Z</time>
</trkpt>
<trkpt lat="38.23146" lon="-1.1180413">
<ele>600</ele>
<time>2013-06-02T19:46:13Z</time>
</trkpt>
<trkpt lat="38.231434" lon="-1.1179715">
<ele>600</ele>
<time>2013-06-02T19:46:14Z</time>
</trkpt>
<trkpt lat="38.231457" lon="-1.1179394">
<ele>601</ele>
<time>2013-06-02T19:46:15Z</time>
</trkpt>
<trkpt lat="38.231472" lon="-1.1178911">
<ele>599</ele>
<time>2013-06-02T19:46:16Z</time>
</trkpt>
<trkpt lat="38.23147" lon="-1.1178374">
<ele>600</ele>
<time>2013-06-02T19:46:17Z</time>
</trkpt>
<trkpt lat="38.231476" lon="-1.1176711">
<ele>600</ele>
<time>2013-06-02T19:46:20Z</time>
</trkpt>
<trkpt lat="38.231506" lon="-1.1176336">
<ele>601</ele>
<time>2013-06-02T19:46:21Z</time>
</trkpt>
<trkpt lat="38.231506" lon="-1.1175853">
<ele>601</ele>
<time>2013-06-02T19:46:22Z</time>
</trkpt>
<trkpt lat="38.231495" lon="-1.117537">
<ele>602</ele>
<time>2013-06-02T19:46:23Z</time>
</trkpt>
<trkpt lat="38.231487" lon="-1.1174941">
<ele>602</ele>
<time>2013-06-02T19:46:24Z</time>
</trkpt>
<trkpt lat="38.2315" lon="-1.1174458">
<ele>602</ele>
<time>2013-06-02T19:46:25Z</time>
</trkpt>
<trkpt lat="38.2315" lon="-1.1173922">
<ele>602</ele>
<time>2013-06-02T19:46:26Z</time>
</trkpt>
<trkpt lat="38.231514" lon="-1.1173332">
<ele>602</ele>
<time>2013-06-02T19:46:27Z</time>
</trkpt>
<trkpt lat="38.231506" lon="-1.1172742">
<ele>602</ele>
<time>2013-06-02T19:46:28Z</time>
</trkpt>
<trkpt lat="38.2315" lon="-1.1172312">
<ele>602</ele>
<time>2013-06-02T19:46:29Z</time>
</trkpt>
<trkpt lat="38.231525" lon="-1.117242">
<ele>603</ele>
<time>2013-06-02T19:46:30Z</time>
</trkpt>
<trkpt lat="38.23159" lon="-1.1171722">
<ele>604</ele>
<time>2013-06-02T19:46:33Z</time>
</trkpt>
<trkpt lat="38.231594" lon="-1.1171186">
<ele>603</ele>
<time>2013-06-02T19:46:34Z</time>
</trkpt>
<trkpt lat="38.2316" lon="-1.1170757">
<ele>603</ele>
<time>2013-06-02T19:46:35Z</time>
</trkpt>
<trkpt lat="38.231617" lon="-1.1170274">
<ele>603</ele>
<time>2013-06-02T19:46:36Z</time>
</trkpt>
<trkpt lat="38.23166" lon="-1.1170006">
<ele>604</ele>
<time>2013-06-02T19:46:37Z</time>
</trkpt>
<trkpt lat="38.231678" lon="-1.1169469">
<ele>604</ele>
<time>2013-06-02T19:46:38Z</time>
</trkpt>
<trkpt lat="38.231678" lon="-1.1169094">
<ele>604</ele>
<time>2013-06-02T19:46:39Z</time>
</trkpt>
<trkpt lat="38.231693" lon="-1.1168718">
<ele>603</ele>
<time>2013-06-02T19:46:40Z</time>
</trkpt>
<trkpt lat="38.231705" lon="-1.1168236">
<ele>604</ele>
<time>2013-06-02T19:46:41Z</time>
</trkpt>
<trkpt lat="38.231697" lon="-1.1167914">
<ele>604</ele>
<time>2013-06-02T19:46:42Z</time>
</trkpt>
<trkpt lat="38.231735" lon="-1.1167914">
<ele>605</ele>
<time>2013-06-02T19:46:43Z</time>
</trkpt>
<trkpt lat="38.231724" lon="-1.1166734">
<ele>605</ele>
<time>2013-06-02T19:46:46Z</time>
</trkpt>
<trkpt lat="38.231705" lon="-1.1166143">
<ele>605</ele>
<time>2013-06-02T19:46:47Z</time>
</trkpt>
<trkpt lat="38.231712" lon="-1.1165553">
<ele>606</ele>
<time>2013-06-02T19:46:48Z</time>
</trkpt>
<trkpt lat="38.23172" lon="-1.1165017">
<ele>607</ele>
<time>2013-06-02T19:46:49Z</time>
</trkpt>
<trkpt lat="38.231705" lon="-1.1164373">
<ele>606</ele>
<time>2013-06-02T19:46:50Z</time>
</trkpt>
<trkpt lat="38.231705" lon="-1.1163837">
<ele>606</ele>
<time>2013-06-02T19:46:51Z</time>
</trkpt>
<trkpt lat="38.23172" lon="-1.1163461">
<ele>606</ele>
<time>2013-06-02T19:46:52Z</time>
</trkpt>
<trkpt lat="38.231724" lon="-1.1162925">
<ele>606</ele>
<time>2013-06-02T19:46:53Z</time>
</trkpt>
<trkpt lat="38.23173" lon="-1.1162496">
<ele>606</ele>
<time>2013-06-02T19:46:54Z</time>
</trkpt>
<trkpt lat="38.231735" lon="-1.1162066">
<ele>606</ele>
<time>2013-06-02T19:46:55Z</time>
</trkpt>
<trkpt lat="38.23175" lon="-1.1161637">
<ele>606</ele>
<time>2013-06-02T19:46:56Z</time>
</trkpt>
<trkpt lat="38.231712" lon="-1.1160189">
<ele>606</ele>
<time>2013-06-02T19:46:59Z</time>
</trkpt>
<trkpt lat="38.23171" lon="-1.1159492">
<ele>606</ele>
<time>2013-06-02T19:47:00Z</time>
</trkpt>
<trkpt lat="38.231697" lon="-1.1158955">
<ele>606</ele>
<time>2013-06-02T19:47:01Z</time>
</trkpt>
<trkpt lat="38.231712" lon="-1.1158365">
<ele>606</ele>
<time>2013-06-02T19:47:02Z</time>
</trkpt>
<trkpt lat="38.23175" lon="-1.115799">
<ele>606</ele>
<time>2013-06-02T19:47:03Z</time>
</trkpt>
<trkpt lat="38.231766" lon="-1.1157453">
<ele>606</ele>
<time>2013-06-02T19:47:04Z</time>
</trkpt>
<trkpt lat="38.231766" lon="-1.1157131">
<ele>605</ele>
<time>2013-06-02T19:47:05Z</time>
</trkpt>
<trkpt lat="38.231762" lon="-1.1156809">
<ele>605</ele>
<time>2013-06-02T19:47:06Z</time>
</trkpt>
<trkpt lat="38.231766" lon="-1.1156434">
<ele>604</ele>
<time>2013-06-02T19:47:07Z</time>
</trkpt>
<trkpt lat="38.23175" lon="-1.1156273">
<ele>604</ele>
<time>2013-06-02T19:47:08Z</time>
</trkpt>
<trkpt lat="38.23176" lon="-1.1156005">
<ele>605</ele>
<time>2013-06-02T19:47:09Z</time>
</trkpt>
<trkpt lat="38.231766" lon="-1.1154824">
<ele>604</ele>
<time>2013-06-02T19:47:12Z</time>
</trkpt>
<trkpt lat="38.231762" lon="-1.1154395">
<ele>606</ele>
<time>2013-06-02T19:47:13Z</time>
</trkpt>
<trkpt lat="38.23175" lon="-1.1154073">
<ele>606</ele>
<time>2013-06-02T19:47:14Z</time>
</trkpt>
<trkpt lat="38.231762" lon="-1.1153913">
<ele>606</ele>
<time>2013-06-02T19:47:15Z</time>
</trkpt>
<trkpt lat="38.231773" lon="-1.1153483">
<ele>606</ele>
<time>2013-06-02T19:47:16Z</time>
</trkpt>
<trkpt lat="38.231792" lon="-1.1153">
<ele>606</ele>
<time>2013-06-02T19:47:17Z</time>
</trkpt>
<trkpt lat="38.231815" lon="-1.1152679">
<ele>605</ele>
<time>2013-06-02T19:47:18Z</time>
</trkpt>
<trkpt lat="38.231827" lon="-1.115225">
<ele>605</ele>
<time>2013-06-02T19:47:19Z</time>
</trkpt>
<trkpt lat="38.231876" lon="-1.1152303">
<ele>605</ele>
<time>2013-06-02T19:47:20Z</time>
</trkpt>
<trkpt lat="38.231842" lon="-1.1151606">
<ele>605</ele>
<time>2013-06-02T19:47:21Z</time>
</trkpt>
<trkpt lat="38.23184" lon="-1.1150962">
<ele>605</ele>
<time>2013-06-02T19:47:22Z</time>
</trkpt>
<trkpt lat="38.23185" lon="-1.114946">
<ele>605</ele>
<time>2013-06-02T19:47:25Z</time>
</trkpt>
<trkpt lat="38.23185" lon="-1.1149085">
<ele>605</ele>
<time>2013-06-02T19:47:26Z</time>
</trkpt>
<trkpt lat="38.231853" lon="-1.1148602">
<ele>605</ele>
<time>2013-06-02T19:47:27Z</time>
</trkpt>
<trkpt lat="38.231827" lon="-1.1147851">
<ele>605</ele>
<time>2013-06-02T19:47:28Z</time>
</trkpt>
<trkpt lat="38.23182" lon="-1.1147314">
<ele>605</ele>
<time>2013-06-02T19:47:29Z</time>
</trkpt>
<trkpt lat="38.231827" lon="-1.1146724">
<ele>604</ele>
<time>2013-06-02T19:47:30Z</time>
</trkpt>
<trkpt lat="38.231827" lon="-1.1146295">
<ele>604</ele>
<time>2013-06-02T19:47:31Z</time>
</trkpt>
<trkpt lat="38.231842" lon="-1.1145973">
<ele>605</ele>
<time>2013-06-02T19:47:32Z</time>
</trkpt>
<trkpt lat="38.231815" lon="-1.1145383">
<ele>604</ele>
<time>2013-06-02T19:47:33Z</time>
</trkpt>
<trkpt lat="38.23181" lon="-1.11449">
<ele>604</ele>
<time>2013-06-02T19:47:34Z</time>
</trkpt>
<trkpt lat="38.231804" lon="-1.114431">
<ele>604</ele>
<time>2013-06-02T19:47:35Z</time>
</trkpt>
<trkpt lat="38.231857" lon="-1.1142647">
<ele>604</ele>
<time>2013-06-02T19:47:38Z</time>
</trkpt>
<trkpt lat="38.231876" lon="-1.1142218">
<ele>604</ele>
<time>2013-06-02T19:47:39Z</time>
</trkpt>
<trkpt lat="38.23188" lon="-1.1141682">
<ele>604</ele>
<time>2013-06-02T19:47:40Z</time>
</trkpt>
<trkpt lat="38.23193" lon="-1.114136">
<ele>604</ele>
<time>2013-06-02T19:47:41Z</time>
</trkpt>
<trkpt lat="38.231937" lon="-1.1140877">
<ele>604</ele>
<time>2013-06-02T19:47:42Z</time>
</trkpt>
<trkpt lat="38.231934" lon="-1.1140448">
<ele>604</ele>
<time>2013-06-02T19:47:43Z</time>
</trkpt>
<trkpt lat="38.23196" lon="-1.1140019">
<ele>603</ele>
<time>2013-06-02T19:47:44Z</time>
</trkpt>
<trkpt lat="38.231964" lon="-1.1139643">
<ele>605</ele>
<time>2013-06-02T19:47:45Z</time>
</trkpt>
<trkpt lat="38.231983" lon="-1.1139214">
<ele>604</ele>
<time>2013-06-02T19:47:46Z</time>
</trkpt>
<trkpt lat="38.231987" lon="-1.1138731">
<ele>605</ele>
<time>2013-06-02T19:47:47Z</time>
</trkpt>
<trkpt lat="38.23201" lon="-1.1138302">
<ele>605</ele>
<time>2013-06-02T19:47:48Z</time>
</trkpt>
<trkpt lat="38.232067" lon="-1.1137015">
<ele>604</ele>
<time>2013-06-02T19:47:51Z</time>
</trkpt>
<trkpt lat="38.23211" lon="-1.1136585">
<ele>603</ele>
<time>2013-06-02T19:47:52Z</time>
</trkpt>
<trkpt lat="38.232136" lon="-1.1136156">
<ele>603</ele>
<time>2013-06-02T19:47:53Z</time>
</trkpt>
<trkpt lat="38.23217" lon="-1.1135781">
<ele>603</ele>
<time>2013-06-02T19:47:54Z</time>
</trkpt>
<trkpt lat="38.232185" lon="-1.1135405">
<ele>603</ele>
<time>2013-06-02T19:47:55Z</time>
</trkpt>
<trkpt lat="38.232224" lon="-1.113503">
<ele>603</ele>
<time>2013-06-02T19:47:56Z</time>
</trkpt>
<trkpt lat="38.232292" lon="-1.1134493">
<ele>603</ele>
<time>2013-06-02T19:47:57Z</time>
</trkpt>
<trkpt lat="38.232327" lon="-1.1134171">
<ele>603</ele>
<time>2013-06-02T19:47:58Z</time>
</trkpt>
<trkpt lat="38.232353" lon="-1.1133689">
<ele>603</ele>
<time>2013-06-02T19:47:59Z</time>
</trkpt>
<trkpt lat="38.23237" lon="-1.113326">
<ele>602</ele>
<time>2013-06-02T19:48:00Z</time>
</trkpt>
<trkpt lat="38.23237" lon="-1.113283">
<ele>602</ele>
<time>2013-06-02T19:48:01Z</time>
</trkpt>
<trkpt lat="38.232426" lon="-1.1131114">
<ele>601</ele>
<time>2013-06-02T19:48:04Z</time>
</trkpt>
<trkpt lat="38.232445" lon="-1.1130631">
<ele>601</ele>
<time>2013-06-02T19:48:05Z</time>
</trkpt>
<trkpt lat="38.23247" lon="-1.1130202">
<ele>601</ele>
<time>2013-06-02T19:48:06Z</time>
</trkpt>
<trkpt lat="38.23249" lon="-1.1129719">
<ele>601</ele>
<time>2013-06-02T19:48:07Z</time>
</trkpt>
<trkpt lat="38.232517" lon="-1.112929">
<ele>601</ele>
<time>2013-06-02T19:48:08Z</time>
</trkpt>
<trkpt lat="38.232544" lon="-1.1128968">
<ele>601</ele>
<time>2013-06-02T19:48:09Z</time>
</trkpt>
<trkpt lat="38.232567" lon="-1.1128646">
<ele>601</ele>
<time>2013-06-02T19:48:10Z</time>
</trkpt>
<trkpt lat="38.23259" lon="-1.1128163">
<ele>601</ele>
<time>2013-06-02T19:48:11Z</time>
</trkpt>
<trkpt lat="38.232727" lon="-1.1127841">
<ele>599</ele>
<time>2013-06-02T19:48:12Z</time>
</trkpt>
<trkpt lat="38.23276" lon="-1.1127466">
<ele>599</ele>
<time>2013-06-02T19:48:13Z</time>
</trkpt>
<trkpt lat="38.232807" lon="-1.112693">
<ele>599</ele>
<time>2013-06-02T19:48:14Z</time>
</trkpt>
<trkpt lat="38.23292" lon="-1.112532">
<ele>599</ele>
<time>2013-06-02T19:48:17Z</time>
</trkpt>
<trkpt lat="38.232952" lon="-1.1124945">
<ele>599</ele>
<time>2013-06-02T19:48:18Z</time>
</trkpt>
<trkpt lat="38.233017" lon="-1.1124408">
<ele>599</ele>
<time>2013-06-02T19:48:19Z</time>
</trkpt>
<trkpt lat="38.233025" lon="-1.1124033">
<ele>599</ele>
<time>2013-06-02T19:48:20Z</time>
</trkpt>
<trkpt lat="38.233032" lon="-1.1123604">
<ele>598</ele>
<time>2013-06-02T19:48:21Z</time>
</trkpt>
<trkpt lat="38.23304" lon="-1.1123228">
<ele>596</ele>
<time>2013-06-02T19:48:22Z</time>
</trkpt>
<trkpt lat="38.23298" lon="-1.112296">
<ele>592</ele>
<time>2013-06-02T19:48:23Z</time>
</trkpt>
<trkpt lat="38.233013" lon="-1.1122477">
<ele>592</ele>
<time>2013-06-02T19:48:24Z</time>
</trkpt>
<trkpt lat="38.233017" lon="-1.1122262">
<ele>592</ele>
<time>2013-06-02T19:48:25Z</time>
</trkpt>
<trkpt lat="38.23305" lon="-1.1121941">
<ele>592</ele>
<time>2013-06-02T19:48:26Z</time>
</trkpt>
<trkpt lat="38.23303" lon="-1.1121565">
<ele>590</ele>
<time>2013-06-02T19:48:27Z</time>
</trkpt>
<trkpt lat="38.233086" lon="-1.1120385">
<ele>587</ele>
<time>2013-06-02T19:48:30Z</time>
</trkpt>
<trkpt lat="38.233112" lon="-1.1120117">
<ele>587</ele>
<time>2013-06-02T19:48:31Z</time>
</trkpt>
<trkpt lat="38.233135" lon="-1.1119634">
<ele>587</ele>
<time>2013-06-02T19:48:32Z</time>
</trkpt>
<trkpt lat="38.23316" lon="-1.1119205">
<ele>587</ele>
<time>2013-06-02T19:48:33Z</time>
</trkpt>
<trkpt lat="38.233185" lon="-1.1118668">
<ele>586</ele>
<time>2013-06-02T19:48:34Z</time>
</trkpt>
<trkpt lat="38.23321" lon="-1.1118186">
<ele>586</ele>
<time>2013-06-02T19:48:35Z</time>
</trkpt>
<trkpt lat="38.23324" lon="-1.1117649">
<ele>586</ele>
<time>2013-06-02T19:48:36Z</time>
</trkpt>
<trkpt lat="38.233166" lon="-1.1117166">
<ele>585</ele>
<time>2013-06-02T19:48:37Z</time>
</trkpt>
<trkpt lat="38.23315" lon="-1.1116737">
<ele>583</ele>
<time>2013-06-02T19:48:38Z</time>
</trkpt>
<trkpt lat="38.233124" lon="-1.1116254">
<ele>582</ele>
<time>2013-06-02T19:48:39Z</time>
</trkpt>
<trkpt lat="38.233192" lon="-1.1116147">
<ele>576</ele>
<time>2013-06-02T19:48:40Z</time>
</trkpt>
<trkpt lat="38.23333" lon="-1.1115235">
<ele>571</ele>
<time>2013-06-02T19:48:43Z</time>
</trkpt>
<trkpt lat="38.233356" lon="-1.1114752">
<ele>571</ele>
<time>2013-06-02T19:48:44Z</time>
</trkpt>
<trkpt lat="38.233425" lon="-1.111427">
<ele>569</ele>
<time>2013-06-02T19:48:45Z</time>
</trkpt>
<trkpt lat="38.23348" lon="-1.111384">
<ele>568</ele>
<time>2013-06-02T19:48:46Z</time>
</trkpt>
<trkpt lat="38.233543" lon="-1.1113572">
<ele>567</ele>
<time>2013-06-02T19:48:47Z</time>
</trkpt>
<trkpt lat="38.233536" lon="-1.1113304">
<ele>565</ele>
<time>2013-06-02T19:48:48Z</time>
</trkpt>
<trkpt lat="38.233612" lon="-1.1112285">
<ele>565</ele>
<time>2013-06-02T19:48:50Z</time>
</trkpt>
<trkpt lat="38.2336" lon="-1.1111802">
<ele>563</ele>
<time>2013-06-02T19:48:51Z</time>
</trkpt>
<trkpt lat="38.233555" lon="-1.1111534">
<ele>561</ele>
<time>2013-06-02T19:48:52Z</time>
</trkpt>
<trkpt lat="38.233593" lon="-1.1111212">
<ele>560</ele>
<time>2013-06-02T19:48:53Z</time>
</trkpt>
<trkpt lat="38.23357" lon="-1.1110997">
<ele>559</ele>
<time>2013-06-02T19:48:54Z</time>
</trkpt>
<trkpt lat="38.233593" lon="-1.1110085">
<ele>559</ele>
<time>2013-06-02T19:48:57Z</time>
</trkpt>
<trkpt lat="38.233627" lon="-1.1109924">
<ele>559</ele>
<time>2013-06-02T19:48:58Z</time>
</trkpt>
<trkpt lat="38.233627" lon="-1.1110193">
<ele>559</ele>
<time>2013-06-02T19:48:59Z</time>
</trkpt>
<trkpt lat="38.23371" lon="-1.1109924">
<ele>560</ele>
<time>2013-06-02T19:49:00Z</time>
</trkpt>
<trkpt lat="38.23371" lon="-1.110971">
<ele>560</ele>
<time>2013-06-02T19:49:01Z</time>
</trkpt>
<trkpt lat="38.23373" lon="-1.1109442">
<ele>560</ele>
<time>2013-06-02T19:49:02Z</time>
</trkpt>
<trkpt lat="38.23374" lon="-1.1108905">
<ele>559</ele>
<time>2013-06-02T19:49:03Z</time>
</trkpt>
<trkpt lat="38.233757" lon="-1.1108369">
<ele>557</ele>
<time>2013-06-02T19:49:04Z</time>
</trkpt>
<trkpt lat="38.233784" lon="-1.1108154">
<ele>552</ele>
<time>2013-06-02T19:49:05Z</time>
</trkpt>
<trkpt lat="38.233807" lon="-1.1107886">
<ele>553</ele>
<time>2013-06-02T19:49:06Z</time>
</trkpt>
<trkpt lat="38.233818" lon="-1.1107671">
<ele>553</ele>
<time>2013-06-02T19:49:07Z</time>
</trkpt>
<trkpt lat="38.233837" lon="-1.1106598">
<ele>552</ele>
<time>2013-06-02T19:49:10Z</time>
</trkpt>
<trkpt lat="38.23385" lon="-1.1106169">
<ele>552</ele>
<time>2013-06-02T19:49:11Z</time>
</trkpt>
<trkpt lat="38.233852" lon="-1.1105901">
<ele>552</ele>
<time>2013-06-02T19:49:12Z</time>
</trkpt>
<trkpt lat="38.23386" lon="-1.110574">
<ele>552</ele>
<time>2013-06-02T19:49:13Z</time>
</trkpt>
<trkpt lat="38.233902" lon="-1.1105418">
<ele>552</ele>
<time>2013-06-02T19:49:14Z</time>
</trkpt>
<trkpt lat="38.233936" lon="-1.1105043">
<ele>552</ele>
<time>2013-06-02T19:49:15Z</time>
</trkpt>
<trkpt lat="38.23395" lon="-1.1104506">
<ele>553</ele>
<time>2013-06-02T19:49:16Z</time>
</trkpt>
<trkpt lat="38.233955" lon="-1.1104184">
<ele>553</ele>
<time>2013-06-02T19:49:17Z</time>
</trkpt>
<trkpt lat="38.23395" lon="-1.1103863">
<ele>553</ele>
<time>2013-06-02T19:49:18Z</time>
</trkpt>
<trkpt lat="38.233955" lon="-1.1103594">
<ele>553</ele>
<time>2013-06-02T19:49:19Z</time>
</trkpt>
<trkpt lat="38.233963" lon="-1.1103165">
<ele>553</ele>
<time>2013-06-02T19:49:20Z</time>
</trkpt>
<trkpt lat="38.233982" lon="-1.1101824">
<ele>553</ele>
<time>2013-06-02T19:49:23Z</time>
</trkpt>
<trkpt lat="38.233982" lon="-1.1101341">
<ele>553</ele>
<time>2013-06-02T19:49:24Z</time>
</trkpt>
<trkpt lat="38.233982" lon="-1.1100805">
<ele>553</ele>
<time>2013-06-02T19:49:25Z</time>
</trkpt>
<trkpt lat="38.23398" lon="-1.1100429">
<ele>553</ele>
<time>2013-06-02T19:49:26Z</time>
</trkpt>
<trkpt lat="38.233967" lon="-1.1100107">
<ele>553</ele>
<time>2013-06-02T19:49:27Z</time>
</trkpt>
<trkpt lat="38.23395" lon="-1.1099786">
<ele>553</ele>
<time>2013-06-02T19:49:28Z</time>
</trkpt>
<trkpt lat="38.23393" lon="-1.1099356">
<ele>553</ele>
<time>2013-06-02T19:49:29Z</time>
</trkpt>
<trkpt lat="38.233936" lon="-1.1098927">
<ele>553</ele>
<time>2013-06-02T19:49:30Z</time>
</trkpt>
<trkpt lat="38.233917" lon="-1.1098284">
<ele>553</ele>
<time>2013-06-02T19:49:31Z</time>
</trkpt>
<trkpt lat="38.23398" lon="-1.1098284">
<ele>543</ele>
<time>2013-06-02T19:49:32Z</time>
</trkpt>
<trkpt lat="38.233997" lon="-1.1098123">
<ele>540</ele>
<time>2013-06-02T19:49:33Z</time>
</trkpt>
<trkpt lat="38.234055" lon="-1.1097211">
<ele>541</ele>
<time>2013-06-02T19:49:36Z</time>
</trkpt>
<trkpt lat="38.234043" lon="-1.1096889">
<ele>540</ele>
<time>2013-06-02T19:49:37Z</time>
</trkpt>
<trkpt lat="38.23408" lon="-1.1096567">
<ele>537</ele>
<time>2013-06-02T19:49:38Z</time>
</trkpt>
<trkpt lat="38.234097" lon="-1.1096191">
<ele>537</ele>
<time>2013-06-02T19:49:39Z</time>
</trkpt>
<trkpt lat="38.234116" lon="-1.1095762">
<ele>536</ele>
<time>2013-06-02T19:49:40Z</time>
</trkpt>
<trkpt lat="38.234135" lon="-1.1095333">
<ele>536</ele>
<time>2013-06-02T19:49:41Z</time>
</trkpt>
<trkpt lat="38.234123" lon="-1.1095119">
<ele>535</ele>
<time>2013-06-02T19:49:42Z</time>
</trkpt>
<trkpt lat="38.234154" lon="-1.1094797">
<ele>535</ele>
<time>2013-06-02T19:49:43Z</time>
</trkpt>
<trkpt lat="38.234196" lon="-1.1094582">
<ele>534</ele>
<time>2013-06-02T19:49:44Z</time>
</trkpt>
<trkpt lat="38.234222" lon="-1.109426">
<ele>534</ele>
<time>2013-06-02T19:49:45Z</time>
</trkpt>
<trkpt lat="38.23427" lon="-1.1093938">
<ele>533</ele>
<time>2013-06-02T19:49:46Z</time>
</trkpt>
<trkpt lat="38.234333" lon="-1.1093295">
<ele>533</ele>
<time>2013-06-02T19:49:49Z</time>
</trkpt>
<trkpt lat="38.234367" lon="-1.109308">
<ele>533</ele>
<time>2013-06-02T19:49:50Z</time>
</trkpt>
<trkpt lat="38.234398" lon="-1.1092812">
<ele>533</ele>
<time>2013-06-02T19:49:51Z</time>
</trkpt>
<trkpt lat="38.23443" lon="-1.1092544">
<ele>533</ele>
<time>2013-06-02T19:49:52Z</time>
</trkpt>
<trkpt lat="38.23446" lon="-1.1092168">
<ele>533</ele>
<time>2013-06-02T19:49:53Z</time>
</trkpt>
<trkpt lat="38.234497" lon="-1.1091793">
<ele>533</ele>
<time>2013-06-02T19:49:54Z</time>
</trkpt>
<trkpt lat="38.234497" lon="-1.1091578">
<ele>532</ele>
<time>2013-06-02T19:49:55Z</time>
</trkpt>
<trkpt lat="38.234535" lon="-1.1091202">
<ele>531</ele>
<time>2013-06-02T19:49:56Z</time>
</trkpt>
<trkpt lat="38.23456" lon="-1.1090988">
<ele>530</ele>
<time>2013-06-02T19:49:57Z</time>
</trkpt>
<trkpt lat="38.234585" lon="-1.1090612">
<ele>529</ele>
<time>2013-06-02T19:49:58Z</time>
</trkpt>
<trkpt lat="38.234615" lon="-1.109029">
<ele>529</ele>
<time>2013-06-02T19:49:59Z</time>
</trkpt>
<trkpt lat="38.234665" lon="-1.1089754">
<ele>528</ele>
<time>2013-06-02T19:50:02Z</time>
</trkpt>
<trkpt lat="38.23469" lon="-1.1089486">
<ele>529</ele>
<time>2013-06-02T19:50:03Z</time>
</trkpt>
<trkpt lat="38.234722" lon="-1.1089057">
<ele>530</ele>
<time>2013-06-02T19:50:04Z</time>
</trkpt>
<trkpt lat="38.234745" lon="-1.1088789">
<ele>530</ele>
<time>2013-06-02T19:50:05Z</time>
</trkpt>
<trkpt lat="38.234734" lon="-1.1088306">
<ele>530</ele>
<time>2013-06-02T19:50:06Z</time>
</trkpt>
<trkpt lat="38.234734" lon="-1.108793">
<ele>529</ele>
<time>2013-06-02T19:50:07Z</time>
</trkpt>
<trkpt lat="38.234745" lon="-1.1087501">
<ele>529</ele>
<time>2013-06-02T19:50:08Z</time>
</trkpt>
<trkpt lat="38.234756" lon="-1.1087126">
<ele>529</ele>
<time>2013-06-02T19:50:09Z</time>
</trkpt>
<trkpt lat="38.23477" lon="-1.1086857">
<ele>529</ele>
<time>2013-06-02T19:50:10Z</time>
</trkpt>
<trkpt lat="38.2348" lon="-1.1086535">
<ele>530</ele>
<time>2013-06-02T19:50:11Z</time>
</trkpt>
<trkpt lat="38.234825" lon="-1.1086267">
<ele>531</ele>
<time>2013-06-02T19:50:12Z</time>
</trkpt>
<trkpt lat="38.23492" lon="-1.1085731">
<ele>534</ele>
<time>2013-06-02T19:50:15Z</time>
</trkpt>
<trkpt lat="38.234955" lon="-1.108557">
<ele>534</ele>
<time>2013-06-02T19:50:16Z</time>
</trkpt>
<trkpt lat="38.234993" lon="-1.1085302">
<ele>535</ele>
<time>2013-06-02T19:50:17Z</time>
</trkpt>
<trkpt lat="38.235035" lon="-1.108498">
<ele>538</ele>
<time>2013-06-02T19:50:18Z</time>
</trkpt>
<trkpt lat="38.235065" lon="-1.1084765">
<ele>539</ele>
<time>2013-06-02T19:50:19Z</time>
</trkpt>
<trkpt lat="38.235104" lon="-1.1084658">
<ele>540</ele>
<time>2013-06-02T19:50:20Z</time>
</trkpt>
<trkpt lat="38.235138" lon="-1.1084551">
<ele>540</ele>
<time>2013-06-02T19:50:21Z</time>
</trkpt>
<trkpt lat="38.235172" lon="-1.108439">
<ele>540</ele>
<time>2013-06-02T19:50:22Z</time>
</trkpt>
<trkpt lat="38.235218" lon="-1.108396">
<ele>540</ele>
<time>2013-06-02T19:50:23Z</time>
</trkpt>
<trkpt lat="38.23525" lon="-1.1083585">
<ele>541</ele>
<time>2013-06-02T19:50:24Z</time>
</trkpt>
<trkpt lat="38.23527" lon="-1.108321">
<ele>541</ele>
<time>2013-06-02T19:50:25Z</time>
</trkpt>
<trkpt lat="38.235317" lon="-1.1082512">
<ele>543</ele>
<time>2013-06-02T19:50:28Z</time>
</trkpt>
<trkpt lat="38.23533" lon="-1.108219">
<ele>543</ele>
<time>2013-06-02T19:50:29Z</time>
</trkpt>
<trkpt lat="38.235355" lon="-1.1081868">
<ele>542</ele>
<time>2013-06-02T19:50:30Z</time>
</trkpt>
<trkpt lat="38.23538" lon="-1.1081654">
<ele>543</ele>
<time>2013-06-02T19:50:31Z</time>
</trkpt>
<trkpt lat="38.235397" lon="-1.1081439">
<ele>543</ele>
<time>2013-06-02T19:50:32Z</time>
</trkpt>
<trkpt lat="38.23542" lon="-1.1081225">
<ele>543</ele>
<time>2013-06-02T19:50:33Z</time>
</trkpt>
<trkpt lat="38.235447" lon="-1.1081064">
<ele>543</ele>
<time>2013-06-02T19:50:34Z</time>
</trkpt>
<trkpt lat="38.235485" lon="-1.1080796">
<ele>543</ele>
<time>2013-06-02T19:50:35Z</time>
</trkpt>
<trkpt lat="38.235516" lon="-1.1080581">
<ele>543</ele>
<time>2013-06-02T19:50:36Z</time>
</trkpt>
<trkpt lat="38.23555" lon="-1.1080366">
<ele>544</ele>
<time>2013-06-02T19:50:37Z</time>
</trkpt>
<trkpt lat="38.235577" lon="-1.1080098">
<ele>545</ele>
<time>2013-06-02T19:50:38Z</time>
</trkpt>
<trkpt lat="38.23567" lon="-1.1079347">
<ele>546</ele>
<time>2013-06-02T19:50:41Z</time>
</trkpt>
<trkpt lat="38.235695" lon="-1.1079025">
<ele>547</ele>
<time>2013-06-02T19:50:42Z</time>
</trkpt>
<trkpt lat="38.235725" lon="-1.1078811">
<ele>548</ele>
<time>2013-06-02T19:50:43Z</time>
</trkpt>
<trkpt lat="38.23576" lon="-1.1078596">
<ele>549</ele>
<time>2013-06-02T19:50:44Z</time>
</trkpt>
<trkpt lat="38.23579" lon="-1.1078489">
<ele>550</ele>
<time>2013-06-02T19:50:45Z</time>
</trkpt>
<trkpt lat="38.235817" lon="-1.1078328">
<ele>550</ele>
<time>2013-06-02T19:50:46Z</time>
</trkpt>
<trkpt lat="38.23585" lon="-1.1078167">
<ele>551</ele>
<time>2013-06-02T19:50:47Z</time>
</trkpt>
<trkpt lat="38.235878" lon="-1.1077952">
<ele>551</ele>
<time>2013-06-02T19:50:48Z</time>
</trkpt>
<trkpt lat="38.235893" lon="-1.1077684">
<ele>551</ele>
<time>2013-06-02T19:50:49Z</time>
</trkpt>
<trkpt lat="38.235912" lon="-1.1077362">
<ele>550</ele>
<time>2013-06-02T19:50:50Z</time>
</trkpt>
<trkpt lat="38.235935" lon="-1.1077201">
<ele>550</ele>
<time>2013-06-02T19:50:51Z</time>
</trkpt>
<trkpt lat="38.236065" lon="-1.1076772">
<ele>549</ele>
<time>2013-06-02T19:50:54Z</time>
</trkpt>
<trkpt lat="38.236115" lon="-1.1076611">
<ele>549</ele>
<time>2013-06-02T19:50:55Z</time>
</trkpt>
<trkpt lat="38.23616" lon="-1.1076558">
<ele>549</ele>
<time>2013-06-02T19:50:56Z</time>
</trkpt>
<trkpt lat="38.23621" lon="-1.1076504">
<ele>549</ele>
<time>2013-06-02T19:50:57Z</time>
</trkpt>
<trkpt lat="38.236263" lon="-1.107645">
<ele>549</ele>
<time>2013-06-02T19:50:58Z</time>
</trkpt>
<trkpt lat="38.236332" lon="-1.1076075">
<ele>550</ele>
<time>2013-06-02T19:50:59Z</time>
</trkpt>
<trkpt lat="38.2364" lon="-1.1075807">
<ele>551</ele>
<time>2013-06-02T19:51:00Z</time>
</trkpt>
<trkpt lat="38.23646" lon="-1.1075485">
<ele>552</ele>
<time>2013-06-02T19:51:01Z</time>
</trkpt>
<trkpt lat="38.23652" lon="-1.1074948">
<ele>552</ele>
<time>2013-06-02T19:51:02Z</time>
</trkpt>
<trkpt lat="38.23657" lon="-1.1074787">
<ele>553</ele>
<time>2013-06-02T19:51:03Z</time>
</trkpt>
<trkpt lat="38.236618" lon="-1.1074626">
<ele>554</ele>
<time>2013-06-02T19:51:04Z</time>
</trkpt>
<trkpt lat="38.23671" lon="-1.1073393">
<ele>554</ele>
<time>2013-06-02T19:51:07Z</time>
</trkpt>
<trkpt lat="38.23674" lon="-1.1073071">
<ele>554</ele>
<time>2013-06-02T19:51:08Z</time>
</trkpt>
<trkpt lat="38.236782" lon="-1.1072803">
<ele>554</ele>
<time>2013-06-02T19:51:09Z</time>
</trkpt>
<trkpt lat="38.23681" lon="-1.1072481">
<ele>554</ele>
<time>2013-06-02T19:51:10Z</time>
</trkpt>
<trkpt lat="38.23683" lon="-1.1072212">
<ele>554</ele>
<time>2013-06-02T19:51:11Z</time>
</trkpt>
<trkpt lat="38.23686" lon="-1.1071998">
<ele>554</ele>
<time>2013-06-02T19:51:12Z</time>
</trkpt>
<trkpt lat="38.23689" lon="-1.1071622">
<ele>554</ele>
<time>2013-06-02T19:51:13Z</time>
</trkpt>
<trkpt lat="38.236916" lon="-1.1071247">
<ele>554</ele>
<time>2013-06-02T19:51:14Z</time>
</trkpt>
<trkpt lat="38.23694" lon="-1.1071032">
<ele>554</ele>
<time>2013-06-02T19:51:15Z</time>
</trkpt>
<trkpt lat="38.23698" lon="-1.1070818">
<ele>554</ele>
<time>2013-06-02T19:51:16Z</time>
</trkpt>
<trkpt lat="38.237015" lon="-1.1070603">
<ele>554</ele>
<time>2013-06-02T19:51:17Z</time>
</trkpt>
<trkpt lat="38.23706" lon="-1.1069155">
<ele>558</ele>
<time>2013-06-02T19:51:20Z</time>
</trkpt>
<trkpt lat="38.237083" lon="-1.1068833">
<ele>558</ele>
<time>2013-06-02T19:51:21Z</time>
</trkpt>
<trkpt lat="38.237125" lon="-1.1068404">
<ele>558</ele>
<time>2013-06-02T19:51:22Z</time>
</trkpt>
<trkpt lat="38.237164" lon="-1.1068189">
<ele>558</ele>
<time>2013-06-02T19:51:23Z</time>
</trkpt>
<trkpt lat="38.237198" lon="-1.1067814">
<ele>559</ele>
<time>2013-06-02T19:51:24Z</time>
</trkpt>
<trkpt lat="38.23724" lon="-1.1067492">
<ele>559</ele>
<time>2013-06-02T19:51:25Z</time>
</trkpt>
<trkpt lat="38.237278" lon="-1.106717">
<ele>560</ele>
<time>2013-06-02T19:51:26Z</time>
</trkpt>
<trkpt lat="38.23727" lon="-1.1066419">
<ele>562</ele>
<time>2013-06-02T19:51:27Z</time>
</trkpt>
<trkpt lat="38.237267" lon="-1.1066043">
<ele>562</ele>
<time>2013-06-02T19:51:28Z</time>
</trkpt>
<trkpt lat="38.237255" lon="-1.1065882">
<ele>562</ele>
<time>2013-06-02T19:51:29Z</time>
</trkpt>
<trkpt lat="38.237255" lon="-1.1065829">
<ele>562</ele>
<time>2013-06-02T19:51:30Z</time>
</trkpt>
<trkpt lat="38.237164" lon="-1.1066151">
<ele>558</ele>
<time>2013-06-02T19:51:33Z</time>
</trkpt>
<trkpt lat="38.237095" lon="-1.1066794">
<ele>561</ele>
<time>2013-06-02T19:51:34Z</time>
</trkpt>
<trkpt lat="38.236988" lon="-1.1067867">
<ele>562</ele>
<time>2013-06-02T19:51:35Z</time>
</trkpt>
<trkpt lat="38.236916" lon="-1.1068887">
<ele>563</ele>
<time>2013-06-02T19:51:36Z</time>
</trkpt>
<trkpt lat="38.236874" lon="-1.1070603">
<ele>560</ele>
<time>2013-06-02T19:51:37Z</time>
</trkpt>
<trkpt lat="38.23683" lon="-1.1071622">
<ele>559</ele>
<time>2013-06-02T19:51:38Z</time>
</trkpt>
<trkpt lat="38.23679" lon="-1.1072642">
<ele>558</ele>
<time>2013-06-02T19:51:39Z</time>
</trkpt>
<trkpt lat="38.236744" lon="-1.1073554">
<ele>557</ele>
<time>2013-06-02T19:51:40Z</time>
</trkpt>
<trkpt lat="38.23669" lon="-1.1074466">
<ele>557</ele>
<time>2013-06-02T19:51:41Z</time>
</trkpt>
<trkpt lat="38.236633" lon="-1.1075324">
<ele>557</ele>
<time>2013-06-02T19:51:42Z</time>
</trkpt>
<trkpt lat="38.236584" lon="-1.1076182">
<ele>557</ele>
<time>2013-06-02T19:51:43Z</time>
</trkpt>
<trkpt lat="38.23642" lon="-1.1078542">
<ele>557</ele>
<time>2013-06-02T19:51:46Z</time>
</trkpt>
<trkpt lat="38.236347" lon="-1.1079454">
<ele>557</ele>
<time>2013-06-02T19:51:47Z</time>
</trkpt>
<trkpt lat="38.2363" lon="-1.1080313">
<ele>557</ele>
<time>2013-06-02T19:51:48Z</time>
</trkpt>
<trkpt lat="38.236256" lon="-1.1081278">
<ele>557</ele>
<time>2013-06-02T19:51:49Z</time>
</trkpt>
<trkpt lat="38.236187" lon="-1.108219">
<ele>557</ele>
<time>2013-06-02T19:51:50Z</time>
</trkpt>
<trkpt lat="38.23613" lon="-1.108321">
<ele>557</ele>
<time>2013-06-02T19:51:51Z</time>
</trkpt>
<trkpt lat="38.236076" lon="-1.108439">
<ele>558</ele>
<time>2013-06-02T19:51:52Z</time>
</trkpt>
<trkpt lat="38.236015" lon="-1.1085409">
<ele>558</ele>
<time>2013-06-02T19:51:53Z</time>
</trkpt>
<trkpt lat="38.23596" lon="-1.1086589">
<ele>558</ele>
<time>2013-06-02T19:51:54Z</time>
</trkpt>
<trkpt lat="38.235893" lon="-1.1087447">
<ele>558</ele>
<time>2013-06-02T19:51:55Z</time>
</trkpt>
<trkpt lat="38.235832" lon="-1.1088252">
<ele>559</ele>
<time>2013-06-02T19:51:56Z</time>
</trkpt>
<trkpt lat="38.235657" lon="-1.109072">
<ele>559</ele>
<time>2013-06-02T19:51:59Z</time>
</trkpt>
<trkpt lat="38.235596" lon="-1.1091739">
<ele>559</ele>
<time>2013-06-02T19:52:00Z</time>
</trkpt>
<trkpt lat="38.235535" lon="-1.1092865">
<ele>559</ele>
<time>2013-06-02T19:52:01Z</time>
</trkpt>
<trkpt lat="38.23547" lon="-1.1094046">
<ele>559</ele>
<time>2013-06-02T19:52:02Z</time>
</trkpt>
<trkpt lat="38.235405" lon="-1.1095226">
<ele>560</ele>
<time>2013-06-02T19:52:03Z</time>
</trkpt>
<trkpt lat="38.23535" lon="-1.1096513">
<ele>561</ele>
<time>2013-06-02T19:52:04Z</time>
</trkpt>
<trkpt lat="38.23531" lon="-1.1097693">
<ele>561</ele>
<time>2013-06-02T19:52:05Z</time>
</trkpt>
<trkpt lat="38.23527" lon="-1.1099088">
<ele>561</ele>
<time>2013-06-02T19:52:06Z</time>
</trkpt>
<trkpt lat="38.235233" lon="-1.1100537">
<ele>560</ele>
<time>2013-06-02T19:52:07Z</time>
</trkpt>
<trkpt lat="38.235195" lon="-1.1101878">
<ele>559</ele>
<time>2013-06-02T19:52:08Z</time>
</trkpt>
<trkpt lat="38.235153" lon="-1.1103219">
<ele>558</ele>
<time>2013-06-02T19:52:09Z</time>
</trkpt>
<trkpt lat="38.23498" lon="-1.110633">
<ele>557</ele>
<time>2013-06-02T19:52:12Z</time>
</trkpt>
<trkpt lat="38.234917" lon="-1.1106974">
<ele>557</ele>
<time>2013-06-02T19:52:13Z</time>
</trkpt>
<trkpt lat="38.234856" lon="-1.110751">
<ele>557</ele>
<time>2013-06-02T19:52:14Z</time>
</trkpt>
<trkpt lat="38.23481" lon="-1.110794">
<ele>557</ele>
<time>2013-06-02T19:52:15Z</time>
</trkpt>
<trkpt lat="38.234768" lon="-1.1108154">
<ele>557</ele>
<time>2013-06-02T19:52:16Z</time>
</trkpt>
<trkpt lat="38.234722" lon="-1.1107671">
<ele>557</ele>
<time>2013-06-02T19:52:17Z</time>
</trkpt>
<trkpt lat="38.23469" lon="-1.1107081">
<ele>556</ele>
<time>2013-06-02T19:52:18Z</time>
</trkpt>
<trkpt lat="38.23471" lon="-1.1106706">
<ele>556</ele>
<time>2013-06-02T19:52:19Z</time>
</trkpt>
<trkpt lat="38.234707" lon="-1.110633">
<ele>556</ele>
<time>2013-06-02T19:52:20Z</time>
</trkpt>
<trkpt lat="38.23471" lon="-1.1106008">
<ele>556</ele>
<time>2013-06-02T19:52:21Z</time>
</trkpt>
<trkpt lat="38.23471" lon="-1.1105579">
<ele>556</ele>
<time>2013-06-02T19:52:22Z</time>
</trkpt>
<trkpt lat="38.234783" lon="-1.110456">
<ele>553</ele>
<time>2013-06-02T19:52:25Z</time>
</trkpt>
<trkpt lat="38.234814" lon="-1.1104238">
<ele>554</ele>
<time>2013-06-02T19:52:26Z</time>
</trkpt>
<trkpt lat="38.23483" lon="-1.1104077">
<ele>554</ele>
<time>2013-06-02T19:52:27Z</time>
</trkpt>
<trkpt lat="38.234856" lon="-1.110397">
<ele>554</ele>
<time>2013-06-02T19:52:28Z</time>
</trkpt>
<trkpt lat="38.234882" lon="-1.1103863">
<ele>554</ele>
<time>2013-06-02T19:52:29Z</time>
</trkpt>
<trkpt lat="38.234856" lon="-1.1103487">
<ele>554</ele>
<time>2013-06-02T19:52:30Z</time>
</trkpt>
<trkpt lat="38.234825" lon="-1.110295">
<ele>552</ele>
<time>2013-06-02T19:52:31Z</time>
</trkpt>
<trkpt lat="38.234814" lon="-1.1102682">
<ele>552</ele>
<time>2013-06-02T19:52:32Z</time>
</trkpt>
<trkpt lat="38.234814" lon="-1.110236">
<ele>553</ele>
<time>2013-06-02T19:52:33Z</time>
</trkpt>
<trkpt lat="38.234802" lon="-1.1102039">
<ele>552</ele>
<time>2013-06-02T19:52:34Z</time>
</trkpt>
<trkpt lat="38.2348" lon="-1.110177">
<ele>551</ele>
<time>2013-06-02T19:52:35Z</time>
</trkpt>
<trkpt lat="38.23481" lon="-1.1101019">
<ele>549</ele>
<time>2013-06-02T19:52:38Z</time>
</trkpt>
<trkpt lat="38.234814" lon="-1.1100751">
<ele>548</ele>
<time>2013-06-02T19:52:39Z</time>
</trkpt>
<trkpt lat="38.234814" lon="-1.1100322">
<ele>547</ele>
<time>2013-06-02T19:52:40Z</time>
</trkpt>
<trkpt lat="38.23482" lon="-1.1099946">
<ele>546</ele>
<time>2013-06-02T19:52:41Z</time>
</trkpt>
<trkpt lat="38.234825" lon="-1.1099517">
<ele>544</ele>
<time>2013-06-02T19:52:42Z</time>
</trkpt>
<trkpt lat="38.234837" lon="-1.1099195">
<ele>542</ele>
<time>2013-06-02T19:52:43Z</time>
</trkpt>
<trkpt lat="38.234848" lon="-1.109882">
<ele>540</ele>
<time>2013-06-02T19:52:44Z</time>
</trkpt>
<trkpt lat="38.234863" lon="-1.1098605">
<ele>539</ele>
<time>2013-06-02T19:52:45Z</time>
</trkpt>
<trkpt lat="38.234875" lon="-1.1098337">
<ele>538</ele>
<time>2013-06-02T19:52:46Z</time>
</trkpt>
<trkpt lat="38.23488" lon="-1.1098015">
<ele>538</ele>
<time>2013-06-02T19:52:47Z</time>
</trkpt>
<trkpt lat="38.234875" lon="-1.109764">
<ele>537</ele>
<time>2013-06-02T19:52:48Z</time>
</trkpt>
<trkpt lat="38.234882" lon="-1.1097264">
<ele>537</ele>
<time>2013-06-02T19:52:51Z</time>
</trkpt>
<trkpt lat="38.23489" lon="-1.1097157">
<ele>537</ele>
<time>2013-06-02T19:52:52Z</time>
</trkpt>
<trkpt lat="38.23489" lon="-1.1096942">
<ele>538</ele>
<time>2013-06-02T19:52:53Z</time>
</trkpt>
<trkpt lat="38.234875" lon="-1.1096728">
<ele>537</ele>
<time>2013-06-02T19:52:54Z</time>
</trkpt>
<trkpt lat="38.234867" lon="-1.109646">
<ele>537</ele>
<time>2013-06-02T19:52:55Z</time>
</trkpt>
<trkpt lat="38.234867" lon="-1.1096084">
<ele>536</ele>
<time>2013-06-02T19:52:56Z</time>
</trkpt>
<trkpt lat="38.234875" lon="-1.1095709">
<ele>535</ele>
<time>2013-06-02T19:52:57Z</time>
</trkpt>
<trkpt lat="38.234882" lon="-1.1095387">
<ele>534</ele>
<time>2013-06-02T19:52:58Z</time>
</trkpt>
<trkpt lat="38.234882" lon="-1.1095011">
<ele>534</ele>
<time>2013-06-02T19:52:59Z</time>
</trkpt>
<trkpt lat="38.23489" lon="-1.1094636">
<ele>533</ele>
<time>2013-06-02T19:53:00Z</time>
</trkpt>
<trkpt lat="38.2349" lon="-1.1094207">
<ele>532</ele>
<time>2013-06-02T19:53:01Z</time>
</trkpt>
<trkpt lat="38.23496" lon="-1.109308">
<ele>531</ele>
<time>2013-06-02T19:53:04Z</time>
</trkpt>
<trkpt lat="38.234993" lon="-1.1092812">
<ele>531</ele>
<time>2013-06-02T19:53:05Z</time>
</trkpt>
<trkpt lat="38.235012" lon="-1.1092436">
<ele>531</ele>
<time>2013-06-02T19:53:06Z</time>
</trkpt>
<trkpt lat="38.235035" lon="-1.1092114">
<ele>531</ele>
<time>2013-06-02T19:53:07Z</time>
</trkpt>
<trkpt lat="38.235054" lon="-1.1091793">
<ele>531</ele>
<time>2013-06-02T19:53:08Z</time>
</trkpt>
<trkpt lat="38.235085" lon="-1.1091524">
<ele>530</ele>
<time>2013-06-02T19:53:09Z</time>
</trkpt>
<trkpt lat="38.235115" lon="-1.1091256">
<ele>530</ele>
<time>2013-06-02T19:53:10Z</time>
</trkpt>
<trkpt lat="38.23514" lon="-1.1090988">
<ele>531</ele>
<time>2013-06-02T19:53:11Z</time>
</trkpt>
<trkpt lat="38.235165" lon="-1.1090773">
<ele>531</ele>
<time>2013-06-02T19:53:12Z</time>
</trkpt>
<trkpt lat="38.235184" lon="-1.1090451">
<ele>531</ele>
<time>2013-06-02T19:53:13Z</time>
</trkpt>
<trkpt lat="38.23521" lon="-1.1090183">
<ele>531</ele>
<time>2013-06-02T19:53:14Z</time>
</trkpt>
<trkpt lat="38.23529" lon="-1.1089325">
<ele>531</ele>
<time>2013-06-02T19:53:17Z</time>
</trkpt>
<trkpt lat="38.235313" lon="-1.1089003">
<ele>532</ele>
<time>2013-06-02T19:53:18Z</time>
</trkpt>
<trkpt lat="38.23534" lon="-1.1088735">
<ele>532</ele>
<time>2013-06-02T19:53:19Z</time>
</trkpt>
<trkpt lat="38.235367" lon="-1.1088413">
<ele>531</ele>
<time>2013-06-02T19:53:20Z</time>
</trkpt>
<trkpt lat="38.235397" lon="-1.1088145">
<ele>532</ele>
<time>2013-06-02T19:53:21Z</time>
</trkpt>
<trkpt lat="38.235428" lon="-1.1087823">
<ele>533</ele>
<time>2013-06-02T19:53:22Z</time>
</trkpt>
<trkpt lat="38.235447" lon="-1.1087501">
<ele>534</ele>
<time>2013-06-02T19:53:23Z</time>
</trkpt>
<trkpt lat="38.23547" lon="-1.1087179">
<ele>534</ele>
<time>2013-06-02T19:53:24Z</time>
</trkpt>
<trkpt lat="38.23549" lon="-1.1086911">
<ele>534</ele>
<time>2013-06-02T19:53:25Z</time>
</trkpt>
<trkpt lat="38.235516" lon="-1.1086589">
<ele>534</ele>
<time>2013-06-02T19:53:26Z</time>
</trkpt>
<trkpt lat="38.235542" lon="-1.1086321">
<ele>535</ele>
<time>2013-06-02T19:53:27Z</time>
</trkpt>
<trkpt lat="38.235634" lon="-1.1085355">
<ele>534</ele>
<time>2013-06-02T19:53:30Z</time>
</trkpt>
<trkpt lat="38.235672" lon="-1.1085087">
<ele>535</ele>
<time>2013-06-02T19:53:31Z</time>
</trkpt>
<trkpt lat="38.235706" lon="-1.1084926">
<ele>536</ele>
<time>2013-06-02T19:53:32Z</time>
</trkpt>
<trkpt lat="38.23575" lon="-1.1084765">
<ele>536</ele>
<time>2013-06-02T19:53:33Z</time>
</trkpt>
<trkpt lat="38.235786" lon="-1.1084604">
<ele>536</ele>
<time>2013-06-02T19:53:34Z</time>
</trkpt>
<trkpt lat="38.23583" lon="-1.1084282">
<ele>535</ele>
<time>2013-06-02T19:53:35Z</time>
</trkpt>
<trkpt lat="38.235867" lon="-1.1083907">
<ele>535</ele>
<time>2013-06-02T19:53:36Z</time>
</trkpt>
<trkpt lat="38.235905" lon="-1.1083531">
<ele>535</ele>
<time>2013-06-02T19:53:37Z</time>
</trkpt>
<trkpt lat="38.23594" lon="-1.108321">
<ele>535</ele>
<time>2013-06-02T19:53:38Z</time>
</trkpt>
<trkpt lat="38.235973" lon="-1.1082834">
<ele>536</ele>
<time>2013-06-02T19:53:39Z</time>
</trkpt>
<trkpt lat="38.23601" lon="-1.1082512">
<ele>536</ele>
<time>2013-06-02T19:53:40Z</time>
</trkpt>
<trkpt lat="38.236122" lon="-1.1081707">
<ele>538</ele>
<time>2013-06-02T19:53:43Z</time>
</trkpt>
<trkpt lat="38.23616" lon="-1.1081386">
<ele>538</ele>
<time>2013-06-02T19:53:44Z</time>
</trkpt>
<trkpt lat="38.2362" lon="-1.108101">
<ele>538</ele>
<time>2013-06-02T19:53:45Z</time>
</trkpt>
<trkpt lat="38.23623" lon="-1.1080635">
<ele>539</ele>
<time>2013-06-02T19:53:46Z</time>
</trkpt>
<trkpt lat="38.236256" lon="-1.1080259">
<ele>540</ele>
<time>2013-06-02T19:53:47Z</time>
</trkpt>
<trkpt lat="38.23628" lon="-1.107983">
<ele>541</ele>
<time>2013-06-02T19:53:48Z</time>
</trkpt>
<trkpt lat="38.236305" lon="-1.1079508">
<ele>541</ele>
<time>2013-06-02T19:53:49Z</time>
</trkpt>
<trkpt lat="38.236332" lon="-1.107924">
<ele>541</ele>
<time>2013-06-02T19:53:50Z</time>
</trkpt>
<trkpt lat="38.23636" lon="-1.1078864">
<ele>541</ele>
<time>2013-06-02T19:53:51Z</time>
</trkpt>
<trkpt lat="38.236393" lon="-1.1078382">
<ele>541</ele>
<time>2013-06-02T19:53:52Z</time>
</trkpt>
<trkpt lat="38.236423" lon="-1.1077899">
<ele>541</ele>
<time>2013-06-02T19:53:53Z</time>
</trkpt>
<trkpt lat="38.23653" lon="-1.1076611">
<ele>541</ele>
<time>2013-06-02T19:53:56Z</time>
</trkpt>
<trkpt lat="38.236565" lon="-1.1076236">
<ele>540</ele>
<time>2013-06-02T19:53:57Z</time>
</trkpt>
<trkpt lat="38.236595" lon="-1.107586">
<ele>540</ele>
<time>2013-06-02T19:53:58Z</time>
</trkpt>
<trkpt lat="38.236626" lon="-1.107527">
<ele>539</ele>
<time>2013-06-02T19:53:59Z</time>
</trkpt>
<trkpt lat="38.23666" lon="-1.1074734">
<ele>539</ele>
<time>2013-06-02T19:54:00Z</time>
</trkpt>
<trkpt lat="38.23669" lon="-1.1074251">
<ele>539</ele>
<time>2013-06-02T19:54:01Z</time>
</trkpt>
<trkpt lat="38.236725" lon="-1.1073768">
<ele>540</ele>
<time>2013-06-02T19:54:02Z</time>
</trkpt>
<trkpt lat="38.236755" lon="-1.1073339">
<ele>540</ele>
<time>2013-06-02T19:54:03Z</time>
</trkpt>
<trkpt lat="38.23677" lon="-1.1072963">
<ele>542</ele>
<time>2013-06-02T19:54:04Z</time>
</trkpt>
<trkpt lat="38.236794" lon="-1.1072588">
<ele>542</ele>
<time>2013-06-02T19:54:05Z</time>
</trkpt>
<trkpt lat="38.23681" lon="-1.1072159">
<ele>542</ele>
<time>2013-06-02T19:54:06Z</time>
</trkpt>
<trkpt lat="38.23687" lon="-1.1070818">
<ele>542</ele>
<time>2013-06-02T19:54:09Z</time>
</trkpt>
<trkpt lat="38.236897" lon="-1.1070442">
<ele>542</ele>
<time>2013-06-02T19:54:10Z</time>
</trkpt>
<trkpt lat="38.236942" lon="-1.1070174">
<ele>542</ele>
<time>2013-06-02T19:54:11Z</time>
</trkpt>
<trkpt lat="38.23699" lon="-1.1069798">
<ele>542</ele>
<time>2013-06-02T19:54:12Z</time>
</trkpt>
<trkpt lat="38.23703" lon="-1.1069316">
<ele>542</ele>
<time>2013-06-02T19:54:13Z</time>
</trkpt>
<trkpt lat="38.23706" lon="-1.1068887">
<ele>543</ele>
<time>2013-06-02T19:54:14Z</time>
</trkpt>
<trkpt lat="38.237095" lon="-1.106835">
<ele>543</ele>
<time>2013-06-02T19:54:15Z</time>
</trkpt>
<trkpt lat="38.23712" lon="-1.1067921">
<ele>542</ele>
<time>2013-06-02T19:54:16Z</time>
</trkpt>
<trkpt lat="38.237152" lon="-1.1067438">
<ele>542</ele>
<time>2013-06-02T19:54:17Z</time>
</trkpt>
<trkpt lat="38.23718" lon="-1.1066955">
<ele>542</ele>
<time>2013-06-02T19:54:18Z</time>
</trkpt>
<trkpt lat="38.237198" lon="-1.1066419">
<ele>542</ele>
<time>2013-06-02T19:54:19Z</time>
</trkpt>
<trkpt lat="38.23727" lon="-1.1064756">
<ele>542</ele>
<time>2013-06-02T19:54:22Z</time>
</trkpt>
<trkpt lat="38.237305" lon="-1.1064166">
<ele>543</ele>
<time>2013-06-02T19:54:23Z</time>
</trkpt>
<trkpt lat="38.237335" lon="-1.1063576">
<ele>544</ele>
<time>2013-06-02T19:54:24Z</time>
</trkpt>
<trkpt lat="38.23737" lon="-1.1063093">
<ele>545</ele>
<time>2013-06-02T19:54:25Z</time>
</trkpt>
<trkpt lat="38.23739" lon="-1.1062825">
<ele>547</ele>
<time>2013-06-02T19:54:26Z</time>
</trkpt>
<trkpt lat="38.237415" lon="-1.106261">
<ele>548</ele>
<time>2013-06-02T19:54:27Z</time>
</trkpt>
<trkpt lat="38.23745" lon="-1.1062288">
<ele>548</ele>
<time>2013-06-02T19:54:28Z</time>
</trkpt>
<trkpt lat="38.23747" lon="-1.1061913">
<ele>549</ele>
<time>2013-06-02T19:54:29Z</time>
</trkpt>
<trkpt lat="38.237495" lon="-1.106143">
<ele>549</ele>
<time>2013-06-02T19:54:30Z</time>
</trkpt>
<trkpt lat="38.237522" lon="-1.106084">
<ele>550</ele>
<time>2013-06-02T19:54:31Z</time>
</trkpt>
<trkpt lat="38.237545" lon="-1.1060357">
<ele>551</ele>
<time>2013-06-02T19:54:32Z</time>
</trkpt>
<trkpt lat="38.237587" lon="-1.1058801">
<ele>551</ele>
<time>2013-06-02T19:54:35Z</time>
</trkpt>
<trkpt lat="38.237587" lon="-1.1058104">
<ele>550</ele>
<time>2013-06-02T19:54:36Z</time>
</trkpt>
<trkpt lat="38.237583" lon="-1.1057621">
<ele>550</ele>
<time>2013-06-02T19:54:37Z</time>
</trkpt>
<trkpt lat="38.237568" lon="-1.1057192">
<ele>550</ele>
<time>2013-06-02T19:54:38Z</time>
</trkpt>
<trkpt lat="38.23754" lon="-1.1057031">
<ele>549</ele>
<time>2013-06-02T19:54:39Z</time>
</trkpt>
<trkpt lat="38.237507" lon="-1.105687">
<ele>549</ele>
<time>2013-06-02T19:54:40Z</time>
</trkpt>
<trkpt lat="38.23747" lon="-1.1056656">
<ele>549</ele>
<time>2013-06-02T19:54:41Z</time>
</trkpt>
<trkpt lat="38.237373" lon="-1.1057675">
<ele>550</ele>
<time>2013-06-02T19:54:42Z</time>
</trkpt>
<trkpt lat="38.23732" lon="-1.105805">
<ele>550</ele>
<time>2013-06-02T19:54:43Z</time>
</trkpt>
<trkpt lat="38.237278" lon="-1.1058801">
<ele>550</ele>
<time>2013-06-02T19:54:44Z</time>
</trkpt>
<trkpt lat="38.237255" lon="-1.1060786">
<ele>545</ele>
<time>2013-06-02T19:54:45Z</time>
</trkpt>
<trkpt lat="38.237244" lon="-1.1065024">
<ele>544</ele>
<time>2013-06-02T19:54:48Z</time>
</trkpt>
<trkpt lat="38.237213" lon="-1.1066097">
<ele>543</ele>
<time>2013-06-02T19:54:49Z</time>
</trkpt>
<trkpt lat="38.237186" lon="-1.106717">
<ele>543</ele>
<time>2013-06-02T19:54:50Z</time>
</trkpt>
<trkpt lat="38.23715" lon="-1.1068028">
<ele>542</ele>
<time>2013-06-02T19:54:51Z</time>
</trkpt>
<trkpt lat="38.237114" lon="-1.106894">
<ele>541</ele>
<time>2013-06-02T19:54:52Z</time>
</trkpt>
<trkpt lat="38.237083" lon="-1.1069852">
<ele>540</ele>
<time>2013-06-02T19:54:53Z</time>
</trkpt>
<trkpt lat="38.237045" lon="-1.1070818">
<ele>539</ele>
<time>2013-06-02T19:54:54Z</time>
</trkpt>
<trkpt lat="38.237007" lon="-1.1071622">
<ele>539</ele>
<time>2013-06-02T19:54:55Z</time>
</trkpt>
<trkpt lat="38.23697" lon="-1.1072481">
<ele>539</ele>
<time>2013-06-02T19:54:56Z</time>
</trkpt>
<trkpt lat="38.236935" lon="-1.1073339">
<ele>540</ele>
<time>2013-06-02T19:54:57Z</time>
</trkpt>
<trkpt lat="38.23689" lon="-1.1074144">
<ele>540</ele>
<time>2013-06-02T19:54:58Z</time>
</trkpt>
<trkpt lat="38.236767" lon="-1.1076611">
<ele>539</ele>
<time>2013-06-02T19:55:01Z</time>
</trkpt>
<trkpt lat="38.236717" lon="-1.1077362">
<ele>540</ele>
<time>2013-06-02T19:55:02Z</time>
</trkpt>
<trkpt lat="38.236664" lon="-1.107806">
<ele>540</ele>
<time>2013-06-02T19:55:03Z</time>
</trkpt>
<trkpt lat="38.23661" lon="-1.1078703">
<ele>541</ele>
<time>2013-06-02T19:55:04Z</time>
</trkpt>
<trkpt lat="38.236565" lon="-1.1079293">
<ele>542</ele>
<time>2013-06-02T19:55:05Z</time>
</trkpt>
<trkpt lat="38.236504" lon="-1.1079776">
<ele>542</ele>
<time>2013-06-02T19:55:06Z</time>
</trkpt>
<trkpt lat="38.23644" lon="-1.1080205">
<ele>542</ele>
<time>2013-06-02T19:55:07Z</time>
</trkpt>
<trkpt lat="38.236374" lon="-1.1080581">
<ele>543</ele>
<time>2013-06-02T19:55:08Z</time>
</trkpt>
<trkpt lat="38.236313" lon="-1.108101">
<ele>544</ele>
<time>2013-06-02T19:55:09Z</time>
</trkpt>
<trkpt lat="38.23625" lon="-1.1081332">
<ele>544</ele>
<time>2013-06-02T19:55:10Z</time>
</trkpt>
<trkpt lat="38.23621" lon="-1.1081707">
<ele>544</ele>
<time>2013-06-02T19:55:11Z</time>
</trkpt>
<trkpt lat="38.236053" lon="-1.108219">
<ele>543</ele>
<time>2013-06-02T19:55:14Z</time>
</trkpt>
<trkpt lat="38.236" lon="-1.1081976">
<ele>543</ele>
<time>2013-06-02T19:55:15Z</time>
</trkpt>
<trkpt lat="38.23596" lon="-1.1081761">
<ele>544</ele>
<time>2013-06-02T19:55:16Z</time>
</trkpt>
<trkpt lat="38.23593" lon="-1.1081386">
<ele>544</ele>
<time>2013-06-02T19:55:17Z</time>
</trkpt>
<trkpt lat="38.23591" lon="-1.1080903">
<ele>544</ele>
<time>2013-06-02T19:55:18Z</time>
</trkpt>
<trkpt lat="38.235912" lon="-1.108042">
<ele>544</ele>
<time>2013-06-02T19:55:19Z</time>
</trkpt>
<trkpt lat="38.235935" lon="-1.1079991">
<ele>544</ele>
<time>2013-06-02T19:55:20Z</time>
</trkpt>
<trkpt lat="38.235962" lon="-1.1079669">
<ele>545</ele>
<time>2013-06-02T19:55:21Z</time>
</trkpt>
<trkpt lat="38.236004" lon="-1.1079454">
<ele>545</ele>
<time>2013-06-02T19:55:22Z</time>
</trkpt>
<trkpt lat="38.236076" lon="-1.1079293">
<ele>545</ele>
<time>2013-06-02T19:55:23Z</time>
</trkpt>
<trkpt lat="38.23614" lon="-1.1079186">
<ele>545</ele>
<time>2013-06-02T19:55:24Z</time>
</trkpt>
<trkpt lat="38.236305" lon="-1.1079133">
<ele>546</ele>
<time>2013-06-02T19:55:27Z</time>
</trkpt>
<trkpt lat="38.236366" lon="-1.1078918">
<ele>546</ele>
<time>2013-06-02T19:55:28Z</time>
</trkpt>
<trkpt lat="38.236412" lon="-1.1078596">
<ele>546</ele>
<time>2013-06-02T19:55:29Z</time>
</trkpt>
<trkpt lat="38.236473" lon="-1.1078382">
<ele>547</ele>
<time>2013-06-02T19:55:30Z</time>
</trkpt>
<trkpt lat="38.236526" lon="-1.1078167">
<ele>547</ele>
<time>2013-06-02T19:55:31Z</time>
</trkpt>
<trkpt lat="38.236572" lon="-1.1077952">
<ele>547</ele>
<time>2013-06-02T19:55:32Z</time>
</trkpt>
<trkpt lat="38.236633" lon="-1.107763">
<ele>547</ele>
<time>2013-06-02T19:55:33Z</time>
</trkpt>
<trkpt lat="38.236683" lon="-1.1077255">
<ele>546</ele>
<time>2013-06-02T19:55:34Z</time>
</trkpt>
<trkpt lat="38.236736" lon="-1.107688">
<ele>546</ele>
<time>2013-06-02T19:55:35Z</time>
</trkpt>
<trkpt lat="38.236782" lon="-1.1076504">
<ele>546</ele>
<time>2013-06-02T19:55:36Z</time>
</trkpt>
<trkpt lat="38.236828" lon="-1.1076182">
<ele>546</ele>
<time>2013-06-02T19:55:37Z</time>
</trkpt>
<trkpt lat="38.23694" lon="-1.1074895">
<ele>543</ele>
<time>2013-06-02T19:55:40Z</time>
</trkpt>
<trkpt lat="38.23698" lon="-1.1074358">
<ele>543</ele>
<time>2013-06-02T19:55:41Z</time>
</trkpt>
<trkpt lat="38.237026" lon="-1.1073875">
<ele>543</ele>
<time>2013-06-02T19:55:42Z</time>
</trkpt>
<trkpt lat="38.23707" lon="-1.1073393">
<ele>543</ele>
<time>2013-06-02T19:55:43Z</time>
</trkpt>
<trkpt lat="38.23711" lon="-1.1073017">
<ele>542</ele>
<time>2013-06-02T19:55:44Z</time>
</trkpt>
<trkpt lat="38.23715" lon="-1.1072481">
<ele>542</ele>
<time>2013-06-02T19:55:45Z</time>
</trkpt>
<trkpt lat="38.237198" lon="-1.1071944">
<ele>542</ele>
<time>2013-06-02T19:55:46Z</time>
</trkpt>
<trkpt lat="38.237244" lon="-1.1071408">
<ele>543</ele>
<time>2013-06-02T19:55:47Z</time>
</trkpt>
<trkpt lat="38.23728" lon="-1.1070871">
<ele>544</ele>
<time>2013-06-02T19:55:48Z</time>
</trkpt>
<trkpt lat="38.23731" lon="-1.1070389">
<ele>544</ele>
<time>2013-06-02T19:55:49Z</time>
</trkpt>
<trkpt lat="38.237335" lon="-1.1069906">
<ele>544</ele>
<time>2013-06-02T19:55:50Z</time>
</trkpt>
<trkpt lat="38.23744" lon="-1.1068189">
<ele>545</ele>
<time>2013-06-02T19:55:53Z</time>
</trkpt>
<trkpt lat="38.23747" lon="-1.1067706">
<ele>546</ele>
<time>2013-06-02T19:55:54Z</time>
</trkpt>
<trkpt lat="38.237507" lon="-1.1067277">
<ele>547</ele>
<time>2013-06-02T19:55:55Z</time>
</trkpt>
<trkpt lat="38.237545" lon="-1.1066794">
<ele>546</ele>
<time>2013-06-02T19:55:56Z</time>
</trkpt>
<trkpt lat="38.237595" lon="-1.1066365">
<ele>546</ele>
<time>2013-06-02T19:55:57Z</time>
</trkpt>
<trkpt lat="38.23764" lon="-1.1065829">
<ele>546</ele>
<time>2013-06-02T19:55:58Z</time>
</trkpt>
<trkpt lat="38.23768" lon="-1.1065346">
<ele>546</ele>
<time>2013-06-02T19:55:59Z</time>
</trkpt>
<trkpt lat="38.237717" lon="-1.1064863">
<ele>546</ele>
<time>2013-06-02T19:56:00Z</time>
</trkpt>
<trkpt lat="38.237755" lon="-1.1064434">
<ele>546</ele>
<time>2013-06-02T19:56:01Z</time>
</trkpt>
<trkpt lat="38.237793" lon="-1.1064059">
<ele>545</ele>
<time>2013-06-02T19:56:02Z</time>
</trkpt>
<trkpt lat="38.237823" lon="-1.1063683">
<ele>545</ele>
<time>2013-06-02T19:56:03Z</time>
</trkpt>
<trkpt lat="38.23792" lon="-1.1062288">
<ele>543</ele>
<time>2013-06-02T19:56:06Z</time>
</trkpt>
<trkpt lat="38.237953" lon="-1.1061859">
<ele>544</ele>
<time>2013-06-02T19:56:07Z</time>
</trkpt>
<trkpt lat="38.237984" lon="-1.106143">
<ele>544</ele>
<time>2013-06-02T19:56:08Z</time>
</trkpt>
<trkpt lat="38.238018" lon="-1.1060947">
<ele>544</ele>
<time>2013-06-02T19:56:09Z</time>
</trkpt>
<trkpt lat="38.238045" lon="-1.1060518">
<ele>543</ele>
<time>2013-06-02T19:56:10Z</time>
</trkpt>
<trkpt lat="38.238064" lon="-1.1060035">
<ele>542</ele>
<time>2013-06-02T19:56:11Z</time>
</trkpt>
<trkpt lat="38.238087" lon="-1.1059606">
<ele>542</ele>
<time>2013-06-02T19:56:12Z</time>
</trkpt>
<trkpt lat="38.23809" lon="-1.1059123">
<ele>542</ele>
<time>2013-06-02T19:56:13Z</time>
</trkpt>
<trkpt lat="38.238087" lon="-1.1058748">
<ele>541</ele>
<time>2013-06-02T19:56:14Z</time>
</trkpt>
<trkpt lat="38.23807" lon="-1.1058533">
<ele>541</ele>
<time>2013-06-02T19:56:15Z</time>
</trkpt>
<trkpt lat="38.238037" lon="-1.1058533">
<ele>541</ele>
<time>2013-06-02T19:56:16Z</time>
</trkpt>
<trkpt lat="38.237946" lon="-1.1058909">
<ele>540</ele>
<time>2013-06-02T19:56:19Z</time>
</trkpt>
<trkpt lat="38.23791" lon="-1.1059177">
<ele>539</ele>
<time>2013-06-02T19:56:20Z</time>
</trkpt>
<trkpt lat="38.237865" lon="-1.1059606">
<ele>539</ele>
<time>2013-06-02T19:56:21Z</time>
</trkpt>
<trkpt lat="38.237823" lon="-1.1060143">
<ele>538</ele>
<time>2013-06-02T19:56:22Z</time>
</trkpt>
<trkpt lat="38.237774" lon="-1.106084">
<ele>538</ele>
<time>2013-06-02T19:56:23Z</time>
</trkpt>
<trkpt lat="38.237717" lon="-1.106143">
<ele>539</ele>
<time>2013-06-02T19:56:24Z</time>
</trkpt>
<trkpt lat="38.237675" lon="-1.1061913">
<ele>539</ele>
<time>2013-06-02T19:56:25Z</time>
</trkpt>
<trkpt lat="38.237637" lon="-1.1062342">
<ele>539</ele>
<time>2013-06-02T19:56:26Z</time>
</trkpt>
<trkpt lat="38.2376" lon="-1.1062878">
<ele>539</ele>
<time>2013-06-02T19:56:27Z</time>
</trkpt>
<trkpt lat="38.237568" lon="-1.1063361">
<ele>539</ele>
<time>2013-06-02T19:56:28Z</time>
</trkpt>
<trkpt lat="38.237522" lon="-1.1063898">
<ele>539</ele>
<time>2013-06-02T19:56:29Z</time>
</trkpt>
<trkpt lat="38.237415" lon="-1.1065453">
<ele>540</ele>
<time>2013-06-02T19:56:32Z</time>
</trkpt>
<trkpt lat="38.237385" lon="-1.106599">
<ele>541</ele>
<time>2013-06-02T19:56:33Z</time>
</trkpt>
<trkpt lat="38.23736" lon="-1.1066526">
<ele>541</ele>
<time>2013-06-02T19:56:34Z</time>
</trkpt>
<trkpt lat="38.237324" lon="-1.1067116">
<ele>541</ele>
<time>2013-06-02T19:56:35Z</time>
</trkpt>
<trkpt lat="38.237286" lon="-1.1067653">
<ele>540</ele>
<time>2013-06-02T19:56:36Z</time>
</trkpt>
<trkpt lat="38.23724" lon="-1.1068404">
<ele>541</ele>
<time>2013-06-02T19:56:37Z</time>
</trkpt>
<trkpt lat="38.237198" lon="-1.1069155">
<ele>542</ele>
<time>2013-06-02T19:56:38Z</time>
</trkpt>
<trkpt lat="38.23715" lon="-1.1069798">
<ele>542</ele>
<time>2013-06-02T19:56:39Z</time>
</trkpt>
<trkpt lat="38.237106" lon="-1.1070389">
<ele>543</ele>
<time>2013-06-02T19:56:40Z</time>
</trkpt>
<trkpt lat="38.23706" lon="-1.1070979">
<ele>543</ele>
<time>2013-06-02T19:56:41Z</time>
</trkpt>
<trkpt lat="38.23702" lon="-1.107173">
<ele>544</ele>
<time>2013-06-02T19:56:42Z</time>
</trkpt>
<trkpt lat="38.2369" lon="-1.1074251">
<ele>544</ele>
<time>2013-06-02T19:56:45Z</time>
</trkpt>
<trkpt lat="38.236862" lon="-1.1074787">
<ele>546</ele>
<time>2013-06-02T19:56:46Z</time>
</trkpt>
<trkpt lat="38.236828" lon="-1.1075324">
<ele>546</ele>
<time>2013-06-02T19:56:47Z</time>
</trkpt>
<trkpt lat="38.236782" lon="-1.1075753">
<ele>547</ele>
<time>2013-06-02T19:56:48Z</time>
</trkpt>
<trkpt lat="38.23673" lon="-1.1076128">
<ele>548</ele>
<time>2013-06-02T19:56:49Z</time>
</trkpt>
<trkpt lat="38.236675" lon="-1.1076343">
<ele>548</ele>
<time>2013-06-02T19:56:50Z</time>
</trkpt>
<trkpt lat="38.23662" lon="-1.1076558">
<ele>549</ele>
<time>2013-06-02T19:56:51Z</time>
</trkpt>
<trkpt lat="38.23658" lon="-1.1076772">
<ele>550</ele>
<time>2013-06-02T19:56:52Z</time>
</trkpt>
<trkpt lat="38.236546" lon="-1.107704">
<ele>552</ele>
<time>2013-06-02T19:56:53Z</time>
</trkpt>
<trkpt lat="38.23651" lon="-1.1077309">
<ele>552</ele>
<time>2013-06-02T19:56:54Z</time>
</trkpt>
<trkpt lat="38.236458" lon="-1.107747">
<ele>552</ele>
<time>2013-06-02T19:56:55Z</time>
</trkpt>
<trkpt lat="38.2363" lon="-1.1077577">
<ele>555</ele>
<time>2013-06-02T19:56:58Z</time>
</trkpt>
<trkpt lat="38.236263" lon="-1.1077523">
<ele>555</ele>
<time>2013-06-02T19:56:59Z</time>
</trkpt>
<trkpt lat="38.23623" lon="-1.1077309">
<ele>556</ele>
<time>2013-06-02T19:57:00Z</time>
</trkpt>
<trkpt lat="38.236195" lon="-1.107704">
<ele>556</ele>
<time>2013-06-02T19:57:01Z</time>
</trkpt>
<trkpt lat="38.23621" lon="-1.1076719">
<ele>556</ele>
<time>2013-06-02T19:57:02Z</time>
</trkpt>
<trkpt lat="38.23621" lon="-1.107645">
<ele>556</ele>
<time>2013-06-02T19:57:03Z</time>
</trkpt>
<trkpt lat="38.236214" lon="-1.1076236">
<ele>555</ele>
<time>2013-06-02T19:57:04Z</time>
</trkpt>
<trkpt lat="38.236256" lon="-1.1075914">
<ele>556</ele>
<time>2013-06-02T19:57:05Z</time>
</trkpt>
<trkpt lat="38.2363" lon="-1.1075699">
<ele>556</ele>
<time>2013-06-02T19:57:06Z</time>
</trkpt>
<trkpt lat="38.2364" lon="-1.1075807">
<ele>556</ele>
<time>2013-06-02T19:57:07Z</time>
</trkpt>
<trkpt lat="38.236465" lon="-1.107586">
<ele>556</ele>
<time>2013-06-02T19:57:08Z</time>
</trkpt>
<trkpt lat="38.236656" lon="-1.1075431">
<ele>557</ele>
<time>2013-06-02T19:57:11Z</time>
</trkpt>
<trkpt lat="38.23671" lon="-1.1075217">
<ele>558</ele>
<time>2013-06-02T19:57:12Z</time>
</trkpt>
<trkpt lat="38.23675" lon="-1.1075002">
<ele>558</ele>
<time>2013-06-02T19:57:13Z</time>
</trkpt>
<trkpt lat="38.2368" lon="-1.1074841">
<ele>558</ele>
<time>2013-06-02T19:57:14Z</time>
</trkpt>
<trkpt lat="38.23683" lon="-1.1074519">
<ele>557</ele>
<time>2013-06-02T19:57:15Z</time>
</trkpt>
<trkpt lat="38.23688" lon="-1.1074144">
<ele>557</ele>
<time>2013-06-02T19:57:16Z</time>
</trkpt>
<trkpt lat="38.236923" lon="-1.1073607">
<ele>558</ele>
<time>2013-06-02T19:57:17Z</time>
</trkpt>
<trkpt lat="38.23696" lon="-1.1073232">
<ele>559</ele>
<time>2013-06-02T19:57:18Z</time>
</trkpt>
<trkpt lat="38.23699" lon="-1.1072963">
<ele>559</ele>
<time>2013-06-02T19:57:19Z</time>
</trkpt>
<trkpt lat="38.23699" lon="-1.1072642">
<ele>561</ele>
<time>2013-06-02T19:57:20Z</time>
</trkpt>
<trkpt lat="38.23699" lon="-1.1072212">
<ele>562</ele>
<time>2013-06-02T19:57:21Z</time>
</trkpt>
<trkpt lat="38.237007" lon="-1.1070979">
<ele>565</ele>
<time>2013-06-02T19:57:24Z</time>
</trkpt>
<trkpt lat="38.237007" lon="-1.1070871">
<ele>565</ele>
<time>2013-06-02T19:57:25Z</time>
</trkpt>
<trkpt lat="38.237" lon="-1.1070764">
<ele>565</ele>
<time>2013-06-02T19:57:26Z</time>
</trkpt>
<trkpt lat="38.236977" lon="-1.1070496">
<ele>566</ele>
<time>2013-06-02T19:57:27Z</time>
</trkpt>
<trkpt lat="38.236977" lon="-1.1070174">
<ele>566</ele>
<time>2013-06-02T19:57:28Z</time>
</trkpt>
<trkpt lat="38.23695" lon="-1.1069745">
<ele>566</ele>
<time>2013-06-02T19:57:29Z</time>
</trkpt>
<trkpt lat="38.23694" lon="-1.1069477">
<ele>566</ele>
<time>2013-06-02T19:57:30Z</time>
</trkpt>
<trkpt lat="38.236927" lon="-1.1069262">
<ele>566</ele>
<time>2013-06-02T19:57:31Z</time>
</trkpt>
<trkpt lat="38.23691" lon="-1.1069208">
<ele>566</ele>
<time>2013-06-02T19:57:32Z</time>
</trkpt>
<trkpt lat="38.23689" lon="-1.1069047">
<ele>566</ele>
<time>2013-06-02T19:57:33Z</time>
</trkpt>
<trkpt lat="38.236855" lon="-1.106894">
<ele>566</ele>
<time>2013-06-02T19:57:34Z</time>
</trkpt>
<trkpt lat="38.23673" lon="-1.1069047">
<ele>566</ele>
<time>2013-06-02T19:57:37Z</time>
</trkpt>
<trkpt lat="38.23666" lon="-1.1069316">
<ele>567</ele>
<time>2013-06-02T19:57:38Z</time>
</trkpt>
<trkpt lat="38.236595" lon="-1.1069852">
<ele>567</ele>
<time>2013-06-02T19:57:39Z</time>
</trkpt>
<trkpt lat="38.23651" lon="-1.1070764">
<ele>568</ele>
<time>2013-06-02T19:57:40Z</time>
</trkpt>
<trkpt lat="38.236423" lon="-1.1072159">
<ele>569</ele>
<time>2013-06-02T19:57:41Z</time>
</trkpt>
<trkpt lat="38.23636" lon="-1.1073768">
<ele>570</ele>
<time>2013-06-02T19:57:42Z</time>
</trkpt>
<trkpt lat="38.23629" lon="-1.1075217">
<ele>570</ele>
<time>2013-06-02T19:57:43Z</time>
</trkpt>
<trkpt lat="38.236267" lon="-1.1076719">
<ele>568</ele>
<time>2013-06-02T19:57:44Z</time>
</trkpt>
<trkpt lat="38.236248" lon="-1.1078113">
<ele>569</ele>
<time>2013-06-02T19:57:45Z</time>
</trkpt>
<trkpt lat="38.23621" lon="-1.1079508">
<ele>569</ele>
<time>2013-06-02T19:57:46Z</time>
</trkpt>
<trkpt lat="38.23617" lon="-1.1080849">
<ele>570</ele>
<time>2013-06-02T19:57:47Z</time>
</trkpt>
<trkpt lat="38.236023" lon="-1.1084121">
<ele>573</ele>
<time>2013-06-02T19:57:50Z</time>
</trkpt>
<trkpt lat="38.235962" lon="-1.1084872">
<ele>574</ele>
<time>2013-06-02T19:57:51Z</time>
</trkpt>
<trkpt lat="38.235905" lon="-1.1085516">
<ele>574</ele>
<time>2013-06-02T19:57:52Z</time>
</trkpt>
<trkpt lat="38.235844" lon="-1.1085945">
<ele>575</ele>
<time>2013-06-02T19:57:53Z</time>
</trkpt>
<trkpt lat="38.235798" lon="-1.1086214">
<ele>575</ele>
<time>2013-06-02T19:57:54Z</time>
</trkpt>
<trkpt lat="38.23575" lon="-1.1086321">
<ele>574</ele>
<time>2013-06-02T19:57:55Z</time>
</trkpt>
<trkpt lat="38.2357" lon="-1.1086267">
<ele>574</ele>
<time>2013-06-02T19:57:56Z</time>
</trkpt>
<trkpt lat="38.235657" lon="-1.1086053">
<ele>574</ele>
<time>2013-06-02T19:57:57Z</time>
</trkpt>
<trkpt lat="38.235634" lon="-1.1085784">
<ele>574</ele>
<time>2013-06-02T19:57:58Z</time>
</trkpt>
<trkpt lat="38.23563" lon="-1.1085677">
<ele>573</ele>
<time>2013-06-02T19:57:59Z</time>
</trkpt>
<trkpt lat="38.23564" lon="-1.1085516">
<ele>572</ele>
<time>2013-06-02T19:58:00Z</time>
</trkpt>
<trkpt lat="38.23578" lon="-1.1085141">
<ele>573</ele>
<time>2013-06-02T19:58:03Z</time>
</trkpt>
<trkpt lat="38.235832" lon="-1.1085087">
<ele>572</ele>
<time>2013-06-02T19:58:04Z</time>
</trkpt>
<trkpt lat="38.235886" lon="-1.1084819">
<ele>571</ele>
<time>2013-06-02T19:58:05Z</time>
</trkpt>
<trkpt lat="38.23594" lon="-1.1084712">
<ele>571</ele>
<time>2013-06-02T19:58:06Z</time>
</trkpt>
<trkpt lat="38.235996" lon="-1.1084497">
<ele>572</ele>
<time>2013-06-02T19:58:07Z</time>
</trkpt>
<trkpt lat="38.23605" lon="-1.108439">
<ele>572</ele>
<time>2013-06-02T19:58:08Z</time>
</trkpt>
<trkpt lat="38.236095" lon="-1.1084121">
<ele>572</ele>
<time>2013-06-02T19:58:09Z</time>
</trkpt>
<trkpt lat="38.236145" lon="-1.1083746">
<ele>571</ele>
<time>2013-06-02T19:58:10Z</time>
</trkpt>
<trkpt lat="38.236195" lon="-1.1083424">
<ele>572</ele>
<time>2013-06-02T19:58:11Z</time>
</trkpt>
<trkpt lat="38.236237" lon="-1.1083102">
<ele>572</ele>
<time>2013-06-02T19:58:12Z</time>
</trkpt>
<trkpt lat="38.23628" lon="-1.1082834">
<ele>572</ele>
<time>2013-06-02T19:58:13Z</time>
</trkpt>
<trkpt lat="38.236385" lon="-1.1081707">
<ele>574</ele>
<time>2013-06-02T19:58:16Z</time>
</trkpt>
<trkpt lat="38.236412" lon="-1.1081225">
<ele>575</ele>
<time>2013-06-02T19:58:17Z</time>
</trkpt>
<trkpt lat="38.23644" lon="-1.1080796">
<ele>575</ele>
<time>2013-06-02T19:58:18Z</time>
</trkpt>
<trkpt lat="38.23645" lon="-1.1080474">
<ele>576</ele>
<time>2013-06-02T19:58:19Z</time>
</trkpt>
<trkpt lat="38.236465" lon="-1.1080205">
<ele>577</ele>
<time>2013-06-02T19:58:20Z</time>
</trkpt>
<trkpt lat="38.236473" lon="-1.1079884">
<ele>578</ele>
<time>2013-06-02T19:58:21Z</time>
</trkpt>
<trkpt lat="38.236458" lon="-1.1079615">
<ele>578</ele>
<time>2013-06-02T19:58:22Z</time>
</trkpt>
<trkpt lat="38.23644" lon="-1.1079401">
<ele>577</ele>
<time>2013-06-02T19:58:23Z</time>
</trkpt>
<trkpt lat="38.23641" lon="-1.107924">
<ele>577</ele>
<time>2013-06-02T19:58:24Z</time>
</trkpt>
<trkpt lat="38.236374" lon="-1.1079133">
<ele>577</ele>
<time>2013-06-02T19:58:25Z</time>
</trkpt>
<trkpt lat="38.23633" lon="-1.107924">
<ele>578</ele>
<time>2013-06-02T19:58:26Z</time>
</trkpt>
<trkpt lat="38.23607" lon="-1.1080635">
<ele>579</ele>
<time>2013-06-02T19:58:29Z</time>
</trkpt>
<trkpt lat="38.236004" lon="-1.1081761">
<ele>579</ele>
<time>2013-06-02T19:58:30Z</time>
</trkpt>
<trkpt lat="38.235977" lon="-1.1083639">
<ele>577</ele>
<time>2013-06-02T19:58:31Z</time>
</trkpt>
<trkpt lat="38.235962" lon="-1.1085355">
<ele>577</ele>
<time>2013-06-02T19:58:32Z</time>
</trkpt>
<trkpt lat="38.23596" lon="-1.1087233">
<ele>577</ele>
<time>2013-06-02T19:58:33Z</time>
</trkpt>
<trkpt lat="38.23594" lon="-1.1088628">
<ele>578</ele>
<time>2013-06-02T19:58:34Z</time>
</trkpt>
<trkpt lat="38.23591" lon="-1.1089969">
<ele>578</ele>
<time>2013-06-02T19:58:35Z</time>
</trkpt>
<trkpt lat="38.235878" lon="-1.1091256">
<ele>577</ele>
<time>2013-06-02T19:58:36Z</time>
</trkpt>
<trkpt lat="38.23584" lon="-1.1092544">
<ele>577</ele>
<time>2013-06-02T19:58:37Z</time>
</trkpt>
<trkpt lat="38.23579" lon="-1.1093831">
<ele>577</ele>
<time>2013-06-02T19:58:38Z</time>
</trkpt>
<trkpt lat="38.235752" lon="-1.1095119">
<ele>578</ele>
<time>2013-06-02T19:58:39Z</time>
</trkpt>
<trkpt lat="38.235653" lon="-1.1099142">
<ele>577</ele>
<time>2013-06-02T19:58:42Z</time>
</trkpt>
<trkpt lat="38.23563" lon="-1.1100483">
<ele>577</ele>
<time>2013-06-02T19:58:43Z</time>
</trkpt>
<trkpt lat="38.235588" lon="-1.110177">
<ele>577</ele>
<time>2013-06-02T19:58:44Z</time>
</trkpt>
<trkpt lat="38.235554" lon="-1.110295">
<ele>578</ele>
<time>2013-06-02T19:58:45Z</time>
</trkpt>
<trkpt lat="38.23551" lon="-1.1104023">
<ele>578</ele>
<time>2013-06-02T19:58:46Z</time>
</trkpt>
<trkpt lat="38.235443" lon="-1.1104828">
<ele>578</ele>
<time>2013-06-02T19:58:47Z</time>
</trkpt>
<trkpt lat="38.23539" lon="-1.1105525">
<ele>578</ele>
<time>2013-06-02T19:58:48Z</time>
</trkpt>
<trkpt lat="38.235325" lon="-1.1105847">
<ele>578</ele>
<time>2013-06-02T19:58:49Z</time>
</trkpt>
<trkpt lat="38.23525" lon="-1.1105633">
<ele>578</ele>
<time>2013-06-02T19:58:50Z</time>
</trkpt>
<trkpt lat="38.235264" lon="-1.1104989">
<ele>578</ele>
<time>2013-06-02T19:58:51Z</time>
</trkpt>
<trkpt lat="38.235336" lon="-1.1103541">
<ele>578</ele>
<time>2013-06-02T19:58:52Z</time>
</trkpt>
<trkpt lat="38.235382" lon="-1.1102146">
<ele>578</ele>
<time>2013-06-02T19:58:55Z</time>
</trkpt>
<trkpt lat="38.235428" lon="-1.110161">
<ele>578</ele>
<time>2013-06-02T19:58:56Z</time>
</trkpt>
<trkpt lat="38.235443" lon="-1.1101127">
<ele>577</ele>
<time>2013-06-02T19:58:57Z</time>
</trkpt>
<trkpt lat="38.23547" lon="-1.1100644">
<ele>577</ele>
<time>2013-06-02T19:58:58Z</time>
</trkpt>
<trkpt lat="38.235474" lon="-1.1100322">
<ele>577</ele>
<time>2013-06-02T19:58:59Z</time>
</trkpt>
<trkpt lat="38.23549" lon="-1.11">
<ele>577</ele>
<time>2013-06-02T19:59:00Z</time>
</trkpt>
<trkpt lat="38.235516" lon="-1.1099732">
<ele>576</ele>
<time>2013-06-02T19:59:01Z</time>
</trkpt>
<trkpt lat="38.23555" lon="-1.1099464">
<ele>576</ele>
<time>2013-06-02T19:59:02Z</time>
</trkpt>
<trkpt lat="38.23558" lon="-1.1099035">
<ele>576</ele>
<time>2013-06-02T19:59:03Z</time>
</trkpt>
<trkpt lat="38.235626" lon="-1.1098498">
<ele>576</ele>
<time>2013-06-02T19:59:04Z</time>
</trkpt>
<trkpt lat="38.23564" lon="-1.1098176">
<ele>576</ele>
<time>2013-06-02T19:59:05Z</time>
</trkpt>
<trkpt lat="38.235683" lon="-1.109764">
<ele>578</ele>
<time>2013-06-02T19:59:08Z</time>
</trkpt>
<trkpt lat="38.235695" lon="-1.1097264">
<ele>578</ele>
<time>2013-06-02T19:59:09Z</time>
</trkpt>
<trkpt lat="38.2357" lon="-1.1096996">
<ele>578</ele>
<time>2013-06-02T19:59:10Z</time>
</trkpt>
<trkpt lat="38.23572" lon="-1.109646">
<ele>578</ele>
<time>2013-06-02T19:59:11Z</time>
</trkpt>
<trkpt lat="38.23575" lon="-1.1096084">
<ele>578</ele>
<time>2013-06-02T19:59:12Z</time>
</trkpt>
<trkpt lat="38.23577" lon="-1.109603">
<ele>579</ele>
<time>2013-06-02T19:59:13Z</time>
</trkpt>
<trkpt lat="38.235786" lon="-1.1095548">
<ele>578</ele>
<time>2013-06-02T19:59:14Z</time>
</trkpt>
<trkpt lat="38.235806" lon="-1.1095065">
<ele>578</ele>
<time>2013-06-02T19:59:15Z</time>
</trkpt>
<trkpt lat="38.235806" lon="-1.1094475">
<ele>579</ele>
<time>2013-06-02T19:59:16Z</time>
</trkpt>
<trkpt lat="38.235813" lon="-1.1093992">
<ele>580</ele>
<time>2013-06-02T19:59:17Z</time>
</trkpt>
<trkpt lat="38.235817" lon="-1.109367">
<ele>580</ele>
<time>2013-06-02T19:59:18Z</time>
</trkpt>
<trkpt lat="38.235893" lon="-1.1092758">
<ele>581</ele>
<time>2013-06-02T19:59:21Z</time>
</trkpt>
<trkpt lat="38.235912" lon="-1.1092383">
<ele>581</ele>
<time>2013-06-02T19:59:22Z</time>
</trkpt>
<trkpt lat="38.235935" lon="-1.1092007">
<ele>581</ele>
<time>2013-06-02T19:59:23Z</time>
</trkpt>
<trkpt lat="38.23596" lon="-1.1091685">
<ele>581</ele>
<time>2013-06-02T19:59:24Z</time>
</trkpt>
<trkpt lat="38.23593" lon="-1.1091042">
<ele>581</ele>
<time>2013-06-02T19:59:25Z</time>
</trkpt>
<trkpt lat="38.235935" lon="-1.1090612">
<ele>581</ele>
<time>2013-06-02T19:59:26Z</time>
</trkpt>
<trkpt lat="38.23595" lon="-1.1090237">
<ele>583</ele>
<time>2013-06-02T19:59:27Z</time>
</trkpt>
<trkpt lat="38.235962" lon="-1.1089915">
<ele>584</ele>
<time>2013-06-02T19:59:28Z</time>
</trkpt>
<trkpt lat="38.235985" lon="-1.1089432">
<ele>584</ele>
<time>2013-06-02T19:59:29Z</time>
</trkpt>
<trkpt lat="38.236004" lon="-1.1089057">
<ele>585</ele>
<time>2013-06-02T19:59:30Z</time>
</trkpt>
<trkpt lat="38.236023" lon="-1.1088735">
<ele>586</ele>
<time>2013-06-02T19:59:31Z</time>
</trkpt>
<trkpt lat="38.23607" lon="-1.1087501">
<ele>588</ele>
<time>2013-06-02T19:59:34Z</time>
</trkpt>
<trkpt lat="38.23608" lon="-1.1086965">
<ele>589</ele>
<time>2013-06-02T19:59:35Z</time>
</trkpt>
<trkpt lat="38.23612" lon="-1.1086482">
<ele>589</ele>
<time>2013-06-02T19:59:36Z</time>
</trkpt>
<trkpt lat="38.236145" lon="-1.1085892">
<ele>590</ele>
<time>2013-06-02T19:59:37Z</time>
</trkpt>
<trkpt lat="38.236176" lon="-1.1085463">
<ele>592</ele>
<time>2013-06-02T19:59:38Z</time>
</trkpt>
<trkpt lat="38.236214" lon="-1.1085087">
<ele>593</ele>
<time>2013-06-02T19:59:39Z</time>
</trkpt>
<trkpt lat="38.236248" lon="-1.1084712">
<ele>593</ele>
<time>2013-06-02T19:59:40Z</time>
</trkpt>
<trkpt lat="38.23628" lon="-1.1084282">
<ele>593</ele>
<time>2013-06-02T19:59:41Z</time>
</trkpt>
<trkpt lat="38.236305" lon="-1.108396">
<ele>594</ele>
<time>2013-06-02T19:59:42Z</time>
</trkpt>
<trkpt lat="38.23633" lon="-1.1083424">
<ele>594</ele>
<time>2013-06-02T19:59:43Z</time>
</trkpt>
<trkpt lat="38.236355" lon="-1.1082941">
<ele>594</ele>
<time>2013-06-02T19:59:44Z</time>
</trkpt>
<trkpt lat="38.236393" lon="-1.10816">
<ele>593</ele>
<time>2013-06-02T19:59:47Z</time>
</trkpt>
<trkpt lat="38.236397" lon="-1.1081171">
<ele>593</ele>
<time>2013-06-02T19:59:48Z</time>
</trkpt>
<trkpt lat="38.2364" lon="-1.1080796">
<ele>594</ele>
<time>2013-06-02T19:59:49Z</time>
</trkpt>
<trkpt lat="38.236412" lon="-1.1080474">
<ele>594</ele>
<time>2013-06-02T19:59:50Z</time>
</trkpt>
<trkpt lat="38.236423" lon="-1.1080045">
<ele>594</ele>
<time>2013-06-02T19:59:51Z</time>
</trkpt>
<trkpt lat="38.23642" lon="-1.1079401">
<ele>596</ele>
<time>2013-06-02T19:59:52Z</time>
</trkpt>
<trkpt lat="38.236423" lon="-1.1078811">
<ele>597</ele>
<time>2013-06-02T19:59:53Z</time>
</trkpt>
<trkpt lat="38.236423" lon="-1.1078274">
<ele>598</ele>
<time>2013-06-02T19:59:54Z</time>
</trkpt>
<trkpt lat="38.23642" lon="-1.107763">
<ele>599</ele>
<time>2013-06-02T19:59:55Z</time>
</trkpt>
<trkpt lat="38.236435" lon="-1.1077309">
<ele>600</ele>
<time>2013-06-02T19:59:56Z</time>
</trkpt>
<trkpt lat="38.236435" lon="-1.1076826">
<ele>600</ele>
<time>2013-06-02T19:59:57Z</time>
</trkpt>
<trkpt lat="38.2364" lon="-1.1075163">
<ele>595</ele>
<time>2013-06-02T20:00:00Z</time>
</trkpt>
<trkpt lat="38.236385" lon="-1.107468">
<ele>595</ele>
<time>2013-06-02T20:00:01Z</time>
</trkpt>
<trkpt lat="38.23636" lon="-1.1074251">
<ele>595</ele>
<time>2013-06-02T20:00:02Z</time>
</trkpt>
<trkpt lat="38.23634" lon="-1.1073875">
<ele>594</ele>
<time>2013-06-02T20:00:03Z</time>
</trkpt>
<trkpt lat="38.236317" lon="-1.1073554">
<ele>594</ele>
<time>2013-06-02T20:00:04Z</time>
</trkpt>
<trkpt lat="38.236282" lon="-1.1073339">
<ele>594</ele>
<time>2013-06-02T20:00:05Z</time>
</trkpt>
<trkpt lat="38.23617" lon="-1.1073983">
<ele>596</ele>
<time>2013-06-02T20:00:06Z</time>
</trkpt>
<trkpt lat="38.23607" lon="-1.1074734">
<ele>597</ele>
<time>2013-06-02T20:00:07Z</time>
</trkpt>
<trkpt lat="38.235985" lon="-1.1076021">
<ele>596</ele>
<time>2013-06-02T20:00:08Z</time>
</trkpt>
<trkpt lat="38.235912" lon="-1.1077738">
<ele>594</ele>
<time>2013-06-02T20:00:09Z</time>
</trkpt>
<trkpt lat="38.235867" lon="-1.1079133">
<ele>593</ele>
<time>2013-06-02T20:00:10Z</time>
</trkpt>
<trkpt lat="38.235962" lon="-1.1082834">
<ele>592</ele>
<time>2013-06-02T20:00:13Z</time>
</trkpt>
<trkpt lat="38.23605" lon="-1.108396">
<ele>592</ele>
<time>2013-06-02T20:00:14Z</time>
</trkpt>
<trkpt lat="38.236122" lon="-1.1084765">
<ele>591</ele>
<time>2013-06-02T20:00:15Z</time>
</trkpt>
<trkpt lat="38.236156" lon="-1.1085409">
<ele>590</ele>
<time>2013-06-02T20:00:16Z</time>
</trkpt>
<trkpt lat="38.236263" lon="-1.1085302">
<ele>590</ele>
<time>2013-06-02T20:00:17Z</time>
</trkpt>
<trkpt lat="38.236397" lon="-1.1085194">
<ele>591</ele>
<time>2013-06-02T20:00:18Z</time>
</trkpt>
<trkpt lat="38.23646" lon="-1.108498">
<ele>591</ele>
<time>2013-06-02T20:00:19Z</time>
</trkpt>
<trkpt lat="38.23649" lon="-1.10838">
<ele>592</ele>
<time>2013-06-02T20:00:20Z</time>
</trkpt>
<trkpt lat="38.236546" lon="-1.108278">
<ele>592</ele>
<time>2013-06-02T20:00:21Z</time>
</trkpt>
<trkpt lat="38.236572" lon="-1.1081815">
<ele>593</ele>
<time>2013-06-02T20:00:22Z</time>
</trkpt>
<trkpt lat="38.2366" lon="-1.1081117">
<ele>594</ele>
<time>2013-06-02T20:00:23Z</time>
</trkpt>
<trkpt lat="38.23665" lon="-1.1079615">
<ele>595</ele>
<time>2013-06-02T20:00:26Z</time>
</trkpt>
<trkpt lat="38.236675" lon="-1.1079079">
<ele>595</ele>
<time>2013-06-02T20:00:27Z</time>
</trkpt>
<trkpt lat="38.23671" lon="-1.1078542">
<ele>595</ele>
<time>2013-06-02T20:00:28Z</time>
</trkpt>
<trkpt lat="38.23671" lon="-1.1077791">
<ele>597</ele>
<time>2013-06-02T20:00:29Z</time>
</trkpt>
<trkpt lat="38.23673" lon="-1.1077255">
<ele>597</ele>
<time>2013-06-02T20:00:30Z</time>
</trkpt>
<trkpt lat="38.236736" lon="-1.1076826">
<ele>597</ele>
<time>2013-06-02T20:00:31Z</time>
</trkpt>
<trkpt lat="38.236744" lon="-1.1076343">
<ele>598</ele>
<time>2013-06-02T20:00:32Z</time>
</trkpt>
<trkpt lat="38.23675" lon="-1.1075807">
<ele>598</ele>
<time>2013-06-02T20:00:33Z</time>
</trkpt>
<trkpt lat="38.23675" lon="-1.1075217">
<ele>599</ele>
<time>2013-06-02T20:00:34Z</time>
</trkpt>
<trkpt lat="38.236763" lon="-1.1074787">
<ele>601</ele>
<time>2013-06-02T20:00:35Z</time>
</trkpt>
<trkpt lat="38.236767" lon="-1.1074466">
<ele>601</ele>
<time>2013-06-02T20:00:36Z</time>
</trkpt>
<trkpt lat="38.236763" lon="-1.1073017">
<ele>604</ele>
<time>2013-06-02T20:00:39Z</time>
</trkpt>
<trkpt lat="38.23675" lon="-1.1072266">
<ele>604</ele>
<time>2013-06-02T20:00:40Z</time>
</trkpt>
<trkpt lat="38.236763" lon="-1.1071837">
<ele>605</ele>
<time>2013-06-02T20:00:41Z</time>
</trkpt>
<trkpt lat="38.236767" lon="-1.1071408">
<ele>605</ele>
<time>2013-06-02T20:00:42Z</time>
</trkpt>
<trkpt lat="38.23678" lon="-1.1071032">
<ele>605</ele>
<time>2013-06-02T20:00:43Z</time>
</trkpt>
<trkpt lat="38.23679" lon="-1.107055">
<ele>605</ele>
<time>2013-06-02T20:00:44Z</time>
</trkpt>
<trkpt lat="38.236794" lon="-1.1070013">
<ele>605</ele>
<time>2013-06-02T20:00:45Z</time>
</trkpt>
<trkpt lat="38.236794" lon="-1.1069262">
<ele>604</ele>
<time>2013-06-02T20:00:46Z</time>
</trkpt>
<trkpt lat="38.23679" lon="-1.1068565">
<ele>603</ele>
<time>2013-06-02T20:00:47Z</time>
</trkpt>
<trkpt lat="38.23679" lon="-1.1067975">
<ele>604</ele>
<time>2013-06-02T20:00:48Z</time>
</trkpt>
<trkpt lat="38.236794" lon="-1.1067438">
<ele>604</ele>
<time>2013-06-02T20:00:49Z</time>
</trkpt>
<trkpt lat="38.2368" lon="-1.1065775">
<ele>603</ele>
<time>2013-06-02T20:00:52Z</time>
</trkpt>
<trkpt lat="38.236794" lon="-1.1065078">
<ele>603</ele>
<time>2013-06-02T20:00:53Z</time>
</trkpt>
<trkpt lat="38.2368" lon="-1.1064649">
<ele>604</ele>
<time>2013-06-02T20:00:54Z</time>
</trkpt>
<trkpt lat="38.23679" lon="-1.106438">
<ele>604</ele>
<time>2013-06-02T20:00:55Z</time>
</trkpt>
<trkpt lat="38.236763" lon="-1.1064059">
<ele>603</ele>
<time>2013-06-02T20:00:56Z</time>
</trkpt>
<trkpt lat="38.236736" lon="-1.106379">
<ele>603</ele>
<time>2013-06-02T20:00:57Z</time>
</trkpt>
<trkpt lat="38.236702" lon="-1.1063629">
<ele>602</ele>
<time>2013-06-02T20:00:58Z</time>
</trkpt>
<trkpt lat="38.23665" lon="-1.1063522">
<ele>602</ele>
<time>2013-06-02T20:00:59Z</time>
</trkpt>
<trkpt lat="38.23659" lon="-1.1063522">
<ele>602</ele>
<time>2013-06-02T20:01:00Z</time>
</trkpt>
<trkpt lat="38.23652" lon="-1.1064112">
<ele>604</ele>
<time>2013-06-02T20:01:01Z</time>
</trkpt>
<trkpt lat="38.23646" lon="-1.106497">
<ele>604</ele>
<time>2013-06-02T20:01:02Z</time>
</trkpt>
<trkpt lat="38.236267" lon="-1.1069155">
<ele>604</ele>
<time>2013-06-02T20:01:05Z</time>
</trkpt>
<trkpt lat="38.236214" lon="-1.1070389">
<ele>602</ele>
<time>2013-06-02T20:01:06Z</time>
</trkpt>
<trkpt lat="38.236156" lon="-1.1071461">
<ele>602</ele>
<time>2013-06-02T20:01:07Z</time>
</trkpt>
<trkpt lat="38.23609" lon="-1.1072534">
<ele>601</ele>
<time>2013-06-02T20:01:08Z</time>
</trkpt>
<trkpt lat="38.236023" lon="-1.1073554">
<ele>601</ele>
<time>2013-06-02T20:01:09Z</time>
</trkpt>
<trkpt lat="38.235962" lon="-1.1074573">
<ele>601</ele>
<time>2013-06-02T20:01:10Z</time>
</trkpt>
<trkpt lat="38.235905" lon="-1.1075646">
<ele>601</ele>
<time>2013-06-02T20:01:11Z</time>
</trkpt>
<trkpt lat="38.23585" lon="-1.1076719">
<ele>601</ele>
<time>2013-06-02T20:01:12Z</time>
</trkpt>
<trkpt lat="38.2358" lon="-1.1077738">
<ele>600</ele>
<time>2013-06-02T20:01:13Z</time>
</trkpt>
<trkpt lat="38.235752" lon="-1.1078918">
<ele>599</ele>
<time>2013-06-02T20:01:14Z</time>
</trkpt>
<trkpt lat="38.235706" lon="-1.1079991">
<ele>599</ele>
<time>2013-06-02T20:01:15Z</time>
</trkpt>
<trkpt lat="38.235607" lon="-1.1083746">
<ele>598</ele>
<time>2013-06-02T20:01:18Z</time>
</trkpt>
<trkpt lat="38.23559" lon="-1.1085087">
<ele>598</ele>
<time>2013-06-02T20:01:19Z</time>
</trkpt>
<trkpt lat="38.235588" lon="-1.1086535">
<ele>596</ele>
<time>2013-06-02T20:01:20Z</time>
</trkpt>
<trkpt lat="38.23559" lon="-1.1087984">
<ele>596</ele>
<time>2013-06-02T20:01:21Z</time>
</trkpt>
<trkpt lat="38.235603" lon="-1.1089379">
<ele>597</ele>
<time>2013-06-02T20:01:22Z</time>
</trkpt>
<trkpt lat="38.23562" lon="-1.1090827">
<ele>597</ele>
<time>2013-06-02T20:01:23Z</time>
</trkpt>
<trkpt lat="38.235653" lon="-1.1092168">
<ele>597</ele>
<time>2013-06-02T20:01:24Z</time>
</trkpt>
<trkpt lat="38.235687" lon="-1.1093402">
<ele>598</ele>
<time>2013-06-02T20:01:25Z</time>
</trkpt>
<trkpt lat="38.23574" lon="-1.1094421">
<ele>598</ele>
<time>2013-06-02T20:01:26Z</time>
</trkpt>
<trkpt lat="38.2358" lon="-1.109544">
<ele>597</ele>
<time>2013-06-02T20:01:27Z</time>
</trkpt>
<trkpt lat="38.235844" lon="-1.1096245">
<ele>597</ele>
<time>2013-06-02T20:01:28Z</time>
</trkpt>
<trkpt lat="38.236015" lon="-1.1096084">
<ele>598</ele>
<time>2013-06-02T20:01:31Z</time>
</trkpt>
<trkpt lat="38.23604" lon="-1.109544">
<ele>598</ele>
<time>2013-06-02T20:01:32Z</time>
</trkpt>
<trkpt lat="38.23603" lon="-1.1094904">
<ele>598</ele>
<time>2013-06-02T20:01:33Z</time>
</trkpt>
<trkpt lat="38.23605" lon="-1.1094528">
<ele>599</ele>
<time>2013-06-02T20:01:34Z</time>
</trkpt>
<trkpt lat="38.236065" lon="-1.1094099">
<ele>599</ele>
<time>2013-06-02T20:01:35Z</time>
</trkpt>
<trkpt lat="38.236076" lon="-1.1093616">
<ele>599</ele>
<time>2013-06-02T20:01:36Z</time>
</trkpt>
<trkpt lat="38.23609" lon="-1.1093187">
<ele>599</ele>
<time>2013-06-02T20:01:37Z</time>
</trkpt>
<trkpt lat="38.236095" lon="-1.1092705">
<ele>599</ele>
<time>2013-06-02T20:01:38Z</time>
</trkpt>
<trkpt lat="38.236122" lon="-1.1092383">
<ele>599</ele>
<time>2013-06-02T20:01:39Z</time>
</trkpt>
<trkpt lat="38.236145" lon="-1.10919">
<ele>599</ele>
<time>2013-06-02T20:01:40Z</time>
</trkpt>
<trkpt lat="38.236145" lon="-1.1091417">
<ele>600</ele>
<time>2013-06-02T20:01:41Z</time>
</trkpt>
<trkpt lat="38.23617" lon="-1.1089915">
<ele>600</ele>
<time>2013-06-02T20:01:44Z</time>
</trkpt>
<trkpt lat="38.236176" lon="-1.1089432">
<ele>601</ele>
<time>2013-06-02T20:01:45Z</time>
</trkpt>
<trkpt lat="38.236183" lon="-1.1088896">
<ele>601</ele>
<time>2013-06-02T20:01:46Z</time>
</trkpt>
<trkpt lat="38.236176" lon="-1.108852">
<ele>603</ele>
<time>2013-06-02T20:01:47Z</time>
</trkpt>
<trkpt lat="38.23617" lon="-1.1088091">
<ele>603</ele>
<time>2013-06-02T20:01:48Z</time>
</trkpt>
<trkpt lat="38.23617" lon="-1.1087716">
<ele>604</ele>
<time>2013-06-02T20:01:49Z</time>
</trkpt>
<trkpt lat="38.23617" lon="-1.1087286">
<ele>604</ele>
<time>2013-06-02T20:01:50Z</time>
</trkpt>
<trkpt lat="38.23617" lon="-1.1086857">
<ele>604</ele>
<time>2013-06-02T20:01:51Z</time>
</trkpt>
<trkpt lat="38.236156" lon="-1.1086321">
<ele>603</ele>
<time>2013-06-02T20:01:52Z</time>
</trkpt>
<trkpt lat="38.23615" lon="-1.1085892">
<ele>603</ele>
<time>2013-06-02T20:01:53Z</time>
</trkpt>
<trkpt lat="38.236145" lon="-1.1085409">
<ele>603</ele>
<time>2013-06-02T20:01:54Z</time>
</trkpt>
<trkpt lat="38.23616" lon="-1.1083907">
<ele>602</ele>
<time>2013-06-02T20:01:57Z</time>
</trkpt>
<trkpt lat="38.236168" lon="-1.1083478">
<ele>603</ele>
<time>2013-06-02T20:01:58Z</time>
</trkpt>
<trkpt lat="38.236176" lon="-1.1083049">
<ele>603</ele>
<time>2013-06-02T20:01:59Z</time>
</trkpt>
<trkpt lat="38.236183" lon="-1.108262">
<ele>603</ele>
<time>2013-06-02T20:02:00Z</time>
</trkpt>
<trkpt lat="38.236195" lon="-1.108219">
<ele>603</ele>
<time>2013-06-02T20:02:01Z</time>
</trkpt>
<trkpt lat="38.236214" lon="-1.1081868">
<ele>604</ele>
<time>2013-06-02T20:02:02Z</time>
</trkpt>
<trkpt lat="38.236195" lon="-1.1081493">
<ele>602</ele>
<time>2013-06-02T20:02:03Z</time>
</trkpt>
<trkpt lat="38.236195" lon="-1.1081064">
<ele>602</ele>
<time>2013-06-02T20:02:04Z</time>
</trkpt>
<trkpt lat="38.236176" lon="-1.1080635">
<ele>603</ele>
<time>2013-06-02T20:02:05Z</time>
</trkpt>
<trkpt lat="38.236183" lon="-1.1080205">
<ele>603</ele>
<time>2013-06-02T20:02:06Z</time>
</trkpt>
<trkpt lat="38.236187" lon="-1.1079669">
<ele>602</ele>
<time>2013-06-02T20:02:07Z</time>
</trkpt>
<trkpt lat="38.236214" lon="-1.1078274">
<ele>602</ele>
<time>2013-06-02T20:02:10Z</time>
</trkpt>
<trkpt lat="38.23622" lon="-1.1077791">
<ele>603</ele>
<time>2013-06-02T20:02:11Z</time>
</trkpt>
<trkpt lat="38.23623" lon="-1.1077309">
<ele>604</ele>
<time>2013-06-02T20:02:12Z</time>
</trkpt>
<trkpt lat="38.236256" lon="-1.1076933">
<ele>604</ele>
<time>2013-06-02T20:02:13Z</time>
</trkpt>
<trkpt lat="38.236237" lon="-1.1076343">
<ele>602</ele>
<time>2013-06-02T20:02:14Z</time>
</trkpt>
<trkpt lat="38.23623" lon="-1.1075968">
<ele>601</ele>
<time>2013-06-02T20:02:15Z</time>
</trkpt>
<trkpt lat="38.23622" lon="-1.1075646">
<ele>600</ele>
<time>2013-06-02T20:02:16Z</time>
</trkpt>
<trkpt lat="38.2362" lon="-1.1075377">
<ele>599</ele>
<time>2013-06-02T20:02:17Z</time>
</trkpt>
<trkpt lat="38.23616" lon="-1.1075217">
<ele>599</ele>
<time>2013-06-02T20:02:18Z</time>
</trkpt>
<trkpt lat="38.236115" lon="-1.1075109">
<ele>599</ele>
<time>2013-06-02T20:02:19Z</time>
</trkpt>
<trkpt lat="38.236057" lon="-1.1075109">
<ele>599</ele>
<time>2013-06-02T20:02:20Z</time>
</trkpt>
<trkpt lat="38.235806" lon="-1.1076343">
<ele>598</ele>
<time>2013-06-02T20:02:23Z</time>
</trkpt>
<trkpt lat="38.23574" lon="-1.1077309">
<ele>598</ele>
<time>2013-06-02T20:02:24Z</time>
</trkpt>
<trkpt lat="38.235706" lon="-1.1078703">
<ele>598</ele>
<time>2013-06-02T20:02:25Z</time>
</trkpt>
<trkpt lat="38.23568" lon="-1.1081064">
<ele>597</ele>
<time>2013-06-02T20:02:26Z</time>
</trkpt>
<trkpt lat="38.23563" lon="-1.1083049">
<ele>594</ele>
<time>2013-06-02T20:02:27Z</time>
</trkpt>
<trkpt lat="38.235603" lon="-1.1084604">
<ele>594</ele>
<time>2013-06-02T20:02:28Z</time>
</trkpt>
<trkpt lat="38.235588" lon="-1.1086053">
<ele>593</ele>
<time>2013-06-02T20:02:29Z</time>
</trkpt>
<trkpt lat="38.235565" lon="-1.1087447">
<ele>593</ele>
<time>2013-06-02T20:02:30Z</time>
</trkpt>
<trkpt lat="38.235577" lon="-1.1089164">
<ele>593</ele>
<time>2013-06-02T20:02:31Z</time>
</trkpt>
<trkpt lat="38.23557" lon="-1.109072">
<ele>592</ele>
<time>2013-06-02T20:02:32Z</time>
</trkpt>
<trkpt lat="38.23556" lon="-1.1092275">
<ele>592</ele>
<time>2013-06-02T20:02:33Z</time>
</trkpt>
<trkpt lat="38.23554" lon="-1.1096513">
<ele>591</ele>
<time>2013-06-02T20:02:36Z</time>
</trkpt>
<trkpt lat="38.235535" lon="-1.1097962">
<ele>591</ele>
<time>2013-06-02T20:02:37Z</time>
</trkpt>
<trkpt lat="38.235527" lon="-1.1099249">
<ele>591</ele>
<time>2013-06-02T20:02:38Z</time>
</trkpt>
<trkpt lat="38.235508" lon="-1.110059">
<ele>592</ele>
<time>2013-06-02T20:02:39Z</time>
</trkpt>
<trkpt lat="38.23549" lon="-1.1101985">
<ele>592</ele>
<time>2013-06-02T20:02:40Z</time>
</trkpt>
<trkpt lat="38.235474" lon="-1.110338">
<ele>593</ele>
<time>2013-06-02T20:02:41Z</time>
</trkpt>
<trkpt lat="38.235447" lon="-1.1104828">
<ele>593</ele>
<time>2013-06-02T20:02:42Z</time>
</trkpt>
<trkpt lat="38.23542" lon="-1.1106169">
<ele>594</ele>
<time>2013-06-02T20:02:43Z</time>
</trkpt>
<trkpt lat="38.235382" lon="-1.1107457">
<ele>594</ele>
<time>2013-06-02T20:02:44Z</time>
</trkpt>
<trkpt lat="38.235313" lon="-1.110853">
<ele>594</ele>
<time>2013-06-02T20:02:45Z</time>
</trkpt>
<trkpt lat="38.23526" lon="-1.110971">
<ele>595</ele>
<time>2013-06-02T20:02:46Z</time>
</trkpt>
<trkpt lat="38.235027" lon="-1.1111319">
<ele>596</ele>
<time>2013-06-02T20:02:49Z</time>
</trkpt>
<trkpt lat="38.23498" lon="-1.1111212">
<ele>597</ele>
<time>2013-06-02T20:02:50Z</time>
</trkpt>
<trkpt lat="38.234943" lon="-1.1110675">
<ele>597</ele>
<time>2013-06-02T20:02:51Z</time>
</trkpt>
<trkpt lat="38.23492" lon="-1.1109978">
<ele>597</ele>
<time>2013-06-02T20:02:52Z</time>
</trkpt>
<trkpt lat="38.234882" lon="-1.1109442">
<ele>597</ele>
<time>2013-06-02T20:02:53Z</time>
</trkpt>
<trkpt lat="38.23489" lon="-1.1109066">
<ele>597</ele>
<time>2013-06-02T20:02:54Z</time>
</trkpt>
<trkpt lat="38.234882" lon="-1.110869">
<ele>598</ele>
<time>2013-06-02T20:02:55Z</time>
</trkpt>
<trkpt lat="38.234882" lon="-1.1108476">
<ele>599</ele>
<time>2013-06-02T20:02:56Z</time>
</trkpt>
<trkpt lat="38.23489" lon="-1.11081">
<ele>599</ele>
<time>2013-06-02T20:02:57Z</time>
</trkpt>
<trkpt lat="38.23489" lon="-1.1107779">
<ele>599</ele>
<time>2013-06-02T20:02:58Z</time>
</trkpt>
<trkpt lat="38.23488" lon="-1.1107242">
<ele>600</ele>
<time>2013-06-02T20:02:59Z</time>
</trkpt>
<trkpt lat="38.234882" lon="-1.1105794">
<ele>603</ele>
<time>2013-06-02T20:03:02Z</time>
</trkpt>
<trkpt lat="38.234875" lon="-1.1105472">
<ele>604</ele>
<time>2013-06-02T20:03:03Z</time>
</trkpt>
<trkpt lat="38.234867" lon="-1.110515">
<ele>604</ele>
<time>2013-06-02T20:03:04Z</time>
</trkpt>
<trkpt lat="38.234863" lon="-1.1104721">
<ele>603</ele>
<time>2013-06-02T20:03:05Z</time>
</trkpt>
<trkpt lat="38.234863" lon="-1.1104238">
<ele>604</ele>
<time>2013-06-02T20:03:06Z</time>
</trkpt>
<trkpt lat="38.234856" lon="-1.1103863">
<ele>604</ele>
<time>2013-06-02T20:03:07Z</time>
</trkpt>
<trkpt lat="38.23485" lon="-1.1103433">
<ele>604</ele>
<time>2013-06-02T20:03:08Z</time>
</trkpt>
<trkpt lat="38.23485" lon="-1.1102843">
<ele>604</ele>
<time>2013-06-02T20:03:09Z</time>
</trkpt>
<trkpt lat="38.234856" lon="-1.1102414">
<ele>605</ele>
<time>2013-06-02T20:03:10Z</time>
</trkpt>
<trkpt lat="38.23485" lon="-1.1101931">
<ele>605</ele>
<time>2013-06-02T20:03:11Z</time>
</trkpt>
<trkpt lat="38.234848" lon="-1.1101234">
<ele>606</ele>
<time>2013-06-02T20:03:12Z</time>
</trkpt>
<trkpt lat="38.23485" lon="-1.1099625">
<ele>609</ele>
<time>2013-06-02T20:03:15Z</time>
</trkpt>
<trkpt lat="38.234856" lon="-1.1099303">
<ele>608</ele>
<time>2013-06-02T20:03:16Z</time>
</trkpt>
<trkpt lat="38.234867" lon="-1.1098766">
<ele>609</ele>
<time>2013-06-02T20:03:17Z</time>
</trkpt>
<trkpt lat="38.234875" lon="-1.1098284">
<ele>609</ele>
<time>2013-06-02T20:03:18Z</time>
</trkpt>
<trkpt lat="38.234882" lon="-1.1097854">
<ele>608</ele>
<time>2013-06-02T20:03:19Z</time>
</trkpt>
<trkpt lat="38.2349" lon="-1.1097533">
<ele>608</ele>
<time>2013-06-02T20:03:20Z</time>
</trkpt>
<trkpt lat="38.234917" lon="-1.1097372">
<ele>608</ele>
<time>2013-06-02T20:03:21Z</time>
</trkpt>
<trkpt lat="38.234947" lon="-1.1097264">
<ele>610</ele>
<time>2013-06-02T20:03:22Z</time>
</trkpt>
<trkpt lat="38.23498" lon="-1.1096781">
<ele>609</ele>
<time>2013-06-02T20:03:23Z</time>
</trkpt>
<trkpt lat="38.23502" lon="-1.1096406">
<ele>610</ele>
<time>2013-06-02T20:03:24Z</time>
</trkpt>
<trkpt lat="38.235054" lon="-1.109587">
<ele>610</ele>
<time>2013-06-02T20:03:25Z</time>
</trkpt>
<trkpt lat="38.235126" lon="-1.1094689">
<ele>612</ele>
<time>2013-06-02T20:03:28Z</time>
</trkpt>
<trkpt lat="38.235153" lon="-1.1094421">
<ele>612</ele>
<time>2013-06-02T20:03:29Z</time>
</trkpt>
<trkpt lat="38.23518" lon="-1.1094207">
<ele>613</ele>
<time>2013-06-02T20:03:30Z</time>
</trkpt>
<trkpt lat="38.2352" lon="-1.1093724">
<ele>613</ele>
<time>2013-06-02T20:03:31Z</time>
</trkpt>
<trkpt lat="38.235218" lon="-1.1093241">
<ele>610</ele>
<time>2013-06-02T20:03:32Z</time>
</trkpt>
<trkpt lat="38.23525" lon="-1.1092705">
<ele>610</ele>
<time>2013-06-02T20:03:33Z</time>
</trkpt>
<trkpt lat="38.235275" lon="-1.1092168">
<ele>610</ele>
<time>2013-06-02T20:03:34Z</time>
</trkpt>
<trkpt lat="38.235302" lon="-1.1091632">
<ele>609</ele>
<time>2013-06-02T20:03:35Z</time>
</trkpt>
<trkpt lat="38.235336" lon="-1.1091042">
<ele>609</ele>
<time>2013-06-02T20:03:36Z</time>
</trkpt>
<trkpt lat="38.23537" lon="-1.1090451">
<ele>609</ele>
<time>2013-06-02T20:03:37Z</time>
</trkpt>
<trkpt lat="38.235397" lon="-1.1089915">
<ele>610</ele>
<time>2013-06-02T20:03:38Z</time>
</trkpt>
<trkpt lat="38.235485" lon="-1.1088198">
<ele>612</ele>
<time>2013-06-02T20:03:41Z</time>
</trkpt>
<trkpt lat="38.23551" lon="-1.1087555">
<ele>612</ele>
<time>2013-06-02T20:03:42Z</time>
</trkpt>
<trkpt lat="38.23555" lon="-1.1087018">
<ele>614</ele>
<time>2013-06-02T20:03:43Z</time>
</trkpt>
<trkpt lat="38.235565" lon="-1.1086643">
<ele>614</ele>
<time>2013-06-02T20:03:44Z</time>
</trkpt>
<trkpt lat="38.235588" lon="-1.1086267">
<ele>615</ele>
<time>2013-06-02T20:03:45Z</time>
</trkpt>
<trkpt lat="38.235607" lon="-1.1085141">
<ele>615</ele>
<time>2013-06-02T20:03:47Z</time>
</trkpt>
<trkpt lat="38.235645" lon="-1.108439">
<ele>616</ele>
<time>2013-06-02T20:03:48Z</time>
</trkpt>
<trkpt lat="38.235672" lon="-1.1083692">
<ele>616</ele>
<time>2013-06-02T20:03:49Z</time>
</trkpt>
<trkpt lat="38.235683" lon="-1.1083102">
<ele>617</ele>
<time>2013-06-02T20:03:50Z</time>
</trkpt>
<trkpt lat="38.235687" lon="-1.1082673">
<ele>617</ele>
<time>2013-06-02T20:03:51Z</time>
</trkpt>
<trkpt lat="38.235706" lon="-1.1082512">
<ele>617</ele>
<time>2013-06-02T20:03:52Z</time>
</trkpt>
<trkpt lat="38.235733" lon="-1.1080849">
<ele>618</ele>
<time>2013-06-02T20:03:55Z</time>
</trkpt>
<trkpt lat="38.23574" lon="-1.1080205">
<ele>619</ele>
<time>2013-06-02T20:03:56Z</time>
</trkpt>
<trkpt lat="38.23575" lon="-1.1079562">
<ele>619</ele>
<time>2013-06-02T20:03:57Z</time>
</trkpt>
<trkpt lat="38.235752" lon="-1.1078972">
<ele>619</ele>
<time>2013-06-02T20:03:58Z</time>
</trkpt>
<trkpt lat="38.235775" lon="-1.107865">
<ele>620</ele>
<time>2013-06-02T20:03:59Z</time>
</trkpt>
<trkpt lat="38.23578" lon="-1.1078221">
<ele>621</ele>
<time>2013-06-02T20:04:00Z</time>
</trkpt>
<trkpt lat="38.23579" lon="-1.1077684">
<ele>621</ele>
<time>2013-06-02T20:04:01Z</time>
</trkpt>
<trkpt lat="38.235798" lon="-1.1077094">
<ele>621</ele>
<time>2013-06-02T20:04:02Z</time>
</trkpt>
<trkpt lat="38.235798" lon="-1.1076504">
<ele>621</ele>
<time>2013-06-02T20:04:03Z</time>
</trkpt>
<trkpt lat="38.235798" lon="-1.1076021">
<ele>621</ele>
<time>2013-06-02T20:04:04Z</time>
</trkpt>
<trkpt lat="38.2358" lon="-1.1075538">
<ele>621</ele>
<time>2013-06-02T20:04:05Z</time>
</trkpt>
<trkpt lat="38.235813" lon="-1.1073929">
<ele>621</ele>
<time>2013-06-02T20:04:08Z</time>
</trkpt>
<trkpt lat="38.235817" lon="-1.10735">
<ele>621</ele>
<time>2013-06-02T20:04:09Z</time>
</trkpt>
<trkpt lat="38.235825" lon="-1.1072963">
<ele>621</ele>
<time>2013-06-02T20:04:10Z</time>
</trkpt>
<trkpt lat="38.23583" lon="-1.1072481">
<ele>621</ele>
<time>2013-06-02T20:04:11Z</time>
</trkpt>
<trkpt lat="38.23584" lon="-1.1071998">
<ele>621</ele>
<time>2013-06-02T20:04:12Z</time>
</trkpt>
<trkpt lat="38.23584" lon="-1.1071408">
<ele>622</ele>
<time>2013-06-02T20:04:13Z</time>
</trkpt>
<trkpt lat="38.235855" lon="-1.1071032">
<ele>622</ele>
<time>2013-06-02T20:04:14Z</time>
</trkpt>
<trkpt lat="38.235878" lon="-1.107055">
<ele>623</ele>
<time>2013-06-02T20:04:15Z</time>
</trkpt>
<trkpt lat="38.235893" lon="-1.1069959">
<ele>623</ele>
<time>2013-06-02T20:04:16Z</time>
</trkpt>
<trkpt lat="38.235905" lon="-1.106953">
<ele>623</ele>
<time>2013-06-02T20:04:17Z</time>
</trkpt>
<trkpt lat="38.23591" lon="-1.1069047">
<ele>623</ele>
<time>2013-06-02T20:04:18Z</time>
</trkpt>
<trkpt lat="38.235935" lon="-1.1067224">
<ele>621</ele>
<time>2013-06-02T20:04:21Z</time>
</trkpt>
<trkpt lat="38.235947" lon="-1.106658">
<ele>620</ele>
<time>2013-06-02T20:04:22Z</time>
</trkpt>
<trkpt lat="38.235962" lon="-1.106599">
<ele>620</ele>
<time>2013-06-02T20:04:23Z</time>
</trkpt>
<trkpt lat="38.235973" lon="-1.1065453">
<ele>620</ele>
<time>2013-06-02T20:04:24Z</time>
</trkpt>
<trkpt lat="38.235996" lon="-1.1065024">
<ele>621</ele>
<time>2013-06-02T20:04:25Z</time>
</trkpt>
<trkpt lat="38.23601" lon="-1.1064541">
<ele>620</ele>
<time>2013-06-02T20:04:26Z</time>
</trkpt>
<trkpt lat="38.23604" lon="-1.1064112">
<ele>621</ele>
<time>2013-06-02T20:04:27Z</time>
</trkpt>
<trkpt lat="38.23605" lon="-1.1063415">
<ele>620</ele>
<time>2013-06-02T20:04:28Z</time>
</trkpt>
<trkpt lat="38.236065" lon="-1.1062664">
<ele>620</ele>
<time>2013-06-02T20:04:29Z</time>
</trkpt>
<trkpt lat="38.23607" lon="-1.1061913">
<ele>621</ele>
<time>2013-06-02T20:04:30Z</time>
</trkpt>
<trkpt lat="38.23607" lon="-1.1061323">
<ele>621</ele>
<time>2013-06-02T20:04:31Z</time>
</trkpt>
<trkpt lat="38.236103" lon="-1.105966">
<ele>621</ele>
<time>2013-06-02T20:04:34Z</time>
</trkpt>
<trkpt lat="38.23612" lon="-1.1059016">
<ele>621</ele>
<time>2013-06-02T20:04:35Z</time>
</trkpt>
<trkpt lat="38.23614" lon="-1.1058372">
<ele>621</ele>
<time>2013-06-02T20:04:36Z</time>
</trkpt>
<trkpt lat="38.23613" lon="-1.1057729">
<ele>620</ele>
<time>2013-06-02T20:04:37Z</time>
</trkpt>
<trkpt lat="38.23614" lon="-1.1057192">
<ele>619</ele>
<time>2013-06-02T20:04:38Z</time>
</trkpt>
<trkpt lat="38.236156" lon="-1.1056548">
<ele>619</ele>
<time>2013-06-02T20:04:39Z</time>
</trkpt>
<trkpt lat="38.23617" lon="-1.1055851">
<ele>619</ele>
<time>2013-06-02T20:04:40Z</time>
</trkpt>
<trkpt lat="38.2362" lon="-1.10551">
<ele>619</ele>
<time>2013-06-02T20:04:41Z</time>
</trkpt>
<trkpt lat="38.236202" lon="-1.1054403">
<ele>619</ele>
<time>2013-06-02T20:04:42Z</time>
</trkpt>
<trkpt lat="38.23621" lon="-1.1053544">
<ele>620</ele>
<time>2013-06-02T20:04:43Z</time>
</trkpt>
<trkpt lat="38.236225" lon="-1.1053061">
<ele>620</ele>
<time>2013-06-02T20:04:44Z</time>
</trkpt>
<trkpt lat="38.236256" lon="-1.1051291">
<ele>621</ele>
<time>2013-06-02T20:04:47Z</time>
</trkpt>
<trkpt lat="38.236275" lon="-1.1050594">
<ele>620</ele>
<time>2013-06-02T20:04:48Z</time>
</trkpt>
<trkpt lat="38.23629" lon="-1.104995">
<ele>620</ele>
<time>2013-06-02T20:04:49Z</time>
</trkpt>
<trkpt lat="38.23629" lon="-1.1049145">
<ele>620</ele>
<time>2013-06-02T20:04:50Z</time>
</trkpt>
<trkpt lat="38.23629" lon="-1.1048394">
<ele>621</ele>
<time>2013-06-02T20:04:51Z</time>
</trkpt>
<trkpt lat="38.236305" lon="-1.1047751">
<ele>621</ele>
<time>2013-06-02T20:04:52Z</time>
</trkpt>
<trkpt lat="38.236317" lon="-1.1047053">
<ele>621</ele>
<time>2013-06-02T20:04:53Z</time>
</trkpt>
<trkpt lat="38.236332" lon="-1.1046302">
<ele>621</ele>
<time>2013-06-02T20:04:54Z</time>
</trkpt>
<trkpt lat="38.236343" lon="-1.1045551">
<ele>621</ele>
<time>2013-06-02T20:04:55Z</time>
</trkpt>
<trkpt lat="38.236366" lon="-1.1045069">
<ele>621</ele>
<time>2013-06-02T20:04:56Z</time>
</trkpt>
<trkpt lat="38.236385" lon="-1.1044371">
<ele>622</ele>
<time>2013-06-02T20:04:57Z</time>
</trkpt>
<trkpt lat="38.236427" lon="-1.1042386">
<ele>622</ele>
<time>2013-06-02T20:05:00Z</time>
</trkpt>
<trkpt lat="38.236435" lon="-1.104185">
<ele>622</ele>
<time>2013-06-02T20:05:01Z</time>
</trkpt>
<trkpt lat="38.23644" lon="-1.1041206">
<ele>622</ele>
<time>2013-06-02T20:05:02Z</time>
</trkpt>
<trkpt lat="38.236435" lon="-1.104067">
<ele>622</ele>
<time>2013-06-02T20:05:03Z</time>
</trkpt>
<trkpt lat="38.23644" lon="-1.104008">
<ele>622</ele>
<time>2013-06-02T20:05:04Z</time>
</trkpt>
<trkpt lat="38.236458" lon="-1.1039436">
<ele>622</ele>
<time>2013-06-02T20:05:05Z</time>
</trkpt>
<trkpt lat="38.236465" lon="-1.1038953">
<ele>621</ele>
<time>2013-06-02T20:05:06Z</time>
</trkpt>
<trkpt lat="38.23646" lon="-1.1038363">
<ele>622</ele>
<time>2013-06-02T20:05:07Z</time>
</trkpt>
<trkpt lat="38.236477" lon="-1.103788">
<ele>622</ele>
<time>2013-06-02T20:05:08Z</time>
</trkpt>
<trkpt lat="38.23649" lon="-1.1037344">
<ele>622</ele>
<time>2013-06-02T20:05:09Z</time>
</trkpt>
<trkpt lat="38.2365" lon="-1.10367">
<ele>622</ele>
<time>2013-06-02T20:05:10Z</time>
</trkpt>
<trkpt lat="38.236515" lon="-1.1034662">
<ele>620</ele>
<time>2013-06-02T20:05:13Z</time>
</trkpt>
<trkpt lat="38.23651" lon="-1.103391">
<ele>619</ele>
<time>2013-06-02T20:05:14Z</time>
</trkpt>
<trkpt lat="38.236515" lon="-1.1033213">
<ele>619</ele>
<time>2013-06-02T20:05:15Z</time>
</trkpt>
<trkpt lat="38.23653" lon="-1.1032516">
<ele>619</ele>
<time>2013-06-02T20:05:16Z</time>
</trkpt>
<trkpt lat="38.236553" lon="-1.1031926">
<ele>617</ele>
<time>2013-06-02T20:05:17Z</time>
</trkpt>
<trkpt lat="38.236557" lon="-1.1031175">
<ele>617</ele>
<time>2013-06-02T20:05:18Z</time>
</trkpt>
<trkpt lat="38.236553" lon="-1.1030531">
<ele>616</ele>
<time>2013-06-02T20:05:19Z</time>
</trkpt>
<trkpt lat="38.236553" lon="-1.1029941">
<ele>616</ele>
<time>2013-06-02T20:05:20Z</time>
</trkpt>
<trkpt lat="38.236553" lon="-1.1029351">
<ele>616</ele>
<time>2013-06-02T20:05:21Z</time>
</trkpt>
<trkpt lat="38.236546" lon="-1.1028439">
<ele>615</ele>
<time>2013-06-02T20:05:22Z</time>
</trkpt>
<trkpt lat="38.236553" lon="-1.1027741">
<ele>613</ele>
<time>2013-06-02T20:05:23Z</time>
</trkpt>
<trkpt lat="38.23658" lon="-1.1025488">
<ele>612</ele>
<time>2013-06-02T20:05:26Z</time>
</trkpt>
<trkpt lat="38.23659" lon="-1.1024898">
<ele>613</ele>
<time>2013-06-02T20:05:27Z</time>
</trkpt>
<trkpt lat="38.236595" lon="-1.1024255">
<ele>612</ele>
<time>2013-06-02T20:05:28Z</time>
</trkpt>
<trkpt lat="38.2366" lon="-1.1023557">
<ele>611</ele>
<time>2013-06-02T20:05:29Z</time>
</trkpt>
<trkpt lat="38.23661" lon="-1.1022806">
<ele>611</ele>
<time>2013-06-02T20:05:30Z</time>
</trkpt>
<trkpt lat="38.236637" lon="-1.1022109">
<ele>612</ele>
<time>2013-06-02T20:05:31Z</time>
</trkpt>
<trkpt lat="38.236656" lon="-1.1021465">
<ele>609</ele>
<time>2013-06-02T20:05:32Z</time>
</trkpt>
<trkpt lat="38.236675" lon="-1.1020714">
<ele>609</ele>
<time>2013-06-02T20:05:33Z</time>
</trkpt>
<trkpt lat="38.23669" lon="-1.1019963">
<ele>609</ele>
<time>2013-06-02T20:05:34Z</time>
</trkpt>
<trkpt lat="38.2367" lon="-1.1019212">
<ele>608</ele>
<time>2013-06-02T20:05:35Z</time>
</trkpt>
<trkpt lat="38.236713" lon="-1.1018461">
<ele>608</ele>
<time>2013-06-02T20:05:36Z</time>
</trkpt>
<trkpt lat="38.236744" lon="-1.1016798">
<ele>610</ele>
<time>2013-06-02T20:05:39Z</time>
</trkpt>
<trkpt lat="38.23675" lon="-1.1016154">
<ele>609</ele>
<time>2013-06-02T20:05:40Z</time>
</trkpt>
<trkpt lat="38.236755" lon="-1.1015564">
<ele>608</ele>
<time>2013-06-02T20:05:41Z</time>
</trkpt>
<trkpt lat="38.236755" lon="-1.1014974">
<ele>608</ele>
<time>2013-06-02T20:05:42Z</time>
</trkpt>
<trkpt lat="38.236763" lon="-1.1014223">
<ele>608</ele>
<time>2013-06-02T20:05:43Z</time>
</trkpt>
<trkpt lat="38.23677" lon="-1.101374">
<ele>607</ele>
<time>2013-06-02T20:05:44Z</time>
</trkpt>
<trkpt lat="38.23679" lon="-1.1013365">
<ele>608</ele>
<time>2013-06-02T20:05:45Z</time>
</trkpt>
<trkpt lat="38.23681" lon="-1.1012775">
<ele>607</ele>
<time>2013-06-02T20:05:46Z</time>
</trkpt>
<trkpt lat="38.23681" lon="-1.1012024">
<ele>605</ele>
<time>2013-06-02T20:05:47Z</time>
</trkpt>
<trkpt lat="38.236828" lon="-1.1011273">
<ele>604</ele>
<time>2013-06-02T20:05:48Z</time>
</trkpt>
<trkpt lat="38.236847" lon="-1.1010575">
<ele>604</ele>
<time>2013-06-02T20:05:49Z</time>
</trkpt>
<trkpt lat="38.2369" lon="-1.1008912">
<ele>601</ele>
<time>2013-06-02T20:05:52Z</time>
</trkpt>
<trkpt lat="38.23691" lon="-1.1008269">
<ele>600</ele>
<time>2013-06-02T20:05:53Z</time>
</trkpt>
<trkpt lat="38.236935" lon="-1.1007571">
<ele>600</ele>
<time>2013-06-02T20:05:54Z</time>
</trkpt>
<trkpt lat="38.23696" lon="-1.100682">
<ele>599</ele>
<time>2013-06-02T20:05:55Z</time>
</trkpt>
<trkpt lat="38.236988" lon="-1.1006123">
<ele>599</ele>
<time>2013-06-02T20:05:56Z</time>
</trkpt>
<trkpt lat="38.237" lon="-1.1005586">
<ele>599</ele>
<time>2013-06-02T20:05:57Z</time>
</trkpt>
<trkpt lat="38.237007" lon="-1.1004996">
<ele>599</ele>
<time>2013-06-02T20:05:58Z</time>
</trkpt>
<trkpt lat="38.23702" lon="-1.1004514">
<ele>599</ele>
<time>2013-06-02T20:05:59Z</time>
</trkpt>
<trkpt lat="38.23703" lon="-1.1003923">
<ele>598</ele>
<time>2013-06-02T20:06:00Z</time>
</trkpt>
<trkpt lat="38.237034" lon="-1.1003387">
<ele>597</ele>
<time>2013-06-02T20:06:01Z</time>
</trkpt>
<trkpt lat="38.237053" lon="-1.1002797">
<ele>597</ele>
<time>2013-06-02T20:06:02Z</time>
</trkpt>
<trkpt lat="38.237106" lon="-1.1001295">
<ele>597</ele>
<time>2013-06-02T20:06:05Z</time>
</trkpt>
<trkpt lat="38.23711" lon="-1.1000866">
<ele>596</ele>
<time>2013-06-02T20:06:06Z</time>
</trkpt>
<trkpt lat="38.237125" lon="-1.1000276">
<ele>596</ele>
<time>2013-06-02T20:06:07Z</time>
</trkpt>
<trkpt lat="38.237137" lon="-1.0999686">
<ele>596</ele>
<time>2013-06-02T20:06:08Z</time>
</trkpt>
<trkpt lat="38.237144" lon="-1.0999149">
<ele>596</ele>
<time>2013-06-02T20:06:09Z</time>
</trkpt>
<trkpt lat="38.237152" lon="-1.099872">
<ele>596</ele>
<time>2013-06-02T20:06:10Z</time>
</trkpt>
<trkpt lat="38.23716" lon="-1.0998076">
<ele>594</ele>
<time>2013-06-02T20:06:11Z</time>
</trkpt>
<trkpt lat="38.237164" lon="-1.0997272">
<ele>592</ele>
<time>2013-06-02T20:06:12Z</time>
</trkpt>
<trkpt lat="38.23717" lon="-1.0996681">
<ele>590</ele>
<time>2013-06-02T20:06:13Z</time>
</trkpt>
<trkpt lat="38.23719" lon="-1.0996038">
<ele>589</ele>
<time>2013-06-02T20:06:14Z</time>
</trkpt>
<trkpt lat="38.237217" lon="-1.0995448">
<ele>588</ele>
<time>2013-06-02T20:06:15Z</time>
</trkpt>
<trkpt lat="38.237244" lon="-1.0993999">
<ele>586</ele>
<time>2013-06-02T20:06:18Z</time>
</trkpt>
<trkpt lat="38.23724" lon="-1.0993463">
<ele>585</ele>
<time>2013-06-02T20:06:19Z</time>
</trkpt>
<trkpt lat="38.237244" lon="-1.0992926">
<ele>585</ele>
<time>2013-06-02T20:06:20Z</time>
</trkpt>
<trkpt lat="38.237255" lon="-1.0992283">
<ele>584</ele>
<time>2013-06-02T20:06:21Z</time>
</trkpt>
<trkpt lat="38.237278" lon="-1.0991853">
<ele>584</ele>
<time>2013-06-02T20:06:22Z</time>
</trkpt>
<trkpt lat="38.23728" lon="-1.0991532">
<ele>583</ele>
<time>2013-06-02T20:06:23Z</time>
</trkpt>
<trkpt lat="38.237286" lon="-1.0991102">
<ele>583</ele>
<time>2013-06-02T20:06:24Z</time>
</trkpt>
<trkpt lat="38.23728" lon="-1.0990566">
<ele>582</ele>
<time>2013-06-02T20:06:25Z</time>
</trkpt>
<trkpt lat="38.237293" lon="-1.0989922">
<ele>581</ele>
<time>2013-06-02T20:06:26Z</time>
</trkpt>
<trkpt lat="38.237297" lon="-1.0989386">
<ele>581</ele>
<time>2013-06-02T20:06:27Z</time>
</trkpt>
<trkpt lat="38.237305" lon="-1.0988796">
<ele>581</ele>
<time>2013-06-02T20:06:28Z</time>
</trkpt>
<trkpt lat="38.237286" lon="-1.0987401">
<ele>582</ele>
<time>2013-06-02T20:06:31Z</time>
</trkpt>
<trkpt lat="38.237286" lon="-1.0986865">
<ele>582</ele>
<time>2013-06-02T20:06:32Z</time>
</trkpt>
<trkpt lat="38.23727" lon="-1.0986221">
<ele>580</ele>
<time>2013-06-02T20:06:33Z</time>
</trkpt>
<trkpt lat="38.23728" lon="-1.0985631">
<ele>580</ele>
<time>2013-06-02T20:06:34Z</time>
</trkpt>
<trkpt lat="38.23731" lon="-1.0985255">
<ele>577</ele>
<time>2013-06-02T20:06:35Z</time>
</trkpt>
<trkpt lat="38.23733" lon="-1.098488">
<ele>575</ele>
<time>2013-06-02T20:06:36Z</time>
</trkpt>
<trkpt lat="38.237362" lon="-1.0984397">
<ele>574</ele>
<time>2013-06-02T20:06:37Z</time>
</trkpt>
<trkpt lat="38.23739" lon="-1.0984075">
<ele>574</ele>
<time>2013-06-02T20:06:38Z</time>
</trkpt>
<trkpt lat="38.237404" lon="-1.0983539">
<ele>572</ele>
<time>2013-06-02T20:06:39Z</time>
</trkpt>
<trkpt lat="38.237415" lon="-1.0982841">
<ele>571</ele>
<time>2013-06-02T20:06:40Z</time>
</trkpt>
<trkpt lat="38.23744" lon="-1.0982251">
<ele>571</ele>
<time>2013-06-02T20:06:41Z</time>
</trkpt>
<trkpt lat="38.237457" lon="-1.0980803">
<ele>568</ele>
<time>2013-06-02T20:06:44Z</time>
</trkpt>
<trkpt lat="38.237465" lon="-1.0980374">
<ele>566</ele>
<time>2013-06-02T20:06:45Z</time>
</trkpt>
<trkpt lat="38.237476" lon="-1.0979998">
<ele>566</ele>
<time>2013-06-02T20:06:46Z</time>
</trkpt>
<trkpt lat="38.237488" lon="-1.0979676">
<ele>565</ele>
<time>2013-06-02T20:06:47Z</time>
</trkpt>
<trkpt lat="38.23749" lon="-1.0979193">
<ele>566</ele>
<time>2013-06-02T20:06:48Z</time>
</trkpt>
<trkpt lat="38.237495" lon="-1.0978764">
<ele>565</ele>
<time>2013-06-02T20:06:49Z</time>
</trkpt>
<trkpt lat="38.237507" lon="-1.0978067">
<ele>564</ele>
<time>2013-06-02T20:06:50Z</time>
</trkpt>
<trkpt lat="38.237514" lon="-1.097737">
<ele>563</ele>
<time>2013-06-02T20:06:51Z</time>
</trkpt>
<trkpt lat="38.23752" lon="-1.0976887">
<ele>561</ele>
<time>2013-06-02T20:06:52Z</time>
</trkpt>
<trkpt lat="38.23753" lon="-1.0976458">
<ele>561</ele>
<time>2013-06-02T20:06:53Z</time>
</trkpt>
<trkpt lat="38.23755" lon="-1.0975921">
<ele>561</ele>
<time>2013-06-02T20:06:54Z</time>
</trkpt>
<trkpt lat="38.23755" lon="-1.0974741">
<ele>558</ele>
<time>2013-06-02T20:06:57Z</time>
</trkpt>
<trkpt lat="38.237583" lon="-1.0974312">
<ele>557</ele>
<time>2013-06-02T20:06:58Z</time>
</trkpt>
<trkpt lat="38.237614" lon="-1.0973775">
<ele>556</ele>
<time>2013-06-02T20:06:59Z</time>
</trkpt>
<trkpt lat="38.23763" lon="-1.0973293">
<ele>555</ele>
<time>2013-06-02T20:07:00Z</time>
</trkpt>
<trkpt lat="38.237637" lon="-1.097281">
<ele>553</ele>
<time>2013-06-02T20:07:01Z</time>
</trkpt>
<trkpt lat="38.237648" lon="-1.097222">
<ele>552</ele>
<time>2013-06-02T20:07:02Z</time>
</trkpt>
<trkpt lat="38.23765" lon="-1.0971683">
<ele>551</ele>
<time>2013-06-02T20:07:03Z</time>
</trkpt>
<trkpt lat="38.237656" lon="-1.0970986">
<ele>550</ele>
<time>2013-06-02T20:07:04Z</time>
</trkpt>
<trkpt lat="38.23768" lon="-1.097045">
<ele>549</ele>
<time>2013-06-02T20:07:05Z</time>
</trkpt>
<trkpt lat="38.237686" lon="-1.0969913">
<ele>549</ele>
<time>2013-06-02T20:07:06Z</time>
</trkpt>
<trkpt lat="38.23769" lon="-1.096943">
<ele>549</ele>
<time>2013-06-02T20:07:07Z</time>
</trkpt>
<trkpt lat="38.2377" lon="-1.0967821">
<ele>546</ele>
<time>2013-06-02T20:07:10Z</time>
</trkpt>
<trkpt lat="38.237705" lon="-1.0967284">
<ele>545</ele>
<time>2013-06-02T20:07:11Z</time>
</trkpt>
<trkpt lat="38.237717" lon="-1.0966694">
<ele>545</ele>
<time>2013-06-02T20:07:12Z</time>
</trkpt>
<trkpt lat="38.23772" lon="-1.0966372">
<ele>545</ele>
<time>2013-06-02T20:07:13Z</time>
</trkpt>
<trkpt lat="38.23773" lon="-1.0965997">
<ele>544</ele>
<time>2013-06-02T20:07:14Z</time>
</trkpt>
<trkpt lat="38.237732" lon="-1.0965675">
<ele>542</ele>
<time>2013-06-02T20:07:15Z</time>
</trkpt>
<trkpt lat="38.237743" lon="-1.0965353">
<ele>540</ele>
<time>2013-06-02T20:07:16Z</time>
</trkpt>
<trkpt lat="38.237747" lon="-1.0964978">
<ele>539</ele>
<time>2013-06-02T20:07:17Z</time>
</trkpt>
<trkpt lat="38.23777" lon="-1.0964388">
<ele>539</ele>
<time>2013-06-02T20:07:18Z</time>
</trkpt>
<trkpt lat="38.237785" lon="-1.0964012">
<ele>538</ele>
<time>2013-06-02T20:07:19Z</time>
</trkpt>
<trkpt lat="38.237797" lon="-1.0963583">
<ele>539</ele>
<time>2013-06-02T20:07:20Z</time>
</trkpt>
<trkpt lat="38.237812" lon="-1.0962349">
<ele>539</ele>
<time>2013-06-02T20:07:23Z</time>
</trkpt>
<trkpt lat="38.237823" lon="-1.096192">
<ele>538</ele>
<time>2013-06-02T20:07:24Z</time>
</trkpt>
<trkpt lat="38.237835" lon="-1.0961545">
<ele>538</ele>
<time>2013-06-02T20:07:25Z</time>
</trkpt>
<trkpt lat="38.237877" lon="-1.0961169">
<ele>538</ele>
<time>2013-06-02T20:07:26Z</time>
</trkpt>
<trkpt lat="38.23789" lon="-1.096074">
<ele>536</ele>
<time>2013-06-02T20:07:27Z</time>
</trkpt>
<trkpt lat="38.23791" lon="-1.0960311">
<ele>536</ele>
<time>2013-06-02T20:07:28Z</time>
</trkpt>
<trkpt lat="38.237926" lon="-1.0959828">
<ele>535</ele>
<time>2013-06-02T20:07:29Z</time>
</trkpt>
<trkpt lat="38.23794" lon="-1.0959399">
<ele>534</ele>
<time>2013-06-02T20:07:30Z</time>
</trkpt>
<trkpt lat="38.237965" lon="-1.0959023">
<ele>534</ele>
<time>2013-06-02T20:07:31Z</time>
</trkpt>
<trkpt lat="38.237984" lon="-1.095854">
<ele>534</ele>
<time>2013-06-02T20:07:32Z</time>
</trkpt>
<trkpt lat="38.23799" lon="-1.0958165">
<ele>534</ele>
<time>2013-06-02T20:07:33Z</time>
</trkpt>
<trkpt lat="38.238007" lon="-1.0957092">
<ele>533</ele>
<time>2013-06-02T20:07:36Z</time>
</trkpt>
<trkpt lat="38.23803" lon="-1.0956663">
<ele>533</ele>
<time>2013-06-02T20:07:37Z</time>
</trkpt>
<trkpt lat="38.238075" lon="-1.0956073">
<ele>532</ele>
<time>2013-06-02T20:07:38Z</time>
</trkpt>
<trkpt lat="38.238113" lon="-1.0955429">
<ele>532</ele>
<time>2013-06-02T20:07:39Z</time>
</trkpt>
<trkpt lat="38.238125" lon="-1.0955107">
<ele>532</ele>
<time>2013-06-02T20:07:40Z</time>
</trkpt>
<trkpt lat="38.238136" lon="-1.0954785">
<ele>532</ele>
<time>2013-06-02T20:07:41Z</time>
</trkpt>
<trkpt lat="38.23813" lon="-1.0954517">
<ele>532</ele>
<time>2013-06-02T20:07:42Z</time>
</trkpt>
<trkpt lat="38.23813" lon="-1.0954195">
<ele>531</ele>
<time>2013-06-02T20:07:43Z</time>
</trkpt>
<trkpt lat="38.238136" lon="-1.095382">
<ele>531</ele>
<time>2013-06-02T20:07:44Z</time>
</trkpt>
<trkpt lat="38.238144" lon="-1.0953391">
<ele>531</ele>
<time>2013-06-02T20:07:45Z</time>
</trkpt>
<trkpt lat="38.238155" lon="-1.0952854">
<ele>532</ele>
<time>2013-06-02T20:07:46Z</time>
</trkpt>
<trkpt lat="38.23819" lon="-1.0951674">
<ele>531</ele>
<time>2013-06-02T20:07:49Z</time>
</trkpt>
<trkpt lat="38.238182" lon="-1.0951245">
<ele>530</ele>
<time>2013-06-02T20:07:50Z</time>
</trkpt>
<trkpt lat="38.23818" lon="-1.0950708">
<ele>529</ele>
<time>2013-06-02T20:07:51Z</time>
</trkpt>
<trkpt lat="38.238182" lon="-1.0950279">
<ele>529</ele>
<time>2013-06-02T20:07:52Z</time>
</trkpt>
<trkpt lat="38.238194" lon="-1.0950011">
<ele>528</ele>
<time>2013-06-02T20:07:53Z</time>
</trkpt>
<trkpt lat="38.23822" lon="-1.0949904">
<ele>526</ele>
<time>2013-06-02T20:07:54Z</time>
</trkpt>
<trkpt lat="38.23821" lon="-1.0949689">
<ele>525</ele>
<time>2013-06-02T20:07:55Z</time>
</trkpt>
<trkpt lat="38.2382" lon="-1.0949421">
<ele>525</ele>
<time>2013-06-02T20:07:56Z</time>
</trkpt>
<trkpt lat="38.238216" lon="-1.0948831">
<ele>523</ele>
<time>2013-06-02T20:07:57Z</time>
</trkpt>
<trkpt lat="38.2382" lon="-1.0948241">
<ele>520</ele>
<time>2013-06-02T20:07:58Z</time>
</trkpt>
<trkpt lat="38.2382" lon="-1.0947758">
<ele>520</ele>
<time>2013-06-02T20:07:59Z</time>
</trkpt>
<trkpt lat="38.23823" lon="-1.0946256">
<ele>519</ele>
<time>2013-06-02T20:08:02Z</time>
</trkpt>
<trkpt lat="38.238243" lon="-1.0945827">
<ele>519</ele>
<time>2013-06-02T20:08:03Z</time>
</trkpt>
<trkpt lat="38.238262" lon="-1.094529">
<ele>519</ele>
<time>2013-06-02T20:08:04Z</time>
</trkpt>
<trkpt lat="38.23828" lon="-1.0944647">
<ele>518</ele>
<time>2013-06-02T20:08:05Z</time>
</trkpt>
<trkpt lat="38.238297" lon="-1.0944271">
<ele>518</ele>
<time>2013-06-02T20:08:06Z</time>
</trkpt>
<trkpt lat="38.238323" lon="-1.094411">
<ele>519</ele>
<time>2013-06-02T20:08:07Z</time>
</trkpt>
<trkpt lat="38.238354" lon="-1.0943949">
<ele>519</ele>
<time>2013-06-02T20:08:08Z</time>
</trkpt>
<trkpt lat="38.238354" lon="-1.0943681">
<ele>519</ele>
<time>2013-06-02T20:08:09Z</time>
</trkpt>
<trkpt lat="38.23836" lon="-1.0943305">
<ele>517</ele>
<time>2013-06-02T20:08:10Z</time>
</trkpt>
<trkpt lat="38.238365" lon="-1.0942984">
<ele>516</ele>
<time>2013-06-02T20:08:11Z</time>
</trkpt>
<trkpt lat="38.238373" lon="-1.0942662">
<ele>515</ele>
<time>2013-06-02T20:08:12Z</time>
</trkpt>
<trkpt lat="38.238434" lon="-1.0940892">
<ele>513</ele>
<time>2013-06-02T20:08:16Z</time>
</trkpt>
<trkpt lat="38.238445" lon="-1.0940462">
<ele>513</ele>
<time>2013-06-02T20:08:17Z</time>
</trkpt>
<trkpt lat="38.238453" lon="-1.0940033">
<ele>513</ele>
<time>2013-06-02T20:08:18Z</time>
</trkpt>
<trkpt lat="38.238445" lon="-1.0939497">
<ele>512</ele>
<time>2013-06-02T20:08:19Z</time>
</trkpt>
<trkpt lat="38.23847" lon="-1.0939014">
<ele>512</ele>
<time>2013-06-02T20:08:20Z</time>
</trkpt>
<trkpt lat="38.238487" lon="-1.0938531">
<ele>513</ele>
<time>2013-06-02T20:08:21Z</time>
</trkpt>
<trkpt lat="38.2385" lon="-1.0938102">
<ele>511</ele>
<time>2013-06-02T20:08:22Z</time>
</trkpt>
<trkpt lat="38.23852" lon="-1.093778">
<ele>510</ele>
<time>2013-06-02T20:08:23Z</time>
</trkpt>
<trkpt lat="38.238533" lon="-1.0937244">
<ele>507</ele>
<time>2013-06-02T20:08:24Z</time>
</trkpt>
<trkpt lat="38.238544" lon="-1.0936707">
<ele>507</ele>
<time>2013-06-02T20:08:25Z</time>
</trkpt>
<trkpt lat="38.238537" lon="-1.0936224">
<ele>505</ele>
<time>2013-06-02T20:08:26Z</time>
</trkpt>
<trkpt lat="38.23857" lon="-1.0934722">
<ele>499</ele>
<time>2013-06-02T20:08:29Z</time>
</trkpt>
<trkpt lat="38.238575" lon="-1.0934132">
<ele>499</ele>
<time>2013-06-02T20:08:30Z</time>
</trkpt>
<trkpt lat="38.23859" lon="-1.0933489">
<ele>499</ele>
<time>2013-06-02T20:08:31Z</time>
</trkpt>
<trkpt lat="38.2386" lon="-1.093306">
<ele>498</ele>
<time>2013-06-02T20:08:32Z</time>
</trkpt>
<trkpt lat="38.2386" lon="-1.093263">
<ele>498</ele>
<time>2013-06-02T20:08:33Z</time>
</trkpt>
<trkpt lat="38.2386" lon="-1.0932201">
<ele>498</ele>
<time>2013-06-02T20:08:34Z</time>
</trkpt>
<trkpt lat="38.238613" lon="-1.093204">
<ele>497</ele>
<time>2013-06-02T20:08:35Z</time>
</trkpt>
<trkpt lat="38.23864" lon="-1.093204">
<ele>496</ele>
<time>2013-06-02T20:08:36Z</time>
</trkpt>
<trkpt lat="38.238655" lon="-1.0931879">
<ele>496</ele>
<time>2013-06-02T20:08:37Z</time>
</trkpt>
<trkpt lat="38.238667" lon="-1.0931611">
<ele>495</ele>
<time>2013-06-02T20:08:38Z</time>
</trkpt>
<trkpt lat="38.238667" lon="-1.0931236">
<ele>494</ele>
<time>2013-06-02T20:08:39Z</time>
</trkpt>
<trkpt lat="38.23868" lon="-1.0930109">
<ele>492</ele>
<time>2013-06-02T20:08:42Z</time>
</trkpt>
<trkpt lat="38.238697" lon="-1.0929626">
<ele>492</ele>
<time>2013-06-02T20:08:43Z</time>
</trkpt>
<trkpt lat="38.238716" lon="-1.0929304">
<ele>490</ele>
<time>2013-06-02T20:08:44Z</time>
</trkpt>
<trkpt lat="38.238716" lon="-1.0928875">
<ele>487</ele>
<time>2013-06-02T20:08:45Z</time>
</trkpt>
<trkpt lat="38.238724" lon="-1.0928339">
<ele>484</ele>
<time>2013-06-02T20:08:46Z</time>
</trkpt>
<trkpt lat="38.23873" lon="-1.0927856">
<ele>482</ele>
<time>2013-06-02T20:08:47Z</time>
</trkpt>
<trkpt lat="38.238747" lon="-1.092732">
<ele>480</ele>
<time>2013-06-02T20:08:48Z</time>
</trkpt>
<trkpt lat="38.23877" lon="-1.092673">
<ele>480</ele>
<time>2013-06-02T20:08:49Z</time>
</trkpt>
<trkpt lat="38.238796" lon="-1.0926139">
<ele>480</ele>
<time>2013-06-02T20:08:50Z</time>
</trkpt>
<trkpt lat="38.238815" lon="-1.0925657">
<ele>480</ele>
<time>2013-06-02T20:08:51Z</time>
</trkpt>
<trkpt lat="38.23884" lon="-1.0925066">
<ele>480</ele>
<time>2013-06-02T20:08:52Z</time>
</trkpt>
<trkpt lat="38.238876" lon="-1.0923725">
<ele>479</ele>
<time>2013-06-02T20:08:55Z</time>
</trkpt>
<trkpt lat="38.238895" lon="-1.0923243">
<ele>479</ele>
<time>2013-06-02T20:08:56Z</time>
</trkpt>
<trkpt lat="38.23892" lon="-1.0922867">
<ele>479</ele>
<time>2013-06-02T20:08:57Z</time>
</trkpt>
<trkpt lat="38.238945" lon="-1.0922492">
<ele>479</ele>
<time>2013-06-02T20:08:58Z</time>
</trkpt>
<trkpt lat="38.23896" lon="-1.092217">
<ele>479</ele>
<time>2013-06-02T20:08:59Z</time>
</trkpt>
<trkpt lat="38.238976" lon="-1.0921794">
<ele>479</ele>
<time>2013-06-02T20:09:00Z</time>
</trkpt>
<trkpt lat="38.238987" lon="-1.0921258">
<ele>476</ele>
<time>2013-06-02T20:09:01Z</time>
</trkpt>
<trkpt lat="38.239002" lon="-1.0920829">
<ele>474</ele>
<time>2013-06-02T20:09:02Z</time>
</trkpt>
<trkpt lat="38.23902" lon="-1.0920453">
<ele>472</ele>
<time>2013-06-02T20:09:03Z</time>
</trkpt>
<trkpt lat="38.239037" lon="-1.0920024">
<ele>471</ele>
<time>2013-06-02T20:09:04Z</time>
</trkpt>
<trkpt lat="38.239063" lon="-1.0919648">
<ele>472</ele>
<time>2013-06-02T20:09:05Z</time>
</trkpt>
<trkpt lat="38.239132" lon="-1.0917985">
<ele>473</ele>
<time>2013-06-02T20:09:09Z</time>
</trkpt>
<trkpt lat="38.239147" lon="-1.091761">
<ele>473</ele>
<time>2013-06-02T20:09:10Z</time>
</trkpt>
<trkpt lat="38.239166" lon="-1.0917234">
<ele>473</ele>
<time>2013-06-02T20:09:11Z</time>
</trkpt>
<trkpt lat="38.239174" lon="-1.0916805">
<ele>472</ele>
<time>2013-06-02T20:09:12Z</time>
</trkpt>
<trkpt lat="38.23918" lon="-1.0916483">
<ele>472</ele>
<time>2013-06-02T20:09:13Z</time>
</trkpt>
<trkpt lat="38.239204" lon="-1.0916162">
<ele>473</ele>
<time>2013-06-02T20:09:14Z</time>
</trkpt>
<trkpt lat="38.23921" lon="-1.0915786">
<ele>473</ele>
<time>2013-06-02T20:09:15Z</time>
</trkpt>
<trkpt lat="38.23923" lon="-1.0915464">
<ele>473</ele>
<time>2013-06-02T20:09:16Z</time>
</trkpt>
<trkpt lat="38.239246" lon="-1.0915089">
<ele>473</ele>
<time>2013-06-02T20:09:17Z</time>
</trkpt>
<trkpt lat="38.23926" lon="-1.0914713">
<ele>472</ele>
<time>2013-06-02T20:09:18Z</time>
</trkpt>
<trkpt lat="38.239285" lon="-1.0914284">
<ele>472</ele>
<time>2013-06-02T20:09:19Z</time>
</trkpt>
<trkpt lat="38.239357" lon="-1.0913211">
<ele>471</ele>
<time>2013-06-02T20:09:22Z</time>
</trkpt>
<trkpt lat="38.23938" lon="-1.0912889">
<ele>471</ele>
<time>2013-06-02T20:09:23Z</time>
</trkpt>
<trkpt lat="38.239407" lon="-1.0912514">
<ele>471</ele>
<time>2013-06-02T20:09:24Z</time>
</trkpt>
<trkpt lat="38.23942" lon="-1.0912085">
<ele>471</ele>
<time>2013-06-02T20:09:25Z</time>
</trkpt>
<trkpt lat="38.239445" lon="-1.0911816">
<ele>471</ele>
<time>2013-06-02T20:09:26Z</time>
</trkpt>
<trkpt lat="38.23947" lon="-1.0911548">
<ele>472</ele>
<time>2013-06-02T20:09:27Z</time>
</trkpt>
<trkpt lat="38.23949" lon="-1.0911226">
<ele>472</ele>
<time>2013-06-02T20:09:28Z</time>
</trkpt>
<trkpt lat="38.239513" lon="-1.0910851">
<ele>472</ele>
<time>2013-06-02T20:09:29Z</time>
</trkpt>
<trkpt lat="38.239525" lon="-1.0910529">
<ele>473</ele>
<time>2013-06-02T20:09:30Z</time>
</trkpt>
<trkpt lat="38.239567" lon="-1.0910207">
<ele>472</ele>
<time>2013-06-02T20:09:31Z</time>
</trkpt>
<trkpt lat="38.23959" lon="-1.0909885">
<ele>472</ele>
<time>2013-06-02T20:09:32Z</time>
</trkpt>
<trkpt lat="38.239605" lon="-1.0908544">
<ele>472</ele>
<time>2013-06-02T20:09:35Z</time>
</trkpt>
<trkpt lat="38.23962" lon="-1.0908222">
<ele>472</ele>
<time>2013-06-02T20:09:36Z</time>
</trkpt>
<trkpt lat="38.239643" lon="-1.09079">
<ele>473</ele>
<time>2013-06-02T20:09:37Z</time>
</trkpt>
<trkpt lat="38.239662" lon="-1.0907578">
<ele>473</ele>
<time>2013-06-02T20:09:38Z</time>
</trkpt>
<trkpt lat="38.23968" lon="-1.0907203">
<ele>472</ele>
<time>2013-06-02T20:09:39Z</time>
</trkpt>
<trkpt lat="38.23969" lon="-1.0906935">
<ele>473</ele>
<time>2013-06-02T20:09:40Z</time>
</trkpt>
<trkpt lat="38.2397" lon="-1.0906613">
<ele>474</ele>
<time>2013-06-02T20:09:41Z</time>
</trkpt>
<trkpt lat="38.23971" lon="-1.0906237">
<ele>474</ele>
<time>2013-06-02T20:09:42Z</time>
</trkpt>
<trkpt lat="38.239727" lon="-1.0905915">
<ele>474</ele>
<time>2013-06-02T20:09:43Z</time>
</trkpt>
<trkpt lat="38.239754" lon="-1.0905647">
<ele>475</ele>
<time>2013-06-02T20:09:44Z</time>
</trkpt>
<trkpt lat="38.239777" lon="-1.0905325">
<ele>475</ele>
<time>2013-06-02T20:09:45Z</time>
</trkpt>
<trkpt lat="38.239834" lon="-1.0904253">
<ele>478</ele>
<time>2013-06-02T20:09:48Z</time>
</trkpt>
<trkpt lat="38.239853" lon="-1.0903823">
<ele>479</ele>
<time>2013-06-02T20:09:49Z</time>
</trkpt>
<trkpt lat="38.239872" lon="-1.0903448">
<ele>480</ele>
<time>2013-06-02T20:09:50Z</time>
</trkpt>
<trkpt lat="38.239895" lon="-1.0903019">
<ele>480</ele>
<time>2013-06-02T20:09:51Z</time>
</trkpt>
<trkpt lat="38.23991" lon="-1.0902643">
<ele>480</ele>
<time>2013-06-02T20:09:52Z</time>
</trkpt>
<trkpt lat="38.239933" lon="-1.0902214">
<ele>479</ele>
<time>2013-06-02T20:09:53Z</time>
</trkpt>
<trkpt lat="38.239964" lon="-1.0901731">
<ele>478</ele>
<time>2013-06-02T20:09:54Z</time>
</trkpt>
<trkpt lat="38.239998" lon="-1.0901302">
<ele>478</ele>
<time>2013-06-02T20:09:55Z</time>
</trkpt>
<trkpt lat="38.24003" lon="-1.0901034">
<ele>478</ele>
<time>2013-06-02T20:09:56Z</time>
</trkpt>
<trkpt lat="38.240078" lon="-1.090098">
<ele>479</ele>
<time>2013-06-02T20:09:57Z</time>
</trkpt>
<trkpt lat="38.24011" lon="-1.0900819">
<ele>480</ele>
<time>2013-06-02T20:09:58Z</time>
</trkpt>
<trkpt lat="38.240234" lon="-1.0899961">
<ele>480</ele>
<time>2013-06-02T20:10:01Z</time>
</trkpt>
<trkpt lat="38.240276" lon="-1.08998">
<ele>481</ele>
<time>2013-06-02T20:10:02Z</time>
</trkpt>
<trkpt lat="38.240314" lon="-1.0899693">
<ele>482</ele>
<time>2013-06-02T20:10:03Z</time>
</trkpt>
<trkpt lat="38.240345" lon="-1.0899478">
<ele>481</ele>
<time>2013-06-02T20:10:04Z</time>
</trkpt>
<trkpt lat="38.240383" lon="-1.089921">
<ele>482</ele>
<time>2013-06-02T20:10:05Z</time>
</trkpt>
<trkpt lat="38.24041" lon="-1.0898834">
<ele>482</ele>
<time>2013-06-02T20:10:06Z</time>
</trkpt>
<trkpt lat="38.24044" lon="-1.0898459">
<ele>482</ele>
<time>2013-06-02T20:10:07Z</time>
</trkpt>
<trkpt lat="38.24048" lon="-1.0898083">
<ele>483</ele>
<time>2013-06-02T20:10:08Z</time>
</trkpt>
<trkpt lat="38.240517" lon="-1.0897762">
<ele>484</ele>
<time>2013-06-02T20:10:09Z</time>
</trkpt>
<trkpt lat="38.240555" lon="-1.0897386">
<ele>485</ele>
<time>2013-06-02T20:10:10Z</time>
</trkpt>
<trkpt lat="38.240593" lon="-1.0896957">
<ele>486</ele>
<time>2013-06-02T20:10:11Z</time>
</trkpt>
<trkpt lat="38.2407" lon="-1.0896152">
<ele>486</ele>
<time>2013-06-02T20:10:14Z</time>
</trkpt>
<trkpt lat="38.24073" lon="-1.0895884">
<ele>486</ele>
<time>2013-06-02T20:10:15Z</time>
</trkpt>
<trkpt lat="38.24077" lon="-1.0895509">
<ele>486</ele>
<time>2013-06-02T20:10:16Z</time>
</trkpt>
<trkpt lat="38.240807" lon="-1.0895026">
<ele>485</ele>
<time>2013-06-02T20:10:17Z</time>
</trkpt>
<trkpt lat="38.240845" lon="-1.089465">
<ele>486</ele>
<time>2013-06-02T20:10:18Z</time>
</trkpt>
<trkpt lat="38.240883" lon="-1.0894328">
<ele>486</ele>
<time>2013-06-02T20:10:19Z</time>
</trkpt>
<trkpt lat="38.240913" lon="-1.0894006">
<ele>487</ele>
<time>2013-06-02T20:10:20Z</time>
</trkpt>
<trkpt lat="38.24094" lon="-1.0893685">
<ele>488</ele>
<time>2013-06-02T20:10:21Z</time>
</trkpt>
<trkpt lat="38.240974" lon="-1.0893416">
<ele>488</ele>
<time>2013-06-02T20:10:22Z</time>
</trkpt>
<trkpt lat="38.241016" lon="-1.0893095">
<ele>488</ele>
<time>2013-06-02T20:10:23Z</time>
</trkpt>
<trkpt lat="38.241062" lon="-1.089288">
<ele>489</ele>
<time>2013-06-02T20:10:24Z</time>
</trkpt>
<trkpt lat="38.241245" lon="-1.089229">
<ele>491</ele>
<time>2013-06-02T20:10:27Z</time>
</trkpt>
<trkpt lat="38.241306" lon="-1.0891914">
<ele>491</ele>
<time>2013-06-02T20:10:28Z</time>
</trkpt>
<trkpt lat="38.24136" lon="-1.0891539">
<ele>491</ele>
<time>2013-06-02T20:10:29Z</time>
</trkpt>
<trkpt lat="38.2414" lon="-1.0891271">
<ele>492</ele>
<time>2013-06-02T20:10:30Z</time>
</trkpt>
<trkpt lat="38.241444" lon="-1.0890949">
<ele>492</ele>
<time>2013-06-02T20:10:31Z</time>
</trkpt>
<trkpt lat="38.241493" lon="-1.089068">
<ele>492</ele>
<time>2013-06-02T20:10:32Z</time>
</trkpt>
<trkpt lat="38.241543" lon="-1.0890359">
<ele>493</ele>
<time>2013-06-02T20:10:33Z</time>
</trkpt>
<trkpt lat="38.241585" lon="-1.0889983">
<ele>493</ele>
<time>2013-06-02T20:10:34Z</time>
</trkpt>
<trkpt lat="38.241627" lon="-1.08895">
<ele>495</ele>
<time>2013-06-02T20:10:35Z</time>
</trkpt>
<trkpt lat="38.24166" lon="-1.0888964">
<ele>495</ele>
<time>2013-06-02T20:10:36Z</time>
</trkpt>
<trkpt lat="38.24169" lon="-1.0888642">
<ele>496</ele>
<time>2013-06-02T20:10:37Z</time>
</trkpt>
<trkpt lat="38.241825" lon="-1.0887837">
<ele>499</ele>
<time>2013-06-02T20:10:40Z</time>
</trkpt>
<trkpt lat="38.24188" lon="-1.0887462">
<ele>499</ele>
<time>2013-06-02T20:10:41Z</time>
</trkpt>
<trkpt lat="38.241932" lon="-1.0887033">
<ele>499</ele>
<time>2013-06-02T20:10:42Z</time>
</trkpt>
<trkpt lat="38.24198" lon="-1.0886496">
<ele>499</ele>
<time>2013-06-02T20:10:43Z</time>
</trkpt>
<trkpt lat="38.24203" lon="-1.088596">
<ele>500</ele>
<time>2013-06-02T20:10:44Z</time>
</trkpt>
<trkpt lat="38.242077" lon="-1.0885531">
<ele>503</ele>
<time>2013-06-02T20:10:45Z</time>
</trkpt>
<trkpt lat="38.24211" lon="-1.088537">
<ele>504</ele>
<time>2013-06-02T20:10:46Z</time>
</trkpt>
<trkpt lat="38.24215" lon="-1.0885155">
<ele>505</ele>
<time>2013-06-02T20:10:47Z</time>
</trkpt>
<trkpt lat="38.242195" lon="-1.0884672">
<ele>505</ele>
<time>2013-06-02T20:10:48Z</time>
</trkpt>
<trkpt lat="38.242245" lon="-1.0884297">
<ele>507</ele>
<time>2013-06-02T20:10:49Z</time>
</trkpt>
<trkpt lat="38.242294" lon="-1.0883814">
<ele>508</ele>
<time>2013-06-02T20:10:50Z</time>
</trkpt>
<trkpt lat="38.242405" lon="-1.0882849">
<ele>509</ele>
<time>2013-06-02T20:10:53Z</time>
</trkpt>
<trkpt lat="38.242455" lon="-1.0882795">
<ele>509</ele>
<time>2013-06-02T20:10:54Z</time>
</trkpt>
<trkpt lat="38.242496" lon="-1.0882688">
<ele>509</ele>
<time>2013-06-02T20:10:55Z</time>
</trkpt>
<trkpt lat="38.24254" lon="-1.088258">
<ele>510</ele>
<time>2013-06-02T20:10:56Z</time>
</trkpt>
<trkpt lat="38.242573" lon="-1.0882258">
<ele>511</ele>
<time>2013-06-02T20:10:57Z</time>
</trkpt>
<trkpt lat="38.24262" lon="-1.0881615">
<ele>512</ele>
<time>2013-06-02T20:10:58Z</time>
</trkpt>
<trkpt lat="38.24264" lon="-1.0881186">
<ele>513</ele>
<time>2013-06-02T20:10:59Z</time>
</trkpt>
<trkpt lat="38.242672" lon="-1.088081">
<ele>515</ele>
<time>2013-06-02T20:11:00Z</time>
</trkpt>
<trkpt lat="38.242706" lon="-1.0880435">
<ele>516</ele>
<time>2013-06-02T20:11:01Z</time>
</trkpt>
<trkpt lat="38.242725" lon="-1.0879952">
<ele>515</ele>
<time>2013-06-02T20:11:02Z</time>
</trkpt>
<trkpt lat="38.242752" lon="-1.087963">
<ele>516</ele>
<time>2013-06-02T20:11:03Z</time>
</trkpt>
<trkpt lat="38.242863" lon="-1.0878342">
<ele>519</ele>
<time>2013-06-02T20:11:06Z</time>
</trkpt>
<trkpt lat="38.24289" lon="-1.087802">
<ele>519</ele>
<time>2013-06-02T20:11:07Z</time>
</trkpt>
<trkpt lat="38.242924" lon="-1.087786">
<ele>520</ele>
<time>2013-06-02T20:11:08Z</time>
</trkpt>
<trkpt lat="38.24297" lon="-1.0877699">
<ele>520</ele>
<time>2013-06-02T20:11:09Z</time>
</trkpt>
<trkpt lat="38.243015" lon="-1.087727">
<ele>521</ele>
<time>2013-06-02T20:11:10Z</time>
</trkpt>
<trkpt lat="38.24306" lon="-1.087684">
<ele>521</ele>
<time>2013-06-02T20:11:11Z</time>
</trkpt>
<trkpt lat="38.24306" lon="-1.0876358">
<ele>520</ele>
<time>2013-06-02T20:11:12Z</time>
</trkpt>
<trkpt lat="38.243065" lon="-1.0875875">
<ele>520</ele>
<time>2013-06-02T20:11:13Z</time>
</trkpt>
<trkpt lat="38.243042" lon="-1.0875714">
<ele>521</ele>
<time>2013-06-02T20:11:14Z</time>
</trkpt>
<trkpt lat="38.243023" lon="-1.0875553">
<ele>521</ele>
<time>2013-06-02T20:11:15Z</time>
</trkpt>
<trkpt lat="38.243015" lon="-1.0875607">
<ele>521</ele>
<time>2013-06-02T20:11:16Z</time>
</trkpt>
<trkpt lat="38.24287" lon="-1.0877216">
<ele>522</ele>
<time>2013-06-02T20:11:19Z</time>
</trkpt>
<trkpt lat="38.242798" lon="-1.087802">
<ele>523</ele>
<time>2013-06-02T20:11:20Z</time>
</trkpt>
<trkpt lat="38.2427" lon="-1.087904">
<ele>523</ele>
<time>2013-06-02T20:11:21Z</time>
</trkpt>
<trkpt lat="38.242607" lon="-1.0879898">
<ele>523</ele>
<time>2013-06-02T20:11:22Z</time>
</trkpt>
<trkpt lat="38.242535" lon="-1.0880864">
<ele>523</ele>
<time>2013-06-02T20:11:23Z</time>
</trkpt>
<trkpt lat="38.242485" lon="-1.0881937">
<ele>523</ele>
<time>2013-06-02T20:11:24Z</time>
</trkpt>
<trkpt lat="38.242416" lon="-1.0882634">
<ele>523</ele>
<time>2013-06-02T20:11:25Z</time>
</trkpt>
<trkpt lat="38.242367" lon="-1.0883546">
<ele>523</ele>
<time>2013-06-02T20:11:26Z</time>
</trkpt>
<trkpt lat="38.24232" lon="-1.0884243">
<ele>524</ele>
<time>2013-06-02T20:11:27Z</time>
</trkpt>
<trkpt lat="38.242256" lon="-1.0884887">
<ele>523</ele>
<time>2013-06-02T20:11:28Z</time>
</trkpt>
<trkpt lat="38.242203" lon="-1.0885692">
<ele>523</ele>
<time>2013-06-02T20:11:29Z</time>
</trkpt>
<trkpt lat="38.242035" lon="-1.0888106">
<ele>524</ele>
<time>2013-06-02T20:11:32Z</time>
</trkpt>
<trkpt lat="38.241985" lon="-1.0888803">
<ele>525</ele>
<time>2013-06-02T20:11:33Z</time>
</trkpt>
<trkpt lat="38.24194" lon="-1.0889661">
<ele>526</ele>
<time>2013-06-02T20:11:34Z</time>
</trkpt>
<trkpt lat="38.2419" lon="-1.0890412">
<ele>526</ele>
<time>2013-06-02T20:11:35Z</time>
</trkpt>
<trkpt lat="38.241863" lon="-1.0891056">
<ele>526</ele>
<time>2013-06-02T20:11:36Z</time>
</trkpt>
<trkpt lat="38.24182" lon="-1.0891807">
<ele>527</ele>
<time>2013-06-02T20:11:37Z</time>
</trkpt>
<trkpt lat="38.24177" lon="-1.0892504">
<ele>527</ele>
<time>2013-06-02T20:11:38Z</time>
</trkpt>
<trkpt lat="38.241707" lon="-1.0892987">
<ele>528</ele>
<time>2013-06-02T20:11:39Z</time>
</trkpt>
<trkpt lat="38.241653" lon="-1.0893577">
<ele>528</ele>
<time>2013-06-02T20:11:40Z</time>
</trkpt>
<trkpt lat="38.241615" lon="-1.0894167">
<ele>528</ele>
<time>2013-06-02T20:11:41Z</time>
</trkpt>
<trkpt lat="38.24156" lon="-1.0894489">
<ele>529</ele>
<time>2013-06-02T20:11:42Z</time>
</trkpt>
<trkpt lat="38.241425" lon="-1.0895187">
<ele>533</ele>
<time>2013-06-02T20:11:45Z</time>
</trkpt>
<trkpt lat="38.241375" lon="-1.0895079">
<ele>535</ele>
<time>2013-06-02T20:11:46Z</time>
</trkpt>
<trkpt lat="38.241333" lon="-1.0894865">
<ele>537</ele>
<time>2013-06-02T20:11:47Z</time>
</trkpt>
<trkpt lat="38.241295" lon="-1.089465">
<ele>537</ele>
<time>2013-06-02T20:11:48Z</time>
</trkpt>
<trkpt lat="38.241264" lon="-1.0894275">
<ele>537</ele>
<time>2013-06-02T20:11:49Z</time>
</trkpt>
<trkpt lat="38.24124" lon="-1.0893899">
<ele>537</ele>
<time>2013-06-02T20:11:50Z</time>
</trkpt>
<trkpt lat="38.241226" lon="-1.0893524">
<ele>538</ele>
<time>2013-06-02T20:11:51Z</time>
</trkpt>
<trkpt lat="38.241245" lon="-1.0893309">
<ele>539</ele>
<time>2013-06-02T20:11:52Z</time>
</trkpt>
<trkpt lat="38.241245" lon="-1.089288">
<ele>539</ele>
<time>2013-06-02T20:11:53Z</time>
</trkpt>
<trkpt lat="38.241264" lon="-1.0892558">
<ele>540</ele>
<time>2013-06-02T20:11:54Z</time>
</trkpt>
<trkpt lat="38.24129" lon="-1.0892504">
<ele>541</ele>
<time>2013-06-02T20:11:55Z</time>
</trkpt>
<trkpt lat="38.241467" lon="-1.0891914">
<ele>543</ele>
<time>2013-06-02T20:11:58Z</time>
</trkpt>
<trkpt lat="38.241524" lon="-1.0891646">
<ele>545</ele>
<time>2013-06-02T20:11:59Z</time>
</trkpt>
<trkpt lat="38.24159" lon="-1.0891432">
<ele>546</ele>
<time>2013-06-02T20:12:00Z</time>
</trkpt>
<trkpt lat="38.24166" lon="-1.0891163">
<ele>547</ele>
<time>2013-06-02T20:12:01Z</time>
</trkpt>
<trkpt lat="38.241714" lon="-1.0890788">
<ele>548</ele>
<time>2013-06-02T20:12:02Z</time>
</trkpt>
<trkpt lat="38.241768" lon="-1.0890573">
<ele>549</ele>
<time>2013-06-02T20:12:03Z</time>
</trkpt>
<trkpt lat="38.24182" lon="-1.0890359">
<ele>550</ele>
<time>2013-06-02T20:12:04Z</time>
</trkpt>
<trkpt lat="38.241875" lon="-1.0890144">
<ele>550</ele>
<time>2013-06-02T20:12:05Z</time>
</trkpt>
<trkpt lat="38.241913" lon="-1.0889822">
<ele>551</ele>
<time>2013-06-02T20:12:06Z</time>
</trkpt>
<trkpt lat="38.24196" lon="-1.0889608">
<ele>551</ele>
<time>2013-06-02T20:12:07Z</time>
</trkpt>
<trkpt lat="38.242023" lon="-1.0889071">
<ele>553</ele>
<time>2013-06-02T20:12:08Z</time>
</trkpt>
<trkpt lat="38.242153" lon="-1.0887569">
<ele>555</ele>
<time>2013-06-02T20:12:11Z</time>
</trkpt>
<trkpt lat="38.242207" lon="-1.0887086">
<ele>556</ele>
<time>2013-06-02T20:12:12Z</time>
</trkpt>
<trkpt lat="38.242264" lon="-1.0886496">
<ele>558</ele>
<time>2013-06-02T20:12:13Z</time>
</trkpt>
<trkpt lat="38.242313" lon="-1.0886014">
<ele>560</ele>
<time>2013-06-02T20:12:14Z</time>
</trkpt>
<trkpt lat="38.242367" lon="-1.0885584">
<ele>562</ele>
<time>2013-06-02T20:12:15Z</time>
</trkpt>
<trkpt lat="38.242416" lon="-1.0885155">
<ele>564</ele>
<time>2013-06-02T20:12:16Z</time>
</trkpt>
<trkpt lat="38.242462" lon="-1.0884672">
<ele>565</ele>
<time>2013-06-02T20:12:17Z</time>
</trkpt>
<trkpt lat="38.242508" lon="-1.0884297">
<ele>566</ele>
<time>2013-06-02T20:12:18Z</time>
</trkpt>
<trkpt lat="38.242546" lon="-1.0883975">
<ele>567</ele>
<time>2013-06-02T20:12:19Z</time>
</trkpt>
<trkpt lat="38.242603" lon="-1.08836">
<ele>567</ele>
<time>2013-06-02T20:12:20Z</time>
</trkpt>
<trkpt lat="38.242657" lon="-1.0882902">
<ele>569</ele>
<time>2013-06-02T20:12:21Z</time>
</trkpt>
<trkpt lat="38.242786" lon="-1.0881132">
<ele>572</ele>
<time>2013-06-02T20:12:24Z</time>
</trkpt>
<trkpt lat="38.242817" lon="-1.0880649">
<ele>573</ele>
<time>2013-06-02T20:12:25Z</time>
</trkpt>
<trkpt lat="38.24287" lon="-1.0880274">
<ele>574</ele>
<time>2013-06-02T20:12:26Z</time>
</trkpt>
<trkpt lat="38.24292" lon="-1.0879737">
<ele>574</ele>
<time>2013-06-02T20:12:27Z</time>
</trkpt>
<trkpt lat="38.24297" lon="-1.0879201">
<ele>576</ele>
<time>2013-06-02T20:12:28Z</time>
</trkpt>
<trkpt lat="38.243015" lon="-1.0878825">
<ele>577</ele>
<time>2013-06-02T20:12:29Z</time>
</trkpt>
<trkpt lat="38.24305" lon="-1.0878396">
<ele>577</ele>
<time>2013-06-02T20:12:30Z</time>
</trkpt>
<trkpt lat="38.243095" lon="-1.087802">
<ele>578</ele>
<time>2013-06-02T20:12:31Z</time>
</trkpt>
<trkpt lat="38.24314" lon="-1.0877591">
<ele>578</ele>
<time>2013-06-02T20:12:32Z</time>
</trkpt>
<trkpt lat="38.243183" lon="-1.0877109">
<ele>578</ele>
<time>2013-06-02T20:12:33Z</time>
</trkpt>
<trkpt lat="38.243225" lon="-1.0876626">
<ele>579</ele>
<time>2013-06-02T20:12:34Z</time>
</trkpt>
<trkpt lat="38.24337" lon="-1.0875231">
<ele>581</ele>
<time>2013-06-02T20:12:37Z</time>
</trkpt>
<trkpt lat="38.24342" lon="-1.0874748">
<ele>582</ele>
<time>2013-06-02T20:12:38Z</time>
</trkpt>
<trkpt lat="38.243465" lon="-1.0874212">
<ele>582</ele>
<time>2013-06-02T20:12:39Z</time>
</trkpt>
<trkpt lat="38.243504" lon="-1.0873622">
<ele>583</ele>
<time>2013-06-02T20:12:40Z</time>
</trkpt>
<trkpt lat="38.243553" lon="-1.0873139">
<ele>583</ele>
<time>2013-06-02T20:12:41Z</time>
</trkpt>
<trkpt lat="38.24359" lon="-1.087271">
<ele>583</ele>
<time>2013-06-02T20:12:42Z</time>
</trkpt>
<trkpt lat="38.243633" lon="-1.0872173">
<ele>583</ele>
<time>2013-06-02T20:12:43Z</time>
</trkpt>
<trkpt lat="38.243683" lon="-1.087169">
<ele>583</ele>
<time>2013-06-02T20:12:44Z</time>
</trkpt>
<trkpt lat="38.243725" lon="-1.0871261">
<ele>583</ele>
<time>2013-06-02T20:12:45Z</time>
</trkpt>
<trkpt lat="38.243763" lon="-1.0870725">
<ele>583</ele>
<time>2013-06-02T20:12:46Z</time>
</trkpt>
<trkpt lat="38.24381" lon="-1.0870296">
<ele>584</ele>
<time>2013-06-02T20:12:47Z</time>
</trkpt>
<trkpt lat="38.243965" lon="-1.0868847">
<ele>584</ele>
<time>2013-06-02T20:12:50Z</time>
</trkpt>
<trkpt lat="38.24402" lon="-1.0868365">
<ele>584</ele>
<time>2013-06-02T20:12:51Z</time>
</trkpt>
<trkpt lat="38.244064" lon="-1.0867882">
<ele>584</ele>
<time>2013-06-02T20:12:52Z</time>
</trkpt>
<trkpt lat="38.2441" lon="-1.0867453">
<ele>584</ele>
<time>2013-06-02T20:12:53Z</time>
</trkpt>
<trkpt lat="38.244133" lon="-1.086697">
<ele>584</ele>
<time>2013-06-02T20:12:54Z</time>
</trkpt>
<trkpt lat="38.244164" lon="-1.0866809">
<ele>584</ele>
<time>2013-06-02T20:12:55Z</time>
</trkpt>
<trkpt lat="38.244198" lon="-1.0866487">
<ele>583</ele>
<time>2013-06-02T20:12:56Z</time>
</trkpt>
<trkpt lat="38.244236" lon="-1.0866272">
<ele>583</ele>
<time>2013-06-02T20:12:57Z</time>
</trkpt>
<trkpt lat="38.24427" lon="-1.0865897">
<ele>583</ele>
<time>2013-06-02T20:12:58Z</time>
</trkpt>
<trkpt lat="38.244316" lon="-1.0865575">
<ele>583</ele>
<time>2013-06-02T20:12:59Z</time>
</trkpt>
<trkpt lat="38.244358" lon="-1.0865092">
<ele>582</ele>
<time>2013-06-02T20:13:00Z</time>
</trkpt>
<trkpt lat="38.244495" lon="-1.0863912">
<ele>582</ele>
<time>2013-06-02T20:13:03Z</time>
</trkpt>
<trkpt lat="38.244556" lon="-1.086359">
<ele>582</ele>
<time>2013-06-02T20:13:04Z</time>
</trkpt>
<trkpt lat="38.24461" lon="-1.0863268">
<ele>582</ele>
<time>2013-06-02T20:13:05Z</time>
</trkpt>
<trkpt lat="38.244667" lon="-1.0862786">
<ele>583</ele>
<time>2013-06-02T20:13:06Z</time>
</trkpt>
<trkpt lat="38.244717" lon="-1.0862303">
<ele>582</ele>
<time>2013-06-02T20:13:07Z</time>
</trkpt>
<trkpt lat="38.24476" lon="-1.0861874">
<ele>582</ele>
<time>2013-06-02T20:13:08Z</time>
</trkpt>
<trkpt lat="38.24481" lon="-1.0861444">
<ele>581</ele>
<time>2013-06-02T20:13:09Z</time>
</trkpt>
<trkpt lat="38.24485" lon="-1.0861015">
<ele>581</ele>
<time>2013-06-02T20:13:10Z</time>
</trkpt>
<trkpt lat="38.2449" lon="-1.0860533">
<ele>581</ele>
<time>2013-06-02T20:13:11Z</time>
</trkpt>
<trkpt lat="38.244953" lon="-1.0860103">
<ele>580</ele>
<time>2013-06-02T20:13:12Z</time>
</trkpt>
<trkpt lat="38.24501" lon="-1.0859728">
<ele>580</ele>
<time>2013-06-02T20:13:13Z</time>
</trkpt>
<trkpt lat="38.245163" lon="-1.0858655">
<ele>579</ele>
<time>2013-06-02T20:13:16Z</time>
</trkpt>
<trkpt lat="38.24522" lon="-1.0858333">
<ele>579</ele>
<time>2013-06-02T20:13:17Z</time>
</trkpt>
<trkpt lat="38.245266" lon="-1.0857958">
<ele>579</ele>
<time>2013-06-02T20:13:18Z</time>
</trkpt>
<trkpt lat="38.245308" lon="-1.0857368">
<ele>579</ele>
<time>2013-06-02T20:13:19Z</time>
</trkpt>
<trkpt lat="38.245354" lon="-1.0857046">
<ele>578</ele>
<time>2013-06-02T20:13:20Z</time>
</trkpt>
<trkpt lat="38.24541" lon="-1.0856616">
<ele>577</ele>
<time>2013-06-02T20:13:21Z</time>
</trkpt>
<trkpt lat="38.245453" lon="-1.0856295">
<ele>577</ele>
<time>2013-06-02T20:13:22Z</time>
</trkpt>
<trkpt lat="38.24549" lon="-1.0855865">
<ele>576</ele>
<time>2013-06-02T20:13:23Z</time>
</trkpt>
<trkpt lat="38.245525" lon="-1.0855436">
<ele>575</ele>
<time>2013-06-02T20:13:24Z</time>
</trkpt>
<trkpt lat="38.245583" lon="-1.0855007">
<ele>574</ele>
<time>2013-06-02T20:13:25Z</time>
</trkpt>
<trkpt lat="38.24563" lon="-1.0854632">
<ele>574</ele>
<time>2013-06-02T20:13:26Z</time>
</trkpt>
<trkpt lat="38.2458" lon="-1.0852808">
<ele>573</ele>
<time>2013-06-02T20:13:29Z</time>
</trkpt>
<trkpt lat="38.245842" lon="-1.0852647">
<ele>573</ele>
<time>2013-06-02T20:13:30Z</time>
</trkpt>
<trkpt lat="38.24588" lon="-1.0852325">
<ele>572</ele>
<time>2013-06-02T20:13:31Z</time>
</trkpt>
<trkpt lat="38.24589" lon="-1.085195">
<ele>571</ele>
<time>2013-06-02T20:13:32Z</time>
</trkpt>
<trkpt lat="38.245914" lon="-1.0851896">
<ele>568</ele>
<time>2013-06-02T20:13:33Z</time>
</trkpt>
<trkpt lat="38.245956" lon="-1.0851628">
<ele>568</ele>
<time>2013-06-02T20:13:34Z</time>
</trkpt>
<trkpt lat="38.245987" lon="-1.0851359">
<ele>568</ele>
<time>2013-06-02T20:13:35Z</time>
</trkpt>
<trkpt lat="38.246025" lon="-1.0851091">
<ele>568</ele>
<time>2013-06-02T20:13:36Z</time>
</trkpt>
<trkpt lat="38.24607" lon="-1.0850716">
<ele>568</ele>
<time>2013-06-02T20:13:37Z</time>
</trkpt>
<trkpt lat="38.246113" lon="-1.0850394">
<ele>567</ele>
<time>2013-06-02T20:13:38Z</time>
</trkpt>
<trkpt lat="38.246155" lon="-1.0850126">
<ele>567</ele>
<time>2013-06-02T20:13:39Z</time>
</trkpt>
<trkpt lat="38.246258" lon="-1.084916">
<ele>567</ele>
<time>2013-06-02T20:13:42Z</time>
</trkpt>
<trkpt lat="38.24629" lon="-1.0848784">
<ele>567</ele>
<time>2013-06-02T20:13:43Z</time>
</trkpt>
<trkpt lat="38.24631" lon="-1.0848248">
<ele>567</ele>
<time>2013-06-02T20:13:44Z</time>
</trkpt>
<trkpt lat="38.246326" lon="-1.0847926">
<ele>567</ele>
<time>2013-06-02T20:13:45Z</time>
</trkpt>
<trkpt lat="38.24634" lon="-1.0847497">
<ele>567</ele>
<time>2013-06-02T20:13:46Z</time>
</trkpt>
<trkpt lat="38.246353" lon="-1.0847175">
<ele>567</ele>
<time>2013-06-02T20:13:47Z</time>
</trkpt>
<trkpt lat="38.24638" lon="-1.0846853">
<ele>567</ele>
<time>2013-06-02T20:13:48Z</time>
</trkpt>
<trkpt lat="38.246403" lon="-1.0846531">
<ele>567</ele>
<time>2013-06-02T20:13:49Z</time>
</trkpt>
<trkpt lat="38.246414" lon="-1.0846156">
<ele>567</ele>
<time>2013-06-02T20:13:50Z</time>
</trkpt>
<trkpt lat="38.246407" lon="-1.0845566">
<ele>566</ele>
<time>2013-06-02T20:13:51Z</time>
</trkpt>
<trkpt lat="38.24638" lon="-1.0845405">
<ele>567</ele>
<time>2013-06-02T20:13:52Z</time>
</trkpt>
<trkpt lat="38.24625" lon="-1.0844868">
<ele>564</ele>
<time>2013-06-02T20:13:55Z</time>
</trkpt>
<trkpt lat="38.246204" lon="-1.0844976">
<ele>564</ele>
<time>2013-06-02T20:13:56Z</time>
</trkpt>
<trkpt lat="38.246155" lon="-1.084519">
<ele>564</ele>
<time>2013-06-02T20:13:57Z</time>
</trkpt>
<trkpt lat="38.246113" lon="-1.0845512">
<ele>564</ele>
<time>2013-06-02T20:13:58Z</time>
</trkpt>
<trkpt lat="38.24606" lon="-1.0845941">
<ele>564</ele>
<time>2013-06-02T20:13:59Z</time>
</trkpt>
<trkpt lat="38.246014" lon="-1.0846424">
<ele>564</ele>
<time>2013-06-02T20:14:00Z</time>
</trkpt>
<trkpt lat="38.24597" lon="-1.08468">
<ele>564</ele>
<time>2013-06-02T20:14:01Z</time>
</trkpt>
<trkpt lat="38.24593" lon="-1.0847014">
<ele>565</ele>
<time>2013-06-02T20:14:02Z</time>
</trkpt>
<trkpt lat="38.245865" lon="-1.0847443">
<ele>565</ele>
<time>2013-06-02T20:14:03Z</time>
</trkpt>
<trkpt lat="38.2458" lon="-1.0847872">
<ele>565</ele>
<time>2013-06-02T20:14:04Z</time>
</trkpt>
<trkpt lat="38.24572" lon="-1.0848409">
<ele>565</ele>
<time>2013-06-02T20:14:05Z</time>
</trkpt>
<trkpt lat="38.2455" lon="-1.0849911">
<ele>565</ele>
<time>2013-06-02T20:14:08Z</time>
</trkpt>
<trkpt lat="38.245453" lon="-1.0850447">
<ele>565</ele>
<time>2013-06-02T20:14:09Z</time>
</trkpt>
<trkpt lat="38.245373" lon="-1.0851091">
<ele>566</ele>
<time>2013-06-02T20:14:10Z</time>
</trkpt>
<trkpt lat="38.24531" lon="-1.085152">
<ele>566</ele>
<time>2013-06-02T20:14:11Z</time>
</trkpt>
<trkpt lat="38.245255" lon="-1.0852057">
<ele>566</ele>
<time>2013-06-02T20:14:12Z</time>
</trkpt>
<trkpt lat="38.245193" lon="-1.0852647">
<ele>566</ele>
<time>2013-06-02T20:14:13Z</time>
</trkpt>
<trkpt lat="38.245136" lon="-1.0853398">
<ele>566</ele>
<time>2013-06-02T20:14:14Z</time>
</trkpt>
<trkpt lat="38.24506" lon="-1.0853934">
<ele>566</ele>
<time>2013-06-02T20:14:15Z</time>
</trkpt>
<trkpt lat="38.24498" lon="-1.0854739">
<ele>566</ele>
<time>2013-06-02T20:14:16Z</time>
</trkpt>
<trkpt lat="38.244915" lon="-1.0855222">
<ele>565</ele>
<time>2013-06-02T20:14:17Z</time>
</trkpt>
<trkpt lat="38.244858" lon="-1.0855758">
<ele>564</ele>
<time>2013-06-02T20:14:18Z</time>
</trkpt>
<trkpt lat="38.244686" lon="-1.0857797">
<ele>564</ele>
<time>2013-06-02T20:14:21Z</time>
</trkpt>
<trkpt lat="38.244633" lon="-1.0858601">
<ele>566</ele>
<time>2013-06-02T20:14:22Z</time>
</trkpt>
<trkpt lat="38.244587" lon="-1.085946">
<ele>567</ele>
<time>2013-06-02T20:14:23Z</time>
</trkpt>
<trkpt lat="38.244465" lon="-1.0859406">
<ele>564</ele>
<time>2013-06-02T20:14:24Z</time>
</trkpt>
<trkpt lat="38.2444" lon="-1.0860103">
<ele>561</ele>
<time>2013-06-02T20:14:25Z</time>
</trkpt>
<trkpt lat="38.244354" lon="-1.0860854">
<ele>560</ele>
<time>2013-06-02T20:14:26Z</time>
</trkpt>
<trkpt lat="38.244297" lon="-1.0861498">
<ele>560</ele>
<time>2013-06-02T20:14:27Z</time>
</trkpt>
<trkpt lat="38.2442" lon="-1.0861874">
<ele>557</ele>
<time>2013-06-02T20:14:28Z</time>
</trkpt>
<trkpt lat="38.24412" lon="-1.086241">
<ele>556</ele>
<time>2013-06-02T20:14:29Z</time>
</trkpt>
<trkpt lat="38.244045" lon="-1.0863107">
<ele>554</ele>
<time>2013-06-02T20:14:30Z</time>
</trkpt>
<trkpt lat="38.244003" lon="-1.0863751">
<ele>554</ele>
<time>2013-06-02T20:14:31Z</time>
</trkpt>
<trkpt lat="38.243843" lon="-1.0865575">
<ele>554</ele>
<time>2013-06-02T20:14:34Z</time>
</trkpt>
<trkpt lat="38.243805" lon="-1.0866433">
<ele>553</ele>
<time>2013-06-02T20:14:35Z</time>
</trkpt>
<trkpt lat="38.243763" lon="-1.0867131">
<ele>552</ele>
<time>2013-06-02T20:14:36Z</time>
</trkpt>
<trkpt lat="38.243683" lon="-1.0867506">
<ele>551</ele>
<time>2013-06-02T20:14:37Z</time>
</trkpt>
<trkpt lat="38.243637" lon="-1.0868204">
<ele>551</ele>
<time>2013-06-02T20:14:38Z</time>
</trkpt>
<trkpt lat="38.24359" lon="-1.0869116">
<ele>551</ele>
<time>2013-06-02T20:14:39Z</time>
</trkpt>
<trkpt lat="38.243523" lon="-1.0869491">
<ele>549</ele>
<time>2013-06-02T20:14:40Z</time>
</trkpt>
<trkpt lat="38.243465" lon="-1.0870081">
<ele>547</ele>
<time>2013-06-02T20:14:41Z</time>
</trkpt>
<trkpt lat="38.243423" lon="-1.0871422">
<ele>544</ele>
<time>2013-06-02T20:14:42Z</time>
</trkpt>
<trkpt lat="38.24338" lon="-1.0872442">
<ele>546</ele>
<time>2013-06-02T20:14:43Z</time>
</trkpt>
<trkpt lat="38.24333" lon="-1.08733">
<ele>545</ele>
<time>2013-06-02T20:14:44Z</time>
</trkpt>
<trkpt lat="38.24316" lon="-1.0875177">
<ele>545</ele>
<time>2013-06-02T20:14:47Z</time>
</trkpt>
<trkpt lat="38.243107" lon="-1.0875821">
<ele>546</ele>
<time>2013-06-02T20:14:48Z</time>
</trkpt>
<trkpt lat="38.24307" lon="-1.0876411">
<ele>546</ele>
<time>2013-06-02T20:14:49Z</time>
</trkpt>
<trkpt lat="38.243027" lon="-1.0877001">
<ele>547</ele>
<time>2013-06-02T20:14:50Z</time>
</trkpt>
<trkpt lat="38.24299" lon="-1.0877538">
<ele>547</ele>
<time>2013-06-02T20:14:51Z</time>
</trkpt>
<trkpt lat="38.242947" lon="-1.087802">
<ele>548</ele>
<time>2013-06-02T20:14:52Z</time>
</trkpt>
<trkpt lat="38.24291" lon="-1.0878289">
<ele>549</ele>
<time>2013-06-02T20:14:53Z</time>
</trkpt>
<trkpt lat="38.242844" lon="-1.0878342">
<ele>548</ele>
<time>2013-06-02T20:14:54Z</time>
</trkpt>
<trkpt lat="38.242825" lon="-1.0878557">
<ele>549</ele>
<time>2013-06-02T20:14:55Z</time>
</trkpt>
<trkpt lat="38.24277" lon="-1.0878557">
<ele>548</ele>
<time>2013-06-02T20:14:56Z</time>
</trkpt>
<trkpt lat="38.24271" lon="-1.0878611">
<ele>548</ele>
<time>2013-06-02T20:14:57Z</time>
</trkpt>
<trkpt lat="38.2426" lon="-1.0878128">
<ele>546</ele>
<time>2013-06-02T20:15:00Z</time>
</trkpt>
<trkpt lat="38.242573" lon="-1.0877752">
<ele>547</ele>
<time>2013-06-02T20:15:01Z</time>
</trkpt>
<trkpt lat="38.242565" lon="-1.087727">
<ele>547</ele>
<time>2013-06-02T20:15:02Z</time>
</trkpt>
<trkpt lat="38.242603" lon="-1.0876894">
<ele>546</ele>
<time>2013-06-02T20:15:03Z</time>
</trkpt>
<trkpt lat="38.242657" lon="-1.0876358">
<ele>545</ele>
<time>2013-06-02T20:15:04Z</time>
</trkpt>
<trkpt lat="38.242718" lon="-1.0876089">
<ele>544</ele>
<time>2013-06-02T20:15:05Z</time>
</trkpt>
<trkpt lat="38.242786" lon="-1.0875928">
<ele>544</ele>
<time>2013-06-02T20:15:06Z</time>
</trkpt>
<trkpt lat="38.24284" lon="-1.0875607">
<ele>544</ele>
<time>2013-06-02T20:15:07Z</time>
</trkpt>
<trkpt lat="38.242947" lon="-1.0875821">
<ele>544</ele>
<time>2013-06-02T20:15:08Z</time>
</trkpt>
<trkpt lat="38.243065" lon="-1.0876089">
<ele>544</ele>
<time>2013-06-02T20:15:09Z</time>
</trkpt>
<trkpt lat="38.243156" lon="-1.0875982">
<ele>544</ele>
<time>2013-06-02T20:15:10Z</time>
</trkpt>
<trkpt lat="38.24333" lon="-1.0875016">
<ele>544</ele>
<time>2013-06-02T20:15:13Z</time>
</trkpt>
<trkpt lat="38.24336" lon="-1.0874587">
<ele>544</ele>
<time>2013-06-02T20:15:14Z</time>
</trkpt>
<trkpt lat="38.24336" lon="-1.0874426">
<ele>543</ele>
<time>2013-06-02T20:15:15Z</time>
</trkpt>
<trkpt lat="38.243305" lon="-1.0874158">
<ele>544</ele>
<time>2013-06-02T20:15:16Z</time>
</trkpt>
<trkpt lat="38.243263" lon="-1.0874158">
<ele>544</ele>
<time>2013-06-02T20:15:17Z</time>
</trkpt>
<trkpt lat="38.243225" lon="-1.0874319">
<ele>544</ele>
<time>2013-06-02T20:15:18Z</time>
</trkpt>
<trkpt lat="38.2432" lon="-1.0875016">
<ele>544</ele>
<time>2013-06-02T20:15:19Z</time>
</trkpt>
<trkpt lat="38.243145" lon="-1.0875714">
<ele>544</ele>
<time>2013-06-02T20:15:20Z</time>
</trkpt>
<trkpt lat="38.243114" lon="-1.0876465">
<ele>546</ele>
<time>2013-06-02T20:15:21Z</time>
</trkpt>
<trkpt lat="38.243034" lon="-1.0877001">
<ele>546</ele>
<time>2013-06-02T20:15:22Z</time>
</trkpt>
<trkpt lat="38.24297" lon="-1.0877377">
<ele>545</ele>
<time>2013-06-02T20:15:23Z</time>
</trkpt>
<trkpt lat="38.24285" lon="-1.0879683">
<ele>546</ele>
<time>2013-06-02T20:15:26Z</time>
</trkpt>
<trkpt lat="38.242825" lon="-1.0880488">
<ele>548</ele>
<time>2013-06-02T20:15:27Z</time>
</trkpt>
<trkpt lat="38.24277" lon="-1.0881186">
<ele>548</ele>
<time>2013-06-02T20:15:28Z</time>
</trkpt>
<trkpt lat="38.24271" lon="-1.0881615">
<ele>548</ele>
<time>2013-06-02T20:15:29Z</time>
</trkpt>
<trkpt lat="38.242657" lon="-1.0882258">
<ele>548</ele>
<time>2013-06-02T20:15:30Z</time>
</trkpt>
<trkpt lat="38.24263" lon="-1.0883224">
<ele>548</ele>
<time>2013-06-02T20:15:31Z</time>
</trkpt>
<trkpt lat="38.24259" lon="-1.0883814">
<ele>548</ele>
<time>2013-06-02T20:15:32Z</time>
</trkpt>
<trkpt lat="38.24254" lon="-1.0884297">
<ele>547</ele>
<time>2013-06-02T20:15:33Z</time>
</trkpt>
<trkpt lat="38.242496" lon="-1.0884887">
<ele>547</ele>
<time>2013-06-02T20:15:34Z</time>
</trkpt>
<trkpt lat="38.242447" lon="-1.0885584">
<ele>547</ele>
<time>2013-06-02T20:15:35Z</time>
</trkpt>
<trkpt lat="38.242393" lon="-1.0886121">
<ele>547</ele>
<time>2013-06-02T20:15:36Z</time>
</trkpt>
<trkpt lat="38.24226" lon="-1.088832">
<ele>549</ele>
<time>2013-06-02T20:15:39Z</time>
</trkpt>
<trkpt lat="38.242207" lon="-1.0889125">
<ele>549</ele>
<time>2013-06-02T20:15:40Z</time>
</trkpt>
<trkpt lat="38.242157" lon="-1.0889769">
<ele>550</ele>
<time>2013-06-02T20:15:41Z</time>
</trkpt>
<trkpt lat="38.242115" lon="-1.0890412">
<ele>550</ele>
<time>2013-06-02T20:15:42Z</time>
</trkpt>
<trkpt lat="38.242065" lon="-1.089111">
<ele>550</ele>
<time>2013-06-02T20:15:43Z</time>
</trkpt>
<trkpt lat="38.24202" lon="-1.0891807">
<ele>551</ele>
<time>2013-06-02T20:15:44Z</time>
</trkpt>
<trkpt lat="38.241955" lon="-1.089229">
<ele>550</ele>
<time>2013-06-02T20:15:45Z</time>
</trkpt>
<trkpt lat="38.2419" lon="-1.0893041">
<ele>549</ele>
<time>2013-06-02T20:15:46Z</time>
</trkpt>
<trkpt lat="38.24186" lon="-1.0893792">
<ele>549</ele>
<time>2013-06-02T20:15:47Z</time>
</trkpt>
<trkpt lat="38.241825" lon="-1.0894543">
<ele>549</ele>
<time>2013-06-02T20:15:48Z</time>
</trkpt>
<trkpt lat="38.241776" lon="-1.0895133">
<ele>550</ele>
<time>2013-06-02T20:15:49Z</time>
</trkpt>
<trkpt lat="38.241627" lon="-1.0896474">
<ele>551</ele>
<time>2013-06-02T20:15:52Z</time>
</trkpt>
<trkpt lat="38.24156" lon="-1.089701">
<ele>550</ele>
<time>2013-06-02T20:15:53Z</time>
</trkpt>
<trkpt lat="38.241497" lon="-1.0897601">
<ele>551</ele>
<time>2013-06-02T20:15:54Z</time>
</trkpt>
<trkpt lat="38.241432" lon="-1.0898244">
<ele>550</ele>
<time>2013-06-02T20:15:55Z</time>
</trkpt>
<trkpt lat="38.241386" lon="-1.089921">
<ele>551</ele>
<time>2013-06-02T20:15:56Z</time>
</trkpt>
<trkpt lat="38.241337" lon="-1.0899961">
<ele>551</ele>
<time>2013-06-02T20:15:57Z</time>
</trkpt>
<trkpt lat="38.24129" lon="-1.0900927">
<ele>552</ele>
<time>2013-06-02T20:15:58Z</time>
</trkpt>
<trkpt lat="38.241245" lon="-1.0901839">
<ele>553</ele>
<time>2013-06-02T20:15:59Z</time>
</trkpt>
<trkpt lat="38.241188" lon="-1.0902536">
<ele>553</ele>
<time>2013-06-02T20:16:00Z</time>
</trkpt>
<trkpt lat="38.241146" lon="-1.0903555">
<ele>554</ele>
<time>2013-06-02T20:16:01Z</time>
</trkpt>
<trkpt lat="38.24109" lon="-1.0904628">
<ele>554</ele>
<time>2013-06-02T20:16:02Z</time>
</trkpt>
<trkpt lat="38.24093" lon="-1.0907203">
<ele>555</ele>
<time>2013-06-02T20:16:05Z</time>
</trkpt>
<trkpt lat="38.240902" lon="-1.0908276">
<ele>555</ele>
<time>2013-06-02T20:16:06Z</time>
</trkpt>
<trkpt lat="38.24087" lon="-1.0909027">
<ele>556</ele>
<time>2013-06-02T20:16:07Z</time>
</trkpt>
<trkpt lat="38.240818" lon="-1.090967">
<ele>556</ele>
<time>2013-06-02T20:16:08Z</time>
</trkpt>
<trkpt lat="38.240776" lon="-1.0909939">
<ele>557</ele>
<time>2013-06-02T20:16:09Z</time>
</trkpt>
<trkpt lat="38.240746" lon="-1.0909832">
<ele>557</ele>
<time>2013-06-02T20:16:10Z</time>
</trkpt>
<trkpt lat="38.24071" lon="-1.0909724">
<ele>557</ele>
<time>2013-06-02T20:16:11Z</time>
</trkpt>
<trkpt lat="38.24072" lon="-1.0909778">
<ele>557</ele>
<time>2013-06-02T20:16:12Z</time>
</trkpt>
<trkpt lat="38.240753" lon="-1.0909241">
<ele>557</ele>
<time>2013-06-02T20:16:13Z</time>
</trkpt>
<trkpt lat="38.240753" lon="-1.090892">
<ele>557</ele>
<time>2013-06-02T20:16:14Z</time>
</trkpt>
<trkpt lat="38.24078" lon="-1.0908544">
<ele>558</ele>
<time>2013-06-02T20:16:15Z</time>
</trkpt>
<trkpt lat="38.24085" lon="-1.0907364">
<ele>556</ele>
<time>2013-06-02T20:16:18Z</time>
</trkpt>
<trkpt lat="38.240883" lon="-1.0907096">
<ele>557</ele>
<time>2013-06-02T20:16:19Z</time>
</trkpt>
<trkpt lat="38.240913" lon="-1.0906667">
<ele>557</ele>
<time>2013-06-02T20:16:20Z</time>
</trkpt>
<trkpt lat="38.24095" lon="-1.0906345">
<ele>558</ele>
<time>2013-06-02T20:16:21Z</time>
</trkpt>
<trkpt lat="38.24099" lon="-1.090613">
<ele>559</ele>
<time>2013-06-02T20:16:22Z</time>
</trkpt>
<trkpt lat="38.24102" lon="-1.0905701">
<ele>558</ele>
<time>2013-06-02T20:16:23Z</time>
</trkpt>
<trkpt lat="38.241047" lon="-1.0905379">
<ele>557</ele>
<time>2013-06-02T20:16:24Z</time>
</trkpt>
<trkpt lat="38.24107" lon="-1.0905111">
<ele>556</ele>
<time>2013-06-02T20:16:25Z</time>
</trkpt>
<trkpt lat="38.2411" lon="-1.0904843">
<ele>555</ele>
<time>2013-06-02T20:16:26Z</time>
</trkpt>
<trkpt lat="38.241135" lon="-1.0904467">
<ele>555</ele>
<time>2013-06-02T20:16:27Z</time>
</trkpt>
<trkpt lat="38.241165" lon="-1.0904199">
<ele>555</ele>
<time>2013-06-02T20:16:28Z</time>
</trkpt>
<trkpt lat="38.241253" lon="-1.0902965">
<ele>554</ele>
<time>2013-06-02T20:16:31Z</time>
</trkpt>
<trkpt lat="38.241283" lon="-1.0902911">
<ele>556</ele>
<time>2013-06-02T20:16:32Z</time>
</trkpt>
<trkpt lat="38.241318" lon="-1.090275">
<ele>557</ele>
<time>2013-06-02T20:16:33Z</time>
</trkpt>
<trkpt lat="38.24136" lon="-1.0902482">
<ele>557</ele>
<time>2013-06-02T20:16:34Z</time>
</trkpt>
<trkpt lat="38.24139" lon="-1.0902214">
<ele>558</ele>
<time>2013-06-02T20:16:35Z</time>
</trkpt>
<trkpt lat="38.241417" lon="-1.0901731">
<ele>558</ele>
<time>2013-06-02T20:16:36Z</time>
</trkpt>
<trkpt lat="38.24145" lon="-1.0901409">
<ele>558</ele>
<time>2013-06-02T20:16:37Z</time>
</trkpt>
<trkpt lat="38.241478" lon="-1.0901141">
<ele>558</ele>
<time>2013-06-02T20:16:38Z</time>
</trkpt>
<trkpt lat="38.24152" lon="-1.090098">
<ele>559</ele>
<time>2013-06-02T20:16:39Z</time>
</trkpt>
<trkpt lat="38.241558" lon="-1.0900766">
<ele>560</ele>
<time>2013-06-02T20:16:40Z</time>
</trkpt>
<trkpt lat="38.24159" lon="-1.0900444">
<ele>560</ele>
<time>2013-06-02T20:16:41Z</time>
</trkpt>
<trkpt lat="38.24167" lon="-1.0899156">
<ele>561</ele>
<time>2013-06-02T20:16:44Z</time>
</trkpt>
<trkpt lat="38.24169" lon="-1.0898727">
<ele>561</ele>
<time>2013-06-02T20:16:45Z</time>
</trkpt>
<trkpt lat="38.241722" lon="-1.0898459">
<ele>563</ele>
<time>2013-06-02T20:16:46Z</time>
</trkpt>
<trkpt lat="38.241745" lon="-1.0898137">
<ele>564</ele>
<time>2013-06-02T20:16:47Z</time>
</trkpt>
<trkpt lat="38.241745" lon="-1.0897869">
<ele>564</ele>
<time>2013-06-02T20:16:48Z</time>
</trkpt>
<trkpt lat="38.241722" lon="-1.0897547">
<ele>563</ele>
<time>2013-06-02T20:16:49Z</time>
</trkpt>
<trkpt lat="38.241714" lon="-1.0897332">
<ele>564</ele>
<time>2013-06-02T20:16:50Z</time>
</trkpt>
<trkpt lat="38.24168" lon="-1.0897064">
<ele>565</ele>
<time>2013-06-02T20:16:51Z</time>
</trkpt>
<trkpt lat="38.241642" lon="-1.0896957">
<ele>566</ele>
<time>2013-06-02T20:16:52Z</time>
</trkpt>
<trkpt lat="38.241608" lon="-1.0896903">
<ele>568</ele>
<time>2013-06-02T20:16:53Z</time>
</trkpt>
<trkpt lat="38.24157" lon="-1.089701">
<ele>569</ele>
<time>2013-06-02T20:16:54Z</time>
</trkpt>
<trkpt lat="38.24143" lon="-1.0897976">
<ele>570</ele>
<time>2013-06-02T20:16:57Z</time>
</trkpt>
<trkpt lat="38.24137" lon="-1.0898513">
<ele>570</ele>
<time>2013-06-02T20:16:58Z</time>
</trkpt>
<trkpt lat="38.241325" lon="-1.0899156">
<ele>570</ele>
<time>2013-06-02T20:16:59Z</time>
</trkpt>
<trkpt lat="38.241283" lon="-1.0900015">
<ele>570</ele>
<time>2013-06-02T20:17:00Z</time>
</trkpt>
<trkpt lat="38.24123" lon="-1.090098">
<ele>570</ele>
<time>2013-06-02T20:17:01Z</time>
</trkpt>
<trkpt lat="38.2412" lon="-1.0901839">
<ele>571</ele>
<time>2013-06-02T20:17:02Z</time>
</trkpt>
<trkpt lat="38.241135" lon="-1.0902375">
<ele>570</ele>
<time>2013-06-02T20:17:03Z</time>
</trkpt>
<trkpt lat="38.241085" lon="-1.0902804">
<ele>571</ele>
<time>2013-06-02T20:17:04Z</time>
</trkpt>
<trkpt lat="38.241043" lon="-1.0903072">
<ele>571</ele>
<time>2013-06-02T20:17:05Z</time>
</trkpt>
<trkpt lat="38.241005" lon="-1.0903287">
<ele>572</ele>
<time>2013-06-02T20:17:06Z</time>
</trkpt>
<trkpt lat="38.240982" lon="-1.0903287">
<ele>572</ele>
<time>2013-06-02T20:17:07Z</time>
</trkpt>
<trkpt lat="38.240974" lon="-1.0902858">
<ele>572</ele>
<time>2013-06-02T20:17:10Z</time>
</trkpt>
<trkpt lat="38.241016" lon="-1.0902643">
<ele>572</ele>
<time>2013-06-02T20:17:11Z</time>
</trkpt>
<trkpt lat="38.241062" lon="-1.0902482">
<ele>572</ele>
<time>2013-06-02T20:17:12Z</time>
</trkpt>
<trkpt lat="38.241108" lon="-1.0902375">
<ele>573</ele>
<time>2013-06-02T20:17:13Z</time>
</trkpt>
<trkpt lat="38.241154" lon="-1.090216">
<ele>573</ele>
<time>2013-06-02T20:17:14Z</time>
</trkpt>
<trkpt lat="38.241207" lon="-1.0901892">
<ele>573</ele>
<time>2013-06-02T20:17:15Z</time>
</trkpt>
<trkpt lat="38.241264" lon="-1.090157">
<ele>575</ele>
<time>2013-06-02T20:17:16Z</time>
</trkpt>
<trkpt lat="38.241318" lon="-1.0901302">
<ele>576</ele>
<time>2013-06-02T20:17:17Z</time>
</trkpt>
<trkpt lat="38.24136" lon="-1.0901034">
<ele>577</ele>
<time>2013-06-02T20:17:18Z</time>
</trkpt>
<trkpt lat="38.241405" lon="-1.0900658">
<ele>578</ele>
<time>2013-06-02T20:17:19Z</time>
</trkpt>
<trkpt lat="38.241444" lon="-1.0900283">
<ele>578</ele>
<time>2013-06-02T20:17:20Z</time>
</trkpt>
<trkpt lat="38.241516" lon="-1.0899156">
<ele>579</ele>
<time>2013-06-02T20:17:23Z</time>
</trkpt>
<trkpt lat="38.241524" lon="-1.0898674">
<ele>578</ele>
<time>2013-06-02T20:17:24Z</time>
</trkpt>
<trkpt lat="38.241535" lon="-1.0898137">
<ele>578</ele>
<time>2013-06-02T20:17:25Z</time>
</trkpt>
<trkpt lat="38.24156" lon="-1.0897654">
<ele>578</ele>
<time>2013-06-02T20:17:26Z</time>
</trkpt>
<trkpt lat="38.24159" lon="-1.0897279">
<ele>578</ele>
<time>2013-06-02T20:17:27Z</time>
</trkpt>
<trkpt lat="38.241615" lon="-1.0896957">
<ele>578</ele>
<time>2013-06-02T20:17:28Z</time>
</trkpt>
<trkpt lat="38.24165" lon="-1.0896689">
<ele>579</ele>
<time>2013-06-02T20:17:29Z</time>
</trkpt>
<trkpt lat="38.24168" lon="-1.0896474">
<ele>579</ele>
<time>2013-06-02T20:17:30Z</time>
</trkpt>
<trkpt lat="38.24172" lon="-1.0895991">
<ele>580</ele>
<time>2013-06-02T20:17:31Z</time>
</trkpt>
<trkpt lat="38.241734" lon="-1.0895562">
<ele>580</ele>
<time>2013-06-02T20:17:32Z</time>
</trkpt>
<trkpt lat="38.241745" lon="-1.0895079">
<ele>578</ele>
<time>2013-06-02T20:17:33Z</time>
</trkpt>
<trkpt lat="38.241695" lon="-1.0894328">
<ele>575</ele>
<time>2013-06-02T20:17:36Z</time>
</trkpt>
<trkpt lat="38.24167" lon="-1.0894221">
<ele>577</ele>
<time>2013-06-02T20:17:37Z</time>
</trkpt>
<trkpt lat="38.24164" lon="-1.0894275">
<ele>576</ele>
<time>2013-06-02T20:17:38Z</time>
</trkpt>
<trkpt lat="38.2416" lon="-1.0894489">
<ele>575</ele>
<time>2013-06-02T20:17:39Z</time>
</trkpt>
<trkpt lat="38.24155" lon="-1.0894865">
<ele>575</ele>
<time>2013-06-02T20:17:40Z</time>
</trkpt>
<trkpt lat="38.241497" lon="-1.0895294">
<ele>576</ele>
<time>2013-06-02T20:17:41Z</time>
</trkpt>
<trkpt lat="38.241455" lon="-1.0895777">
<ele>577</ele>
<time>2013-06-02T20:17:42Z</time>
</trkpt>
<trkpt lat="38.24136" lon="-1.0896635">
<ele>579</ele>
<time>2013-06-02T20:17:43Z</time>
</trkpt>
<trkpt lat="38.24128" lon="-1.0897654">
<ele>580</ele>
<time>2013-06-02T20:17:44Z</time>
</trkpt>
<trkpt lat="38.24122" lon="-1.0898566">
<ele>580</ele>
<time>2013-06-02T20:17:45Z</time>
</trkpt>
<trkpt lat="38.241177" lon="-1.0899478">
<ele>580</ele>
<time>2013-06-02T20:17:46Z</time>
</trkpt>
<trkpt lat="38.240993" lon="-1.0901409">
<ele>579</ele>
<time>2013-06-02T20:17:49Z</time>
</trkpt>
<trkpt lat="38.240925" lon="-1.0901678">
<ele>579</ele>
<time>2013-06-02T20:17:50Z</time>
</trkpt>
<trkpt lat="38.240856" lon="-1.0901892">
<ele>579</ele>
<time>2013-06-02T20:17:51Z</time>
</trkpt>
<trkpt lat="38.240784" lon="-1.0901892">
<ele>578</ele>
<time>2013-06-02T20:17:52Z</time>
</trkpt>
<trkpt lat="38.240746" lon="-1.0901731">
<ele>578</ele>
<time>2013-06-02T20:17:53Z</time>
</trkpt>
<trkpt lat="38.240692" lon="-1.090157">
<ele>578</ele>
<time>2013-06-02T20:17:54Z</time>
</trkpt>
<trkpt lat="38.240673" lon="-1.0901517">
<ele>578</ele>
<time>2013-06-02T20:17:55Z</time>
</trkpt>
<trkpt lat="38.240692" lon="-1.0901356">
<ele>577</ele>
<time>2013-06-02T20:17:56Z</time>
</trkpt>
<trkpt lat="38.24073" lon="-1.0901141">
<ele>576</ele>
<time>2013-06-02T20:17:57Z</time>
</trkpt>
<trkpt lat="38.240795" lon="-1.0900712">
<ele>576</ele>
<time>2013-06-02T20:17:58Z</time>
</trkpt>
<trkpt lat="38.240845" lon="-1.0900497">
<ele>576</ele>
<time>2013-06-02T20:17:59Z</time>
</trkpt>
<trkpt lat="38.24106" lon="-1.0899693">
<ele>578</ele>
<time>2013-06-02T20:18:02Z</time>
</trkpt>
<trkpt lat="38.241127" lon="-1.0899478">
<ele>578</ele>
<time>2013-06-02T20:18:03Z</time>
</trkpt>
<trkpt lat="38.2412" lon="-1.0899317">
<ele>578</ele>
<time>2013-06-02T20:18:04Z</time>
</trkpt>
<trkpt lat="38.241264" lon="-1.0899103">
<ele>579</ele>
<time>2013-06-02T20:18:05Z</time>
</trkpt>
<trkpt lat="38.241325" lon="-1.0899049">
<ele>580</ele>
<time>2013-06-02T20:18:06Z</time>
</trkpt>
<trkpt lat="38.241398" lon="-1.0898942">
<ele>580</ele>
<time>2013-06-02T20:18:07Z</time>
</trkpt>
<trkpt lat="38.241455" lon="-1.0898727">
<ele>580</ele>
<time>2013-06-02T20:18:08Z</time>
</trkpt>
<trkpt lat="38.24151" lon="-1.0898298">
<ele>580</ele>
<time>2013-06-02T20:18:09Z</time>
</trkpt>
<trkpt lat="38.241558" lon="-1.0897923">
<ele>581</ele>
<time>2013-06-02T20:18:10Z</time>
</trkpt>
<trkpt lat="38.24161" lon="-1.0897386">
<ele>581</ele>
<time>2013-06-02T20:18:11Z</time>
</trkpt>
<trkpt lat="38.24165" lon="-1.089701">
<ele>582</ele>
<time>2013-06-02T20:18:12Z</time>
</trkpt>
<trkpt lat="38.241665" lon="-1.0895562">
<ele>579</ele>
<time>2013-06-02T20:18:15Z</time>
</trkpt>
<trkpt lat="38.241676" lon="-1.0895294">
<ele>580</ele>
<time>2013-06-02T20:18:16Z</time>
</trkpt>
<trkpt lat="38.24166" lon="-1.0895079">
<ele>581</ele>
<time>2013-06-02T20:18:17Z</time>
</trkpt>
<trkpt lat="38.2416" lon="-1.0894972">
<ele>580</ele>
<time>2013-06-02T20:18:18Z</time>
</trkpt>
<trkpt lat="38.241558" lon="-1.0895187">
<ele>580</ele>
<time>2013-06-02T20:18:19Z</time>
</trkpt>
<trkpt lat="38.24148" lon="-1.089583">
<ele>580</ele>
<time>2013-06-02T20:18:20Z</time>
</trkpt>
<trkpt lat="38.241417" lon="-1.0896474">
<ele>580</ele>
<time>2013-06-02T20:18:21Z</time>
</trkpt>
<trkpt lat="38.241352" lon="-1.0897279">
<ele>581</ele>
<time>2013-06-02T20:18:22Z</time>
</trkpt>
<trkpt lat="38.241295" lon="-1.0898244">
<ele>582</ele>
<time>2013-06-02T20:18:23Z</time>
</trkpt>
<trkpt lat="38.24124" lon="-1.0899103">
<ele>583</ele>
<time>2013-06-02T20:18:24Z</time>
</trkpt>
<trkpt lat="38.241173" lon="-1.0899854">
<ele>581</ele>
<time>2013-06-02T20:18:25Z</time>
</trkpt>
<trkpt lat="38.24101" lon="-1.0900927">
<ele>583</ele>
<time>2013-06-02T20:18:28Z</time>
</trkpt>
<trkpt lat="38.240955" lon="-1.090098">
<ele>583</ele>
<time>2013-06-02T20:18:29Z</time>
</trkpt>
<trkpt lat="38.24092" lon="-1.0900873">
<ele>583</ele>
<time>2013-06-02T20:18:30Z</time>
</trkpt>
<trkpt lat="38.240875" lon="-1.0900766">
<ele>583</ele>
<time>2013-06-02T20:18:31Z</time>
</trkpt>
<trkpt lat="38.24085" lon="-1.0900605">
<ele>583</ele>
<time>2013-06-02T20:18:32Z</time>
</trkpt>
<trkpt lat="38.240833" lon="-1.0900497">
<ele>582</ele>
<time>2013-06-02T20:18:33Z</time>
</trkpt>
<trkpt lat="38.240845" lon="-1.0900497">
<ele>581</ele>
<time>2013-06-02T20:18:34Z</time>
</trkpt>
<trkpt lat="38.24087" lon="-1.090098">
<ele>581</ele>
<time>2013-06-02T20:18:35Z</time>
</trkpt>
<trkpt lat="38.240936" lon="-1.0900551">
<ele>582</ele>
<time>2013-06-02T20:18:36Z</time>
</trkpt>
<trkpt lat="38.241035" lon="-1.0900176">
<ele>585</ele>
<time>2013-06-02T20:18:37Z</time>
</trkpt>
<trkpt lat="38.241108" lon="-1.0899961">
<ele>585</ele>
<time>2013-06-02T20:18:38Z</time>
</trkpt>
<trkpt lat="38.24128" lon="-1.089921">
<ele>585</ele>
<time>2013-06-02T20:18:41Z</time>
</trkpt>
<trkpt lat="38.241333" lon="-1.0898781">
<ele>585</ele>
<time>2013-06-02T20:18:42Z</time>
</trkpt>
<trkpt lat="38.241386" lon="-1.0898298">
<ele>586</ele>
<time>2013-06-02T20:18:43Z</time>
</trkpt>
<trkpt lat="38.241444" lon="-1.0897923">
<ele>586</ele>
<time>2013-06-02T20:18:44Z</time>
</trkpt>
<trkpt lat="38.24151" lon="-1.0897601">
<ele>586</ele>
<time>2013-06-02T20:18:45Z</time>
</trkpt>
<trkpt lat="38.24156" lon="-1.0897601">
<ele>587</ele>
<time>2013-06-02T20:18:46Z</time>
</trkpt>
<trkpt lat="38.241627" lon="-1.0897547">
<ele>587</ele>
<time>2013-06-02T20:18:47Z</time>
</trkpt>
<trkpt lat="38.24169" lon="-1.0897225">
<ele>588</ele>
<time>2013-06-02T20:18:48Z</time>
</trkpt>
<trkpt lat="38.241745" lon="-1.0896957">
<ele>588</ele>
<time>2013-06-02T20:18:49Z</time>
</trkpt>
<trkpt lat="38.241814" lon="-1.0895777">
<ele>585</ele>
<time>2013-06-02T20:18:50Z</time>
</trkpt>
<trkpt lat="38.24186" lon="-1.089567">
<ele>586</ele>
<time>2013-06-02T20:18:51Z</time>
</trkpt>
<trkpt lat="38.242004" lon="-1.0894758">
<ele>587</ele>
<time>2013-06-02T20:18:54Z</time>
</trkpt>
<trkpt lat="38.242058" lon="-1.0894275">
<ele>587</ele>
<time>2013-06-02T20:18:55Z</time>
</trkpt>
<trkpt lat="38.242092" lon="-1.0893899">
<ele>587</ele>
<time>2013-06-02T20:18:56Z</time>
</trkpt>
<trkpt lat="38.24211" lon="-1.0893685">
<ele>587</ele>
<time>2013-06-02T20:18:57Z</time>
</trkpt>
<trkpt lat="38.242115" lon="-1.0893309">
<ele>586</ele>
<time>2013-06-02T20:18:58Z</time>
</trkpt>
<trkpt lat="38.24212" lon="-1.0892987">
<ele>588</ele>
<time>2013-06-02T20:18:59Z</time>
</trkpt>
<trkpt lat="38.2421" lon="-1.0892773">
<ele>589</ele>
<time>2013-06-02T20:19:00Z</time>
</trkpt>
<trkpt lat="38.242065" lon="-1.0892826">
<ele>588</ele>
<time>2013-06-02T20:19:01Z</time>
</trkpt>
<trkpt lat="38.241985" lon="-1.0893309">
<ele>587</ele>
<time>2013-06-02T20:19:02Z</time>
</trkpt>
<trkpt lat="38.2419" lon="-1.0893685">
<ele>586</ele>
<time>2013-06-02T20:19:03Z</time>
</trkpt>
<trkpt lat="38.241848" lon="-1.089406">
<ele>586</ele>
<time>2013-06-02T20:19:04Z</time>
</trkpt>
<trkpt lat="38.24166" lon="-1.0895294">
<ele>586</ele>
<time>2013-06-02T20:19:07Z</time>
</trkpt>
<trkpt lat="38.2416" lon="-1.089567">
<ele>585</ele>
<time>2013-06-02T20:19:08Z</time>
</trkpt>
<trkpt lat="38.241535" lon="-1.0896206">
<ele>586</ele>
<time>2013-06-02T20:19:09Z</time>
</trkpt>
<trkpt lat="38.241478" lon="-1.0896796">
<ele>586</ele>
<time>2013-06-02T20:19:10Z</time>
</trkpt>
<trkpt lat="38.24143" lon="-1.0897386">
<ele>587</ele>
<time>2013-06-02T20:19:11Z</time>
</trkpt>
<trkpt lat="38.241375" lon="-1.0897815">
<ele>587</ele>
<time>2013-06-02T20:19:12Z</time>
</trkpt>
<trkpt lat="38.241318" lon="-1.0898244">
<ele>587</ele>
<time>2013-06-02T20:19:13Z</time>
</trkpt>
<trkpt lat="38.241253" lon="-1.0898781">
<ele>587</ele>
<time>2013-06-02T20:19:14Z</time>
</trkpt>
<trkpt lat="38.24119" lon="-1.0899264">
<ele>588</ele>
<time>2013-06-02T20:19:15Z</time>
</trkpt>
<trkpt lat="38.241127" lon="-1.0899854">
<ele>588</ele>
<time>2013-06-02T20:19:16Z</time>
</trkpt>
<trkpt lat="38.24108" lon="-1.0900497">
<ele>589</ele>
<time>2013-06-02T20:19:17Z</time>
</trkpt>
<trkpt lat="38.240913" lon="-1.0902268">
<ele>588</ele>
<time>2013-06-02T20:19:20Z</time>
</trkpt>
<trkpt lat="38.24085" lon="-1.090275">
<ele>589</ele>
<time>2013-06-02T20:19:21Z</time>
</trkpt>
<trkpt lat="38.24078" lon="-1.0903502">
<ele>589</ele>
<time>2013-06-02T20:19:22Z</time>
</trkpt>
<trkpt lat="38.24071" lon="-1.0904199">
<ele>589</ele>
<time>2013-06-02T20:19:23Z</time>
</trkpt>
<trkpt lat="38.240635" lon="-1.090495">
<ele>589</ele>
<time>2013-06-02T20:19:24Z</time>
</trkpt>
<trkpt lat="38.240566" lon="-1.0905647">
<ele>588</ele>
<time>2013-06-02T20:19:25Z</time>
</trkpt>
<trkpt lat="38.240494" lon="-1.0906345">
<ele>588</ele>
<time>2013-06-02T20:19:26Z</time>
</trkpt>
<trkpt lat="38.240425" lon="-1.0907203">
<ele>588</ele>
<time>2013-06-02T20:19:27Z</time>
</trkpt>
<trkpt lat="38.24035" lon="-1.0907847">
<ele>588</ele>
<time>2013-06-02T20:19:28Z</time>
</trkpt>
<trkpt lat="38.240314" lon="-1.0908651">
<ele>588</ele>
<time>2013-06-02T20:19:29Z</time>
</trkpt>
<trkpt lat="38.24025" lon="-1.0909617">
<ele>588</ele>
<time>2013-06-02T20:19:30Z</time>
</trkpt>
<trkpt lat="38.24009" lon="-1.091305">
<ele>593</ele>
<time>2013-06-02T20:19:33Z</time>
</trkpt>
<trkpt lat="38.240005" lon="-1.0913962">
<ele>590</ele>
<time>2013-06-02T20:19:34Z</time>
</trkpt>
<trkpt lat="38.239944" lon="-1.0915089">
<ele>589</ele>
<time>2013-06-02T20:19:35Z</time>
</trkpt>
<trkpt lat="38.23988" lon="-1.0916269">
<ele>591</ele>
<time>2013-06-02T20:19:36Z</time>
</trkpt>
<trkpt lat="38.239815" lon="-1.0917395">
<ele>590</ele>
<time>2013-06-02T20:19:37Z</time>
</trkpt>
<trkpt lat="38.239746" lon="-1.0918415">
<ele>589</ele>
<time>2013-06-02T20:19:38Z</time>
</trkpt>
<trkpt lat="38.23968" lon="-1.0919487">
<ele>586</ele>
<time>2013-06-02T20:19:39Z</time>
</trkpt>
<trkpt lat="38.239616" lon="-1.0920721">
<ele>585</ele>
<time>2013-06-02T20:19:40Z</time>
</trkpt>
<trkpt lat="38.239548" lon="-1.0922009">
<ele>584</ele>
<time>2013-06-02T20:19:41Z</time>
</trkpt>
<trkpt lat="38.239483" lon="-1.092335">
<ele>584</ele>
<time>2013-06-02T20:19:42Z</time>
</trkpt>
<trkpt lat="38.239418" lon="-1.0924691">
<ele>584</ele>
<time>2013-06-02T20:19:43Z</time>
</trkpt>
<trkpt lat="38.239235" lon="-1.0928714">
<ele>582</ele>
<time>2013-06-02T20:19:46Z</time>
</trkpt>
<trkpt lat="38.23918" lon="-1.0930109">
<ele>582</ele>
<time>2013-06-02T20:19:47Z</time>
</trkpt>
<trkpt lat="38.239105" lon="-1.0931611">
<ele>580</ele>
<time>2013-06-02T20:19:48Z</time>
</trkpt>
<trkpt lat="38.23904" lon="-1.093306">
<ele>581</ele>
<time>2013-06-02T20:19:49Z</time>
</trkpt>
<trkpt lat="38.238976" lon="-1.0934508">
<ele>580</ele>
<time>2013-06-02T20:19:50Z</time>
</trkpt>
<trkpt lat="38.238907" lon="-1.0936171">
<ele>580</ele>
<time>2013-06-02T20:19:51Z</time>
</trkpt>
<trkpt lat="38.238853" lon="-1.0937673">
<ele>580</ele>
<time>2013-06-02T20:19:52Z</time>
</trkpt>
<trkpt lat="38.238796" lon="-1.0939175">
<ele>581</ele>
<time>2013-06-02T20:19:53Z</time>
</trkpt>
<trkpt lat="38.238743" lon="-1.0940892">
<ele>580</ele>
<time>2013-06-02T20:19:54Z</time>
</trkpt>
<trkpt lat="38.238667" lon="-1.0942447">
<ele>581</ele>
<time>2013-06-02T20:19:55Z</time>
</trkpt>
<trkpt lat="38.238625" lon="-1.0943842">
<ele>580</ele>
<time>2013-06-02T20:19:56Z</time>
</trkpt>
<trkpt lat="38.238495" lon="-1.0948509">
<ele>579</ele>
<time>2013-06-02T20:19:59Z</time>
</trkpt>
<trkpt lat="38.238407" lon="-1.0950172">
<ele>579</ele>
<time>2013-06-02T20:20:00Z</time>
</trkpt>
<trkpt lat="38.23834" lon="-1.0951835">
<ele>579</ele>
<time>2013-06-02T20:20:01Z</time>
</trkpt>
<trkpt lat="38.2383" lon="-1.0953337">
<ele>579</ele>
<time>2013-06-02T20:20:02Z</time>
</trkpt>
<trkpt lat="38.238308" lon="-1.0954678">
<ele>578</ele>
<time>2013-06-02T20:20:03Z</time>
</trkpt>
<trkpt lat="38.238342" lon="-1.0955751">
<ele>577</ele>
<time>2013-06-02T20:20:04Z</time>
</trkpt>
<trkpt lat="38.23834" lon="-1.0957575">
<ele>576</ele>
<time>2013-06-02T20:20:05Z</time>
</trkpt>
<trkpt lat="38.238354" lon="-1.095897">
<ele>576</ele>
<time>2013-06-02T20:20:06Z</time>
</trkpt>
<trkpt lat="38.238365" lon="-1.0960793">
<ele>575</ele>
<time>2013-06-02T20:20:07Z</time>
</trkpt>
<trkpt lat="38.238373" lon="-1.0962403">
<ele>575</ele>
<time>2013-06-02T20:20:08Z</time>
</trkpt>
<trkpt lat="38.238335" lon="-1.096369">
<ele>573</ele>
<time>2013-06-02T20:20:09Z</time>
</trkpt>
<trkpt lat="38.23822" lon="-1.0967714">
<ele>571</ele>
<time>2013-06-02T20:20:12Z</time>
</trkpt>
<trkpt lat="38.2382" lon="-1.0969055">
<ele>571</ele>
<time>2013-06-02T20:20:13Z</time>
</trkpt>
<trkpt lat="38.238167" lon="-1.0970342">
<ele>571</ele>
<time>2013-06-02T20:20:14Z</time>
</trkpt>
<trkpt lat="38.238144" lon="-1.0972112">
<ele>571</ele>
<time>2013-06-02T20:20:15Z</time>
</trkpt>
<trkpt lat="38.238117" lon="-1.0974258">
<ele>567</ele>
<time>2013-06-02T20:20:16Z</time>
</trkpt>
<trkpt lat="38.238083" lon="-1.0975707">
<ele>566</ele>
<time>2013-06-02T20:20:17Z</time>
</trkpt>
<trkpt lat="38.238064" lon="-1.0977262">
<ele>566</ele>
<time>2013-06-02T20:20:18Z</time>
</trkpt>
<trkpt lat="38.238033" lon="-1.0978496">
<ele>564</ele>
<time>2013-06-02T20:20:19Z</time>
</trkpt>
<trkpt lat="38.23803" lon="-1.0979891">
<ele>564</ele>
<time>2013-06-02T20:20:20Z</time>
</trkpt>
<trkpt lat="38.23801" lon="-1.0981125">
<ele>563</ele>
<time>2013-06-02T20:20:21Z</time>
</trkpt>
<trkpt lat="38.238" lon="-1.0983002">
<ele>562</ele>
<time>2013-06-02T20:20:22Z</time>
</trkpt>
<trkpt lat="38.237995" lon="-1.0987884">
<ele>562</ele>
<time>2013-06-02T20:20:25Z</time>
</trkpt>
<trkpt lat="38.238" lon="-1.0989708">
<ele>562</ele>
<time>2013-06-02T20:20:26Z</time>
</trkpt>
<trkpt lat="38.238" lon="-1.0991263">
<ele>562</ele>
<time>2013-06-02T20:20:27Z</time>
</trkpt>
<trkpt lat="38.238" lon="-1.099298">
<ele>562</ele>
<time>2013-06-02T20:20:28Z</time>
</trkpt>
<trkpt lat="38.238018" lon="-1.0994804">
<ele>562</ele>
<time>2013-06-02T20:20:29Z</time>
</trkpt>
<trkpt lat="38.238007" lon="-1.0996413">
<ele>562</ele>
<time>2013-06-02T20:20:30Z</time>
</trkpt>
<trkpt lat="38.237995" lon="-1.0998183">
<ele>562</ele>
<time>2013-06-02T20:20:31Z</time>
</trkpt>
<trkpt lat="38.238007" lon="-1.1000168">
<ele>561</ele>
<time>2013-06-02T20:20:32Z</time>
</trkpt>
<trkpt lat="38.23801" lon="-1.1001778">
<ele>560</ele>
<time>2013-06-02T20:20:33Z</time>
</trkpt>
<trkpt lat="38.23801" lon="-1.1003387">
<ele>560</ele>
<time>2013-06-02T20:20:34Z</time>
</trkpt>
<trkpt lat="38.23802" lon="-1.1004996">
<ele>560</ele>
<time>2013-06-02T20:20:35Z</time>
</trkpt>
<trkpt lat="38.238045" lon="-1.10102">
<ele>558</ele>
<time>2013-06-02T20:20:38Z</time>
</trkpt>
<trkpt lat="38.238045" lon="-1.1011809">
<ele>558</ele>
<time>2013-06-02T20:20:39Z</time>
</trkpt>
<trkpt lat="38.238037" lon="-1.1013365">
<ele>558</ele>
<time>2013-06-02T20:20:40Z</time>
</trkpt>
<trkpt lat="38.238045" lon="-1.1014813">
<ele>558</ele>
<time>2013-06-02T20:20:41Z</time>
</trkpt>
<trkpt lat="38.238037" lon="-1.1016369">
<ele>558</ele>
<time>2013-06-02T20:20:42Z</time>
</trkpt>
<trkpt lat="38.238033" lon="-1.1017925">
<ele>558</ele>
<time>2013-06-02T20:20:43Z</time>
</trkpt>
<trkpt lat="38.23803" lon="-1.1019427">
<ele>558</ele>
<time>2013-06-02T20:20:44Z</time>
</trkpt>
<trkpt lat="38.238007" lon="-1.1021036">
<ele>558</ele>
<time>2013-06-02T20:20:45Z</time>
</trkpt>
<trkpt lat="38.23797" lon="-1.1022377">
<ele>553</ele>
<time>2013-06-02T20:20:46Z</time>
</trkpt>
<trkpt lat="38.237965" lon="-1.1023986">
<ele>553</ele>
<time>2013-06-02T20:20:47Z</time>
</trkpt>
<trkpt lat="38.237965" lon="-1.1025327">
<ele>553</ele>
<time>2013-06-02T20:20:48Z</time>
</trkpt>
<trkpt lat="38.237938" lon="-1.1029619">
<ele>553</ele>
<time>2013-06-02T20:20:51Z</time>
</trkpt>
<trkpt lat="38.237926" lon="-1.1031014">
<ele>553</ele>
<time>2013-06-02T20:20:52Z</time>
</trkpt>
<trkpt lat="38.2379" lon="-1.1032838">
<ele>551</ele>
<time>2013-06-02T20:20:53Z</time>
</trkpt>
<trkpt lat="38.237873" lon="-1.1034071">
<ele>548</ele>
<time>2013-06-02T20:20:54Z</time>
</trkpt>
<trkpt lat="38.237774" lon="-1.1034983">
<ele>538</ele>
<time>2013-06-02T20:20:55Z</time>
</trkpt>
<trkpt lat="38.237717" lon="-1.1036056">
<ele>532</ele>
<time>2013-06-02T20:20:56Z</time>
</trkpt>
<trkpt lat="38.23768" lon="-1.1037236">
<ele>531</ele>
<time>2013-06-02T20:20:57Z</time>
</trkpt>
<trkpt lat="38.23763" lon="-1.1038256">
<ele>530</ele>
<time>2013-06-02T20:20:58Z</time>
</trkpt>
<trkpt lat="38.237602" lon="-1.1038846">
<ele>530</ele>
<time>2013-06-02T20:20:59Z</time>
</trkpt>
<trkpt lat="38.237576" lon="-1.1039972">
<ele>530</ele>
<time>2013-06-02T20:21:00Z</time>
</trkpt>
<trkpt lat="38.23755" lon="-1.1041152">
<ele>530</ele>
<time>2013-06-02T20:21:01Z</time>
</trkpt>
<trkpt lat="38.23744" lon="-1.1044478">
<ele>529</ele>
<time>2013-06-02T20:21:04Z</time>
</trkpt>
<trkpt lat="38.237377" lon="-1.104582">
<ele>529</ele>
<time>2013-06-02T20:21:05Z</time>
</trkpt>
<trkpt lat="38.23733" lon="-1.1047214">
<ele>529</ele>
<time>2013-06-02T20:21:06Z</time>
</trkpt>
<trkpt lat="38.237335" lon="-1.1048985">
<ele>525</ele>
<time>2013-06-02T20:21:07Z</time>
</trkpt>
<trkpt lat="38.23728" lon="-1.1050272">
<ele>524</ele>
<time>2013-06-02T20:21:08Z</time>
</trkpt>
<trkpt lat="38.237232" lon="-1.1051506">
<ele>523</ele>
<time>2013-06-02T20:21:09Z</time>
</trkpt>
<trkpt lat="38.237186" lon="-1.1052525">
<ele>523</ele>
<time>2013-06-02T20:21:10Z</time>
</trkpt>
<trkpt lat="38.23712" lon="-1.1053491">
<ele>522</ele>
<time>2013-06-02T20:21:11Z</time>
</trkpt>
<trkpt lat="38.23707" lon="-1.1054403">
<ele>522</ele>
<time>2013-06-02T20:21:12Z</time>
</trkpt>
<trkpt lat="38.237003" lon="-1.1055261">
<ele>522</ele>
<time>2013-06-02T20:21:13Z</time>
</trkpt>
<trkpt lat="38.23694" lon="-1.1056119">
<ele>522</ele>
<time>2013-06-02T20:21:14Z</time>
</trkpt>
<trkpt lat="38.23677" lon="-1.1059177">
<ele>522</ele>
<time>2013-06-02T20:21:17Z</time>
</trkpt>
<trkpt lat="38.236717" lon="-1.106025">
<ele>521</ele>
<time>2013-06-02T20:21:18Z</time>
</trkpt>
<trkpt lat="38.23667" lon="-1.1061269">
<ele>521</ele>
<time>2013-06-02T20:21:19Z</time>
</trkpt>
<trkpt lat="38.23662" lon="-1.1062342">
<ele>521</ele>
<time>2013-06-02T20:21:20Z</time>
</trkpt>
<trkpt lat="38.23657" lon="-1.1063361">
<ele>520</ele>
<time>2013-06-02T20:21:21Z</time>
</trkpt>
<trkpt lat="38.23652" lon="-1.1064434">
<ele>519</ele>
<time>2013-06-02T20:21:22Z</time>
</trkpt>
<trkpt lat="38.23646" lon="-1.1065507">
<ele>519</ele>
<time>2013-06-02T20:21:23Z</time>
</trkpt>
<trkpt lat="38.236412" lon="-1.1066526">
<ele>519</ele>
<time>2013-06-02T20:21:24Z</time>
</trkpt>
<trkpt lat="38.23636" lon="-1.1067492">
<ele>519</ele>
<time>2013-06-02T20:21:25Z</time>
</trkpt>
<trkpt lat="38.236305" lon="-1.1068457">
<ele>518</ele>
<time>2013-06-02T20:21:26Z</time>
</trkpt>
<trkpt lat="38.23624" lon="-1.1069316">
<ele>518</ele>
<time>2013-06-02T20:21:27Z</time>
</trkpt>
<trkpt lat="38.236042" lon="-1.1071461">
<ele>517</ele>
<time>2013-06-02T20:21:30Z</time>
</trkpt>
<trkpt lat="38.235977" lon="-1.1072212">
<ele>518</ele>
<time>2013-06-02T20:21:31Z</time>
</trkpt>
<trkpt lat="38.23592" lon="-1.1072963">
<ele>517</ele>
<time>2013-06-02T20:21:32Z</time>
</trkpt>
<trkpt lat="38.23585" lon="-1.1073822">
<ele>517</ele>
<time>2013-06-02T20:21:33Z</time>
</trkpt>
<trkpt lat="38.23578" lon="-1.107468">
<ele>517</ele>
<time>2013-06-02T20:21:34Z</time>
</trkpt>
<trkpt lat="38.235706" lon="-1.1075485">
<ele>517</ele>
<time>2013-06-02T20:21:35Z</time>
</trkpt>
<trkpt lat="38.235634" lon="-1.1076236">
<ele>518</ele>
<time>2013-06-02T20:21:36Z</time>
</trkpt>
<trkpt lat="38.235577" lon="-1.107704">
<ele>519</ele>
<time>2013-06-02T20:21:37Z</time>
</trkpt>
<trkpt lat="38.235516" lon="-1.1077738">
<ele>518</ele>
<time>2013-06-02T20:21:38Z</time>
</trkpt>
<trkpt lat="38.235455" lon="-1.107865">
<ele>517</ele>
<time>2013-06-02T20:21:39Z</time>
</trkpt>
<trkpt lat="38.235394" lon="-1.1079508">
<ele>517</ele>
<time>2013-06-02T20:21:40Z</time>
</trkpt>
<trkpt lat="38.235233" lon="-1.1082512">
<ele>516</ele>
<time>2013-06-02T20:21:43Z</time>
</trkpt>
<trkpt lat="38.23517" lon="-1.1083156">
<ele>516</ele>
<time>2013-06-02T20:21:44Z</time>
</trkpt>
<trkpt lat="38.235104" lon="-1.10838">
<ele>516</ele>
<time>2013-06-02T20:21:45Z</time>
</trkpt>
<trkpt lat="38.23504" lon="-1.1084443">
<ele>516</ele>
<time>2013-06-02T20:21:46Z</time>
</trkpt>
<trkpt lat="38.234966" lon="-1.1084712">
<ele>516</ele>
<time>2013-06-02T20:21:47Z</time>
</trkpt>
<trkpt lat="38.234894" lon="-1.1084872">
<ele>516</ele>
<time>2013-06-02T20:21:48Z</time>
</trkpt>
<trkpt lat="38.234837" lon="-1.1084819">
<ele>516</ele>
<time>2013-06-02T20:21:49Z</time>
</trkpt>
<trkpt lat="38.23477" lon="-1.1084497">
<ele>516</ele>
<time>2013-06-02T20:21:50Z</time>
</trkpt>
<trkpt lat="38.23472" lon="-1.1084175">
<ele>515</ele>
<time>2013-06-02T20:21:51Z</time>
</trkpt>
<trkpt lat="38.234745" lon="-1.108321">
<ele>515</ele>
<time>2013-06-02T20:21:52Z</time>
</trkpt>
<trkpt lat="38.234783" lon="-1.1082405">
<ele>514</ele>
<time>2013-06-02T20:21:53Z</time>
</trkpt>
<trkpt lat="38.234867" lon="-1.1081278">
<ele>513</ele>
<time>2013-06-02T20:21:56Z</time>
</trkpt>
<trkpt lat="38.2349" lon="-1.1080849">
<ele>512</ele>
<time>2013-06-02T20:21:57Z</time>
</trkpt>
<trkpt lat="38.234943" lon="-1.1080313">
<ele>512</ele>
<time>2013-06-02T20:21:58Z</time>
</trkpt>
<trkpt lat="38.23498" lon="-1.1079884">
<ele>512</ele>
<time>2013-06-02T20:21:59Z</time>
</trkpt>
<trkpt lat="38.23502" lon="-1.1079508">
<ele>512</ele>
<time>2013-06-02T20:22:00Z</time>
</trkpt>
<trkpt lat="38.23505" lon="-1.1079186">
<ele>511</ele>
<time>2013-06-02T20:22:01Z</time>
</trkpt>
<trkpt lat="38.23509" lon="-1.1079079">
<ele>512</ele>
<time>2013-06-02T20:22:02Z</time>
</trkpt>
<trkpt lat="38.23511" lon="-1.1078811">
<ele>510</ele>
<time>2013-06-02T20:22:03Z</time>
</trkpt>
<trkpt lat="38.23514" lon="-1.1078489">
<ele>509</ele>
<time>2013-06-02T20:22:04Z</time>
</trkpt>
<trkpt lat="38.23519" lon="-1.1078274">
<ele>509</ele>
<time>2013-06-02T20:22:05Z</time>
</trkpt>
<trkpt lat="38.235237" lon="-1.1078006">
<ele>509</ele>
<time>2013-06-02T20:22:06Z</time>
</trkpt>
<trkpt lat="38.23538" lon="-1.1077416">
<ele>508</ele>
<time>2013-06-02T20:22:09Z</time>
</trkpt>
<trkpt lat="38.235428" lon="-1.1077201">
<ele>508</ele>
<time>2013-06-02T20:22:10Z</time>
</trkpt>
<trkpt lat="38.235462" lon="-1.1076826">
<ele>508</ele>
<time>2013-06-02T20:22:11Z</time>
</trkpt>
<trkpt lat="38.235508" lon="-1.1076021">
<ele>507</ele>
<time>2013-06-02T20:22:12Z</time>
</trkpt>
<trkpt lat="38.23556" lon="-1.1075217">
<ele>507</ele>
<time>2013-06-02T20:22:13Z</time>
</trkpt>
<trkpt lat="38.235596" lon="-1.1074412">
<ele>508</ele>
<time>2013-06-02T20:22:14Z</time>
</trkpt>
<trkpt lat="38.23562" lon="-1.1073875">
<ele>507</ele>
<time>2013-06-02T20:22:15Z</time>
</trkpt>
<trkpt lat="38.235645" lon="-1.1073768">
<ele>508</ele>
<time>2013-06-02T20:22:16Z</time>
</trkpt>
<trkpt lat="38.23566" lon="-1.10735">
<ele>508</ele>
<time>2013-06-02T20:22:17Z</time>
</trkpt>
<trkpt lat="38.23568" lon="-1.1073178">
<ele>507</ele>
<time>2013-06-02T20:22:18Z</time>
</trkpt>
<trkpt lat="38.235695" lon="-1.1072642">
<ele>506</ele>
<time>2013-06-02T20:22:19Z</time>
</trkpt>
<trkpt lat="38.23577" lon="-1.107114">
<ele>506</ele>
<time>2013-06-02T20:22:22Z</time>
</trkpt>
<trkpt lat="38.23579" lon="-1.1070818">
<ele>507</ele>
<time>2013-06-02T20:22:23Z</time>
</trkpt>
<trkpt lat="38.235806" lon="-1.1070496">
<ele>507</ele>
<time>2013-06-02T20:22:24Z</time>
</trkpt>
<trkpt lat="38.235817" lon="-1.107012">
<ele>506</ele>
<time>2013-06-02T20:22:25Z</time>
</trkpt>
<trkpt lat="38.23584" lon="-1.1069691">
<ele>505</ele>
<time>2013-06-02T20:22:26Z</time>
</trkpt>
<trkpt lat="38.23586" lon="-1.1069208">
<ele>504</ele>
<time>2013-06-02T20:22:27Z</time>
</trkpt>
<trkpt lat="38.235893" lon="-1.1068887">
<ele>504</ele>
<time>2013-06-02T20:22:28Z</time>
</trkpt>
<trkpt lat="38.23592" lon="-1.1068511">
<ele>505</ele>
<time>2013-06-02T20:22:29Z</time>
</trkpt>
<trkpt lat="38.235947" lon="-1.1068189">
<ele>505</ele>
<time>2013-06-02T20:22:30Z</time>
</trkpt>
<trkpt lat="38.235973" lon="-1.1067867">
<ele>504</ele>
<time>2013-06-02T20:22:31Z</time>
</trkpt>
<trkpt lat="38.236004" lon="-1.1067384">
<ele>504</ele>
<time>2013-06-02T20:22:32Z</time>
</trkpt>
<trkpt lat="38.236107" lon="-1.1066204">
<ele>504</ele>
<time>2013-06-02T20:22:35Z</time>
</trkpt>
<trkpt lat="38.23614" lon="-1.1065775">
<ele>503</ele>
<time>2013-06-02T20:22:36Z</time>
</trkpt>
<trkpt lat="38.236168" lon="-1.1065453">
<ele>502</ele>
<time>2013-06-02T20:22:37Z</time>
</trkpt>
<trkpt lat="38.236195" lon="-1.106497">
<ele>501</ele>
<time>2013-06-02T20:22:38Z</time>
</trkpt>
<trkpt lat="38.236237" lon="-1.106438">
<ele>501</ele>
<time>2013-06-02T20:22:39Z</time>
</trkpt>
<trkpt lat="38.23628" lon="-1.1063737">
<ele>500</ele>
<time>2013-06-02T20:22:40Z</time>
</trkpt>
<trkpt lat="38.236317" lon="-1.1063361">
<ele>501</ele>
<time>2013-06-02T20:22:41Z</time>
</trkpt>
<trkpt lat="38.23636" lon="-1.1062932">
<ele>500</ele>
<time>2013-06-02T20:22:42Z</time>
</trkpt>
<trkpt lat="38.236397" lon="-1.106261">
<ele>500</ele>
<time>2013-06-02T20:22:43Z</time>
</trkpt>
<trkpt lat="38.236427" lon="-1.1062235">
<ele>499</ele>
<time>2013-06-02T20:22:44Z</time>
</trkpt>
<trkpt lat="38.236458" lon="-1.1061752">
<ele>498</ele>
<time>2013-06-02T20:22:45Z</time>
</trkpt>
<trkpt lat="38.236553" lon="-1.1060357">
<ele>497</ele>
<time>2013-06-02T20:22:48Z</time>
</trkpt>
<trkpt lat="38.236584" lon="-1.1059982">
<ele>497</ele>
<time>2013-06-02T20:22:49Z</time>
</trkpt>
<trkpt lat="38.2366" lon="-1.1059499">
<ele>496</ele>
<time>2013-06-02T20:22:50Z</time>
</trkpt>
<trkpt lat="38.23662" lon="-1.1058962">
<ele>496</ele>
<time>2013-06-02T20:22:51Z</time>
</trkpt>
<trkpt lat="38.236637" lon="-1.1058426">
<ele>496</ele>
<time>2013-06-02T20:22:52Z</time>
</trkpt>
<trkpt lat="38.236656" lon="-1.1057836">
<ele>496</ele>
<time>2013-06-02T20:22:53Z</time>
</trkpt>
<trkpt lat="38.236664" lon="-1.1057299">
<ele>497</ele>
<time>2013-06-02T20:22:54Z</time>
</trkpt>
<trkpt lat="38.23667" lon="-1.1056763">
<ele>497</ele>
<time>2013-06-02T20:22:55Z</time>
</trkpt>
<trkpt lat="38.23666" lon="-1.1056226">
<ele>497</ele>
<time>2013-06-02T20:22:56Z</time>
</trkpt>
<trkpt lat="38.236664" lon="-1.1055851">
<ele>497</ele>
<time>2013-06-02T20:22:57Z</time>
</trkpt>
<trkpt lat="38.23666" lon="-1.1055529">
<ele>496</ele>
<time>2013-06-02T20:22:58Z</time>
</trkpt>
<trkpt lat="38.236656" lon="-1.105392">
<ele>494</ele>
<time>2013-06-02T20:23:01Z</time>
</trkpt>
<trkpt lat="38.23666" lon="-1.1053383">
<ele>494</ele>
<time>2013-06-02T20:23:02Z</time>
</trkpt>
<trkpt lat="38.23667" lon="-1.1052847">
<ele>494</ele>
<time>2013-06-02T20:23:03Z</time>
</trkpt>
<trkpt lat="38.236687" lon="-1.1052579">
<ele>495</ele>
<time>2013-06-02T20:23:04Z</time>
</trkpt>
<trkpt lat="38.23671" lon="-1.1052364">
<ele>494</ele>
<time>2013-06-02T20:23:05Z</time>
</trkpt>
<trkpt lat="38.236725" lon="-1.1052096">
<ele>493</ele>
<time>2013-06-02T20:23:06Z</time>
</trkpt>
<trkpt lat="38.236755" lon="-1.105172">
<ele>493</ele>
<time>2013-06-02T20:23:07Z</time>
</trkpt>
<trkpt lat="38.2368" lon="-1.1051291">
<ele>493</ele>
<time>2013-06-02T20:23:08Z</time>
</trkpt>
<trkpt lat="38.236855" lon="-1.1051023">
<ele>494</ele>
<time>2013-06-02T20:23:09Z</time>
</trkpt>
<trkpt lat="38.236908" lon="-1.1050808">
<ele>495</ele>
<time>2013-06-02T20:23:10Z</time>
</trkpt>
<trkpt lat="38.23696" lon="-1.1050647">
<ele>496</ele>
<time>2013-06-02T20:23:11Z</time>
</trkpt>
<trkpt lat="38.237133" lon="-1.1050057">
<ele>497</ele>
<time>2013-06-02T20:23:14Z</time>
</trkpt>
<trkpt lat="38.237186" lon="-1.1049843">
<ele>497</ele>
<time>2013-06-02T20:23:15Z</time>
</trkpt>
<trkpt lat="38.237232" lon="-1.1049521">
<ele>497</ele>
<time>2013-06-02T20:23:16Z</time>
</trkpt>
<trkpt lat="38.237286" lon="-1.1049253">
<ele>498</ele>
<time>2013-06-02T20:23:17Z</time>
</trkpt>
<trkpt lat="38.23733" lon="-1.1048877">
<ele>497</ele>
<time>2013-06-02T20:23:18Z</time>
</trkpt>
<trkpt lat="38.237373" lon="-1.1048555">
<ele>497</ele>
<time>2013-06-02T20:23:19Z</time>
</trkpt>
<trkpt lat="38.237427" lon="-1.104818">
<ele>497</ele>
<time>2013-06-02T20:23:20Z</time>
</trkpt>
<trkpt lat="38.237465" lon="-1.1047751">
<ele>496</ele>
<time>2013-06-02T20:23:21Z</time>
</trkpt>
<trkpt lat="38.237522" lon="-1.1047322">
<ele>497</ele>
<time>2013-06-02T20:23:22Z</time>
</trkpt>
<trkpt lat="38.23757" lon="-1.1046839">
<ele>496</ele>
<time>2013-06-02T20:23:23Z</time>
</trkpt>
<trkpt lat="38.23762" lon="-1.1046302">
<ele>495</ele>
<time>2013-06-02T20:23:24Z</time>
</trkpt>
<trkpt lat="38.237774" lon="-1.1044532">
<ele>495</ele>
<time>2013-06-02T20:23:27Z</time>
</trkpt>
<trkpt lat="38.237823" lon="-1.1044157">
<ele>495</ele>
<time>2013-06-02T20:23:28Z</time>
</trkpt>
<trkpt lat="38.23786" lon="-1.1043781">
<ele>495</ele>
<time>2013-06-02T20:23:29Z</time>
</trkpt>
<trkpt lat="38.237904" lon="-1.1043352">
<ele>494</ele>
<time>2013-06-02T20:23:30Z</time>
</trkpt>
<trkpt lat="38.237946" lon="-1.1042923">
<ele>494</ele>
<time>2013-06-02T20:23:31Z</time>
</trkpt>
<trkpt lat="38.237995" lon="-1.1042547">
<ele>494</ele>
<time>2013-06-02T20:23:32Z</time>
</trkpt>
<trkpt lat="38.238033" lon="-1.1042172">
<ele>493</ele>
<time>2013-06-02T20:23:33Z</time>
</trkpt>
<trkpt lat="38.238075" lon="-1.1041796">
<ele>492</ele>
<time>2013-06-02T20:23:34Z</time>
</trkpt>
<trkpt lat="38.238117" lon="-1.1041474">
<ele>492</ele>
<time>2013-06-02T20:23:35Z</time>
</trkpt>
<trkpt lat="38.238155" lon="-1.1041099">
<ele>492</ele>
<time>2013-06-02T20:23:36Z</time>
</trkpt>
<trkpt lat="38.2382" lon="-1.104067">
<ele>492</ele>
<time>2013-06-02T20:23:37Z</time>
</trkpt>
<trkpt lat="38.2383" lon="-1.1039543">
<ele>491</ele>
<time>2013-06-02T20:23:40Z</time>
</trkpt>
<trkpt lat="38.238335" lon="-1.1039221">
<ele>491</ele>
<time>2013-06-02T20:23:41Z</time>
</trkpt>
<trkpt lat="38.238373" lon="-1.1038953">
<ele>491</ele>
<time>2013-06-02T20:23:42Z</time>
</trkpt>
<trkpt lat="38.238407" lon="-1.1038685">
<ele>492</ele>
<time>2013-06-02T20:23:43Z</time>
</trkpt>
<trkpt lat="38.238445" lon="-1.1038309">
<ele>492</ele>
<time>2013-06-02T20:23:44Z</time>
</trkpt>
<trkpt lat="38.238483" lon="-1.103788">
<ele>493</ele>
<time>2013-06-02T20:23:45Z</time>
</trkpt>
<trkpt lat="38.23851" lon="-1.1037558">
<ele>494</ele>
<time>2013-06-02T20:23:46Z</time>
</trkpt>
<trkpt lat="38.238537" lon="-1.1037076">
<ele>495</ele>
<time>2013-06-02T20:23:47Z</time>
</trkpt>
<trkpt lat="38.23855" lon="-1.1036593">
<ele>494</ele>
<time>2013-06-02T20:23:48Z</time>
</trkpt>
<trkpt lat="38.238544" lon="-1.1036217">
<ele>494</ele>
<time>2013-06-02T20:23:49Z</time>
</trkpt>
<trkpt lat="38.238525" lon="-1.1035895">
<ele>493</ele>
<time>2013-06-02T20:23:50Z</time>
</trkpt>
<trkpt lat="38.23838" lon="-1.1035788">
<ele>492</ele>
<time>2013-06-02T20:23:53Z</time>
</trkpt>
<trkpt lat="38.238335" lon="-1.1036056">
<ele>492</ele>
<time>2013-06-02T20:23:54Z</time>
</trkpt>
<trkpt lat="38.238274" lon="-1.1036754">
<ele>492</ele>
<time>2013-06-02T20:23:55Z</time>
</trkpt>
<trkpt lat="38.238205" lon="-1.103788">
<ele>492</ele>
<time>2013-06-02T20:23:56Z</time>
</trkpt>
<trkpt lat="38.238167" lon="-1.1038953">
<ele>492</ele>
<time>2013-06-02T20:23:57Z</time>
</trkpt>
<trkpt lat="38.238125" lon="-1.1039972">
<ele>493</ele>
<time>2013-06-02T20:23:58Z</time>
</trkpt>
<trkpt lat="38.23807" lon="-1.1040884">
<ele>493</ele>
<time>2013-06-02T20:23:59Z</time>
</trkpt>
<trkpt lat="38.238018" lon="-1.1041689">
<ele>493</ele>
<time>2013-06-02T20:24:00Z</time>
</trkpt>
<trkpt lat="38.23797" lon="-1.1042386">
<ele>493</ele>
<time>2013-06-02T20:24:01Z</time>
</trkpt>
<trkpt lat="38.23791" lon="-1.1043084">
<ele>493</ele>
<time>2013-06-02T20:24:02Z</time>
</trkpt>
<trkpt lat="38.23786" lon="-1.1043888">
<ele>493</ele>
<time>2013-06-02T20:24:03Z</time>
</trkpt>
<trkpt lat="38.237705" lon="-1.1046249">
<ele>493</ele>
<time>2013-06-02T20:24:06Z</time>
</trkpt>
<trkpt lat="38.237656" lon="-1.1047107">
<ele>494</ele>
<time>2013-06-02T20:24:07Z</time>
</trkpt>
<trkpt lat="38.237602" lon="-1.1047965">
<ele>495</ele>
<time>2013-06-02T20:24:08Z</time>
</trkpt>
<trkpt lat="38.237556" lon="-1.1048716">
<ele>496</ele>
<time>2013-06-02T20:24:09Z</time>
</trkpt>
<trkpt lat="38.237514" lon="-1.1049467">
<ele>496</ele>
<time>2013-06-02T20:24:10Z</time>
</trkpt>
<trkpt lat="38.23747" lon="-1.1050326">
<ele>495</ele>
<time>2013-06-02T20:24:11Z</time>
</trkpt>
<trkpt lat="38.237427" lon="-1.105113">
<ele>495</ele>
<time>2013-06-02T20:24:12Z</time>
</trkpt>
<trkpt lat="38.237377" lon="-1.1051989">
<ele>495</ele>
<time>2013-06-02T20:24:13Z</time>
</trkpt>
<trkpt lat="38.23733" lon="-1.1052793">
<ele>495</ele>
<time>2013-06-02T20:24:14Z</time>
</trkpt>
<trkpt lat="38.23728" lon="-1.1053544">
<ele>496</ele>
<time>2013-06-02T20:24:15Z</time>
</trkpt>
<trkpt lat="38.237232" lon="-1.1054242">
<ele>496</ele>
<time>2013-06-02T20:24:16Z</time>
</trkpt>
<trkpt lat="38.23706" lon="-1.1055797">
<ele>495</ele>
<time>2013-06-02T20:24:19Z</time>
</trkpt>
<trkpt lat="38.237003" lon="-1.1055958">
<ele>495</ele>
<time>2013-06-02T20:24:20Z</time>
</trkpt>
<trkpt lat="38.236927" lon="-1.1055958">
<ele>495</ele>
<time>2013-06-02T20:24:21Z</time>
</trkpt>
<trkpt lat="38.236874" lon="-1.1055636">
<ele>495</ele>
<time>2013-06-02T20:24:22Z</time>
</trkpt>
<trkpt lat="38.23686" lon="-1.1054939">
<ele>494</ele>
<time>2013-06-02T20:24:23Z</time>
</trkpt>
<trkpt lat="38.23687" lon="-1.1054403">
<ele>494</ele>
<time>2013-06-02T20:24:24Z</time>
</trkpt>
<trkpt lat="38.236965" lon="-1.1053544">
<ele>494</ele>
<time>2013-06-02T20:24:25Z</time>
</trkpt>
<trkpt lat="38.237026" lon="-1.1053008">
<ele>495</ele>
<time>2013-06-02T20:24:26Z</time>
</trkpt>
<trkpt lat="38.237072" lon="-1.1052418">
<ele>495</ele>
<time>2013-06-02T20:24:27Z</time>
</trkpt>
<trkpt lat="38.23711" lon="-1.1051935">
<ele>495</ele>
<time>2013-06-02T20:24:28Z</time>
</trkpt>
<trkpt lat="38.237152" lon="-1.1051452">
<ele>495</ele>
<time>2013-06-02T20:24:29Z</time>
</trkpt>
<trkpt lat="38.237293" lon="-1.1050487">
<ele>497</ele>
<time>2013-06-02T20:24:32Z</time>
</trkpt>
<trkpt lat="38.237343" lon="-1.1050111">
<ele>497</ele>
<time>2013-06-02T20:24:33Z</time>
</trkpt>
<trkpt lat="38.23739" lon="-1.1049736">
<ele>498</ele>
<time>2013-06-02T20:24:34Z</time>
</trkpt>
<trkpt lat="38.23744" lon="-1.1049306">
<ele>497</ele>
<time>2013-06-02T20:24:35Z</time>
</trkpt>
<trkpt lat="38.23749" lon="-1.1048985">
<ele>498</ele>
<time>2013-06-02T20:24:36Z</time>
</trkpt>
<trkpt lat="38.23754" lon="-1.1048716">
<ele>499</ele>
<time>2013-06-02T20:24:37Z</time>
</trkpt>
<trkpt lat="38.237587" lon="-1.1048341">
<ele>500</ele>
<time>2013-06-02T20:24:38Z</time>
</trkpt>
<trkpt lat="38.23763" lon="-1.1047804">
<ele>500</ele>
<time>2013-06-02T20:24:39Z</time>
</trkpt>
<trkpt lat="38.237675" lon="-1.1047322">
<ele>500</ele>
<time>2013-06-02T20:24:40Z</time>
</trkpt>
<trkpt lat="38.237705" lon="-1.1046892">
<ele>501</ele>
<time>2013-06-02T20:24:41Z</time>
</trkpt>
<trkpt lat="38.237743" lon="-1.1046517">
<ele>501</ele>
<time>2013-06-02T20:24:42Z</time>
</trkpt>
<trkpt lat="38.237858" lon="-1.1045444">
<ele>499</ele>
<time>2013-06-02T20:24:45Z</time>
</trkpt>
<trkpt lat="38.2379" lon="-1.1044908">
<ele>499</ele>
<time>2013-06-02T20:24:46Z</time>
</trkpt>
<trkpt lat="38.237938" lon="-1.1044371">
<ele>498</ele>
<time>2013-06-02T20:24:47Z</time>
</trkpt>
<trkpt lat="38.23797" lon="-1.1043942">
<ele>498</ele>
<time>2013-06-02T20:24:48Z</time>
</trkpt>
<trkpt lat="38.23801" lon="-1.1043459">
<ele>498</ele>
<time>2013-06-02T20:24:49Z</time>
</trkpt>
<trkpt lat="38.23805" lon="-1.104303">
<ele>498</ele>
<time>2013-06-02T20:24:50Z</time>
</trkpt>
<trkpt lat="38.238087" lon="-1.1042655">
<ele>498</ele>
<time>2013-06-02T20:24:51Z</time>
</trkpt>
<trkpt lat="38.238117" lon="-1.1042279">
<ele>499</ele>
<time>2013-06-02T20:24:52Z</time>
</trkpt>
<trkpt lat="38.23815" lon="-1.1042011">
<ele>499</ele>
<time>2013-06-02T20:24:53Z</time>
</trkpt>
<trkpt lat="38.238194" lon="-1.1041689">
<ele>500</ele>
<time>2013-06-02T20:24:54Z</time>
</trkpt>
<trkpt lat="38.238228" lon="-1.1041367">
<ele>500</ele>
<time>2013-06-02T20:24:55Z</time>
</trkpt>
<trkpt lat="38.238308" lon="-1.1040348">
<ele>502</ele>
<time>2013-06-02T20:24:58Z</time>
</trkpt>
<trkpt lat="38.23834" lon="-1.104008">
<ele>502</ele>
<time>2013-06-02T20:24:59Z</time>
</trkpt>
<trkpt lat="38.238377" lon="-1.1039865">
<ele>502</ele>
<time>2013-06-02T20:25:00Z</time>
</trkpt>
<trkpt lat="38.238415" lon="-1.1039543">
<ele>502</ele>
<time>2013-06-02T20:25:01Z</time>
</trkpt>
<trkpt lat="38.238453" lon="-1.1039114">
<ele>503</ele>
<time>2013-06-02T20:25:02Z</time>
</trkpt>
<trkpt lat="38.238483" lon="-1.1038685">
<ele>503</ele>
<time>2013-06-02T20:25:03Z</time>
</trkpt>
<trkpt lat="38.238495" lon="-1.1038309">
<ele>503</ele>
<time>2013-06-02T20:25:04Z</time>
</trkpt>
<trkpt lat="38.238506" lon="-1.1038041">
<ele>504</ele>
<time>2013-06-02T20:25:05Z</time>
</trkpt>
<trkpt lat="38.238506" lon="-1.1037827">
<ele>504</ele>
<time>2013-06-02T20:25:06Z</time>
</trkpt>
<trkpt lat="38.238483" lon="-1.1037719">
<ele>502</ele>
<time>2013-06-02T20:25:07Z</time>
</trkpt>
<trkpt lat="38.238453" lon="-1.1037397">
<ele>501</ele>
<time>2013-06-02T20:25:08Z</time>
</trkpt>
<trkpt lat="38.238377" lon="-1.1037076">
<ele>499</ele>
<time>2013-06-02T20:25:11Z</time>
</trkpt>
<trkpt lat="38.23834" lon="-1.1037451">
<ele>499</ele>
<time>2013-06-02T20:25:12Z</time>
</trkpt>
<trkpt lat="38.23827" lon="-1.1038309">
<ele>498</ele>
<time>2013-06-02T20:25:13Z</time>
</trkpt>
<trkpt lat="38.23822" lon="-1.10389">
<ele>497</ele>
<time>2013-06-02T20:25:14Z</time>
</trkpt>
<trkpt lat="38.238125" lon="-1.1039972">
<ele>498</ele>
<time>2013-06-02T20:25:15Z</time>
</trkpt>
<trkpt lat="38.238075" lon="-1.1041689">
<ele>497</ele>
<time>2013-06-02T20:25:16Z</time>
</trkpt>
<trkpt lat="38.23802" lon="-1.104303">
<ele>496</ele>
<time>2013-06-02T20:25:17Z</time>
</trkpt>
<trkpt lat="38.237957" lon="-1.1044157">
<ele>496</ele>
<time>2013-06-02T20:25:18Z</time>
</trkpt>
<trkpt lat="38.2379" lon="-1.1045122">
<ele>497</ele>
<time>2013-06-02T20:25:19Z</time>
</trkpt>
<trkpt lat="38.23784" lon="-1.104598">
<ele>498</ele>
<time>2013-06-02T20:25:20Z</time>
</trkpt>
<trkpt lat="38.23778" lon="-1.1046731">
<ele>499</ele>
<time>2013-06-02T20:25:21Z</time>
</trkpt>
<trkpt lat="38.23765" lon="-1.1048663">
<ele>500</ele>
<time>2013-06-02T20:25:24Z</time>
</trkpt>
<trkpt lat="38.237602" lon="-1.1049467">
<ele>500</ele>
<time>2013-06-02T20:25:25Z</time>
</trkpt>
<trkpt lat="38.23755" lon="-1.1050326">
<ele>500</ele>
<time>2013-06-02T20:25:26Z</time>
</trkpt>
<trkpt lat="38.237503" lon="-1.105113">
<ele>500</ele>
<time>2013-06-02T20:25:27Z</time>
</trkpt>
<trkpt lat="38.237457" lon="-1.1051935">
<ele>501</ele>
<time>2013-06-02T20:25:28Z</time>
</trkpt>
<trkpt lat="38.237423" lon="-1.1052632">
<ele>501</ele>
<time>2013-06-02T20:25:29Z</time>
</trkpt>
<trkpt lat="38.23739" lon="-1.1053383">
<ele>502</ele>
<time>2013-06-02T20:25:30Z</time>
</trkpt>
<trkpt lat="38.237343" lon="-1.1054134">
<ele>503</ele>
<time>2013-06-02T20:25:31Z</time>
</trkpt>
<trkpt lat="38.237297" lon="-1.1054993">
<ele>503</ele>
<time>2013-06-02T20:25:32Z</time>
</trkpt>
<trkpt lat="38.23726" lon="-1.1055797">
<ele>504</ele>
<time>2013-06-02T20:25:33Z</time>
</trkpt>
<trkpt lat="38.237217" lon="-1.1056387">
<ele>504</ele>
<time>2013-06-02T20:25:34Z</time>
</trkpt>
<trkpt lat="38.237053" lon="-1.1057407">
<ele>506</ele>
<time>2013-06-02T20:25:37Z</time>
</trkpt>
<trkpt lat="38.23699" lon="-1.1057407">
<ele>506</ele>
<time>2013-06-02T20:25:38Z</time>
</trkpt>
<trkpt lat="38.236927" lon="-1.1057299">
<ele>506</ele>
<time>2013-06-02T20:25:39Z</time>
</trkpt>
<trkpt lat="38.23687" lon="-1.1057192">
<ele>506</ele>
<time>2013-06-02T20:25:40Z</time>
</trkpt>
<trkpt lat="38.23682" lon="-1.1057138">
<ele>506</ele>
<time>2013-06-02T20:25:41Z</time>
</trkpt>
<trkpt lat="38.23681" lon="-1.1057085">
<ele>506</ele>
<time>2013-06-02T20:25:42Z</time>
</trkpt>
<trkpt lat="38.23686" lon="-1.1056709">
<ele>505</ele>
<time>2013-06-02T20:25:43Z</time>
</trkpt>
<trkpt lat="38.236927" lon="-1.1056334">
<ele>506</ele>
<time>2013-06-02T20:25:44Z</time>
</trkpt>
<trkpt lat="38.237015" lon="-1.1055744">
<ele>507</ele>
<time>2013-06-02T20:25:45Z</time>
</trkpt>
<trkpt lat="38.237106" lon="-1.1055422">
<ele>508</ele>
<time>2013-06-02T20:25:46Z</time>
</trkpt>
<trkpt lat="38.23719" lon="-1.1055046">
<ele>510</ele>
<time>2013-06-02T20:25:47Z</time>
</trkpt>
<trkpt lat="38.237362" lon="-1.1054349">
<ele>513</ele>
<time>2013-06-02T20:25:50Z</time>
</trkpt>
<trkpt lat="38.237415" lon="-1.1053544">
<ele>513</ele>
<time>2013-06-02T20:25:51Z</time>
</trkpt>
<trkpt lat="38.237453" lon="-1.1052847">
<ele>514</ele>
<time>2013-06-02T20:25:52Z</time>
</trkpt>
<trkpt lat="38.237476" lon="-1.1052364">
<ele>513</ele>
<time>2013-06-02T20:25:53Z</time>
</trkpt>
<trkpt lat="38.23749" lon="-1.1051935">
<ele>513</ele>
<time>2013-06-02T20:25:54Z</time>
</trkpt>
<trkpt lat="38.237503" lon="-1.1051613">
<ele>513</ele>
<time>2013-06-02T20:25:55Z</time>
</trkpt>
<trkpt lat="38.23743" lon="-1.1051345">
<ele>512</ele>
<time>2013-06-02T20:25:56Z</time>
</trkpt>
<trkpt lat="38.237404" lon="-1.1051077">
<ele>513</ele>
<time>2013-06-02T20:25:57Z</time>
</trkpt>
<trkpt lat="38.237373" lon="-1.1050808">
<ele>512</ele>
<time>2013-06-02T20:25:58Z</time>
</trkpt>
<trkpt lat="38.237335" lon="-1.1050916">
<ele>511</ele>
<time>2013-06-02T20:25:59Z</time>
</trkpt>
<trkpt lat="38.237293" lon="-1.1051345">
<ele>512</ele>
<time>2013-06-02T20:26:00Z</time>
</trkpt>
<trkpt lat="38.237186" lon="-1.1054403">
<ele>512</ele>
<time>2013-06-02T20:26:03Z</time>
</trkpt>
<trkpt lat="38.237175" lon="-1.1055797">
<ele>512</ele>
<time>2013-06-02T20:26:04Z</time>
</trkpt>
<trkpt lat="38.237152" lon="-1.1056924">
<ele>513</ele>
<time>2013-06-02T20:26:05Z</time>
</trkpt>
<trkpt lat="38.23715" lon="-1.1058372">
<ele>513</ele>
<time>2013-06-02T20:26:06Z</time>
</trkpt>
<trkpt lat="38.23712" lon="-1.1059391">
<ele>513</ele>
<time>2013-06-02T20:26:07Z</time>
</trkpt>
<trkpt lat="38.237083" lon="-1.1060196">
<ele>513</ele>
<time>2013-06-02T20:26:08Z</time>
</trkpt>
<trkpt lat="38.237045" lon="-1.1060786">
<ele>513</ele>
<time>2013-06-02T20:26:09Z</time>
</trkpt>
<trkpt lat="38.23699" lon="-1.1060947">
<ele>513</ele>
<time>2013-06-02T20:26:10Z</time>
</trkpt>
<trkpt lat="38.23691" lon="-1.1060518">
<ele>512</ele>
<time>2013-06-02T20:26:11Z</time>
</trkpt>
<trkpt lat="38.236862" lon="-1.1060143">
<ele>512</ele>
<time>2013-06-02T20:26:12Z</time>
</trkpt>
<trkpt lat="38.236862" lon="-1.1059767">
<ele>513</ele>
<time>2013-06-02T20:26:13Z</time>
</trkpt>
<trkpt lat="38.237083" lon="-1.1058319">
<ele>517</ele>
<time>2013-06-02T20:26:16Z</time>
</trkpt>
<trkpt lat="38.237144" lon="-1.1058104">
<ele>519</ele>
<time>2013-06-02T20:26:17Z</time>
</trkpt>
<trkpt lat="38.23719" lon="-1.1057782">
<ele>520</ele>
<time>2013-06-02T20:26:18Z</time>
</trkpt>
<trkpt lat="38.237244" lon="-1.105746">
<ele>521</ele>
<time>2013-06-02T20:26:19Z</time>
</trkpt>
<trkpt lat="38.237297" lon="-1.1057138">
<ele>522</ele>
<time>2013-06-02T20:26:20Z</time>
</trkpt>
<trkpt lat="38.23735" lon="-1.1056602">
<ele>522</ele>
<time>2013-06-02T20:26:21Z</time>
</trkpt>
<trkpt lat="38.23741" lon="-1.1056173">
<ele>523</ele>
<time>2013-06-02T20:26:22Z</time>
</trkpt>
<trkpt lat="38.23747" lon="-1.1055797">
<ele>523</ele>
<time>2013-06-02T20:26:23Z</time>
</trkpt>
<trkpt lat="38.237534" lon="-1.1055475">
<ele>524</ele>
<time>2013-06-02T20:26:24Z</time>
</trkpt>
<trkpt lat="38.237595" lon="-1.10551">
<ele>525</ele>
<time>2013-06-02T20:26:25Z</time>
</trkpt>
<trkpt lat="38.23765" lon="-1.1054671">
<ele>526</ele>
<time>2013-06-02T20:26:26Z</time>
</trkpt>
<trkpt lat="38.23786" lon="-1.1053705">
<ele>529</ele>
<time>2013-06-02T20:26:29Z</time>
</trkpt>
<trkpt lat="38.23793" lon="-1.1053544">
<ele>530</ele>
<time>2013-06-02T20:26:30Z</time>
</trkpt>
<trkpt lat="38.238" lon="-1.105333">
<ele>531</ele>
<time>2013-06-02T20:26:31Z</time>
</trkpt>
<trkpt lat="38.23807" lon="-1.1053169">
<ele>532</ele>
<time>2013-06-02T20:26:32Z</time>
</trkpt>
<trkpt lat="38.238136" lon="-1.1052954">
<ele>531</ele>
<time>2013-06-02T20:26:33Z</time>
</trkpt>
<trkpt lat="38.238194" lon="-1.1052793">
<ele>531</ele>
<time>2013-06-02T20:26:34Z</time>
</trkpt>
<trkpt lat="38.23827" lon="-1.1052579">
<ele>530</ele>
<time>2013-06-02T20:26:35Z</time>
</trkpt>
<trkpt lat="38.23834" lon="-1.1052418">
<ele>531</ele>
<time>2013-06-02T20:26:36Z</time>
</trkpt>
<trkpt lat="38.238403" lon="-1.105215">
<ele>531</ele>
<time>2013-06-02T20:26:37Z</time>
</trkpt>
<trkpt lat="38.238457" lon="-1.1051613">
<ele>530</ele>
<time>2013-06-02T20:26:38Z</time>
</trkpt>
<trkpt lat="38.238506" lon="-1.1051077">
<ele>531</ele>
<time>2013-06-02T20:26:39Z</time>
</trkpt>
<trkpt lat="38.238525" lon="-1.1049414">
<ele>528</ele>
<time>2013-06-02T20:26:42Z</time>
</trkpt>
<trkpt lat="38.238495" lon="-1.1048985">
<ele>526</ele>
<time>2013-06-02T20:26:43Z</time>
</trkpt>
<trkpt lat="38.23848" lon="-1.1048502">
<ele>525</ele>
<time>2013-06-02T20:26:44Z</time>
</trkpt>
<trkpt lat="38.238457" lon="-1.1048287">
<ele>524</ele>
<time>2013-06-02T20:26:45Z</time>
</trkpt>
<trkpt lat="38.238415" lon="-1.104877">
<ele>524</ele>
<time>2013-06-02T20:26:46Z</time>
</trkpt>
<trkpt lat="38.238373" lon="-1.104936">
<ele>524</ele>
<time>2013-06-02T20:26:47Z</time>
</trkpt>
<trkpt lat="38.238285" lon="-1.1051023">
<ele>523</ele>
<time>2013-06-02T20:26:48Z</time>
</trkpt>
<trkpt lat="38.238243" lon="-1.1052257">
<ele>523</ele>
<time>2013-06-02T20:26:49Z</time>
</trkpt>
<trkpt lat="38.23821" lon="-1.1053169">
<ele>522</ele>
<time>2013-06-02T20:26:50Z</time>
</trkpt>
<trkpt lat="38.238174" lon="-1.1054403">
<ele>521</ele>
<time>2013-06-02T20:26:51Z</time>
</trkpt>
<trkpt lat="38.238136" lon="-1.1055368">
<ele>521</ele>
<time>2013-06-02T20:26:52Z</time>
</trkpt>
<trkpt lat="38.238033" lon="-1.1057299">
<ele>520</ele>
<time>2013-06-02T20:26:55Z</time>
</trkpt>
<trkpt lat="38.237995" lon="-1.1057782">
<ele>521</ele>
<time>2013-06-02T20:26:56Z</time>
</trkpt>
<trkpt lat="38.237946" lon="-1.105805">
<ele>521</ele>
<time>2013-06-02T20:26:57Z</time>
</trkpt>
<trkpt lat="38.237904" lon="-1.1058265">
<ele>521</ele>
<time>2013-06-02T20:26:58Z</time>
</trkpt>
<trkpt lat="38.237865" lon="-1.1058372">
<ele>521</ele>
<time>2013-06-02T20:26:59Z</time>
</trkpt>
<trkpt lat="38.237835" lon="-1.1058372">
<ele>521</ele>
<time>2013-06-02T20:27:00Z</time>
</trkpt>
<trkpt lat="38.237797" lon="-1.1058319">
<ele>522</ele>
<time>2013-06-02T20:27:01Z</time>
</trkpt>
<trkpt lat="38.23776" lon="-1.1058265">
<ele>521</ele>
<time>2013-06-02T20:27:02Z</time>
</trkpt>
<trkpt lat="38.237732" lon="-1.1057997">
<ele>522</ele>
<time>2013-06-02T20:27:03Z</time>
</trkpt>
<trkpt lat="38.237713" lon="-1.1057729">
<ele>521</ele>
<time>2013-06-02T20:27:04Z</time>
</trkpt>
<trkpt lat="38.237705" lon="-1.1057407">
<ele>520</ele>
<time>2013-06-02T20:27:05Z</time>
</trkpt>
<trkpt lat="38.237785" lon="-1.1056334">
<ele>521</ele>
<time>2013-06-02T20:27:08Z</time>
</trkpt>
<trkpt lat="38.23784" lon="-1.1056119">
<ele>522</ele>
<time>2013-06-02T20:27:09Z</time>
</trkpt>
<trkpt lat="38.237904" lon="-1.1055958">
<ele>522</ele>
<time>2013-06-02T20:27:10Z</time>
</trkpt>
<trkpt lat="38.23798" lon="-1.1055797">
<ele>521</ele>
<time>2013-06-02T20:27:11Z</time>
</trkpt>
<trkpt lat="38.23806" lon="-1.105569">
<ele>522</ele>
<time>2013-06-02T20:27:12Z</time>
</trkpt>
<trkpt lat="38.238125" lon="-1.1055315">
<ele>524</ele>
<time>2013-06-02T20:27:13Z</time>
</trkpt>
<trkpt lat="38.23818" lon="-1.1054939">
<ele>525</ele>
<time>2013-06-02T20:27:14Z</time>
</trkpt>
<trkpt lat="38.23822" lon="-1.1054617">
<ele>526</ele>
<time>2013-06-02T20:27:15Z</time>
</trkpt>
<trkpt lat="38.23827" lon="-1.1054295">
<ele>527</ele>
<time>2013-06-02T20:27:16Z</time>
</trkpt>
<trkpt lat="38.238316" lon="-1.105392">
<ele>527</ele>
<time>2013-06-02T20:27:17Z</time>
</trkpt>
<trkpt lat="38.238365" lon="-1.1053598">
<ele>527</ele>
<time>2013-06-02T20:27:18Z</time>
</trkpt>
<trkpt lat="38.238537" lon="-1.1052632">
<ele>529</ele>
<time>2013-06-02T20:27:21Z</time>
</trkpt>
<trkpt lat="38.23858" lon="-1.1052203">
<ele>530</ele>
<time>2013-06-02T20:27:22Z</time>
</trkpt>
<trkpt lat="38.238617" lon="-1.1051828">
<ele>529</ele>
<time>2013-06-02T20:27:23Z</time>
</trkpt>
<trkpt lat="38.23866" lon="-1.1051345">
<ele>530</ele>
<time>2013-06-02T20:27:24Z</time>
</trkpt>
<trkpt lat="38.238693" lon="-1.1051023">
<ele>531</ele>
<time>2013-06-02T20:27:25Z</time>
</trkpt>
<trkpt lat="38.238693" lon="-1.1050647">
<ele>531</ele>
<time>2013-06-02T20:27:26Z</time>
</trkpt>
<trkpt lat="38.238686" lon="-1.1050326">
<ele>531</ele>
<time>2013-06-02T20:27:27Z</time>
</trkpt>
<trkpt lat="38.238667" lon="-1.1050057">
<ele>530</ele>
<time>2013-06-02T20:27:28Z</time>
</trkpt>
<trkpt lat="38.23864" lon="-1.1049736">
<ele>529</ele>
<time>2013-06-02T20:27:29Z</time>
</trkpt>
<trkpt lat="38.238605" lon="-1.1049682">
<ele>527</ele>
<time>2013-06-02T20:27:30Z</time>
</trkpt>
<trkpt lat="38.238575" lon="-1.1049789">
<ele>526</ele>
<time>2013-06-02T20:27:31Z</time>
</trkpt>
<trkpt lat="38.238377" lon="-1.1053276">
<ele>522</ele>
<time>2013-06-02T20:27:34Z</time>
</trkpt>
<trkpt lat="38.2383" lon="-1.1054081">
<ele>521</ele>
<time>2013-06-02T20:27:35Z</time>
</trkpt>
<trkpt lat="38.238247" lon="-1.1054671">
<ele>522</ele>
<time>2013-06-02T20:27:36Z</time>
</trkpt>
<trkpt lat="38.238194" lon="-1.10551">
<ele>522</ele>
<time>2013-06-02T20:27:37Z</time>
</trkpt>
<trkpt lat="38.238136" lon="-1.1055046">
<ele>522</ele>
<time>2013-06-02T20:27:38Z</time>
</trkpt>
<trkpt lat="38.238083" lon="-1.1055154">
<ele>521</ele>
<time>2013-06-02T20:27:39Z</time>
</trkpt>
<trkpt lat="38.238033" lon="-1.1055315">
<ele>522</ele>
<time>2013-06-02T20:27:40Z</time>
</trkpt>
<trkpt lat="38.23798" lon="-1.1055583">
<ele>522</ele>
<time>2013-06-02T20:27:41Z</time>
</trkpt>
<trkpt lat="38.23792" lon="-1.1055797">
<ele>522</ele>
<time>2013-06-02T20:27:42Z</time>
</trkpt>
<trkpt lat="38.23785" lon="-1.1056226">
<ele>523</ele>
<time>2013-06-02T20:27:43Z</time>
</trkpt>
<trkpt lat="38.237793" lon="-1.1056548">
<ele>523</ele>
<time>2013-06-02T20:27:44Z</time>
</trkpt>
<trkpt lat="38.237614" lon="-1.1057729">
<ele>526</ele>
<time>2013-06-02T20:27:47Z</time>
</trkpt>
<trkpt lat="38.23756" lon="-1.1058319">
<ele>524</ele>
<time>2013-06-02T20:27:48Z</time>
</trkpt>
<trkpt lat="38.237503" lon="-1.105907">
<ele>525</ele>
<time>2013-06-02T20:27:49Z</time>
</trkpt>
<trkpt lat="38.237442" lon="-1.1059874">
<ele>525</ele>
<time>2013-06-02T20:27:50Z</time>
</trkpt>
<trkpt lat="38.2374" lon="-1.1060733">
<ele>526</ele>
<time>2013-06-02T20:27:51Z</time>
</trkpt>
<trkpt lat="38.237347" lon="-1.1061537">
<ele>527</ele>
<time>2013-06-02T20:27:52Z</time>
</trkpt>
<trkpt lat="38.23731" lon="-1.1062557">
<ele>528</ele>
<time>2013-06-02T20:27:53Z</time>
</trkpt>
<trkpt lat="38.23727" lon="-1.1063415">
<ele>528</ele>
<time>2013-06-02T20:27:54Z</time>
</trkpt>
<trkpt lat="38.237232" lon="-1.1064434">
<ele>528</ele>
<time>2013-06-02T20:27:55Z</time>
</trkpt>
<trkpt lat="38.23719" lon="-1.1065346">
<ele>528</ele>
<time>2013-06-02T20:27:56Z</time>
</trkpt>
<trkpt lat="38.23715" lon="-1.1066258">
<ele>528</ele>
<time>2013-06-02T20:27:57Z</time>
</trkpt>
<trkpt lat="38.23702" lon="-1.1068726">
<ele>529</ele>
<time>2013-06-02T20:28:00Z</time>
</trkpt>
<trkpt lat="38.236977" lon="-1.1069584">
<ele>529</ele>
<time>2013-06-02T20:28:01Z</time>
</trkpt>
<trkpt lat="38.236927" lon="-1.1070496">
<ele>530</ele>
<time>2013-06-02T20:28:02Z</time>
</trkpt>
<trkpt lat="38.236885" lon="-1.1071354">
<ele>530</ele>
<time>2013-06-02T20:28:03Z</time>
</trkpt>
<trkpt lat="38.236855" lon="-1.1072212">
<ele>530</ele>
<time>2013-06-02T20:28:04Z</time>
</trkpt>
<trkpt lat="38.236816" lon="-1.1073124">
<ele>532</ele>
<time>2013-06-02T20:28:05Z</time>
</trkpt>
<trkpt lat="38.23677" lon="-1.1073983">
<ele>531</ele>
<time>2013-06-02T20:28:06Z</time>
</trkpt>
<trkpt lat="38.23674" lon="-1.1074841">
<ele>532</ele>
<time>2013-06-02T20:28:07Z</time>
</trkpt>
<trkpt lat="38.236702" lon="-1.1075753">
<ele>531</ele>
<time>2013-06-02T20:28:08Z</time>
</trkpt>
<trkpt lat="38.236664" lon="-1.1076611">
<ele>532</ele>
<time>2013-06-02T20:28:09Z</time>
</trkpt>
<trkpt lat="38.23662" lon="-1.107747">
<ele>533</ele>
<time>2013-06-02T20:28:10Z</time>
</trkpt>
<trkpt lat="38.236492" lon="-1.1079991">
<ele>534</ele>
<time>2013-06-02T20:28:13Z</time>
</trkpt>
<trkpt lat="38.23645" lon="-1.1080796">
<ele>535</ele>
<time>2013-06-02T20:28:14Z</time>
</trkpt>
<trkpt lat="38.2364" lon="-1.1081439">
<ele>535</ele>
<time>2013-06-02T20:28:15Z</time>
</trkpt>
<trkpt lat="38.236355" lon="-1.1082083">
<ele>535</ele>
<time>2013-06-02T20:28:16Z</time>
</trkpt>
<trkpt lat="38.2363" lon="-1.108278">
<ele>536</ele>
<time>2013-06-02T20:28:17Z</time>
</trkpt>
<trkpt lat="38.23624" lon="-1.1083424">
<ele>536</ele>
<time>2013-06-02T20:28:18Z</time>
</trkpt>
<trkpt lat="38.236187" lon="-1.1084121">
<ele>536</ele>
<time>2013-06-02T20:28:19Z</time>
</trkpt>
<trkpt lat="38.236134" lon="-1.1084926">
<ele>535</ele>
<time>2013-06-02T20:28:20Z</time>
</trkpt>
<trkpt lat="38.236084" lon="-1.1085731">
<ele>535</ele>
<time>2013-06-02T20:28:21Z</time>
</trkpt>
<trkpt lat="38.236027" lon="-1.1086482">
<ele>535</ele>
<time>2013-06-02T20:28:22Z</time>
</trkpt>
<trkpt lat="38.23596" lon="-1.1087018">
<ele>534</ele>
<time>2013-06-02T20:28:23Z</time>
</trkpt>
<trkpt lat="38.23574" lon="-1.108852">
<ele>535</ele>
<time>2013-06-02T20:28:26Z</time>
</trkpt>
<trkpt lat="38.23568" lon="-1.1089003">
<ele>536</ele>
<time>2013-06-02T20:28:27Z</time>
</trkpt>
<trkpt lat="38.235615" lon="-1.1089325">
<ele>536</ele>
<time>2013-06-02T20:28:28Z</time>
</trkpt>
<trkpt lat="38.23556" lon="-1.1089593">
<ele>536</ele>
<time>2013-06-02T20:28:29Z</time>
</trkpt>
<trkpt lat="38.23551" lon="-1.1089647">
<ele>536</ele>
<time>2013-06-02T20:28:30Z</time>
</trkpt>
<trkpt lat="38.235455" lon="-1.1089486">
<ele>536</ele>
<time>2013-06-02T20:28:31Z</time>
</trkpt>
<trkpt lat="38.235397" lon="-1.1089271">
<ele>536</ele>
<time>2013-06-02T20:28:32Z</time>
</trkpt>
<trkpt lat="38.235355" lon="-1.108895">
<ele>536</ele>
<time>2013-06-02T20:28:33Z</time>
</trkpt>
<trkpt lat="38.23533" lon="-1.1088628">
<ele>536</ele>
<time>2013-06-02T20:28:34Z</time>
</trkpt>
<trkpt lat="38.23531" lon="-1.1088359">
<ele>536</ele>
<time>2013-06-02T20:28:35Z</time>
</trkpt>
<trkpt lat="38.23533" lon="-1.108793">
<ele>536</ele>
<time>2013-06-02T20:28:36Z</time>
</trkpt>
<trkpt lat="38.235508" lon="-1.1086482">
<ele>538</ele>
<time>2013-06-02T20:28:39Z</time>
</trkpt>
<trkpt lat="38.23557" lon="-1.1086267">
<ele>539</ele>
<time>2013-06-02T20:28:40Z</time>
</trkpt>
<trkpt lat="38.235645" lon="-1.1086106">
<ele>540</ele>
<time>2013-06-02T20:28:41Z</time>
</trkpt>
<trkpt lat="38.235733" lon="-1.1085892">
<ele>540</ele>
<time>2013-06-02T20:28:42Z</time>
</trkpt>
<trkpt lat="38.235806" lon="-1.1085677">
<ele>540</ele>
<time>2013-06-02T20:28:43Z</time>
</trkpt>
<trkpt lat="38.235855" lon="-1.1085409">
<ele>542</ele>
<time>2013-06-02T20:28:44Z</time>
</trkpt>
<trkpt lat="38.235912" lon="-1.1085141">
<ele>543</ele>
<time>2013-06-02T20:28:45Z</time>
</trkpt>
<trkpt lat="38.235977" lon="-1.1085033">
<ele>544</ele>
<time>2013-06-02T20:28:46Z</time>
</trkpt>
<trkpt lat="38.236042" lon="-1.1084819">
<ele>546</ele>
<time>2013-06-02T20:28:47Z</time>
</trkpt>
<trkpt lat="38.236107" lon="-1.1084604">
<ele>547</ele>
<time>2013-06-02T20:28:48Z</time>
</trkpt>
<trkpt lat="38.236156" lon="-1.108439">
<ele>548</ele>
<time>2013-06-02T20:28:49Z</time>
</trkpt>
<trkpt lat="38.236313" lon="-1.1083478">
<ele>549</ele>
<time>2013-06-02T20:28:52Z</time>
</trkpt>
<trkpt lat="38.23638" lon="-1.1082834">
<ele>551</ele>
<time>2013-06-02T20:28:53Z</time>
</trkpt>
<trkpt lat="38.236435" lon="-1.108219">
<ele>552</ele>
<time>2013-06-02T20:28:54Z</time>
</trkpt>
<trkpt lat="38.236477" lon="-1.1081547">
<ele>552</ele>
<time>2013-06-02T20:28:55Z</time>
</trkpt>
<trkpt lat="38.23652" lon="-1.1081064">
<ele>552</ele>
<time>2013-06-02T20:28:56Z</time>
</trkpt>
<trkpt lat="38.236526" lon="-1.1080635">
<ele>551</ele>
<time>2013-06-02T20:28:57Z</time>
</trkpt>
<trkpt lat="38.236492" lon="-1.108042">
<ele>551</ele>
<time>2013-06-02T20:28:58Z</time>
</trkpt>
<trkpt lat="38.23644" lon="-1.1080205">
<ele>549</ele>
<time>2013-06-02T20:28:59Z</time>
</trkpt>
<trkpt lat="38.236412" lon="-1.1080152">
<ele>549</ele>
<time>2013-06-02T20:29:00Z</time>
</trkpt>
<trkpt lat="38.236374" lon="-1.1080527">
<ele>550</ele>
<time>2013-06-02T20:29:01Z</time>
</trkpt>
<trkpt lat="38.236294" lon="-1.1081707">
<ele>550</ele>
<time>2013-06-02T20:29:02Z</time>
</trkpt>
<trkpt lat="38.236134" lon="-1.1085248">
<ele>550</ele>
<time>2013-06-02T20:29:05Z</time>
</trkpt>
<trkpt lat="38.23608" lon="-1.1086321">
<ele>550</ele>
<time>2013-06-02T20:29:06Z</time>
</trkpt>
<trkpt lat="38.23603" lon="-1.108734">
<ele>550</ele>
<time>2013-06-02T20:29:07Z</time>
</trkpt>
<trkpt lat="38.23599" lon="-1.1088359">
<ele>551</ele>
<time>2013-06-02T20:29:08Z</time>
</trkpt>
<trkpt lat="38.23596" lon="-1.1089325">
<ele>552</ele>
<time>2013-06-02T20:29:09Z</time>
</trkpt>
<trkpt lat="38.23592" lon="-1.1090183">
<ele>553</ele>
<time>2013-06-02T20:29:10Z</time>
</trkpt>
<trkpt lat="38.23588" lon="-1.1090988">
<ele>554</ele>
<time>2013-06-02T20:29:11Z</time>
</trkpt>
<trkpt lat="38.235844" lon="-1.1091793">
<ele>555</ele>
<time>2013-06-02T20:29:12Z</time>
</trkpt>
<trkpt lat="38.235806" lon="-1.1092651">
<ele>556</ele>
<time>2013-06-02T20:29:13Z</time>
</trkpt>
<trkpt lat="38.23578" lon="-1.1093777">
<ele>556</ele>
<time>2013-06-02T20:29:14Z</time>
</trkpt>
<trkpt lat="38.23574" lon="-1.1094743">
<ele>557</ele>
<time>2013-06-02T20:29:15Z</time>
</trkpt>
<trkpt lat="38.235596" lon="-1.1096942">
<ele>558</ele>
<time>2013-06-02T20:29:18Z</time>
</trkpt>
<trkpt lat="38.235535" lon="-1.1097479">
<ele>558</ele>
<time>2013-06-02T20:29:19Z</time>
</trkpt>
<trkpt lat="38.23547" lon="-1.1097586">
<ele>559</ele>
<time>2013-06-02T20:29:20Z</time>
</trkpt>
<trkpt lat="38.23542" lon="-1.1097318">
<ele>559</ele>
<time>2013-06-02T20:29:21Z</time>
</trkpt>
<trkpt lat="38.235363" lon="-1.1097103">
<ele>558</ele>
<time>2013-06-02T20:29:22Z</time>
</trkpt>
<trkpt lat="38.235325" lon="-1.1096728">
<ele>558</ele>
<time>2013-06-02T20:29:23Z</time>
</trkpt>
<trkpt lat="38.2353" lon="-1.1096513">
<ele>558</ele>
<time>2013-06-02T20:29:24Z</time>
</trkpt>
<trkpt lat="38.235317" lon="-1.1095923">
<ele>557</ele>
<time>2013-06-02T20:29:25Z</time>
</trkpt>
<trkpt lat="38.23535" lon="-1.1095548">
<ele>557</ele>
<time>2013-06-02T20:29:26Z</time>
</trkpt>
<trkpt lat="38.23541" lon="-1.1095065">
<ele>558</ele>
<time>2013-06-02T20:29:27Z</time>
</trkpt>
<trkpt lat="38.23546" lon="-1.1094636">
<ele>558</ele>
<time>2013-06-02T20:29:28Z</time>
</trkpt>
<trkpt lat="38.23563" lon="-1.1093992">
<ele>560</ele>
<time>2013-06-02T20:29:31Z</time>
</trkpt>
<trkpt lat="38.235695" lon="-1.109367">
<ele>561</ele>
<time>2013-06-02T20:29:32Z</time>
</trkpt>
<trkpt lat="38.235752" lon="-1.1093348">
<ele>561</ele>
<time>2013-06-02T20:29:33Z</time>
</trkpt>
<trkpt lat="38.2358" lon="-1.1092919">
<ele>561</ele>
<time>2013-06-02T20:29:34Z</time>
</trkpt>
<trkpt lat="38.235855" lon="-1.109249">
<ele>561</ele>
<time>2013-06-02T20:29:35Z</time>
</trkpt>
<trkpt lat="38.235897" lon="-1.1092061">
<ele>562</ele>
<time>2013-06-02T20:29:36Z</time>
</trkpt>
<trkpt lat="38.235947" lon="-1.1091632">
<ele>562</ele>
<time>2013-06-02T20:29:37Z</time>
</trkpt>
<trkpt lat="38.235996" lon="-1.1091202">
<ele>563</ele>
<time>2013-06-02T20:29:38Z</time>
</trkpt>
<trkpt lat="38.236053" lon="-1.1090773">
<ele>563</ele>
<time>2013-06-02T20:29:39Z</time>
</trkpt>
<trkpt lat="38.236103" lon="-1.109029">
<ele>564</ele>
<time>2013-06-02T20:29:40Z</time>
</trkpt>
<trkpt lat="38.236156" lon="-1.1089808">
<ele>565</ele>
<time>2013-06-02T20:29:41Z</time>
</trkpt>
<trkpt lat="38.2363" lon="-1.1088789">
<ele>567</ele>
<time>2013-06-02T20:29:44Z</time>
</trkpt>
<trkpt lat="38.236347" lon="-1.1088467">
<ele>568</ele>
<time>2013-06-02T20:29:45Z</time>
</trkpt>
<trkpt lat="38.236397" lon="-1.1087823">
<ele>569</ele>
<time>2013-06-02T20:29:46Z</time>
</trkpt>
<trkpt lat="38.236446" lon="-1.1087179">
<ele>571</ele>
<time>2013-06-02T20:29:47Z</time>
</trkpt>
<trkpt lat="38.236477" lon="-1.1086804">
<ele>572</ele>
<time>2013-06-02T20:29:48Z</time>
</trkpt>
<trkpt lat="38.236504" lon="-1.1086482">
<ele>574</ele>
<time>2013-06-02T20:29:49Z</time>
</trkpt>
<trkpt lat="38.23653" lon="-1.1086214">
<ele>575</ele>
<time>2013-06-02T20:29:50Z</time>
</trkpt>
<trkpt lat="38.236553" lon="-1.1085784">
<ele>576</ele>
<time>2013-06-02T20:29:51Z</time>
</trkpt>
<trkpt lat="38.236572" lon="-1.1085355">
<ele>576</ele>
<time>2013-06-02T20:29:52Z</time>
</trkpt>
<trkpt lat="38.236595" lon="-1.1084872">
<ele>577</ele>
<time>2013-06-02T20:29:53Z</time>
</trkpt>
<trkpt lat="38.236607" lon="-1.108439">
<ele>577</ele>
<time>2013-06-02T20:29:54Z</time>
</trkpt>
<trkpt lat="38.23665" lon="-1.1082995">
<ele>577</ele>
<time>2013-06-02T20:29:57Z</time>
</trkpt>
<trkpt lat="38.236645" lon="-1.1082512">
<ele>577</ele>
<time>2013-06-02T20:29:58Z</time>
</trkpt>
<trkpt lat="38.236656" lon="-1.1081976">
<ele>578</ele>
<time>2013-06-02T20:29:59Z</time>
</trkpt>
<trkpt lat="38.23665" lon="-1.1081439">
<ele>578</ele>
<time>2013-06-02T20:30:00Z</time>
</trkpt>
<trkpt lat="38.23666" lon="-1.108101">
<ele>577</ele>
<time>2013-06-02T20:30:01Z</time>
</trkpt>
<trkpt lat="38.236675" lon="-1.1080474">
<ele>577</ele>
<time>2013-06-02T20:30:02Z</time>
</trkpt>
<trkpt lat="38.236687" lon="-1.1080205">
<ele>576</ele>
<time>2013-06-02T20:30:03Z</time>
</trkpt>
<trkpt lat="38.236713" lon="-1.1079562">
<ele>577</ele>
<time>2013-06-02T20:30:04Z</time>
</trkpt>
<trkpt lat="38.23673" lon="-1.1078972">
<ele>578</ele>
<time>2013-06-02T20:30:05Z</time>
</trkpt>
<trkpt lat="38.236744" lon="-1.1078382">
<ele>578</ele>
<time>2013-06-02T20:30:06Z</time>
</trkpt>
<trkpt lat="38.236744" lon="-1.1077899">
<ele>579</ele>
<time>2013-06-02T20:30:07Z</time>
</trkpt>
<trkpt lat="38.236763" lon="-1.1076343">
<ele>579</ele>
<time>2013-06-02T20:30:10Z</time>
</trkpt>
<trkpt lat="38.236755" lon="-1.1075807">
<ele>579</ele>
<time>2013-06-02T20:30:11Z</time>
</trkpt>
<trkpt lat="38.23675" lon="-1.1075377">
<ele>581</ele>
<time>2013-06-02T20:30:12Z</time>
</trkpt>
<trkpt lat="38.23674" lon="-1.1074895">
<ele>581</ele>
<time>2013-06-02T20:30:13Z</time>
</trkpt>
<trkpt lat="38.23673" lon="-1.1074626">
<ele>580</ele>
<time>2013-06-02T20:30:14Z</time>
</trkpt>
<trkpt lat="38.236717" lon="-1.1074305">
<ele>579</ele>
<time>2013-06-02T20:30:15Z</time>
</trkpt>
<trkpt lat="38.236702" lon="-1.1073875">
<ele>578</ele>
<time>2013-06-02T20:30:16Z</time>
</trkpt>
<trkpt lat="38.23667" lon="-1.1073285">
<ele>576</ele>
<time>2013-06-02T20:30:17Z</time>
</trkpt>
<trkpt lat="38.236637" lon="-1.1072749">
<ele>576</ele>
<time>2013-06-02T20:30:18Z</time>
</trkpt>
<trkpt lat="38.23661" lon="-1.107232">
<ele>574</ele>
<time>2013-06-02T20:30:19Z</time>
</trkpt>
<trkpt lat="38.236584" lon="-1.1071998">
<ele>574</ele>
<time>2013-06-02T20:30:20Z</time>
</trkpt>
<trkpt lat="38.236446" lon="-1.1071086">
<ele>573</ele>
<time>2013-06-02T20:30:23Z</time>
</trkpt>
<trkpt lat="38.236385" lon="-1.107071">
<ele>573</ele>
<time>2013-06-02T20:30:24Z</time>
</trkpt>
<trkpt lat="38.23634" lon="-1.1070442">
<ele>573</ele>
<time>2013-06-02T20:30:25Z</time>
</trkpt>
<trkpt lat="38.236275" lon="-1.1070281">
<ele>573</ele>
<time>2013-06-02T20:30:26Z</time>
</trkpt>
<trkpt lat="38.23622" lon="-1.1070228">
<ele>573</ele>
<time>2013-06-02T20:30:27Z</time>
</trkpt>
<trkpt lat="38.236168" lon="-1.1070067">
<ele>573</ele>
<time>2013-06-02T20:30:28Z</time>
</trkpt>
<trkpt lat="38.236115" lon="-1.1069852">
<ele>573</ele>
<time>2013-06-02T20:30:29Z</time>
</trkpt>
<trkpt lat="38.236053" lon="-1.1069584">
<ele>574</ele>
<time>2013-06-02T20:30:30Z</time>
</trkpt>
<trkpt lat="38.236004" lon="-1.1069369">
<ele>574</ele>
<time>2013-06-02T20:30:31Z</time>
</trkpt>
<trkpt lat="38.23595" lon="-1.1069101">
<ele>574</ele>
<time>2013-06-02T20:30:32Z</time>
</trkpt>
<trkpt lat="38.235897" lon="-1.1068887">
<ele>574</ele>
<time>2013-06-02T20:30:33Z</time>
</trkpt>
<trkpt lat="38.235752" lon="-1.1068135">
<ele>574</ele>
<time>2013-06-02T20:30:36Z</time>
</trkpt>
<trkpt lat="38.2357" lon="-1.1067975">
<ele>573</ele>
<time>2013-06-02T20:30:37Z</time>
</trkpt>
<trkpt lat="38.235645" lon="-1.1067867">
<ele>573</ele>
<time>2013-06-02T20:30:38Z</time>
</trkpt>
<trkpt lat="38.235603" lon="-1.1067545">
<ele>573</ele>
<time>2013-06-02T20:30:39Z</time>
</trkpt>
<trkpt lat="38.23555" lon="-1.1067224">
<ele>574</ele>
<time>2013-06-02T20:30:40Z</time>
</trkpt>
<trkpt lat="38.235497" lon="-1.1067009">
<ele>574</ele>
<time>2013-06-02T20:30:41Z</time>
</trkpt>
<trkpt lat="38.235443" lon="-1.1066741">
<ele>575</ele>
<time>2013-06-02T20:30:42Z</time>
</trkpt>
<trkpt lat="38.235405" lon="-1.1066473">
<ele>575</ele>
<time>2013-06-02T20:30:43Z</time>
</trkpt>
<trkpt lat="38.235355" lon="-1.1066204">
<ele>575</ele>
<time>2013-06-02T20:30:44Z</time>
</trkpt>
<trkpt lat="38.235317" lon="-1.1065936">
<ele>574</ele>
<time>2013-06-02T20:30:45Z</time>
</trkpt>
<trkpt lat="38.235283" lon="-1.1065614">
<ele>573</ele>
<time>2013-06-02T20:30:46Z</time>
</trkpt>
<trkpt lat="38.23517" lon="-1.1064541">
<ele>573</ele>
<time>2013-06-02T20:30:49Z</time>
</trkpt>
<trkpt lat="38.23514" lon="-1.106422">
<ele>573</ele>
<time>2013-06-02T20:30:50Z</time>
</trkpt>
<trkpt lat="38.2351" lon="-1.1063951">
<ele>573</ele>
<time>2013-06-02T20:30:51Z</time>
</trkpt>
<trkpt lat="38.235065" lon="-1.1063576">
<ele>572</ele>
<time>2013-06-02T20:30:52Z</time>
</trkpt>
<trkpt lat="38.235027" lon="-1.10632">
<ele>573</ele>
<time>2013-06-02T20:30:53Z</time>
</trkpt>
<trkpt lat="38.234993" lon="-1.1062878">
<ele>573</ele>
<time>2013-06-02T20:30:54Z</time>
</trkpt>
<trkpt lat="38.23496" lon="-1.106261">
<ele>573</ele>
<time>2013-06-02T20:30:55Z</time>
</trkpt>
<trkpt lat="38.234917" lon="-1.1062235">
<ele>574</ele>
<time>2013-06-02T20:30:56Z</time>
</trkpt>
<trkpt lat="38.23488" lon="-1.106202">
<ele>574</ele>
<time>2013-06-02T20:30:57Z</time>
</trkpt>
<trkpt lat="38.23484" lon="-1.1061645">
<ele>574</ele>
<time>2013-06-02T20:30:58Z</time>
</trkpt>
<trkpt lat="38.234787" lon="-1.1061269">
<ele>574</ele>
<time>2013-06-02T20:30:59Z</time>
</trkpt>
<trkpt lat="38.23465" lon="-1.1060518">
<ele>575</ele>
<time>2013-06-02T20:31:02Z</time>
</trkpt>
<trkpt lat="38.23459" lon="-1.106025">
<ele>575</ele>
<time>2013-06-02T20:31:03Z</time>
</trkpt>
<trkpt lat="38.234535" lon="-1.1059928">
<ele>575</ele>
<time>2013-06-02T20:31:04Z</time>
</trkpt>
<trkpt lat="38.23448" lon="-1.1059606">
<ele>575</ele>
<time>2013-06-02T20:31:05Z</time>
</trkpt>
<trkpt lat="38.234425" lon="-1.1059338">
<ele>575</ele>
<time>2013-06-02T20:31:06Z</time>
</trkpt>
<trkpt lat="38.234364" lon="-1.105907">
<ele>575</ele>
<time>2013-06-02T20:31:07Z</time>
</trkpt>
<trkpt lat="38.23431" lon="-1.1058962">
<ele>575</ele>
<time>2013-06-02T20:31:08Z</time>
</trkpt>
<trkpt lat="38.234257" lon="-1.1058694">
<ele>575</ele>
<time>2013-06-02T20:31:09Z</time>
</trkpt>
<trkpt lat="38.234207" lon="-1.1058426">
<ele>575</ele>
<time>2013-06-02T20:31:10Z</time>
</trkpt>
<trkpt lat="38.23416" lon="-1.1058158">
<ele>576</ele>
<time>2013-06-02T20:31:11Z</time>
</trkpt>
<trkpt lat="38.23411" lon="-1.1057943">
<ele>576</ele>
<time>2013-06-02T20:31:12Z</time>
</trkpt>
<trkpt lat="38.233963" lon="-1.105746">
<ele>576</ele>
<time>2013-06-02T20:31:15Z</time>
</trkpt>
<trkpt lat="38.2339" lon="-1.1057407">
<ele>576</ele>
<time>2013-06-02T20:31:16Z</time>
</trkpt>
<trkpt lat="38.233818" lon="-1.1057192">
<ele>576</ele>
<time>2013-06-02T20:31:17Z</time>
</trkpt>
<trkpt lat="38.233772" lon="-1.1056978">
<ele>576</ele>
<time>2013-06-02T20:31:18Z</time>
</trkpt>
<trkpt lat="38.233715" lon="-1.1056978">
<ele>576</ele>
<time>2013-06-02T20:31:19Z</time>
</trkpt>
<trkpt lat="38.23365" lon="-1.1057031">
<ele>576</ele>
<time>2013-06-02T20:31:20Z</time>
</trkpt>
<trkpt lat="38.233597" lon="-1.105687">
<ele>575</ele>
<time>2013-06-02T20:31:21Z</time>
</trkpt>
<trkpt lat="38.233536" lon="-1.1056709">
<ele>575</ele>
<time>2013-06-02T20:31:22Z</time>
</trkpt>
<trkpt lat="38.23348" lon="-1.1056387">
<ele>575</ele>
<time>2013-06-02T20:31:23Z</time>
</trkpt>
<trkpt lat="38.233414" lon="-1.1056173">
<ele>574</ele>
<time>2013-06-02T20:31:24Z</time>
</trkpt>
<trkpt lat="38.23335" lon="-1.1056012">
<ele>573</ele>
<time>2013-06-02T20:31:25Z</time>
</trkpt>
<trkpt lat="38.233173" lon="-1.1055583">
<ele>571</ele>
<time>2013-06-02T20:31:28Z</time>
</trkpt>
<trkpt lat="38.233112" lon="-1.1055422">
<ele>571</ele>
<time>2013-06-02T20:31:29Z</time>
</trkpt>
<trkpt lat="38.23305" lon="-1.1055315">
<ele>570</ele>
<time>2013-06-02T20:31:30Z</time>
</trkpt>
<trkpt lat="38.23299" lon="-1.1055207">
<ele>570</ele>
<time>2013-06-02T20:31:31Z</time>
</trkpt>
<trkpt lat="38.232914" lon="-1.1055046">
<ele>570</ele>
<time>2013-06-02T20:31:32Z</time>
</trkpt>
<trkpt lat="38.23287" lon="-1.1054939">
<ele>570</ele>
<time>2013-06-02T20:31:33Z</time>
</trkpt>
<trkpt lat="38.232815" lon="-1.1054724">
<ele>570</ele>
<time>2013-06-02T20:31:34Z</time>
</trkpt>
<trkpt lat="38.23276" lon="-1.1054349">
<ele>570</ele>
<time>2013-06-02T20:31:35Z</time>
</trkpt>
<trkpt lat="38.23271" lon="-1.1054134">
<ele>570</ele>
<time>2013-06-02T20:31:36Z</time>
</trkpt>
<trkpt lat="38.232643" lon="-1.1053813">
<ele>570</ele>
<time>2013-06-02T20:31:37Z</time>
</trkpt>
<trkpt lat="38.232594" lon="-1.1053598">
<ele>569</ele>
<time>2013-06-02T20:31:38Z</time>
</trkpt>
<trkpt lat="38.232395" lon="-1.1052954">
<ele>567</ele>
<time>2013-06-02T20:31:41Z</time>
</trkpt>
<trkpt lat="38.23233" lon="-1.105274">
<ele>566</ele>
<time>2013-06-02T20:31:42Z</time>
</trkpt>
<trkpt lat="38.232265" lon="-1.1052525">
<ele>566</ele>
<time>2013-06-02T20:31:43Z</time>
</trkpt>
<trkpt lat="38.23221" lon="-1.1052418">
<ele>566</ele>
<time>2013-06-02T20:31:44Z</time>
</trkpt>
<trkpt lat="38.232143" lon="-1.105215">
<ele>566</ele>
<time>2013-06-02T20:31:45Z</time>
</trkpt>
<trkpt lat="38.232082" lon="-1.1052042">
<ele>565</ele>
<time>2013-06-02T20:31:46Z</time>
</trkpt>
<trkpt lat="38.232014" lon="-1.1051774">
<ele>565</ele>
<time>2013-06-02T20:31:47Z</time>
</trkpt>
<trkpt lat="38.231964" lon="-1.105156">
<ele>564</ele>
<time>2013-06-02T20:31:48Z</time>
</trkpt>
<trkpt lat="38.231884" lon="-1.1051238">
<ele>563</ele>
<time>2013-06-02T20:31:49Z</time>
</trkpt>
<trkpt lat="38.231827" lon="-1.1050969">
<ele>562</ele>
<time>2013-06-02T20:31:50Z</time>
</trkpt>
<trkpt lat="38.231766" lon="-1.1050594">
<ele>562</ele>
<time>2013-06-02T20:31:51Z</time>
</trkpt>
<trkpt lat="38.231617" lon="-1.1049575">
<ele>560</ele>
<time>2013-06-02T20:31:54Z</time>
</trkpt>
<trkpt lat="38.231575" lon="-1.1049199">
<ele>560</ele>
<time>2013-06-02T20:31:55Z</time>
</trkpt>
<trkpt lat="38.231525" lon="-1.1048877">
<ele>559</ele>
<time>2013-06-02T20:31:56Z</time>
</trkpt>
<trkpt lat="38.231476" lon="-1.1048663">
<ele>559</ele>
<time>2013-06-02T20:31:57Z</time>
</trkpt>
<trkpt lat="38.231445" lon="-1.1048341">
<ele>559</ele>
<time>2013-06-02T20:31:58Z</time>
</trkpt>
<trkpt lat="38.231415" lon="-1.1048073">
<ele>557</ele>
<time>2013-06-02T20:31:59Z</time>
</trkpt>
<trkpt lat="38.23139" lon="-1.1047751">
<ele>554</ele>
<time>2013-06-02T20:32:00Z</time>
</trkpt>
<trkpt lat="38.23137" lon="-1.1047482">
<ele>553</ele>
<time>2013-06-02T20:32:01Z</time>
</trkpt>
<trkpt lat="38.231323" lon="-1.1047322">
<ele>550</ele>
<time>2013-06-02T20:32:02Z</time>
</trkpt>
<trkpt lat="38.23127" lon="-1.1047322">
<ele>549</ele>
<time>2013-06-02T20:32:03Z</time>
</trkpt>
<trkpt lat="38.231197" lon="-1.1047536">
<ele>548</ele>
<time>2013-06-02T20:32:04Z</time>
</trkpt>
<trkpt lat="38.23108" lon="-1.1051452">
<ele>544</ele>
<time>2013-06-02T20:32:07Z</time>
</trkpt>
<trkpt lat="38.23109" lon="-1.1053222">
<ele>541</ele>
<time>2013-06-02T20:32:08Z</time>
</trkpt>
<trkpt lat="38.231155" lon="-1.1054885">
<ele>539</ele>
<time>2013-06-02T20:32:09Z</time>
</trkpt>
<trkpt lat="38.231167" lon="-1.1056226">
<ele>537</ele>
<time>2013-06-02T20:32:10Z</time>
</trkpt>
<trkpt lat="38.23119" lon="-1.1057621">
<ele>534</ele>
<time>2013-06-02T20:32:11Z</time>
</trkpt>
<trkpt lat="38.23122" lon="-1.1059016">
<ele>532</ele>
<time>2013-06-02T20:32:12Z</time>
</trkpt>
<trkpt lat="38.23125" lon="-1.1060464">
<ele>531</ele>
<time>2013-06-02T20:32:13Z</time>
</trkpt>
<trkpt lat="38.23129" lon="-1.1061859">
<ele>529</ele>
<time>2013-06-02T20:32:14Z</time>
</trkpt>
<trkpt lat="38.231335" lon="-1.1063254">
<ele>528</ele>
<time>2013-06-02T20:32:15Z</time>
</trkpt>
<trkpt lat="38.23137" lon="-1.1064649">
<ele>527</ele>
<time>2013-06-02T20:32:16Z</time>
</trkpt>
<trkpt lat="38.231407" lon="-1.106599">
<ele>526</ele>
<time>2013-06-02T20:32:17Z</time>
</trkpt>
<trkpt lat="38.231533" lon="-1.1070067">
<ele>523</ele>
<time>2013-06-02T20:32:20Z</time>
</trkpt>
<trkpt lat="38.231567" lon="-1.1071408">
<ele>523</ele>
<time>2013-06-02T20:32:21Z</time>
</trkpt>
<trkpt lat="38.231617" lon="-1.1072642">
<ele>522</ele>
<time>2013-06-02T20:32:22Z</time>
</trkpt>
<trkpt lat="38.231667" lon="-1.1073929">
<ele>521</ele>
<time>2013-06-02T20:32:23Z</time>
</trkpt>
<trkpt lat="38.23173" lon="-1.1075002">
<ele>521</ele>
<time>2013-06-02T20:32:24Z</time>
</trkpt>
<trkpt lat="38.231804" lon="-1.1075592">
<ele>516</ele>
<time>2013-06-02T20:32:25Z</time>
</trkpt>
<trkpt lat="38.231895" lon="-1.107645">
<ele>511</ele>
<time>2013-06-02T20:32:26Z</time>
</trkpt>
<trkpt lat="38.231976" lon="-1.1077094">
<ele>508</ele>
<time>2013-06-02T20:32:27Z</time>
</trkpt>
<trkpt lat="38.232056" lon="-1.1077845">
<ele>507</ele>
<time>2013-06-02T20:32:28Z</time>
</trkpt>
<trkpt lat="38.232143" lon="-1.1078489">
<ele>505</ele>
<time>2013-06-02T20:32:29Z</time>
</trkpt>
<trkpt lat="38.232224" lon="-1.1078972">
<ele>504</ele>
<time>2013-06-02T20:32:30Z</time>
</trkpt>
<trkpt lat="38.23247" lon="-1.1080098">
<ele>501</ele>
<time>2013-06-02T20:32:33Z</time>
</trkpt>
<trkpt lat="38.232555" lon="-1.108042">
<ele>500</ele>
<time>2013-06-02T20:32:34Z</time>
</trkpt>
<trkpt lat="38.232643" lon="-1.1080688">
<ele>499</ele>
<time>2013-06-02T20:32:35Z</time>
</trkpt>
<trkpt lat="38.232735" lon="-1.1080956">
<ele>499</ele>
<time>2013-06-02T20:32:36Z</time>
</trkpt>
<trkpt lat="38.232815" lon="-1.1081171">
<ele>498</ele>
<time>2013-06-02T20:32:37Z</time>
</trkpt>
<trkpt lat="38.2329" lon="-1.1081332">
<ele>498</ele>
<time>2013-06-02T20:32:38Z</time>
</trkpt>
<trkpt lat="38.232975" lon="-1.1081493">
<ele>498</ele>
<time>2013-06-02T20:32:39Z</time>
</trkpt>
<trkpt lat="38.233055" lon="-1.10816">
<ele>498</ele>
<time>2013-06-02T20:32:40Z</time>
</trkpt>
<trkpt lat="38.23313" lon="-1.1081654">
<ele>498</ele>
<time>2013-06-02T20:32:41Z</time>
</trkpt>
<trkpt lat="38.233204" lon="-1.10816">
<ele>497</ele>
<time>2013-06-02T20:32:42Z</time>
</trkpt>
<trkpt lat="38.23328" lon="-1.10816">
<ele>497</ele>
<time>2013-06-02T20:32:43Z</time>
</trkpt>
<trkpt lat="38.23351" lon="-1.1081171">
<ele>497</ele>
<time>2013-06-02T20:32:46Z</time>
</trkpt>
<trkpt lat="38.233585" lon="-1.1081064">
<ele>498</ele>
<time>2013-06-02T20:32:47Z</time>
</trkpt>
<trkpt lat="38.23365" lon="-1.1080903">
<ele>499</ele>
<time>2013-06-02T20:32:48Z</time>
</trkpt>
<trkpt lat="38.233727" lon="-1.1080849">
<ele>499</ele>
<time>2013-06-02T20:32:49Z</time>
</trkpt>
<trkpt lat="38.233795" lon="-1.1080742">
<ele>499</ele>
<time>2013-06-02T20:32:50Z</time>
</trkpt>
<trkpt lat="38.233875" lon="-1.1080688">
<ele>500</ele>
<time>2013-06-02T20:32:51Z</time>
</trkpt>
<trkpt lat="38.233944" lon="-1.1080635">
<ele>500</ele>
<time>2013-06-02T20:32:52Z</time>
</trkpt>
<trkpt lat="38.234024" lon="-1.1080581">
<ele>502</ele>
<time>2013-06-02T20:32:53Z</time>
</trkpt>
<trkpt lat="38.234097" lon="-1.1080527">
<ele>503</ele>
<time>2013-06-02T20:32:54Z</time>
</trkpt>
<trkpt lat="38.23417" lon="-1.1080474">
<ele>504</ele>
<time>2013-06-02T20:32:55Z</time>
</trkpt>
<trkpt lat="38.23424" lon="-1.1080474">
<ele>505</ele>
<time>2013-06-02T20:32:56Z</time>
</trkpt>
<trkpt lat="38.23446" lon="-1.1080313">
<ele>507</ele>
<time>2013-06-02T20:32:59Z</time>
</trkpt>
<trkpt lat="38.23453" lon="-1.1080259">
<ele>507</ele>
<time>2013-06-02T20:33:00Z</time>
</trkpt>
<trkpt lat="38.2346" lon="-1.1080205">
<ele>509</ele>
<time>2013-06-02T20:33:01Z</time>
</trkpt>
<trkpt lat="38.23467" lon="-1.1080045">
<ele>510</ele>
<time>2013-06-02T20:33:02Z</time>
</trkpt>
<trkpt lat="38.234745" lon="-1.1079937">
<ele>511</ele>
<time>2013-06-02T20:33:03Z</time>
</trkpt>
<trkpt lat="38.23481" lon="-1.107983">
<ele>511</ele>
<time>2013-06-02T20:33:04Z</time>
</trkpt>
<trkpt lat="38.234875" lon="-1.1079615">
<ele>512</ele>
<time>2013-06-02T20:33:05Z</time>
</trkpt>
<trkpt lat="38.23494" lon="-1.1079508">
<ele>512</ele>
<time>2013-06-02T20:33:06Z</time>
</trkpt>
<trkpt lat="38.235" lon="-1.107924">
<ele>512</ele>
<time>2013-06-02T20:33:07Z</time>
</trkpt>
<trkpt lat="38.235085" lon="-1.1079025">
<ele>513</ele>
<time>2013-06-02T20:33:08Z</time>
</trkpt>
<trkpt lat="38.235157" lon="-1.1078864">
<ele>514</ele>
<time>2013-06-02T20:33:09Z</time>
</trkpt>
<trkpt lat="38.235382" lon="-1.1078757">
<ele>513</ele>
<time>2013-06-02T20:33:12Z</time>
</trkpt>
<trkpt lat="38.235447" lon="-1.107865">
<ele>513</ele>
<time>2013-06-02T20:33:13Z</time>
</trkpt>
<trkpt lat="38.23551" lon="-1.1078542">
<ele>513</ele>
<time>2013-06-02T20:33:14Z</time>
</trkpt>
<trkpt lat="38.235588" lon="-1.1078382">
<ele>513</ele>
<time>2013-06-02T20:33:15Z</time>
</trkpt>
<trkpt lat="38.235645" lon="-1.1078167">
<ele>513</ele>
<time>2013-06-02T20:33:16Z</time>
</trkpt>
<trkpt lat="38.235706" lon="-1.1077899">
<ele>513</ele>
<time>2013-06-02T20:33:17Z</time>
</trkpt>
<trkpt lat="38.23576" lon="-1.1077738">
<ele>514</ele>
<time>2013-06-02T20:33:18Z</time>
</trkpt>
<trkpt lat="38.235813" lon="-1.1077416">
<ele>514</ele>
<time>2013-06-02T20:33:19Z</time>
</trkpt>
<trkpt lat="38.23586" lon="-1.107688">
<ele>514</ele>
<time>2013-06-02T20:33:20Z</time>
</trkpt>
<trkpt lat="38.23592" lon="-1.107629">
<ele>515</ele>
<time>2013-06-02T20:33:21Z</time>
</trkpt>
<trkpt lat="38.23597" lon="-1.1075699">
<ele>516</ele>
<time>2013-06-02T20:33:22Z</time>
</trkpt>
<trkpt lat="38.236103" lon="-1.1074305">
<ele>516</ele>
<time>2013-06-02T20:33:25Z</time>
</trkpt>
<trkpt lat="38.23615" lon="-1.1073875">
<ele>515</ele>
<time>2013-06-02T20:33:26Z</time>
</trkpt>
<trkpt lat="38.236195" lon="-1.10735">
<ele>516</ele>
<time>2013-06-02T20:33:27Z</time>
</trkpt>
<trkpt lat="38.236237" lon="-1.1073017">
<ele>517</ele>
<time>2013-06-02T20:33:28Z</time>
</trkpt>
<trkpt lat="38.236267" lon="-1.1072534">
<ele>517</ele>
<time>2013-06-02T20:33:29Z</time>
</trkpt>
<trkpt lat="38.2363" lon="-1.1072105">
<ele>517</ele>
<time>2013-06-02T20:33:30Z</time>
</trkpt>
<trkpt lat="38.23633" lon="-1.1071569">
<ele>516</ele>
<time>2013-06-02T20:33:31Z</time>
</trkpt>
<trkpt lat="38.236355" lon="-1.1070979">
<ele>515</ele>
<time>2013-06-02T20:33:32Z</time>
</trkpt>
<trkpt lat="38.23638" lon="-1.1070335">
<ele>514</ele>
<time>2013-06-02T20:33:33Z</time>
</trkpt>
<trkpt lat="38.23642" lon="-1.1069691">
<ele>514</ele>
<time>2013-06-02T20:33:34Z</time>
</trkpt>
<trkpt lat="38.236458" lon="-1.106894">
<ele>515</ele>
<time>2013-06-02T20:33:35Z</time>
</trkpt>
<trkpt lat="38.23658" lon="-1.1067116">
<ele>518</ele>
<time>2013-06-02T20:33:38Z</time>
</trkpt>
<trkpt lat="38.236626" lon="-1.1066741">
<ele>519</ele>
<time>2013-06-02T20:33:39Z</time>
</trkpt>
<trkpt lat="38.236664" lon="-1.1066419">
<ele>519</ele>
<time>2013-06-02T20:33:40Z</time>
</trkpt>
<trkpt lat="38.236702" lon="-1.106599">
<ele>519</ele>
<time>2013-06-02T20:33:41Z</time>
</trkpt>
<trkpt lat="38.236736" lon="-1.1065453">
<ele>518</ele>
<time>2013-06-02T20:33:42Z</time>
</trkpt>
<trkpt lat="38.23677" lon="-1.106481">
<ele>517</ele>
<time>2013-06-02T20:33:43Z</time>
</trkpt>
<trkpt lat="38.236816" lon="-1.106422">
<ele>517</ele>
<time>2013-06-02T20:33:44Z</time>
</trkpt>
<trkpt lat="38.23686" lon="-1.1063683">
<ele>517</ele>
<time>2013-06-02T20:33:45Z</time>
</trkpt>
<trkpt lat="38.23689" lon="-1.1063147">
<ele>516</ele>
<time>2013-06-02T20:33:46Z</time>
</trkpt>
<trkpt lat="38.23691" lon="-1.1062449">
<ele>516</ele>
<time>2013-06-02T20:33:47Z</time>
</trkpt>
<trkpt lat="38.236935" lon="-1.1061752">
<ele>516</ele>
<time>2013-06-02T20:33:48Z</time>
</trkpt>
<trkpt lat="38.23703" lon="-1.1059821">
<ele>517</ele>
<time>2013-06-02T20:33:51Z</time>
</trkpt>
<trkpt lat="38.23707" lon="-1.1059391">
<ele>518</ele>
<time>2013-06-02T20:33:52Z</time>
</trkpt>
<trkpt lat="38.237106" lon="-1.1058962">
<ele>518</ele>
<time>2013-06-02T20:33:53Z</time>
</trkpt>
<trkpt lat="38.237133" lon="-1.105848">
<ele>518</ele>
<time>2013-06-02T20:33:54Z</time>
</trkpt>
<trkpt lat="38.23717" lon="-1.1057997">
<ele>518</ele>
<time>2013-06-02T20:33:55Z</time>
</trkpt>
<trkpt lat="38.237213" lon="-1.1057407">
<ele>518</ele>
<time>2013-06-02T20:33:56Z</time>
</trkpt>
<trkpt lat="38.237255" lon="-1.1056924">
<ele>518</ele>
<time>2013-06-02T20:33:57Z</time>
</trkpt>
<trkpt lat="38.237305" lon="-1.1056441">
<ele>518</ele>
<time>2013-06-02T20:33:58Z</time>
</trkpt>
<trkpt lat="38.237347" lon="-1.1056226">
<ele>518</ele>
<time>2013-06-02T20:33:59Z</time>
</trkpt>
<trkpt lat="38.237385" lon="-1.1055958">
<ele>518</ele>
<time>2013-06-02T20:34:00Z</time>
</trkpt>
<trkpt lat="38.237442" lon="-1.105569">
<ele>518</ele>
<time>2013-06-02T20:34:01Z</time>
</trkpt>
<trkpt lat="38.23762" lon="-1.1055368">
<ele>517</ele>
<time>2013-06-02T20:34:04Z</time>
</trkpt>
<trkpt lat="38.23769" lon="-1.1055315">
<ele>518</ele>
<time>2013-06-02T20:34:05Z</time>
</trkpt>
<trkpt lat="38.23776" lon="-1.1055154">
<ele>520</ele>
<time>2013-06-02T20:34:06Z</time>
</trkpt>
<trkpt lat="38.237835" lon="-1.1054939">
<ele>521</ele>
<time>2013-06-02T20:34:07Z</time>
</trkpt>
<trkpt lat="38.237904" lon="-1.1054671">
<ele>522</ele>
<time>2013-06-02T20:34:08Z</time>
</trkpt>
<trkpt lat="38.237965" lon="-1.1054349">
<ele>522</ele>
<time>2013-06-02T20:34:09Z</time>
</trkpt>
<trkpt lat="38.238018" lon="-1.1053973">
<ele>522</ele>
<time>2013-06-02T20:34:10Z</time>
</trkpt>
<trkpt lat="38.238064" lon="-1.1053544">
<ele>522</ele>
<time>2013-06-02T20:34:11Z</time>
</trkpt>
<trkpt lat="38.238117" lon="-1.1053061">
<ele>522</ele>
<time>2013-06-02T20:34:12Z</time>
</trkpt>
<trkpt lat="38.238174" lon="-1.1052632">
<ele>523</ele>
<time>2013-06-02T20:34:13Z</time>
</trkpt>
<trkpt lat="38.238228" lon="-1.1052042">
<ele>523</ele>
<time>2013-06-02T20:34:14Z</time>
</trkpt>
<trkpt lat="38.238354" lon="-1.104995">
<ele>522</ele>
<time>2013-06-02T20:34:17Z</time>
</trkpt>
<trkpt lat="38.238354" lon="-1.104936">
<ele>521</ele>
<time>2013-06-02T20:34:18Z</time>
</trkpt>
<trkpt lat="38.238365" lon="-1.104877">
<ele>521</ele>
<time>2013-06-02T20:34:19Z</time>
</trkpt>
<trkpt lat="38.2384" lon="-1.1048234">
<ele>522</ele>
<time>2013-06-02T20:34:20Z</time>
</trkpt>
<trkpt lat="38.238407" lon="-1.1047482">
<ele>522</ele>
<time>2013-06-02T20:34:21Z</time>
</trkpt>
<trkpt lat="38.238403" lon="-1.1046678">
<ele>521</ele>
<time>2013-06-02T20:34:22Z</time>
</trkpt>
<trkpt lat="38.23836" lon="-1.1046195">
<ele>520</ele>
<time>2013-06-02T20:34:23Z</time>
</trkpt>
<trkpt lat="38.23835" lon="-1.1045766">
<ele>520</ele>
<time>2013-06-02T20:34:24Z</time>
</trkpt>
<trkpt lat="38.23834" lon="-1.1045551">
<ele>521</ele>
<time>2013-06-02T20:34:25Z</time>
</trkpt>
<trkpt lat="38.23831" lon="-1.1045498">
<ele>521</ele>
<time>2013-06-02T20:34:26Z</time>
</trkpt>
<trkpt lat="38.238247" lon="-1.1045551">
<ele>519</ele>
<time>2013-06-02T20:34:27Z</time>
</trkpt>
<trkpt lat="38.23803" lon="-1.1047214">
<ele>518</ele>
<time>2013-06-02T20:34:30Z</time>
</trkpt>
<trkpt lat="38.23797" lon="-1.1047751">
<ele>519</ele>
<time>2013-06-02T20:34:31Z</time>
</trkpt>
<trkpt lat="38.237915" lon="-1.1048073">
<ele>520</ele>
<time>2013-06-02T20:34:32Z</time>
</trkpt>
<trkpt lat="38.23786" lon="-1.1048502">
<ele>521</ele>
<time>2013-06-02T20:34:33Z</time>
</trkpt>
<trkpt lat="38.237812" lon="-1.1049038">
<ele>521</ele>
<time>2013-06-02T20:34:34Z</time>
</trkpt>
<trkpt lat="38.237766" lon="-1.1049843">
<ele>520</ele>
<time>2013-06-02T20:34:35Z</time>
</trkpt>
<trkpt lat="38.237713" lon="-1.1050487">
<ele>521</ele>
<time>2013-06-02T20:34:36Z</time>
</trkpt>
<trkpt lat="38.237656" lon="-1.105113">
<ele>522</ele>
<time>2013-06-02T20:34:37Z</time>
</trkpt>
<trkpt lat="38.23761" lon="-1.105172">
<ele>523</ele>
<time>2013-06-02T20:34:38Z</time>
</trkpt>
<trkpt lat="38.23756" lon="-1.105231">
<ele>524</ele>
<time>2013-06-02T20:34:39Z</time>
</trkpt>
<trkpt lat="38.237514" lon="-1.10529">
<ele>525</ele>
<time>2013-06-02T20:34:40Z</time>
</trkpt>
<trkpt lat="38.237373" lon="-1.1055475">
<ele>524</ele>
<time>2013-06-02T20:34:43Z</time>
</trkpt>
<trkpt lat="38.237324" lon="-1.1056548">
<ele>524</ele>
<time>2013-06-02T20:34:44Z</time>
</trkpt>
<trkpt lat="38.237286" lon="-1.1057675">
<ele>523</ele>
<time>2013-06-02T20:34:45Z</time>
</trkpt>
<trkpt lat="38.23726" lon="-1.1058855">
<ele>522</ele>
<time>2013-06-02T20:34:46Z</time>
</trkpt>
<trkpt lat="38.237217" lon="-1.1059928">
<ele>522</ele>
<time>2013-06-02T20:34:47Z</time>
</trkpt>
<trkpt lat="38.23718" lon="-1.1061001">
<ele>521</ele>
<time>2013-06-02T20:34:48Z</time>
</trkpt>
<trkpt lat="38.237152" lon="-1.1062181">
<ele>522</ele>
<time>2013-06-02T20:34:49Z</time>
</trkpt>
<trkpt lat="38.23712" lon="-1.1063361">
<ele>522</ele>
<time>2013-06-02T20:34:50Z</time>
</trkpt>
<trkpt lat="38.237087" lon="-1.1064488">
<ele>522</ele>
<time>2013-06-02T20:34:51Z</time>
</trkpt>
<trkpt lat="38.23706" lon="-1.1065614">
<ele>522</ele>
<time>2013-06-02T20:34:52Z</time>
</trkpt>
<trkpt lat="38.23703" lon="-1.106658">
<ele>521</ele>
<time>2013-06-02T20:34:53Z</time>
</trkpt>
<trkpt lat="38.236855" lon="-1.1070013">
<ele>521</ele>
<time>2013-06-02T20:34:57Z</time>
</trkpt>
<trkpt lat="38.236805" lon="-1.1070603">
<ele>521</ele>
<time>2013-06-02T20:34:58Z</time>
</trkpt>
<trkpt lat="38.236755" lon="-1.1071247">
<ele>522</ele>
<time>2013-06-02T20:34:59Z</time>
</trkpt>
<trkpt lat="38.2367" lon="-1.1071998">
<ele>521</ele>
<time>2013-06-02T20:35:00Z</time>
</trkpt>
<trkpt lat="38.236656" lon="-1.1072749">
<ele>521</ele>
<time>2013-06-02T20:35:01Z</time>
</trkpt>
<trkpt lat="38.236607" lon="-1.1073285">
<ele>520</ele>
<time>2013-06-02T20:35:02Z</time>
</trkpt>
<trkpt lat="38.236553" lon="-1.1073714">
<ele>520</ele>
<time>2013-06-02T20:35:03Z</time>
</trkpt>
<trkpt lat="38.23649" lon="-1.1074036">
<ele>521</ele>
<time>2013-06-02T20:35:04Z</time>
</trkpt>
<trkpt lat="38.23641" lon="-1.1074251">
<ele>520</ele>
<time>2013-06-02T20:35:05Z</time>
</trkpt>
<trkpt lat="38.23634" lon="-1.1074573">
<ele>520</ele>
<time>2013-06-02T20:35:06Z</time>
</trkpt>
<trkpt lat="38.236275" lon="-1.1075002">
<ele>521</ele>
<time>2013-06-02T20:35:07Z</time>
</trkpt>
<trkpt lat="38.236103" lon="-1.1076128">
<ele>520</ele>
<time>2013-06-02T20:35:10Z</time>
</trkpt>
<trkpt lat="38.23604" lon="-1.107645">
<ele>520</ele>
<time>2013-06-02T20:35:11Z</time>
</trkpt>
<trkpt lat="38.235962" lon="-1.1076826">
<ele>520</ele>
<time>2013-06-02T20:35:12Z</time>
</trkpt>
<trkpt lat="38.235893" lon="-1.1077201">
<ele>521</ele>
<time>2013-06-02T20:35:13Z</time>
</trkpt>
<trkpt lat="38.23584" lon="-1.107763">
<ele>521</ele>
<time>2013-06-02T20:35:14Z</time>
</trkpt>
<trkpt lat="38.235775" lon="-1.1078113">
<ele>521</ele>
<time>2013-06-02T20:35:15Z</time>
</trkpt>
<trkpt lat="38.235706" lon="-1.1078703">
<ele>520</ele>
<time>2013-06-02T20:35:16Z</time>
</trkpt>
<trkpt lat="38.235634" lon="-1.1079347">
<ele>519</ele>
<time>2013-06-02T20:35:17Z</time>
</trkpt>
<trkpt lat="38.235565" lon="-1.1080045">
<ele>518</ele>
<time>2013-06-02T20:35:18Z</time>
</trkpt>
<trkpt lat="38.235497" lon="-1.1080796">
<ele>517</ele>
<time>2013-06-02T20:35:19Z</time>
</trkpt>
<trkpt lat="38.23543" lon="-1.1081439">
<ele>518</ele>
<time>2013-06-02T20:35:20Z</time>
</trkpt>
<trkpt lat="38.235226" lon="-1.1083478">
<ele>516</ele>
<time>2013-06-02T20:35:23Z</time>
</trkpt>
<trkpt lat="38.235157" lon="-1.1084229">
<ele>516</ele>
<time>2013-06-02T20:35:24Z</time>
</trkpt>
<trkpt lat="38.235085" lon="-1.1085033">
<ele>515</ele>
<time>2013-06-02T20:35:25Z</time>
</trkpt>
<trkpt lat="38.23502" lon="-1.1085838">
<ele>515</ele>
<time>2013-06-02T20:35:26Z</time>
</trkpt>
<trkpt lat="38.234955" lon="-1.1086589">
<ele>515</ele>
<time>2013-06-02T20:35:27Z</time>
</trkpt>
<trkpt lat="38.234882" lon="-1.108734">
<ele>515</ele>
<time>2013-06-02T20:35:28Z</time>
</trkpt>
<trkpt lat="38.234814" lon="-1.1088091">
<ele>515</ele>
<time>2013-06-02T20:35:29Z</time>
</trkpt>
<trkpt lat="38.234745" lon="-1.1088842">
<ele>514</ele>
<time>2013-06-02T20:35:30Z</time>
</trkpt>
<trkpt lat="38.23468" lon="-1.1089647">
<ele>514</ele>
<time>2013-06-02T20:35:31Z</time>
</trkpt>
<trkpt lat="38.234615" lon="-1.1090505">
<ele>513</ele>
<time>2013-06-02T20:35:32Z</time>
</trkpt>
<trkpt lat="38.23455" lon="-1.1091363">
<ele>513</ele>
<time>2013-06-02T20:35:33Z</time>
</trkpt>
<trkpt lat="38.234364" lon="-1.1094046">
<ele>511</ele>
<time>2013-06-02T20:35:36Z</time>
</trkpt>
<trkpt lat="38.2343" lon="-1.1094958">
<ele>510</ele>
<time>2013-06-02T20:35:37Z</time>
</trkpt>
<trkpt lat="38.23424" lon="-1.1095923">
<ele>509</ele>
<time>2013-06-02T20:35:38Z</time>
</trkpt>
<trkpt lat="38.23418" lon="-1.1096835">
<ele>509</ele>
<time>2013-06-02T20:35:39Z</time>
</trkpt>
<trkpt lat="38.234123" lon="-1.1097854">
<ele>508</ele>
<time>2013-06-02T20:35:40Z</time>
</trkpt>
<trkpt lat="38.234055" lon="-1.109882">
<ele>508</ele>
<time>2013-06-02T20:35:41Z</time>
</trkpt>
<trkpt lat="38.23399" lon="-1.1099839">
<ele>508</ele>
<time>2013-06-02T20:35:42Z</time>
</trkpt>
<trkpt lat="38.233936" lon="-1.1100805">
<ele>508</ele>
<time>2013-06-02T20:35:43Z</time>
</trkpt>
<trkpt lat="38.23387" lon="-1.1101717">
<ele>508</ele>
<time>2013-06-02T20:35:44Z</time>
</trkpt>
<trkpt lat="38.23381" lon="-1.1102682">
<ele>507</ele>
<time>2013-06-02T20:35:45Z</time>
</trkpt>
<trkpt lat="38.233753" lon="-1.1103594">
<ele>506</ele>
<time>2013-06-02T20:35:46Z</time>
</trkpt>
<trkpt lat="38.233566" lon="-1.110633">
<ele>504</ele>
<time>2013-06-02T20:35:49Z</time>
</trkpt>
<trkpt lat="38.233505" lon="-1.1107296">
<ele>504</ele>
<time>2013-06-02T20:35:50Z</time>
</trkpt>
<trkpt lat="38.23345" lon="-1.1108315">
<ele>503</ele>
<time>2013-06-02T20:35:51Z</time>
</trkpt>
<trkpt lat="38.2334" lon="-1.1109334">
<ele>501</ele>
<time>2013-06-02T20:35:52Z</time>
</trkpt>
<trkpt lat="38.233345" lon="-1.1110407">
<ele>501</ele>
<time>2013-06-02T20:35:53Z</time>
</trkpt>
<trkpt lat="38.23329" lon="-1.1111426">
<ele>500</ele>
<time>2013-06-02T20:35:54Z</time>
</trkpt>
<trkpt lat="38.23324" lon="-1.1112553">
<ele>500</ele>
<time>2013-06-02T20:35:55Z</time>
</trkpt>
<trkpt lat="38.2332" lon="-1.1113733">
<ele>499</ele>
<time>2013-06-02T20:35:56Z</time>
</trkpt>
<trkpt lat="38.233162" lon="-1.1114967">
<ele>499</ele>
<time>2013-06-02T20:35:57Z</time>
</trkpt>
<trkpt lat="38.23312" lon="-1.1116147">
<ele>499</ele>
<time>2013-06-02T20:35:58Z</time>
</trkpt>
<trkpt lat="38.23308" lon="-1.1117381">
<ele>499</ele>
<time>2013-06-02T20:35:59Z</time>
</trkpt>
<trkpt lat="38.232914" lon="-1.1123711">
<ele>494</ele>
<time>2013-06-02T20:36:04Z</time>
</trkpt>
<trkpt lat="38.232883" lon="-1.1125052">
<ele>494</ele>
<time>2013-06-02T20:36:05Z</time>
</trkpt>
<trkpt lat="38.23285" lon="-1.1126286">
<ele>494</ele>
<time>2013-06-02T20:36:06Z</time>
</trkpt>
<trkpt lat="38.23282" lon="-1.1127627">
<ele>494</ele>
<time>2013-06-02T20:36:07Z</time>
</trkpt>
<trkpt lat="38.232788" lon="-1.1128861">
<ele>493</ele>
<time>2013-06-02T20:36:08Z</time>
</trkpt>
<trkpt lat="38.23276" lon="-1.1130148">
<ele>493</ele>
<time>2013-06-02T20:36:09Z</time>
</trkpt>
<trkpt lat="38.232727" lon="-1.1131436">
<ele>494</ele>
<time>2013-06-02T20:36:10Z</time>
</trkpt>
<trkpt lat="38.2327" lon="-1.113267">
<ele>493</ele>
<time>2013-06-02T20:36:11Z</time>
</trkpt>
<trkpt lat="38.232685" lon="-1.1133903">
<ele>493</ele>
<time>2013-06-02T20:36:12Z</time>
</trkpt>
<trkpt lat="38.23266" lon="-1.1135191">
<ele>493</ele>
<time>2013-06-02T20:36:13Z</time>
</trkpt>
<trkpt lat="38.232635" lon="-1.1136425">
<ele>493</ele>
<time>2013-06-02T20:36:14Z</time>
</trkpt>
<trkpt lat="38.23258" lon="-1.1140448">
<ele>490</ele>
<time>2013-06-02T20:36:17Z</time>
</trkpt>
<trkpt lat="38.23257" lon="-1.1141896">
<ele>489</ele>
<time>2013-06-02T20:36:18Z</time>
</trkpt>
<trkpt lat="38.232555" lon="-1.1143345">
<ele>489</ele>
<time>2013-06-02T20:36:19Z</time>
</trkpt>
<trkpt lat="38.232563" lon="-1.1144739">
<ele>487</ele>
<time>2013-06-02T20:36:20Z</time>
</trkpt>
<trkpt lat="38.232555" lon="-1.1146241">
<ele>486</ele>
<time>2013-06-02T20:36:21Z</time>
</trkpt>
<trkpt lat="38.232555" lon="-1.1147743">
<ele>485</ele>
<time>2013-06-02T20:36:22Z</time>
</trkpt>
<trkpt lat="38.232563" lon="-1.1149192">
<ele>484</ele>
<time>2013-06-02T20:36:23Z</time>
</trkpt>
<trkpt lat="38.23255" lon="-1.1150587">
<ele>483</ele>
<time>2013-06-02T20:36:24Z</time>
</trkpt>
<trkpt lat="38.232544" lon="-1.1151928">
<ele>482</ele>
<time>2013-06-02T20:36:25Z</time>
</trkpt>
<trkpt lat="38.23253" lon="-1.1153215">
<ele>482</ele>
<time>2013-06-02T20:36:26Z</time>
</trkpt>
<trkpt lat="38.232513" lon="-1.1154503">
<ele>481</ele>
<time>2013-06-02T20:36:27Z</time>
</trkpt>
<trkpt lat="38.232475" lon="-1.115858">
<ele>480</ele>
<time>2013-06-02T20:36:30Z</time>
</trkpt>
<trkpt lat="38.232464" lon="-1.1159921">
<ele>479</ele>
<time>2013-06-02T20:36:31Z</time>
</trkpt>
<trkpt lat="38.232452" lon="-1.1161262">
<ele>478</ele>
<time>2013-06-02T20:36:32Z</time>
</trkpt>
<trkpt lat="38.232445" lon="-1.1162549">
<ele>477</ele>
<time>2013-06-02T20:36:33Z</time>
</trkpt>
<trkpt lat="38.232433" lon="-1.116389">
<ele>477</ele>
<time>2013-06-02T20:36:34Z</time>
</trkpt>
<trkpt lat="38.23242" lon="-1.1165285">
<ele>476</ele>
<time>2013-06-02T20:36:35Z</time>
</trkpt>
<trkpt lat="38.232418" lon="-1.1166573">
<ele>476</ele>
<time>2013-06-02T20:36:36Z</time>
</trkpt>
<trkpt lat="38.232407" lon="-1.1167914">
<ele>476</ele>
<time>2013-06-02T20:36:37Z</time>
</trkpt>
<trkpt lat="38.232395" lon="-1.1169147">
<ele>476</ele>
<time>2013-06-02T20:36:38Z</time>
</trkpt>
<trkpt lat="38.232372" lon="-1.1170489">
<ele>476</ele>
<time>2013-06-02T20:36:39Z</time>
</trkpt>
<trkpt lat="38.232357" lon="-1.117183">
<ele>476</ele>
<time>2013-06-02T20:36:40Z</time>
</trkpt>
<trkpt lat="38.23228" lon="-1.1175531">
<ele>475</ele>
<time>2013-06-02T20:36:43Z</time>
</trkpt>
<trkpt lat="38.232273" lon="-1.1176711">
<ele>474</ele>
<time>2013-06-02T20:36:44Z</time>
</trkpt>
<trkpt lat="38.23226" lon="-1.1177999">
<ele>474</ele>
<time>2013-06-02T20:36:45Z</time>
</trkpt>
<trkpt lat="38.23225" lon="-1.1179394">
<ele>473</ele>
<time>2013-06-02T20:36:46Z</time>
</trkpt>
<trkpt lat="38.23224" lon="-1.1180627">
<ele>473</ele>
<time>2013-06-02T20:36:47Z</time>
</trkpt>
<trkpt lat="38.232227" lon="-1.1181915">
<ele>472</ele>
<time>2013-06-02T20:36:48Z</time>
</trkpt>
<trkpt lat="38.232212" lon="-1.1183256">
<ele>472</ele>
<time>2013-06-02T20:36:49Z</time>
</trkpt>
<trkpt lat="38.2322" lon="-1.1184597">
<ele>472</ele>
<time>2013-06-02T20:36:50Z</time>
</trkpt>
<trkpt lat="38.232193" lon="-1.1185884">
<ele>472</ele>
<time>2013-06-02T20:36:51Z</time>
</trkpt>
<trkpt lat="38.232193" lon="-1.1187279">
<ele>472</ele>
<time>2013-06-02T20:36:52Z</time>
</trkpt>
<trkpt lat="38.232193" lon="-1.1188513">
<ele>473</ele>
<time>2013-06-02T20:36:53Z</time>
</trkpt>
<trkpt lat="38.23217" lon="-1.1191839">
<ele>474</ele>
<time>2013-06-02T20:36:56Z</time>
</trkpt>
<trkpt lat="38.232143" lon="-1.1192912">
<ele>472</ele>
<time>2013-06-02T20:36:57Z</time>
</trkpt>
<trkpt lat="38.2321" lon="-1.1194038">
<ele>473</ele>
<time>2013-06-02T20:36:58Z</time>
</trkpt>
<trkpt lat="38.232067" lon="-1.1194897">
<ele>474</ele>
<time>2013-06-02T20:36:59Z</time>
</trkpt>
<trkpt lat="38.232" lon="-1.1195487">
<ele>474</ele>
<time>2013-06-02T20:37:00Z</time>
</trkpt>
<trkpt lat="38.231937" lon="-1.1196023">
<ele>474</ele>
<time>2013-06-02T20:37:01Z</time>
</trkpt>
<trkpt lat="38.23188" lon="-1.1196452">
<ele>474</ele>
<time>2013-06-02T20:37:02Z</time>
</trkpt>
<trkpt lat="38.23181" lon="-1.1196828">
<ele>474</ele>
<time>2013-06-02T20:37:03Z</time>
</trkpt>
<trkpt lat="38.23173" lon="-1.1197096">
<ele>473</ele>
<time>2013-06-02T20:37:04Z</time>
</trkpt>
<trkpt lat="38.231644" lon="-1.1197311">
<ele>472</ele>
<time>2013-06-02T20:37:05Z</time>
</trkpt>
<trkpt lat="38.231575" lon="-1.1197472">
<ele>472</ele>
<time>2013-06-02T20:37:06Z</time>
</trkpt>
<trkpt lat="38.23142" lon="-1.1198437">
<ele>471</ele>
<time>2013-06-02T20:37:09Z</time>
</trkpt>
<trkpt lat="38.231365" lon="-1.1199135">
<ele>471</ele>
<time>2013-06-02T20:37:10Z</time>
</trkpt>
<trkpt lat="38.23131" lon="-1.1200315">
<ele>470</ele>
<time>2013-06-02T20:37:11Z</time>
</trkpt>
<trkpt lat="38.231277" lon="-1.1201549">
<ele>470</ele>
<time>2013-06-02T20:37:12Z</time>
</trkpt>
<trkpt lat="38.231247" lon="-1.1202675">
<ele>470</ele>
<time>2013-06-02T20:37:13Z</time>
</trkpt>
<trkpt lat="38.23122" lon="-1.1203694">
<ele>471</ele>
<time>2013-06-02T20:37:14Z</time>
</trkpt>
<trkpt lat="38.23119" lon="-1.1204606">
<ele>470</ele>
<time>2013-06-02T20:37:15Z</time>
</trkpt>
<trkpt lat="38.23114" lon="-1.1205465">
<ele>470</ele>
<time>2013-06-02T20:37:16Z</time>
</trkpt>
<trkpt lat="38.231087" lon="-1.1206323">
<ele>469</ele>
<time>2013-06-02T20:37:17Z</time>
</trkpt>
<trkpt lat="38.23102" lon="-1.1207074">
<ele>467</ele>
<time>2013-06-02T20:37:18Z</time>
</trkpt>
<trkpt lat="38.23097" lon="-1.1207771">
<ele>467</ele>
<time>2013-06-02T20:37:19Z</time>
</trkpt>
<trkpt lat="38.23081" lon="-1.1209327">
<ele>468</ele>
<time>2013-06-02T20:37:22Z</time>
</trkpt>
<trkpt lat="38.230743" lon="-1.1209971">
<ele>467</ele>
<time>2013-06-02T20:37:23Z</time>
</trkpt>
<trkpt lat="38.230682" lon="-1.1210614">
<ele>467</ele>
<time>2013-06-02T20:37:24Z</time>
</trkpt>
<trkpt lat="38.23063" lon="-1.1211151">
<ele>467</ele>
<time>2013-06-02T20:37:25Z</time>
</trkpt>
<trkpt lat="38.230576" lon="-1.121158">
<ele>465</ele>
<time>2013-06-02T20:37:26Z</time>
</trkpt>
<trkpt lat="38.23052" lon="-1.1211902">
<ele>464</ele>
<time>2013-06-02T20:37:27Z</time>
</trkpt>
<trkpt lat="38.230453" lon="-1.121217">
<ele>463</ele>
<time>2013-06-02T20:37:28Z</time>
</trkpt>
<trkpt lat="38.230385" lon="-1.1212438">
<ele>462</ele>
<time>2013-06-02T20:37:29Z</time>
</trkpt>
<trkpt lat="38.23032" lon="-1.1212814">
<ele>461</ele>
<time>2013-06-02T20:37:30Z</time>
</trkpt>
<trkpt lat="38.23026" lon="-1.1213297">
<ele>460</ele>
<time>2013-06-02T20:37:31Z</time>
</trkpt>
<trkpt lat="38.230206" lon="-1.1214048">
<ele>460</ele>
<time>2013-06-02T20:37:32Z</time>
</trkpt>
<trkpt lat="38.230072" lon="-1.1216408">
<ele>460</ele>
<time>2013-06-02T20:37:35Z</time>
</trkpt>
<trkpt lat="38.23003" lon="-1.1217105">
<ele>461</ele>
<time>2013-06-02T20:37:36Z</time>
</trkpt>
<trkpt lat="38.22999" lon="-1.1217749">
<ele>461</ele>
<time>2013-06-02T20:37:37Z</time>
</trkpt>
<trkpt lat="38.22995" lon="-1.1217749">
<ele>461</ele>
<time>2013-06-02T20:37:38Z</time>
</trkpt>
<trkpt lat="38.2299" lon="-1.1217588">
<ele>461</ele>
<time>2013-06-02T20:37:39Z</time>
</trkpt>
<trkpt lat="38.22986" lon="-1.1217535">
<ele>460</ele>
<time>2013-06-02T20:37:40Z</time>
</trkpt>
<trkpt lat="38.229816" lon="-1.1217374">
<ele>461</ele>
<time>2013-06-02T20:37:41Z</time>
</trkpt>
<trkpt lat="38.22978" lon="-1.1217374">
<ele>461</ele>
<time>2013-06-02T20:37:42Z</time>
</trkpt>
<trkpt lat="38.229755" lon="-1.1217427">
<ele>461</ele>
<time>2013-06-02T20:37:43Z</time>
</trkpt>
<trkpt lat="38.229725" lon="-1.1217427">
<ele>461</ele>
<time>2013-06-02T20:37:44Z</time>
</trkpt>
<trkpt lat="38.2297" lon="-1.1217266">
<ele>461</ele>
<time>2013-06-02T20:37:45Z</time>
</trkpt>
<trkpt lat="38.229675" lon="-1.1216408">
<ele>459</ele>
<time>2013-06-02T20:37:48Z</time>
</trkpt>
<trkpt lat="38.22975" lon="-1.1215925">
<ele>459</ele>
<time>2013-06-02T20:37:49Z</time>
</trkpt>
<trkpt lat="38.22982" lon="-1.1215711">
<ele>458</ele>
<time>2013-06-02T20:37:50Z</time>
</trkpt>
<trkpt lat="38.22989" lon="-1.1215818">
<ele>459</ele>
<time>2013-06-02T20:37:51Z</time>
</trkpt>
<trkpt lat="38.22995" lon="-1.1215818">
<ele>459</ele>
<time>2013-06-02T20:37:52Z</time>
</trkpt>
<trkpt lat="38.230015" lon="-1.1215764">
<ele>458</ele>
<time>2013-06-02T20:37:53Z</time>
</trkpt>
<trkpt lat="38.230103" lon="-1.121555">
<ele>457</ele>
<time>2013-06-02T20:37:54Z</time>
</trkpt>
<trkpt lat="38.23019" lon="-1.1215228">
<ele>456</ele>
<time>2013-06-02T20:37:55Z</time>
</trkpt>
<trkpt lat="38.23027" lon="-1.1215013">
<ele>456</ele>
<time>2013-06-02T20:37:56Z</time>
</trkpt>
<trkpt lat="38.230335" lon="-1.1214799">
<ele>456</ele>
<time>2013-06-02T20:37:57Z</time>
</trkpt>
<trkpt lat="38.2304" lon="-1.1214638">
<ele>455</ele>
<time>2013-06-02T20:37:58Z</time>
</trkpt>
<trkpt lat="38.2306" lon="-1.121394">
<ele>455</ele>
<time>2013-06-02T20:38:01Z</time>
</trkpt>
<trkpt lat="38.230675" lon="-1.1213672">
<ele>455</ele>
<time>2013-06-02T20:38:02Z</time>
</trkpt>
<trkpt lat="38.230736" lon="-1.1213458">
<ele>455</ele>
<time>2013-06-02T20:38:03Z</time>
</trkpt>
<trkpt lat="38.23079" lon="-1.1213243">
<ele>455</ele>
<time>2013-06-02T20:38:04Z</time>
</trkpt>
<trkpt lat="38.23085" lon="-1.1213028">
<ele>454</ele>
<time>2013-06-02T20:38:05Z</time>
</trkpt>
<trkpt lat="38.230904" lon="-1.1212814">
<ele>455</ele>
<time>2013-06-02T20:38:06Z</time>
</trkpt>
<trkpt lat="38.230965" lon="-1.1212492">
<ele>454</ele>
<time>2013-06-02T20:38:07Z</time>
</trkpt>
<trkpt lat="38.23102" lon="-1.1211956">
<ele>455</ele>
<time>2013-06-02T20:38:08Z</time>
</trkpt>
<trkpt lat="38.23106" lon="-1.1211526">
<ele>453</ele>
<time>2013-06-02T20:38:09Z</time>
</trkpt>
<trkpt lat="38.231064" lon="-1.1210936">
<ele>451</ele>
<time>2013-06-02T20:38:10Z</time>
</trkpt>
<trkpt lat="38.231037" lon="-1.12104">
<ele>449</ele>
<time>2013-06-02T20:38:11Z</time>
</trkpt>
<trkpt lat="38.2309" lon="-1.1210132">
<ele>445</ele>
<time>2013-06-02T20:38:14Z</time>
</trkpt>
<trkpt lat="38.23082" lon="-1.1211258">
<ele>445</ele>
<time>2013-06-02T20:38:15Z</time>
</trkpt>
<trkpt lat="38.230762" lon="-1.1212331">
<ele>445</ele>
<time>2013-06-02T20:38:16Z</time>
</trkpt>
<trkpt lat="38.230694" lon="-1.1213458">
<ele>444</ele>
<time>2013-06-02T20:38:17Z</time>
</trkpt>
<trkpt lat="38.23064" lon="-1.1214477">
<ele>443</ele>
<time>2013-06-02T20:38:18Z</time>
</trkpt>
<trkpt lat="38.230587" lon="-1.1215389">
<ele>443</ele>
<time>2013-06-02T20:38:19Z</time>
</trkpt>
<trkpt lat="38.230534" lon="-1.1216033">
<ele>444</ele>
<time>2013-06-02T20:38:20Z</time>
</trkpt>
<trkpt lat="38.230476" lon="-1.1216408">
<ele>444</ele>
<time>2013-06-02T20:38:21Z</time>
</trkpt>
<trkpt lat="38.23042" lon="-1.121673">
<ele>443</ele>
<time>2013-06-02T20:38:22Z</time>
</trkpt>
<trkpt lat="38.230366" lon="-1.1216944">
<ele>443</ele>
<time>2013-06-02T20:38:23Z</time>
</trkpt>
<trkpt lat="38.23031" lon="-1.1216837">
<ele>441</ele>
<time>2013-06-02T20:38:24Z</time>
</trkpt>
<trkpt lat="38.230312" lon="-1.121512">
<ele>442</ele>
<time>2013-06-02T20:38:27Z</time>
</trkpt>
<trkpt lat="38.230366" lon="-1.1214799">
<ele>441</ele>
<time>2013-06-02T20:38:28Z</time>
</trkpt>
<trkpt lat="38.230453" lon="-1.121453">
<ele>441</ele>
<time>2013-06-02T20:38:29Z</time>
</trkpt>
<trkpt lat="38.230503" lon="-1.121437">
<ele>442</ele>
<time>2013-06-02T20:38:30Z</time>
</trkpt>
<trkpt lat="38.23057" lon="-1.1214101">
<ele>442</ele>
<time>2013-06-02T20:38:31Z</time>
</trkpt>
<trkpt lat="38.23064" lon="-1.1213833">
<ele>441</ele>
<time>2013-06-02T20:38:32Z</time>
</trkpt>
<trkpt lat="38.230717" lon="-1.1213565">
<ele>441</ele>
<time>2013-06-02T20:38:33Z</time>
</trkpt>
<trkpt lat="38.230797" lon="-1.1213404">
<ele>441</ele>
<time>2013-06-02T20:38:34Z</time>
</trkpt>
<trkpt lat="38.23086" lon="-1.1213189">
<ele>442</ele>
<time>2013-06-02T20:38:35Z</time>
</trkpt>
<trkpt lat="38.23092" lon="-1.1212814">
<ele>442</ele>
<time>2013-06-02T20:38:36Z</time>
</trkpt>
<trkpt lat="38.23097" lon="-1.1212438">
<ele>442</ele>
<time>2013-06-02T20:38:37Z</time>
</trkpt>
<trkpt lat="38.230953" lon="-1.1210454">
<ele>437</ele>
<time>2013-06-02T20:38:40Z</time>
</trkpt>
<trkpt lat="38.23093" lon="-1.1209917">
<ele>436</ele>
<time>2013-06-02T20:38:41Z</time>
</trkpt>
<trkpt lat="38.230854" lon="-1.1210239">
<ele>435</ele>
<time>2013-06-02T20:38:42Z</time>
</trkpt>
<trkpt lat="38.230774" lon="-1.1210829">
<ele>435</ele>
<time>2013-06-02T20:38:43Z</time>
</trkpt>
<trkpt lat="38.230694" lon="-1.1211741">
<ele>435</ele>
<time>2013-06-02T20:38:44Z</time>
</trkpt>
<trkpt lat="38.230663" lon="-1.1213082">
<ele>434</ele>
<time>2013-06-02T20:38:45Z</time>
</trkpt>
<trkpt lat="38.230625" lon="-1.1214048">
<ele>435</ele>
<time>2013-06-02T20:38:46Z</time>
</trkpt>
<trkpt lat="38.230583" lon="-1.1215228">
<ele>434</ele>
<time>2013-06-02T20:38:47Z</time>
</trkpt>
<trkpt lat="38.23053" lon="-1.1216247">
<ele>433</ele>
<time>2013-06-02T20:38:48Z</time>
</trkpt>
<trkpt lat="38.23048" lon="-1.1217052">
<ele>432</ele>
<time>2013-06-02T20:38:49Z</time>
</trkpt>
<trkpt lat="38.23042" lon="-1.1217427">
<ele>431</ele>
<time>2013-06-02T20:38:50Z</time>
</trkpt>
<trkpt lat="38.23024" lon="-1.1216086">
<ele>430</ele>
<time>2013-06-02T20:38:53Z</time>
</trkpt>
<trkpt lat="38.230232" lon="-1.1215657">
<ele>429</ele>
<time>2013-06-02T20:38:54Z</time>
</trkpt>
<trkpt lat="38.23022" lon="-1.1215496">
<ele>428</ele>
<time>2013-06-02T20:38:55Z</time>
</trkpt>
<trkpt lat="38.230217" lon="-1.1215174">
<ele>427</ele>
<time>2013-06-02T20:38:56Z</time>
</trkpt>
<trkpt lat="38.230217" lon="-1.1214799">
<ele>426</ele>
<time>2013-06-02T20:38:57Z</time>
</trkpt>
<trkpt lat="38.230213" lon="-1.1214209">
<ele>425</ele>
<time>2013-06-02T20:38:58Z</time>
</trkpt>
<trkpt lat="38.230194" lon="-1.1213726">
<ele>425</ele>
<time>2013-06-02T20:38:59Z</time>
</trkpt>
<trkpt lat="38.230186" lon="-1.1213297">
<ele>426</ele>
<time>2013-06-02T20:39:00Z</time>
</trkpt>
<trkpt lat="38.23016" lon="-1.1213136">
<ele>425</ele>
<time>2013-06-02T20:39:01Z</time>
</trkpt>
<trkpt lat="38.230133" lon="-1.1213082">
<ele>425</ele>
<time>2013-06-02T20:39:02Z</time>
</trkpt>
<trkpt lat="38.2301" lon="-1.1212921">
<ele>425</ele>
<time>2013-06-02T20:39:03Z</time>
</trkpt>
<trkpt lat="38.23007" lon="-1.1212492">
<ele>424</ele>
<time>2013-06-02T20:39:06Z</time>
</trkpt>
<trkpt lat="38.23007" lon="-1.1212438">
<ele>423</ele>
<time>2013-06-02T20:39:07Z</time>
</trkpt>
<trkpt lat="38.23006" lon="-1.1212385">
<ele>423</ele>
<time>2013-06-02T20:39:08Z</time>
</trkpt>
<trkpt lat="38.230057" lon="-1.1212385">
<ele>423</ele>
<time>2013-06-02T20:39:09Z</time>
</trkpt>
<trkpt lat="38.230057" lon="-1.1212385">
<ele>423</ele>
<time>2013-06-02T20:39:10Z</time>
</trkpt>
<trkpt lat="38.230057" lon="-1.1212331">
<ele>423</ele>
<time>2013-06-02T20:39:11Z</time>
</trkpt>
<trkpt lat="38.230057" lon="-1.1212331">
<ele>423</ele>
<time>2013-06-02T20:39:12Z</time>
</trkpt>
<trkpt lat="38.230057" lon="-1.1212331">
<ele>423</ele>
<time>2013-06-02T20:39:13Z</time>
</trkpt>
<trkpt lat="38.230057" lon="-1.1212385">
<ele>422</ele>
<time>2013-06-02T20:39:14Z</time>
</trkpt>
<trkpt lat="38.230057" lon="-1.1212385">
<ele>422</ele>
<time>2013-06-02T20:39:15Z</time>
</trkpt>
<trkpt lat="38.230057" lon="-1.1212438">
<ele>422</ele>
<time>2013-06-02T20:39:16Z</time>
</trkpt>
<trkpt lat="38.230057" lon="-1.1212438">
<ele>421</ele>
<time>2013-06-02T20:39:19Z</time>
</trkpt>
<trkpt lat="38.230057" lon="-1.1212438">
<ele>421</ele>
<time>2013-06-02T20:39:20Z</time>
</trkpt>
<trkpt lat="38.230057" lon="-1.1212438">
<ele>420</ele>
<time>2013-06-02T20:39:21Z</time>
</trkpt>
<trkpt lat="38.23006" lon="-1.1212385">
<ele>420</ele>
<time>2013-06-02T20:39:22Z</time>
</trkpt>
<trkpt lat="38.23006" lon="-1.1212438">
<ele>420</ele>
<time>2013-06-02T20:39:23Z</time>
</trkpt>
<trkpt lat="38.230057" lon="-1.1212492">
<ele>419</ele>
<time>2013-06-02T20:39:24Z</time>
</trkpt>
<trkpt lat="38.230057" lon="-1.1212438">
<ele>419</ele>
<time>2013-06-02T20:39:25Z</time>
</trkpt>
<trkpt lat="38.230057" lon="-1.1212492">
<ele>419</ele>
<time>2013-06-02T20:39:26Z</time>
</trkpt>
<trkpt lat="38.230057" lon="-1.1212492">
<ele>419</ele>
<time>2013-06-02T20:39:27Z</time>
</trkpt>
<trkpt lat="38.230057" lon="-1.1212438">
<ele>419</ele>
<time>2013-06-02T20:39:28Z</time>
</trkpt>
<trkpt lat="38.230057" lon="-1.1212438">
<ele>419</ele>
<time>2013-06-02T20:39:29Z</time>
</trkpt>
<trkpt lat="38.23006" lon="-1.1212438">
<ele>418</ele>
<time>2013-06-02T20:39:32Z</time>
</trkpt>
<trkpt lat="38.23006" lon="-1.1212492">
<ele>418</ele>
<time>2013-06-02T20:39:33Z</time>
</trkpt>
<trkpt lat="38.23006" lon="-1.1212492">
<ele>418</ele>
<time>2013-06-02T20:39:34Z</time>
</trkpt>
<trkpt lat="38.23006" lon="-1.1212492">
<ele>418</ele>
<time>2013-06-02T20:39:35Z</time>
</trkpt>
<trkpt lat="38.23007" lon="-1.1212492">
<ele>417</ele>
<time>2013-06-02T20:39:36Z</time>
</trkpt>
<trkpt lat="38.23007" lon="-1.1212492">
<ele>417</ele>
<time>2013-06-02T20:39:37Z</time>
</trkpt>
<trkpt lat="38.23007" lon="-1.1212438">
<ele>417</ele>
<time>2013-06-02T20:39:38Z</time>
</trkpt>
<trkpt lat="38.23007" lon="-1.1212438">
<ele>417</ele>
<time>2013-06-02T20:39:39Z</time>
</trkpt>
<trkpt lat="38.23007" lon="-1.1212438">
<ele>417</ele>
<time>2013-06-02T20:39:40Z</time>
</trkpt>
<trkpt lat="38.23007" lon="-1.1212438">
<ele>417</ele>
<time>2013-06-02T20:39:41Z</time>
</trkpt>
<trkpt lat="38.23007" lon="-1.1212438">
<ele>417</ele>
<time>2013-06-02T20:39:42Z</time>
</trkpt>
<trkpt lat="38.23007" lon="-1.1212438">
<ele>417</ele>
<time>2013-06-02T20:39:45Z</time>
</trkpt>
<trkpt lat="38.23007" lon="-1.1212438">
<ele>417</ele>
<time>2013-06-02T20:39:46Z</time>
</trkpt>
<trkpt lat="38.23007" lon="-1.1212438">
<ele>417</ele>
<time>2013-06-02T20:39:47Z</time>
</trkpt>
<trkpt lat="38.23007" lon="-1.1212438">
<ele>417</ele>
<time>2013-06-02T20:39:48Z</time>
</trkpt>
<trkpt lat="38.23007" lon="-1.1212438">
<ele>417</ele>
<time>2013-06-02T20:39:49Z</time>
</trkpt>
<trkpt lat="38.23007" lon="-1.1212438">
<ele>417</ele>
<time>2013-06-02T20:39:50Z</time>
</trkpt>
<trkpt lat="38.23007" lon="-1.1212438">
<ele>417</ele>
<time>2013-06-02T20:39:51Z</time>
</trkpt>
<trkpt lat="38.23007" lon="-1.1212438">
<ele>417</ele>
<time>2013-06-02T20:39:52Z</time>
</trkpt>
<trkpt lat="38.23007" lon="-1.1212438">
<ele>417</ele>
<time>2013-06-02T20:39:53Z</time>
</trkpt>
<trkpt lat="38.23006" lon="-1.1212438">
<ele>417</ele>
<time>2013-06-02T20:39:54Z</time>
</trkpt>
<trkpt lat="38.23006" lon="-1.1212385">
<ele>417</ele>
<time>2013-06-02T20:39:55Z</time>
</trkpt>
<trkpt lat="38.23007" lon="-1.1212438">
<ele>417</ele>
<time>2013-06-02T20:39:58Z</time>
</trkpt>
<trkpt lat="38.23006" lon="-1.1212438">
<ele>417</ele>
<time>2013-06-02T20:39:59Z</time>
</trkpt>
<trkpt lat="38.23006" lon="-1.1212438">
<ele>417</ele>
<time>2013-06-02T20:40:00Z</time>
</trkpt>
<trkpt lat="38.23007" lon="-1.1212438">
<ele>417</ele>
<time>2013-06-02T20:40:01Z</time>
</trkpt>
<trkpt lat="38.23007" lon="-1.1212438">
<ele>417</ele>
<time>2013-06-02T20:40:02Z</time>
</trkpt>
<trkpt lat="38.23007" lon="-1.1212438">
<ele>417</ele>
<time>2013-06-02T20:40:03Z</time>
</trkpt>
<trkpt lat="38.23007" lon="-1.1212438">
<ele>417</ele>
<time>2013-06-02T20:40:04Z</time>
</trkpt>
<trkpt lat="38.23007" lon="-1.1212385">
<ele>417</ele>
<time>2013-06-02T20:40:05Z</time>
</trkpt>
<trkpt lat="38.23007" lon="-1.1212438">
<ele>417</ele>
<time>2013-06-02T20:40:06Z</time>
</trkpt>
<trkpt lat="38.23007" lon="-1.1212438">
<ele>417</ele>
<time>2013-06-02T20:40:07Z</time>
</trkpt>
<trkpt lat="38.23007" lon="-1.1212438">
<ele>417</ele>
<time>2013-06-02T20:40:08Z</time>
</trkpt>
<trkpt lat="38.23006" lon="-1.1212546">
<ele>417</ele>
<time>2013-06-02T20:40:11Z</time>
</trkpt>
<trkpt lat="38.230057" lon="-1.1212546">
<ele>417</ele>
<time>2013-06-02T20:40:12Z</time>
</trkpt>
<trkpt lat="38.230057" lon="-1.1212599">
<ele>417</ele>
<time>2013-06-02T20:40:13Z</time>
</trkpt>
<trkpt lat="38.230045" lon="-1.1212653">
<ele>416</ele>
<time>2013-06-02T20:40:14Z</time>
</trkpt>
<trkpt lat="38.230045" lon="-1.1212653">
<ele>416</ele>
<time>2013-06-02T20:40:15Z</time>
</trkpt>
<trkpt lat="38.230045" lon="-1.1212653">
<ele>416</ele>
<time>2013-06-02T20:40:16Z</time>
</trkpt>
<trkpt lat="38.23004" lon="-1.1212653">
<ele>415</ele>
<time>2013-06-02T20:40:17Z</time>
</trkpt>
<trkpt lat="38.23004" lon="-1.1212707">
<ele>415</ele>
<time>2013-06-02T20:40:18Z</time>
</trkpt>
<trkpt lat="38.23004" lon="-1.121276">
<ele>415</ele>
<time>2013-06-02T20:40:19Z</time>
</trkpt>
<trkpt lat="38.23004" lon="-1.121276">
<ele>415</ele>
<time>2013-06-02T20:40:20Z</time>
</trkpt>
<trkpt lat="38.23004" lon="-1.1212814">
<ele>415</ele>
<time>2013-06-02T20:40:21Z</time>
</trkpt>
<trkpt lat="38.23004" lon="-1.1212921">
<ele>414</ele>
<time>2013-06-02T20:40:24Z</time>
</trkpt>
<trkpt lat="38.23004" lon="-1.1212921">
<ele>413</ele>
<time>2013-06-02T20:40:25Z</time>
</trkpt>
<trkpt lat="38.23004" lon="-1.1212975">
<ele>413</ele>
<time>2013-06-02T20:40:26Z</time>
</trkpt>
<trkpt lat="38.230045" lon="-1.1213082">
<ele>412</ele>
<time>2013-06-02T20:40:27Z</time>
</trkpt>
<trkpt lat="38.23004" lon="-1.1213082">
<ele>412</ele>
<time>2013-06-02T20:40:28Z</time>
</trkpt>
<trkpt lat="38.23004" lon="-1.1213082">
<ele>411</ele>
<time>2013-06-02T20:40:29Z</time>
</trkpt>
<trkpt lat="38.23004" lon="-1.1213028">
<ele>411</ele>
<time>2013-06-02T20:40:30Z</time>
</trkpt>
<trkpt lat="38.23004" lon="-1.1213082">
<ele>411</ele>
<time>2013-06-02T20:40:31Z</time>
</trkpt>
<trkpt lat="38.23004" lon="-1.1213082">
<ele>411</ele>
<time>2013-06-02T20:40:32Z</time>
</trkpt>
<trkpt lat="38.23004" lon="-1.1213082">
<ele>411</ele>
<time>2013-06-02T20:40:33Z</time>
</trkpt>
<trkpt lat="38.23004" lon="-1.1213082">
<ele>411</ele>
<time>2013-06-02T20:40:34Z</time>
</trkpt>
<trkpt lat="38.230045" lon="-1.1213082">
<ele>411</ele>
<time>2013-06-02T20:40:37Z</time>
</trkpt>
<trkpt lat="38.230045" lon="-1.1213082">
<ele>411</ele>
<time>2013-06-02T20:40:38Z</time>
</trkpt>
<trkpt lat="38.230045" lon="-1.1213082">
<ele>411</ele>
<time>2013-06-02T20:40:39Z</time>
</trkpt>
<trkpt lat="38.230045" lon="-1.1213082">
<ele>411</ele>
<time>2013-06-02T20:40:40Z</time>
</trkpt>
<trkpt lat="38.230045" lon="-1.1213082">
<ele>411</ele>
<time>2013-06-02T20:40:41Z</time>
</trkpt>
<trkpt lat="38.230045" lon="-1.1213082">
<ele>411</ele>
<time>2013-06-02T20:40:42Z</time>
</trkpt>
<trkpt lat="38.230045" lon="-1.1213082">
<ele>411</ele>
<time>2013-06-02T20:40:43Z</time>
</trkpt>
<trkpt lat="38.230045" lon="-1.1213082">
<ele>411</ele>
<time>2013-06-02T20:40:44Z</time>
</trkpt>
<trkpt lat="38.230045" lon="-1.1213082">
<ele>411</ele>
<time>2013-06-02T20:40:45Z</time>
</trkpt>
<trkpt lat="38.230045" lon="-1.1213082">
<ele>411</ele>
<time>2013-06-02T20:40:46Z</time>
</trkpt>
<trkpt lat="38.230045" lon="-1.1213082">
<ele>411</ele>
<time>2013-06-02T20:40:47Z</time>
</trkpt>
<trkpt lat="38.230045" lon="-1.1213082">
<ele>411</ele>
<time>2013-06-02T20:40:50Z</time>
</trkpt>
<trkpt lat="38.230045" lon="-1.1213082">
<ele>411</ele>
<time>2013-06-02T20:40:51Z</time>
</trkpt>
<trkpt lat="38.230045" lon="-1.1213082">
<ele>411</ele>
<time>2013-06-02T20:40:52Z</time>
</trkpt>
<trkpt lat="38.230045" lon="-1.1213082">
<ele>411</ele>
<time>2013-06-02T20:40:53Z</time>
</trkpt>
<trkpt lat="38.230045" lon="-1.1213082">
<ele>411</ele>
<time>2013-06-02T20:40:54Z</time>
</trkpt>
<trkpt lat="38.230045" lon="-1.1213082">
<ele>411</ele>
<time>2013-06-02T20:40:55Z</time>
</trkpt>
<trkpt lat="38.230045" lon="-1.1213082">
<ele>411</ele>
<time>2013-06-02T20:40:56Z</time>
</trkpt>
<trkpt lat="38.230045" lon="-1.1213082">
<ele>411</ele>
<time>2013-06-02T20:40:57Z</time>
</trkpt>
<trkpt lat="38.230045" lon="-1.1213082">
<ele>411</ele>
<time>2013-06-02T20:40:58Z</time>
</trkpt>
<trkpt lat="38.230045" lon="-1.1213082">
<ele>411</ele>
<time>2013-06-02T20:40:59Z</time>
</trkpt>
<trkpt lat="38.230045" lon="-1.1213082">
<ele>411</ele>
<time>2013-06-02T20:41:00Z</time>
</trkpt>
<trkpt lat="38.23004" lon="-1.1213082">
<ele>411</ele>
<time>2013-06-02T20:41:03Z</time>
</trkpt>
<trkpt lat="38.23004" lon="-1.1213082">
<ele>411</ele>
<time>2013-06-02T20:41:04Z</time>
</trkpt>
<trkpt lat="38.230045" lon="-1.1212975">
<ele>411</ele>
<time>2013-06-02T20:41:05Z</time>
</trkpt>
<trkpt lat="38.230045" lon="-1.1212975">
<ele>411</ele>
<time>2013-06-02T20:41:06Z</time>
</trkpt>
<trkpt lat="38.230045" lon="-1.1212975">
<ele>411</ele>
<time>2013-06-02T20:41:07Z</time>
</trkpt>
<trkpt lat="38.230045" lon="-1.1212975">
<ele>411</ele>
<time>2013-06-02T20:41:08Z</time>
</trkpt>
<trkpt lat="38.230045" lon="-1.1212975">
<ele>411</ele>
<time>2013-06-02T20:41:09Z</time>
</trkpt>
<trkpt lat="38.230045" lon="-1.1212975">
<ele>411</ele>
<time>2013-06-02T20:41:10Z</time>
</trkpt>
<trkpt lat="38.230045" lon="-1.1212975">
<ele>411</ele>
<time>2013-06-02T20:41:11Z</time>
</trkpt>
<trkpt lat="38.230045" lon="-1.1212975">
<ele>411</ele>
<time>2013-06-02T20:41:12Z</time>
</trkpt>
<trkpt lat="38.230045" lon="-1.1212975">
<ele>410</ele>
<time>2013-06-02T20:41:13Z</time>
</trkpt>
<trkpt lat="38.230045" lon="-1.1213028">
<ele>411</ele>
<time>2013-06-02T20:41:16Z</time>
</trkpt>
<trkpt lat="38.230045" lon="-1.1213028">
<ele>411</ele>
<time>2013-06-02T20:41:17Z</time>
</trkpt>
<trkpt lat="38.23004" lon="-1.1213028">
<ele>411</ele>
<time>2013-06-02T20:41:18Z</time>
</trkpt>
<trkpt lat="38.230034" lon="-1.1213028">
<ele>412</ele>
<time>2013-06-02T20:41:19Z</time>
</trkpt>
<trkpt lat="38.230045" lon="-1.1213028">
<ele>412</ele>
<time>2013-06-02T20:41:20Z</time>
</trkpt>
<trkpt lat="38.230057" lon="-1.1213082">
<ele>412</ele>
<time>2013-06-02T20:41:21Z</time>
</trkpt>
<trkpt lat="38.230076" lon="-1.1213189">
<ele>412</ele>
<time>2013-06-02T20:41:22Z</time>
</trkpt>
<trkpt lat="38.230083" lon="-1.1213136">
<ele>412</ele>
<time>2013-06-02T20:41:23Z</time>
</trkpt>
<trkpt lat="38.230095" lon="-1.1213189">
<ele>413</ele>
<time>2013-06-02T20:41:24Z</time>
</trkpt>
<trkpt lat="38.230103" lon="-1.1213189">
<ele>413</ele>
<time>2013-06-02T20:41:25Z</time>
</trkpt>
<trkpt lat="38.230114" lon="-1.1213243">
<ele>414</ele>
<time>2013-06-02T20:41:26Z</time>
</trkpt>
<trkpt lat="38.23015" lon="-1.1213404">
<ele>413</ele>
<time>2013-06-02T20:41:29Z</time>
</trkpt>
<trkpt lat="38.23016" lon="-1.1213458">
<ele>414</ele>
<time>2013-06-02T20:41:30Z</time>
</trkpt>
<trkpt lat="38.230167" lon="-1.1213458">
<ele>414</ele>
<time>2013-06-02T20:41:31Z</time>
</trkpt>
<trkpt lat="38.23018" lon="-1.1213458">
<ele>414</ele>
<time>2013-06-02T20:41:32Z</time>
</trkpt>
<trkpt lat="38.230186" lon="-1.1213458">
<ele>414</ele>
<time>2013-06-02T20:41:33Z</time>
</trkpt>
<trkpt lat="38.2302" lon="-1.1213511">
<ele>414</ele>
<time>2013-06-02T20:41:34Z</time>
</trkpt>
<trkpt lat="38.230213" lon="-1.1213511">
<ele>414</ele>
<time>2013-06-02T20:41:35Z</time>
</trkpt>
<trkpt lat="38.23022" lon="-1.1213511">
<ele>415</ele>
<time>2013-06-02T20:41:36Z</time>
</trkpt>
<trkpt lat="38.230232" lon="-1.1213511">
<ele>415</ele>
<time>2013-06-02T20:41:37Z</time>
</trkpt>
<trkpt lat="38.230247" lon="-1.1213511">
<ele>416</ele>
<time>2013-06-02T20:41:38Z</time>
</trkpt>
<trkpt lat="38.230255" lon="-1.1213565">
<ele>416</ele>
<time>2013-06-02T20:41:39Z</time>
</trkpt>
<trkpt lat="38.230267" lon="-1.1213565">
<ele>415</ele>
<time>2013-06-02T20:41:42Z</time>
</trkpt>
<trkpt lat="38.230267" lon="-1.1213565">
<ele>415</ele>
<time>2013-06-02T20:41:43Z</time>
</trkpt>
<trkpt lat="38.23027" lon="-1.1213565">
<ele>415</ele>
<time>2013-06-02T20:41:44Z</time>
</trkpt>
<trkpt lat="38.230278" lon="-1.1213511">
<ele>415</ele>
<time>2013-06-02T20:41:45Z</time>
</trkpt>
<trkpt lat="38.23028" lon="-1.1213404">
<ele>415</ele>
<time>2013-06-02T20:41:46Z</time>
</trkpt>
<trkpt lat="38.230286" lon="-1.1213297">
<ele>415</ele>
<time>2013-06-02T20:41:47Z</time>
</trkpt>
<trkpt lat="38.230286" lon="-1.1213243">
<ele>415</ele>
<time>2013-06-02T20:41:48Z</time>
</trkpt>
<trkpt lat="38.230286" lon="-1.1213189">
<ele>415</ele>
<time>2013-06-02T20:41:49Z</time>
</trkpt>
<trkpt lat="38.23028" lon="-1.1213136">
<ele>415</ele>
<time>2013-06-02T20:41:50Z</time>
</trkpt>
<trkpt lat="38.23028" lon="-1.1213136">
<ele>415</ele>
<time>2013-06-02T20:41:51Z</time>
</trkpt>
<trkpt lat="38.23028" lon="-1.1213136">
<ele>415</ele>
<time>2013-06-02T20:41:52Z</time>
</trkpt>
<trkpt lat="38.23028" lon="-1.1213136">
<ele>415</ele>
<time>2013-06-02T20:41:55Z</time>
</trkpt>
<trkpt lat="38.23028" lon="-1.1213136">
<ele>415</ele>
<time>2013-06-02T20:41:56Z</time>
</trkpt>
<trkpt lat="38.23028" lon="-1.1213136">
<ele>415</ele>
<time>2013-06-02T20:41:57Z</time>
</trkpt>
<trkpt lat="38.23028" lon="-1.1213136">
<ele>415</ele>
<time>2013-06-02T20:41:58Z</time>
</trkpt>
<trkpt lat="38.23028" lon="-1.1213136">
<ele>415</ele>
<time>2013-06-02T20:41:59Z</time>
</trkpt>
<trkpt lat="38.23028" lon="-1.1213136">
<ele>415</ele>
<time>2013-06-02T20:42:00Z</time>
</trkpt>
<trkpt lat="38.23028" lon="-1.1213136">
<ele>415</ele>
<time>2013-06-02T20:42:01Z</time>
</trkpt>
<trkpt lat="38.23028" lon="-1.1213136">
<ele>415</ele>
<time>2013-06-02T20:42:02Z</time>
</trkpt>
<trkpt lat="38.23028" lon="-1.1213136">
<ele>415</ele>
<time>2013-06-02T20:42:03Z</time>
</trkpt>
<trkpt lat="38.23028" lon="-1.1213136">
<ele>415</ele>
<time>2013-06-02T20:42:04Z</time>
</trkpt>
<trkpt lat="38.230286" lon="-1.1213028">
<ele>415</ele>
<time>2013-06-02T20:42:05Z</time>
</trkpt>
<trkpt lat="38.23028" lon="-1.1213082">
<ele>415</ele>
<time>2013-06-02T20:42:08Z</time>
</trkpt>
<trkpt lat="38.23028" lon="-1.1213082">
<ele>415</ele>
<time>2013-06-02T20:42:09Z</time>
</trkpt>
<trkpt lat="38.23028" lon="-1.1213082">
<ele>415</ele>
<time>2013-06-02T20:42:10Z</time>
</trkpt>
<trkpt lat="38.23028" lon="-1.1213082">
<ele>414</ele>
<time>2013-06-02T20:42:11Z</time>
</trkpt>
<trkpt lat="38.230286" lon="-1.1213082">
<ele>414</ele>
<time>2013-06-02T20:42:12Z</time>
</trkpt>
<trkpt lat="38.230286" lon="-1.1213082">
<ele>414</ele>
<time>2013-06-02T20:42:13Z</time>
</trkpt>
<trkpt lat="38.230286" lon="-1.1213082">
<ele>414</ele>
<time>2013-06-02T20:42:14Z</time>
</trkpt>
<trkpt lat="38.230286" lon="-1.1213082">
<ele>414</ele>
<time>2013-06-02T20:42:15Z</time>
</trkpt>
<trkpt lat="38.230286" lon="-1.1213082">
<ele>414</ele>
<time>2013-06-02T20:42:16Z</time>
</trkpt>
<trkpt lat="38.230286" lon="-1.1213082">
<ele>414</ele>
<time>2013-06-02T20:42:17Z</time>
</trkpt>
<trkpt lat="38.230286" lon="-1.1213082">
<ele>414</ele>
<time>2013-06-02T20:42:18Z</time>
</trkpt>
<trkpt lat="38.230286" lon="-1.1213082">
<ele>414</ele>
<time>2013-06-02T20:42:21Z</time>
</trkpt>
<trkpt lat="38.230286" lon="-1.1213082">
<ele>414</ele>
<time>2013-06-02T20:42:22Z</time>
</trkpt>
<trkpt lat="38.230286" lon="-1.1213082">
<ele>414</ele>
<time>2013-06-02T20:42:23Z</time>
</trkpt>
<trkpt lat="38.230286" lon="-1.1213082">
<ele>414</ele>
<time>2013-06-02T20:42:24Z</time>
</trkpt>
<trkpt lat="38.230286" lon="-1.1213082">
<ele>414</ele>
<time>2013-06-02T20:42:25Z</time>
</trkpt>
<trkpt lat="38.230286" lon="-1.1213082">
<ele>414</ele>
<time>2013-06-02T20:42:26Z</time>
</trkpt>
<trkpt lat="38.23028" lon="-1.1213082">
<ele>414</ele>
<time>2013-06-02T20:42:27Z</time>
</trkpt>
<trkpt lat="38.23028" lon="-1.1213028">
<ele>414</ele>
<time>2013-06-02T20:42:28Z</time>
</trkpt>
<trkpt lat="38.23028" lon="-1.1213028">
<ele>414</ele>
<time>2013-06-02T20:42:29Z</time>
</trkpt>
<trkpt lat="38.23028" lon="-1.1213028">
<ele>414</ele>
<time>2013-06-02T20:42:30Z</time>
</trkpt>
<trkpt lat="38.23028" lon="-1.1213028">
<ele>414</ele>
<time>2013-06-02T20:42:31Z</time>
</trkpt>
<trkpt lat="38.23028" lon="-1.1213028">
<ele>414</ele>
<time>2013-06-02T20:42:34Z</time>
</trkpt>
<trkpt lat="38.23028" lon="-1.1213028">
<ele>414</ele>
<time>2013-06-02T20:42:35Z</time>
</trkpt>
<trkpt lat="38.23028" lon="-1.1213028">
<ele>414</ele>
<time>2013-06-02T20:42:36Z</time>
</trkpt>
<trkpt lat="38.23028" lon="-1.1213028">
<ele>414</ele>
<time>2013-06-02T20:42:37Z</time>
</trkpt>
<trkpt lat="38.23028" lon="-1.1213028">
<ele>414</ele>
<time>2013-06-02T20:42:38Z</time>
</trkpt>
<trkpt lat="38.23028" lon="-1.1213028">
<ele>414</ele>
<time>2013-06-02T20:42:39Z</time>
</trkpt>
<trkpt lat="38.23028" lon="-1.1213028">
<ele>414</ele>
<time>2013-06-02T20:42:40Z</time>
</trkpt>
<trkpt lat="38.23028" lon="-1.1213082">
<ele>414</ele>
<time>2013-06-02T20:42:41Z</time>
</trkpt>
<trkpt lat="38.23028" lon="-1.1213028">
<ele>414</ele>
<time>2013-06-02T20:42:42Z</time>
</trkpt>
<trkpt lat="38.23028" lon="-1.1213028">
<ele>414</ele>
<time>2013-06-02T20:42:43Z</time>
</trkpt>
<trkpt lat="38.23028" lon="-1.1213028">
<ele>414</ele>
<time>2013-06-02T20:42:44Z</time>
</trkpt>
<trkpt lat="38.23028" lon="-1.1213028">
<ele>414</ele>
<time>2013-06-02T20:42:47Z</time>
</trkpt>
<trkpt lat="38.23028" lon="-1.1213028">
<ele>414</ele>
<time>2013-06-02T20:42:48Z</time>
</trkpt>
<trkpt lat="38.23028" lon="-1.1213028">
<ele>414</ele>
<time>2013-06-02T20:42:49Z</time>
</trkpt>
<trkpt lat="38.23028" lon="-1.1213028">
<ele>414</ele>
<time>2013-06-02T20:42:50Z</time>
</trkpt>
<trkpt lat="38.23028" lon="-1.1213028">
<ele>414</ele>
<time>2013-06-02T20:42:51Z</time>
</trkpt>
<trkpt lat="38.23028" lon="-1.1213028">
<ele>414</ele>
<time>2013-06-02T20:42:52Z</time>
</trkpt>
<trkpt lat="38.23028" lon="-1.1213028">
<ele>414</ele>
<time>2013-06-02T20:42:53Z</time>
</trkpt>
<trkpt lat="38.23028" lon="-1.1213028">
<ele>414</ele>
<time>2013-06-02T20:42:54Z</time>
</trkpt>
<trkpt lat="38.23028" lon="-1.1213028">
<ele>414</ele>
<time>2013-06-02T20:42:55Z</time>
</trkpt>
<trkpt lat="38.23028" lon="-1.1213028">
<ele>414</ele>
<time>2013-06-02T20:42:56Z</time>
</trkpt>
<trkpt lat="38.23028" lon="-1.1213028">
<ele>414</ele>
<time>2013-06-02T20:42:57Z</time>
</trkpt>
<trkpt lat="38.23028" lon="-1.1213028">
<ele>414</ele>
<time>2013-06-02T20:43:00Z</time>
</trkpt>
<trkpt lat="38.23028" lon="-1.1213028">
<ele>414</ele>
<time>2013-06-02T20:43:01Z</time>
</trkpt>
<trkpt lat="38.23028" lon="-1.1213028">
<ele>414</ele>
<time>2013-06-02T20:43:02Z</time>
</trkpt>
<trkpt lat="38.23028" lon="-1.1213028">
<ele>414</ele>
<time>2013-06-02T20:43:03Z</time>
</trkpt>
<trkpt lat="38.23028" lon="-1.1213028">
<ele>414</ele>
<time>2013-06-02T20:43:04Z</time>
</trkpt>
<trkpt lat="38.23028" lon="-1.1213028">
<ele>414</ele>
<time>2013-06-02T20:43:05Z</time>
</trkpt>
<trkpt lat="38.23028" lon="-1.1213028">
<ele>414</ele>
<time>2013-06-02T20:43:06Z</time>
</trkpt>
<trkpt lat="38.23028" lon="-1.1213028">
<ele>414</ele>
<time>2013-06-02T20:43:07Z</time>
</trkpt>
<trkpt lat="38.23028" lon="-1.1213028">
<ele>414</ele>
<time>2013-06-02T20:43:08Z</time>
</trkpt>
<trkpt lat="38.23028" lon="-1.1213028">
<ele>414</ele>
<time>2013-06-02T20:43:09Z</time>
</trkpt>
<trkpt lat="38.23028" lon="-1.1213028">
<ele>414</ele>
<time>2013-06-02T20:43:10Z</time>
</trkpt>
<trkpt lat="38.23028" lon="-1.1213028">
<ele>414</ele>
<time>2013-06-02T20:43:13Z</time>
</trkpt>
<trkpt lat="38.23028" lon="-1.1213028">
<ele>414</ele>
<time>2013-06-02T20:43:14Z</time>
</trkpt>
<trkpt lat="38.23028" lon="-1.1213028">
<ele>414</ele>
<time>2013-06-02T20:43:15Z</time>
</trkpt>
<trkpt lat="38.23028" lon="-1.1213028">
<ele>414</ele>
<time>2013-06-02T20:43:16Z</time>
</trkpt>
<trkpt lat="38.23028" lon="-1.1213028">
<ele>414</ele>
<time>2013-06-02T20:43:17Z</time>
</trkpt>
<trkpt lat="38.23028" lon="-1.1213028">
<ele>414</ele>
<time>2013-06-02T20:43:18Z</time>
</trkpt>
<trkpt lat="38.23028" lon="-1.1213028">
<ele>414</ele>
<time>2013-06-02T20:43:19Z</time>
</trkpt>
<trkpt lat="38.23028" lon="-1.1213028">
<ele>414</ele>
<time>2013-06-02T20:43:20Z</time>
</trkpt>
<trkpt lat="38.23028" lon="-1.1213028">
<ele>414</ele>
<time>2013-06-02T20:43:21Z</time>
</trkpt>
<trkpt lat="38.23028" lon="-1.1213028">
<ele>414</ele>
<time>2013-06-02T20:43:22Z</time>
</trkpt>
<trkpt lat="38.23028" lon="-1.1213028">
<ele>414</ele>
<time>2013-06-02T20:43:23Z</time>
</trkpt>
<trkpt lat="38.23028" lon="-1.1213028">
<ele>414</ele>
<time>2013-06-02T20:43:26Z</time>
</trkpt>
<trkpt lat="38.23028" lon="-1.1213028">
<ele>414</ele>
<time>2013-06-02T20:43:27Z</time>
</trkpt>
<trkpt lat="38.23028" lon="-1.1213028">
<ele>414</ele>
<time>2013-06-02T20:43:28Z</time>
</trkpt>
<trkpt lat="38.23028" lon="-1.1213028">
<ele>414</ele>
<time>2013-06-02T20:43:29Z</time>
</trkpt>
<trkpt lat="38.23028" lon="-1.1213028">
<ele>415</ele>
<time>2013-06-02T20:43:30Z</time>
</trkpt>
<trkpt lat="38.230278" lon="-1.1213082">
<ele>415</ele>
<time>2013-06-02T20:43:31Z</time>
</trkpt>
<trkpt lat="38.230278" lon="-1.1213082">
<ele>414</ele>
<time>2013-06-02T20:43:32Z</time>
</trkpt>
<trkpt lat="38.230278" lon="-1.1213082">
<ele>414</ele>
<time>2013-06-02T20:43:33Z</time>
</trkpt>
<trkpt lat="38.230278" lon="-1.1213136">
<ele>414</ele>
<time>2013-06-02T20:43:34Z</time>
</trkpt>
<trkpt lat="38.230278" lon="-1.1213136">
<ele>414</ele>
<time>2013-06-02T20:43:35Z</time>
</trkpt>
<trkpt lat="38.230278" lon="-1.1213136">
<ele>415</ele>
<time>2013-06-02T20:43:36Z</time>
</trkpt>
<trkpt lat="38.230278" lon="-1.1213136">
<ele>415</ele>
<time>2013-06-02T20:43:39Z</time>
</trkpt>
<trkpt lat="38.230278" lon="-1.1213136">
<ele>415</ele>
<time>2013-06-02T20:43:40Z</time>
</trkpt>
<trkpt lat="38.230278" lon="-1.1213136">
<ele>415</ele>
<time>2013-06-02T20:43:41Z</time>
</trkpt>
<trkpt lat="38.230278" lon="-1.1213136">
<ele>415</ele>
<time>2013-06-02T20:43:42Z</time>
</trkpt>
<trkpt lat="38.230278" lon="-1.1213136">
<ele>415</ele>
<time>2013-06-02T20:43:43Z</time>
</trkpt>
<trkpt lat="38.230278" lon="-1.1213136">
<ele>415</ele>
<time>2013-06-02T20:43:44Z</time>
</trkpt>
<trkpt lat="38.230278" lon="-1.1213136">
<ele>415</ele>
<time>2013-06-02T20:43:45Z</time>
</trkpt>
<trkpt lat="38.230278" lon="-1.1213136">
<ele>415</ele>
<time>2013-06-02T20:43:46Z</time>
</trkpt>
<trkpt lat="38.230278" lon="-1.1213136">
<ele>415</ele>
<time>2013-06-02T20:43:47Z</time>
</trkpt>
<trkpt lat="38.230278" lon="-1.1213136">
<ele>415</ele>
<time>2013-06-02T20:43:48Z</time>
</trkpt>
<trkpt lat="38.230278" lon="-1.1213136">
<ele>415</ele>
<time>2013-06-02T20:43:49Z</time>
</trkpt>
<trkpt lat="38.230278" lon="-1.1213136">
<ele>415</ele>
<time>2013-06-02T20:43:52Z</time>
</trkpt>
<trkpt lat="38.230278" lon="-1.1213136">
<ele>415</ele>
<time>2013-06-02T20:43:53Z</time>
</trkpt>
<trkpt lat="38.230278" lon="-1.1213136">
<ele>415</ele>
<time>2013-06-02T20:43:54Z</time>
</trkpt>
<trkpt lat="38.230278" lon="-1.1213136">
<ele>415</ele>
<time>2013-06-02T20:43:55Z</time>
</trkpt>
<trkpt lat="38.230278" lon="-1.1213136">
<ele>415</ele>
<time>2013-06-02T20:43:56Z</time>
</trkpt>
<trkpt lat="38.230278" lon="-1.1213136">
<ele>415</ele>
<time>2013-06-02T20:43:57Z</time>
</trkpt>
<trkpt lat="38.230278" lon="-1.1213136">
<ele>415</ele>
<time>2013-06-02T20:43:58Z</time>
</trkpt>
<trkpt lat="38.230278" lon="-1.1213136">
<ele>415</ele>
<time>2013-06-02T20:43:59Z</time>
</trkpt>
<trkpt lat="38.230278" lon="-1.1213136">
<ele>415</ele>
<time>2013-06-02T20:44:00Z</time>
</trkpt>
<trkpt lat="38.230278" lon="-1.1213136">
<ele>415</ele>
<time>2013-06-02T20:44:01Z</time>
</trkpt>
<trkpt lat="38.230278" lon="-1.1213136">
<ele>415</ele>
<time>2013-06-02T20:44:02Z</time>
</trkpt>
<trkpt lat="38.230278" lon="-1.1213136">
<ele>415</ele>
<time>2013-06-02T20:44:05Z</time>
</trkpt>
<trkpt lat="38.230278" lon="-1.1213136">
<ele>415</ele>
<time>2013-06-02T20:44:06Z</time>
</trkpt>
<trkpt lat="38.230278" lon="-1.1213136">
<ele>415</ele>
<time>2013-06-02T20:44:07Z</time>
</trkpt>
<trkpt lat="38.230278" lon="-1.1213136">
<ele>415</ele>
<time>2013-06-02T20:44:08Z</time>
</trkpt>
<trkpt lat="38.230278" lon="-1.1213136">
<ele>415</ele>
<time>2013-06-02T20:44:09Z</time>
</trkpt>
<trkpt lat="38.230278" lon="-1.1213136">
<ele>415</ele>
<time>2013-06-02T20:44:10Z</time>
</trkpt>
<trkpt lat="38.230278" lon="-1.1213136">
<ele>415</ele>
<time>2013-06-02T20:44:11Z</time>
</trkpt>
<trkpt lat="38.230278" lon="-1.1213136">
<ele>415</ele>
<time>2013-06-02T20:44:12Z</time>
</trkpt>
<trkpt lat="38.230278" lon="-1.1213136">
<ele>415</ele>
<time>2013-06-02T20:44:13Z</time>
</trkpt>
<trkpt lat="38.230278" lon="-1.1213136">
<ele>415</ele>
<time>2013-06-02T20:44:14Z</time>
</trkpt>
<trkpt lat="38.230278" lon="-1.1213136">
<ele>415</ele>
<time>2013-06-02T20:44:15Z</time>
</trkpt>
<trkpt lat="38.230278" lon="-1.1213136">
<ele>415</ele>
<time>2013-06-02T20:44:18Z</time>
</trkpt>
<trkpt lat="38.230278" lon="-1.1213136">
<ele>415</ele>
<time>2013-06-02T20:44:19Z</time>
</trkpt>
<trkpt lat="38.230278" lon="-1.1213136">
<ele>415</ele>
<time>2013-06-02T20:44:20Z</time>
</trkpt>
<trkpt lat="38.230278" lon="-1.1213136">
<ele>415</ele>
<time>2013-06-02T20:44:21Z</time>
</trkpt>
<trkpt lat="38.230278" lon="-1.1213136">
<ele>415</ele>
<time>2013-06-02T20:44:22Z</time>
</trkpt>
<trkpt lat="38.230278" lon="-1.1213136">
<ele>415</ele>
<time>2013-06-02T20:44:23Z</time>
</trkpt>
<trkpt lat="38.230278" lon="-1.1213136">
<ele>415</ele>
<time>2013-06-02T20:44:24Z</time>
</trkpt>
<trkpt lat="38.230278" lon="-1.1213136">
<ele>415</ele>
<time>2013-06-02T20:44:25Z</time>
</trkpt>
<trkpt lat="38.230278" lon="-1.1213136">
<ele>415</ele>
<time>2013-06-02T20:44:26Z</time>
</trkpt>
<trkpt lat="38.230278" lon="-1.1213136">
<ele>415</ele>
<time>2013-06-02T20:44:27Z</time>
</trkpt>
<trkpt lat="38.230278" lon="-1.1213136">
<ele>415</ele>
<time>2013-06-02T20:44:28Z</time>
</trkpt>
<trkpt lat="38.230278" lon="-1.1213136">
<ele>415</ele>
<time>2013-06-02T20:44:31Z</time>
</trkpt>
<trkpt lat="38.230278" lon="-1.1213136">
<ele>415</ele>
<time>2013-06-02T20:44:32Z</time>
</trkpt>
<trkpt lat="38.230278" lon="-1.1213136">
<ele>415</ele>
<time>2013-06-02T20:44:33Z</time>
</trkpt>
<trkpt lat="38.230278" lon="-1.1213136">
<ele>415</ele>
<time>2013-06-02T20:44:34Z</time>
</trkpt>
<trkpt lat="38.230278" lon="-1.1213136">
<ele>415</ele>
<time>2013-06-02T20:44:35Z</time>
</trkpt>
<trkpt lat="38.230278" lon="-1.1213136">
<ele>415</ele>
<time>2013-06-02T20:44:36Z</time>
</trkpt>
<trkpt lat="38.230278" lon="-1.1213136">
<ele>415</ele>
<time>2013-06-02T20:44:37Z</time>
</trkpt>
<trkpt lat="38.230278" lon="-1.1213136">
<ele>415</ele>
<time>2013-06-02T20:44:38Z</time>
</trkpt>
<trkpt lat="38.230278" lon="-1.1213136">
<ele>415</ele>
<time>2013-06-02T20:44:39Z</time>
</trkpt>
<trkpt lat="38.230278" lon="-1.1213136">
<ele>415</ele>
<time>2013-06-02T20:44:40Z</time>
</trkpt>
<trkpt lat="" lon="">
<ele></ele>
<time>2013-06-02TZ</time>
</trkpt>
</trkseg>
</trk>
</gpx>
